<?xml version='1.0' encoding='UTF-8'?><gpx version="1.1" creator="JPX - https://github.com/jenetics/jpx" xmlns="http://www.topografix.com/GPX/1/1"><trk><trkseg><trkpt lat="43.195329479410056" lon="6.046286502391295"><ele>78.0</ele><time>2026-04-22T08:28:04.015Z</time></trkpt><trkpt lat="43.19529022449142" lon="6.046377229018567"><ele>78.0</ele><time>2026-04-22T08:28:36.001Z</time></trkpt><trkpt lat="43.195194654146995" lon="6.046369612170124"><ele>78.0</ele><time>2026-04-22T08:28:38.001Z</time></trkpt><trkpt lat="43.19508280190447" lon="6.046279800096177"><ele>78.0</ele><time>2026-04-22T08:28:40.001Z</time></trkpt><trkpt lat="43.19505654586165" lon="6.046192234531176"><ele>78.0</ele><time>2026-04-22T08:28:41.001Z</time></trkpt><trkpt lat="43.19499550924566" lon="6.0461523510786925"><ele>78.0</ele><time>2026-04-22T08:28:42.001Z</time></trkpt><trkpt lat="43.19490329481012" lon="6.046120354544421"><ele>77.8</ele><time>2026-04-22T08:28:43.001Z</time></trkpt><trkpt lat="43.194789649012904" lon="6.046066399174037"><ele>77.6</ele><time>2026-04-22T08:28:45.001Z</time></trkpt><trkpt lat="43.19468944005453" lon="6.045995025217234"><ele>77.4</ele><time>2026-04-22T08:28:47Z</time></trkpt><trkpt lat="43.194611724568546" lon="6.045941419033275"><ele>77.2</ele><time>2026-04-22T08:28:49Z</time></trkpt><trkpt lat="43.194616394635766" lon="6.045830037107219"><ele>77.0</ele><time>2026-04-22T08:28:53Z</time></trkpt><trkpt lat="43.19464942342024" lon="6.045745271635076"><ele>77.4</ele><time>2026-04-22T08:28:54Z</time></trkpt><trkpt lat="43.19470248857941" lon="6.045609084554843"><ele>77.80000000000001</ele><time>2026-04-22T08:28:56Z</time></trkpt><trkpt lat="43.194732976252745" lon="6.045530840619372"><ele>78.2</ele><time>2026-04-22T08:28:58Z</time></trkpt><trkpt lat="43.19476307170574" lon="6.045453603263081"><ele>78.60000000000001</ele><time>2026-04-22T08:29:00Z</time></trkpt><trkpt lat="43.194651134280946" lon="6.045326324552655"><ele>79.0</ele><time>2026-04-22T08:29:02Z</time></trkpt><trkpt lat="43.19458159974332" lon="6.045287174628227"><ele>79.0</ele><time>2026-04-22T08:29:03Z</time></trkpt><trkpt lat="43.19451194474656" lon="6.045221910934477"><ele>79.0</ele><time>2026-04-22T08:29:04Z</time></trkpt><trkpt lat="43.194421150177405" lon="6.045203261550879"><ele>79.0</ele><time>2026-04-22T08:29:05Z</time></trkpt><trkpt lat="43.194482063825326" lon="6.045225778200057"><ele>79.0</ele><time>2026-04-22T08:29:07Z</time></trkpt><trkpt lat="43.19442522197655" lon="6.045181749075743"><ele>79.0</ele><time>2026-04-22T08:29:12.999Z</time></trkpt><trkpt lat="43.1943012837588" lon="6.04523465115717"><ele>79.0</ele><time>2026-04-22T08:29:14.999Z</time></trkpt><trkpt lat="43.19426134848716" lon="6.045322313182997"><ele>79.0</ele><time>2026-04-22T08:29:15.999Z</time></trkpt><trkpt lat="43.19421248663727" lon="6.045438893224106"><ele>79.0</ele><time>2026-04-22T08:29:16.999Z</time></trkpt><trkpt lat="43.19416112321519" lon="6.045551436855661"><ele>79.0</ele><time>2026-04-22T08:29:17.999Z</time></trkpt><trkpt lat="43.19411416909825" lon="6.045709737105834"><ele>79.0</ele><time>2026-04-22T08:29:19.999Z</time></trkpt><trkpt lat="43.19406374141853" lon="6.0458720475519785"><ele>79.0</ele><time>2026-04-22T08:29:21.999Z</time></trkpt><trkpt lat="43.194036073078586" lon="6.04599268054235"><ele>78.83333333333333</ele><time>2026-04-22T08:29:22.999Z</time></trkpt><trkpt lat="43.19401064571196" lon="6.046102090035103"><ele>78.66666666666666</ele><time>2026-04-22T08:29:23.999Z</time></trkpt><trkpt lat="43.193994818505814" lon="6.046205425047143"><ele>78.5</ele><time>2026-04-22T08:29:24.999Z</time></trkpt><trkpt lat="43.194034585652794" lon="6.046320914156447"><ele>78.33333333333333</ele><time>2026-04-22T08:29:25.999Z</time></trkpt><trkpt lat="43.19407744185274" lon="6.046426077638074"><ele>78.16666666666667</ele><time>2026-04-22T08:29:26.999Z</time></trkpt><trkpt lat="43.194109999556304" lon="6.046504845347482"><ele>78.0</ele><time>2026-04-22T08:29:27.999Z</time></trkpt><trkpt lat="43.194130094870694" lon="6.046591435261733"><ele>77.8</ele><time>2026-04-22T08:29:28.999Z</time></trkpt><trkpt lat="43.19413377751746" lon="6.0467035523714765"><ele>77.6</ele><time>2026-04-22T08:29:29.999Z</time></trkpt><trkpt lat="43.194144128583574" lon="6.0468700408578675"><ele>77.4</ele><time>2026-04-22T08:29:30.999Z</time></trkpt><trkpt lat="43.19408791407452" lon="6.047001514125784"><ele>77.2</ele><time>2026-04-22T08:29:31.999Z</time></trkpt><trkpt lat="43.19407022744991" lon="6.0471172965676105"><ele>77.0</ele><time>2026-04-22T08:29:32.999Z</time></trkpt><trkpt lat="43.19402617905657" lon="6.047274109028078"><ele>77.0</ele><time>2026-04-22T08:29:33.999Z</time></trkpt><trkpt lat="43.19395834374249" lon="6.047433138266868"><ele>77.0</ele><time>2026-04-22T08:29:34.999Z</time></trkpt><trkpt lat="43.1938970168981" lon="6.047568161132288"><ele>77.0</ele><time>2026-04-22T08:29:35.999Z</time></trkpt><trkpt lat="43.19383629286788" lon="6.047698522301057"><ele>77.0</ele><time>2026-04-22T08:29:36.999Z</time></trkpt><trkpt lat="43.19378277452515" lon="6.047844508045403"><ele>77.0</ele><time>2026-04-22T08:29:37.999Z</time></trkpt><trkpt lat="43.19371915441241" lon="6.047970546667912"><ele>77.0</ele><time>2026-04-22T08:29:38.999Z</time></trkpt><trkpt lat="43.193669123293745" lon="6.048073597139957"><ele>77.0</ele><time>2026-04-22T08:29:39.999Z</time></trkpt><trkpt lat="43.193588087417005" lon="6.048185187082598"><ele>77.0</ele><time>2026-04-22T08:29:41.999Z</time></trkpt><trkpt lat="43.19352775633357" lon="6.048215932058675"><ele>77.0</ele><time>2026-04-22T08:29:42.999Z</time></trkpt><trkpt lat="43.19346650036215" lon="6.048247042454691"><ele>77.0</ele><time>2026-04-22T08:29:43.999Z</time></trkpt><trkpt lat="43.193413939074894" lon="6.0483721006291535"><ele>77.0</ele><time>2026-04-22T08:29:45.999Z</time></trkpt><trkpt lat="43.193441885865155" lon="6.048458779015646"><ele>77.0</ele><time>2026-04-22T08:29:46.999Z</time></trkpt><trkpt lat="43.193536047602635" lon="6.0485001973836185"><ele>77.0</ele><time>2026-04-22T08:29:47.999Z</time></trkpt><trkpt lat="43.193612939462234" lon="6.048532632801915"><ele>77.0</ele><time>2026-04-22T08:29:48.999Z</time></trkpt><trkpt lat="43.19369489242995" lon="6.048576300192248"><ele>77.0</ele><time>2026-04-22T08:29:49.999Z</time></trkpt><trkpt lat="43.19378245453549" lon="6.0486430637814745"><ele>77.0</ele><time>2026-04-22T08:29:50.999Z</time></trkpt><trkpt lat="43.193876512473025" lon="6.048722340339613"><ele>77.0</ele><time>2026-04-22T08:29:51.999Z</time></trkpt><trkpt lat="43.1939827251082" lon="6.048807668198333"><ele>77.0</ele><time>2026-04-22T08:29:52.999Z</time></trkpt><trkpt lat="43.194108343235094" lon="6.0489058557840565"><ele>77.0</ele><time>2026-04-22T08:29:53.999Z</time></trkpt><trkpt lat="43.19423289496432" lon="6.049035442421438"><ele>77.0</ele><time>2026-04-22T08:29:54.999Z</time></trkpt><trkpt lat="43.19435170177254" lon="6.049140322927509"><ele>77.0</ele><time>2026-04-22T08:29:55.999Z</time></trkpt><trkpt lat="43.19448646771241" lon="6.049236385831167"><ele>77.0</ele><time>2026-04-22T08:29:56.999Z</time></trkpt><trkpt lat="43.19459690795831" lon="6.0493462635451944"><ele>77.0</ele><time>2026-04-22T08:29:57.999Z</time></trkpt><trkpt lat="43.194663916319605" lon="6.049433908728605"><ele>77.0</ele><time>2026-04-22T08:29:58.999Z</time></trkpt><trkpt lat="43.19480018009247" lon="6.049553559455511"><ele>77.0</ele><time>2026-04-22T08:29:59.999Z</time></trkpt><trkpt lat="43.194903974199796" lon="6.049665809124755"><ele>77.0</ele><time>2026-04-22T08:30:00.999Z</time></trkpt><trkpt lat="43.19497384461745" lon="6.049776033699233"><ele>77.0</ele><time>2026-04-22T08:30:01.999Z</time></trkpt><trkpt lat="43.19506667696555" lon="6.049870748192262"><ele>77.0</ele><time>2026-04-22T08:30:02.999Z</time></trkpt><trkpt lat="43.19519739140779" lon="6.049921018988132"><ele>76.5</ele><time>2026-04-22T08:30:03.999Z</time></trkpt><trkpt lat="43.19532046800843" lon="6.050001379017707"><ele>76.0</ele><time>2026-04-22T08:30:04.999Z</time></trkpt><trkpt lat="43.19544904777658" lon="6.050074581830172"><ele>75.5</ele><time>2026-04-22T08:30:05.999Z</time></trkpt><trkpt lat="43.19556993095326" lon="6.05013105354253"><ele>75.0</ele><time>2026-04-22T08:30:06.999Z</time></trkpt><trkpt lat="43.19566007028744" lon="6.05018798193129"><ele>75.0</ele><time>2026-04-22T08:30:07.999Z</time></trkpt><trkpt lat="43.19577294725094" lon="6.050231825974809"><ele>75.0</ele><time>2026-04-22T08:30:09Z</time></trkpt><trkpt lat="43.195901545535534" lon="6.050264752010279"><ele>75.0</ele><time>2026-04-22T08:30:10Z</time></trkpt><trkpt lat="43.196019057874175" lon="6.050280150492398"><ele>75.0</ele><time>2026-04-22T08:30:11.001Z</time></trkpt><trkpt lat="43.19613282285795" lon="6.05028682120164"><ele>75.0</ele><time>2026-04-22T08:30:12.001Z</time></trkpt><trkpt lat="43.196239524852984" lon="6.050293608176386"><ele>75.0</ele><time>2026-04-22T08:30:13.001Z</time></trkpt><trkpt lat="43.1963453969248" lon="6.050304457497119"><ele>75.0</ele><time>2026-04-22T08:30:14.001Z</time></trkpt><trkpt lat="43.19645252022199" lon="6.050320986001959"><ele>75.0</ele><time>2026-04-22T08:30:15.001Z</time></trkpt><trkpt lat="43.19655716516629" lon="6.050335772739154"><ele>75.0</ele><time>2026-04-22T08:30:16.001Z</time></trkpt><trkpt lat="43.19666564523633" lon="6.050352865896074"><ele>75.33333333333333</ele><time>2026-04-22T08:30:17.001Z</time></trkpt><trkpt lat="43.19677303397995" lon="6.050375324122022"><ele>75.66666666666667</ele><time>2026-04-22T08:30:18.001Z</time></trkpt><trkpt lat="43.19686522909086" lon="6.050392450560362"><ele>76.0</ele><time>2026-04-22T08:30:19.001Z</time></trkpt><trkpt lat="43.19694506833239" lon="6.050408773785674"><ele>76.33333333333334</ele><time>2026-04-22T08:30:20.001Z</time></trkpt><trkpt lat="43.19701323652619" lon="6.050417889494911"><ele>76.66666666666667</ele><time>2026-04-22T08:30:21.001Z</time></trkpt><trkpt lat="43.19710530392566" lon="6.050455325817737"><ele>77.0</ele><time>2026-04-22T08:30:23.001Z</time></trkpt><trkpt lat="43.19716772604752" lon="6.050498813639704"><ele>77.0</ele><time>2026-04-22T08:30:25Z</time></trkpt><trkpt lat="43.19714335850434" lon="6.050615441023159"><ele>77.0</ele><time>2026-04-22T08:30:27Z</time></trkpt><trkpt lat="43.1970956205132" lon="6.050781342282415"><ele>77.0</ele><time>2026-04-22T08:30:29Z</time></trkpt><trkpt lat="43.197057653775175" lon="6.050886089683324"><ele>77.0</ele><time>2026-04-22T08:30:30Z</time></trkpt><trkpt lat="43.19702614643159" lon="6.050983950801593"><ele>77.0</ele><time>2026-04-22T08:30:31Z</time></trkpt><trkpt lat="43.19699799637999" lon="6.051069813781234"><ele>77.25</ele><time>2026-04-22T08:30:32Z</time></trkpt><trkpt lat="43.19697249033557" lon="6.051220161013274"><ele>77.5</ele><time>2026-04-22T08:30:34Z</time></trkpt><trkpt lat="43.19699424214455" lon="6.051370309686109"><ele>77.75</ele><time>2026-04-22T08:30:36Z</time></trkpt><trkpt lat="43.19716380193145" lon="6.0514465410426075"><ele>78.0</ele><time>2026-04-22T08:30:38Z</time></trkpt><trkpt lat="43.19726492971407" lon="6.0515217154910035"><ele>78.0</ele><time>2026-04-22T08:30:39Z</time></trkpt><trkpt lat="43.197372454911466" lon="6.051588298398013"><ele>78.0</ele><time>2026-04-22T08:30:40Z</time></trkpt><trkpt lat="43.197487822346574" lon="6.0516653236137055"><ele>78.0</ele><time>2026-04-22T08:30:41Z</time></trkpt><trkpt lat="43.1976070519408" lon="6.051753522736201"><ele>78.0</ele><time>2026-04-22T08:30:42Z</time></trkpt><trkpt lat="43.19771998936854" lon="6.05183583517144"><ele>77.75</ele><time>2026-04-22T08:30:43Z</time></trkpt><trkpt lat="43.197831740242265" lon="6.051912188097182"><ele>77.5</ele><time>2026-04-22T08:30:44Z</time></trkpt><trkpt lat="43.1979362587517" lon="6.051980415138877"><ele>77.25</ele><time>2026-04-22T08:30:45Z</time></trkpt><trkpt lat="43.19804521759108" lon="6.052049068245337"><ele>77.0</ele><time>2026-04-22T08:30:46Z</time></trkpt><trkpt lat="43.19816116403459" lon="6.052122221371489"><ele>77.5</ele><time>2026-04-22T08:30:47Z</time></trkpt><trkpt lat="43.19826920182335" lon="6.052191909869572"><ele>78.0</ele><time>2026-04-22T08:30:48Z</time></trkpt><trkpt lat="43.198371832285616" lon="6.052262842134225"><ele>78.5</ele><time>2026-04-22T08:30:49Z</time></trkpt><trkpt lat="43.198471850214325" lon="6.052333643597956"><ele>79.0</ele><time>2026-04-22T08:30:50Z</time></trkpt><trkpt lat="43.19857154800292" lon="6.052402247184922"><ele>78.5</ele><time>2026-04-22T08:30:51Z</time></trkpt><trkpt lat="43.198677281114314" lon="6.052475252692863"><ele>78.0</ele><time>2026-04-22T08:30:52Z</time></trkpt><trkpt lat="43.19878204814204" lon="6.052552636550502"><ele>77.5</ele><time>2026-04-22T08:30:53Z</time></trkpt><trkpt lat="43.1988944967053" lon="6.052625995985462"><ele>77.0</ele><time>2026-04-22T08:30:54Z</time></trkpt><trkpt lat="43.198997204325764" lon="6.052723471029914"><ele>77.25</ele><time>2026-04-22T08:30:55Z</time></trkpt><trkpt lat="43.199091756747855" lon="6.052838543957659"><ele>77.5</ele><time>2026-04-22T08:30:56Z</time></trkpt><trkpt lat="43.199177436350006" lon="6.052984655328778"><ele>77.75</ele><time>2026-04-22T08:30:57Z</time></trkpt><trkpt lat="43.19925371416207" lon="6.053143037084155"><ele>78.0</ele><time>2026-04-22T08:30:58Z</time></trkpt><trkpt lat="43.199338572389266" lon="6.053310843271773"><ele>78.0</ele><time>2026-04-22T08:30:59Z</time></trkpt><trkpt lat="43.19942658717" lon="6.053453065822432"><ele>78.0</ele><time>2026-04-22T08:31:00Z</time></trkpt><trkpt lat="43.19952876536235" lon="6.05359483157036"><ele>78.0</ele><time>2026-04-22T08:31:01Z</time></trkpt><trkpt lat="43.19964880298831" lon="6.053728541301043"><ele>78.0</ele><time>2026-04-22T08:31:02Z</time></trkpt><trkpt lat="43.19972983873209" lon="6.053824809721139"><ele>78.0</ele><time>2026-04-22T08:31:03Z</time></trkpt><trkpt lat="43.19981017594968" lon="6.053930675395397"><ele>78.0</ele><time>2026-04-22T08:31:04Z</time></trkpt><trkpt lat="43.199878497195584" lon="6.054019317720708"><ele>78.0</ele><time>2026-04-22T08:31:05Z</time></trkpt><trkpt lat="43.199985259173815" lon="6.054160747191901"><ele>78.0</ele><time>2026-04-22T08:31:06Z</time></trkpt><trkpt lat="43.20004134158338" lon="6.0542725056586875"><ele>78.57142857142857</ele><time>2026-04-22T08:31:07Z</time></trkpt><trkpt lat="43.20009063923595" lon="6.054373795593307"><ele>79.14285714285714</ele><time>2026-04-22T08:31:08Z</time></trkpt><trkpt lat="43.200134353116994" lon="6.054453443138862"><ele>79.71428571428571</ele><time>2026-04-22T08:31:09Z</time></trkpt><trkpt lat="43.20017601759069" lon="6.054519565427868"><ele>80.28571428571428</ele><time>2026-04-22T08:31:10Z</time></trkpt><trkpt lat="43.2002104265025" lon="6.054596062308376"><ele>80.85714285714286</ele><time>2026-04-22T08:31:11Z</time></trkpt><trkpt lat="43.200254066254004" lon="6.054664097871805"><ele>81.42857142857142</ele><time>2026-04-22T08:31:12Z</time></trkpt><trkpt lat="43.20030673415309" lon="6.054746477855852"><ele>82.0</ele><time>2026-04-22T08:31:13Z</time></trkpt><trkpt lat="43.20034913833966" lon="6.054817376679038"><ele>82.0</ele><time>2026-04-22T08:31:14Z</time></trkpt><trkpt lat="43.20039512290714" lon="6.054880648284259"><ele>82.0</ele><time>2026-04-22T08:31:15Z</time></trkpt><trkpt lat="43.200478216174034" lon="6.055012036716709"><ele>82.0</ele><time>2026-04-22T08:31:17Z</time></trkpt><trkpt lat="43.20052525957523" lon="6.055107054579219"><ele>82.0</ele><time>2026-04-22T08:31:18Z</time></trkpt><trkpt lat="43.20056691194901" lon="6.055237571252943"><ele>82.0</ele><time>2026-04-22T08:31:19Z</time></trkpt><trkpt lat="43.20061851729147" lon="6.0553838960988084"><ele>82.39999999999999</ele><time>2026-04-22T08:31:20Z</time></trkpt><trkpt lat="43.20067368019034" lon="6.055542260111384"><ele>82.8</ele><time>2026-04-22T08:31:21Z</time></trkpt><trkpt lat="43.20073300877755" lon="6.055662399787152"><ele>83.2</ele><time>2026-04-22T08:31:22Z</time></trkpt><trkpt lat="43.200790235959616" lon="6.0557646157254466"><ele>83.6</ele><time>2026-04-22T08:31:23Z</time></trkpt><trkpt lat="43.20086059556642" lon="6.055879308329198"><ele>84.0</ele><time>2026-04-22T08:31:24Z</time></trkpt><trkpt lat="43.20093840526913" lon="6.05600576632434"><ele>84.25</ele><time>2026-04-22T08:31:25Z</time></trkpt><trkpt lat="43.2010131462162" lon="6.056130964035977"><ele>84.5</ele><time>2026-04-22T08:31:26Z</time></trkpt><trkpt lat="43.201084269154045" lon="6.056263298313559"><ele>84.75</ele><time>2026-04-22T08:31:27Z</time></trkpt><trkpt lat="43.201157505142675" lon="6.0564046303905155"><ele>85.0</ele><time>2026-04-22T08:31:28Z</time></trkpt><trkpt lat="43.2012364707219" lon="6.056560944089814"><ele>84.75</ele><time>2026-04-22T08:31:29Z</time></trkpt><trkpt lat="43.20131141380981" lon="6.056704676827566"><ele>84.5</ele><time>2026-04-22T08:31:30Z</time></trkpt><trkpt lat="43.20137054876628" lon="6.0568348856821865"><ele>84.25</ele><time>2026-04-22T08:31:31Z</time></trkpt><trkpt lat="43.20140805274455" lon="6.056970929652816"><ele>84.0</ele><time>2026-04-22T08:31:32Z</time></trkpt><trkpt lat="43.201445723515036" lon="6.0571105401447465"><ele>84.5</ele><time>2026-04-22T08:31:33Z</time></trkpt><trkpt lat="43.20149951054924" lon="6.057262228868914"><ele>85.0</ele><time>2026-04-22T08:31:34Z</time></trkpt><trkpt lat="43.201550016137396" lon="6.057414735166996"><ele>85.5</ele><time>2026-04-22T08:31:35Z</time></trkpt><trkpt lat="43.201629843955246" lon="6.057560379645882"><ele>86.0</ele><time>2026-04-22T08:31:36Z</time></trkpt><trkpt lat="43.20170673096956" lon="6.05769764378268"><ele>86.0</ele><time>2026-04-22T08:31:37Z</time></trkpt><trkpt lat="43.201772378056425" lon="6.057821057872574"><ele>86.0</ele><time>2026-04-22T08:31:38Z</time></trkpt><trkpt lat="43.2018311891458" lon="6.057932344393518"><ele>86.0</ele><time>2026-04-22T08:31:39Z</time></trkpt><trkpt lat="43.20188725302765" lon="6.058033244939206"><ele>86.0</ele><time>2026-04-22T08:31:40Z</time></trkpt><trkpt lat="43.20195179826111" lon="6.058143152002459"><ele>86.0</ele><time>2026-04-22T08:31:41Z</time></trkpt><trkpt lat="43.20201269378778" lon="6.058263372677488"><ele>85.5</ele><time>2026-04-22T08:31:41.999Z</time></trkpt><trkpt lat="43.20207094702688" lon="6.058390451170636"><ele>85.0</ele><time>2026-04-22T08:31:42.999Z</time></trkpt><trkpt lat="43.202130985074355" lon="6.05851882550781"><ele>84.5</ele><time>2026-04-22T08:31:43.999Z</time></trkpt><trkpt lat="43.202190150804334" lon="6.058659502587608"><ele>84.0</ele><time>2026-04-22T08:31:44.999Z</time></trkpt><trkpt lat="43.202247575613484" lon="6.058811437946782"><ele>84.0</ele><time>2026-04-22T08:31:45.999Z</time></trkpt><trkpt lat="43.202297081865886" lon="6.058960039069292"><ele>84.0</ele><time>2026-04-22T08:31:46.999Z</time></trkpt><trkpt lat="43.20233432538275" lon="6.059090388012839"><ele>84.0</ele><time>2026-04-22T08:31:47.999Z</time></trkpt><trkpt lat="43.20235952834711" lon="6.059198655712109"><ele>84.0</ele><time>2026-04-22T08:31:48.999Z</time></trkpt><trkpt lat="43.202400117709104" lon="6.0593022881726935"><ele>84.0</ele><time>2026-04-22T08:31:49.999Z</time></trkpt><trkpt lat="43.20243322852071" lon="6.059398089424674"><ele>84.16666666666667</ele><time>2026-04-22T08:31:50.999Z</time></trkpt><trkpt lat="43.20245867198249" lon="6.059502747433681"><ele>84.33333333333333</ele><time>2026-04-22T08:31:51.999Z</time></trkpt><trkpt lat="43.20248596895283" lon="6.059597845379498"><ele>84.5</ele><time>2026-04-22T08:31:52.999Z</time></trkpt><trkpt lat="43.20250573589744" lon="6.0596811965481105"><ele>84.66666666666666</ele><time>2026-04-22T08:31:53.999Z</time></trkpt><trkpt lat="43.202534242262466" lon="6.059769916821661"><ele>84.83333333333333</ele><time>2026-04-22T08:31:54.999Z</time></trkpt><trkpt lat="43.202563610581585" lon="6.059871278451619"><ele>85.0</ele><time>2026-04-22T08:31:55.999Z</time></trkpt><trkpt lat="43.20259959970956" lon="6.0599856857107"><ele>84.66666666666666</ele><time>2026-04-22T08:31:56.999Z</time></trkpt><trkpt lat="43.20262652798902" lon="6.060080821593748"><ele>84.33333333333333</ele><time>2026-04-22T08:31:57.999Z</time></trkpt><trkpt lat="43.20265104606285" lon="6.060168427795327"><ele>84.0</ele><time>2026-04-22T08:31:58.999Z</time></trkpt><trkpt lat="43.20267722813203" lon="6.060248554336002"><ele>83.66666666666667</ele><time>2026-04-22T08:31:59.999Z</time></trkpt><trkpt lat="43.20270329047874" lon="6.060330669782436"><ele>83.33333333333334</ele><time>2026-04-22T08:32:00.999Z</time></trkpt><trkpt lat="43.20273742297152" lon="6.0604331635707505"><ele>83.0</ele><time>2026-04-22T08:32:01.999Z</time></trkpt><trkpt lat="43.20276813062879" lon="6.06055776159552"><ele>83.0</ele><time>2026-04-22T08:32:02.999Z</time></trkpt><trkpt lat="43.20281559807598" lon="6.0606910014935975"><ele>83.0</ele><time>2026-04-22T08:32:03.999Z</time></trkpt><trkpt lat="43.20287115726847" lon="6.060826149705631"><ele>83.0</ele><time>2026-04-22T08:32:04.999Z</time></trkpt><trkpt lat="43.20291611834952" lon="6.06093463984514"><ele>83.0</ele><time>2026-04-22T08:32:05.999Z</time></trkpt><trkpt lat="43.20296023578865" lon="6.061041093939606"><ele>83.0</ele><time>2026-04-22T08:32:06.999Z</time></trkpt><trkpt lat="43.20300083036432" lon="6.061131285038199"><ele>83.0</ele><time>2026-04-22T08:32:07.999Z</time></trkpt><trkpt lat="43.20304243082132" lon="6.061226166090356"><ele>83.0</ele><time>2026-04-22T08:32:09.999Z</time></trkpt><trkpt lat="43.2032338493718" lon="6.061679321334572"><ele>83.0</ele><time>2026-04-22T08:32:10.999Z</time></trkpt><trkpt lat="43.20328689717053" lon="6.061787512450432"><ele>83.0</ele><time>2026-04-22T08:32:11.999Z</time></trkpt><trkpt lat="43.203339412522844" lon="6.06190165953254"><ele>83.0</ele><time>2026-04-22T08:32:12.999Z</time></trkpt><trkpt lat="43.20339952313357" lon="6.062029530661343"><ele>83.0</ele><time>2026-04-22T08:32:13.999Z</time></trkpt><trkpt lat="43.20345124336272" lon="6.062139553208091"><ele>83.0</ele><time>2026-04-22T08:32:15.001Z</time></trkpt><trkpt lat="43.20349768327809" lon="6.062238343179035"><ele>83.0</ele><time>2026-04-22T08:32:16.001Z</time></trkpt><trkpt lat="43.203538023982794" lon="6.062325815764814"><ele>83.0</ele><time>2026-04-22T08:32:17.001Z</time></trkpt><trkpt lat="43.20357903685803" lon="6.062417611771949"><ele>83.0</ele><time>2026-04-22T08:32:18.001Z</time></trkpt><trkpt lat="43.20362702271571" lon="6.062525014288378"><ele>83.0</ele><time>2026-04-22T08:32:19.001Z</time></trkpt><trkpt lat="43.20368545738836" lon="6.06262500994847"><ele>83.0</ele><time>2026-04-22T08:32:20.001Z</time></trkpt><trkpt lat="43.20376227991336" lon="6.062704310378699"><ele>83.0</ele><time>2026-04-22T08:32:21.001Z</time></trkpt><trkpt lat="43.20383984801747" lon="6.062797683341124"><ele>82.75</ele><time>2026-04-22T08:32:22.001Z</time></trkpt><trkpt lat="43.20392706171109" lon="6.062901337246635"><ele>82.5</ele><time>2026-04-22T08:32:23.001Z</time></trkpt><trkpt lat="43.20401803178406" lon="6.063007046846538"><ele>82.25</ele><time>2026-04-22T08:32:24.001Z</time></trkpt><trkpt lat="43.20410695082937" lon="6.0631164655075445"><ele>82.0</ele><time>2026-04-22T08:32:25.001Z</time></trkpt><trkpt lat="43.20419562642678" lon="6.06322869735568"><ele>81.75</ele><time>2026-04-22T08:32:26.001Z</time></trkpt><trkpt lat="43.204254471143905" lon="6.0633662361244065"><ele>81.5</ele><time>2026-04-22T08:32:27.001Z</time></trkpt><trkpt lat="43.2043239825434" lon="6.063498654869318"><ele>81.25</ele><time>2026-04-22T08:32:28.001Z</time></trkpt><trkpt lat="43.20439934383612" lon="6.063653268977984"><ele>81.0</ele><time>2026-04-22T08:32:29.001Z</time></trkpt><trkpt lat="43.204481448217734" lon="6.0638125036264565"><ele>81.0</ele><time>2026-04-22T08:32:30.001Z</time></trkpt><trkpt lat="43.20455871813568" lon="6.06397037169236"><ele>81.0</ele><time>2026-04-22T08:32:31.001Z</time></trkpt><trkpt lat="43.20462637375817" lon="6.064109447961364"><ele>81.0</ele><time>2026-04-22T08:32:32.001Z</time></trkpt><trkpt lat="43.20468443888143" lon="6.0642339000408985"><ele>81.0</ele><time>2026-04-22T08:32:33Z</time></trkpt><trkpt lat="43.20473972279226" lon="6.064345995851407"><ele>81.0</ele><time>2026-04-22T08:32:34Z</time></trkpt><trkpt lat="43.20479806490108" lon="6.064464693612415"><ele>81.0</ele><time>2026-04-22T08:32:35Z</time></trkpt><trkpt lat="43.20484827486686" lon="6.06458027105529"><ele>81.0</ele><time>2026-04-22T08:32:36Z</time></trkpt><trkpt lat="43.204895968097524" lon="6.064685441983151"><ele>81.0</ele><time>2026-04-22T08:32:37Z</time></trkpt><trkpt lat="43.20493419607055" lon="6.064771983306349"><ele>81.0</ele><time>2026-04-22T08:32:38Z</time></trkpt><trkpt lat="43.204963784582496" lon="6.0648611498771015"><ele>81.0</ele><time>2026-04-22T08:32:39Z</time></trkpt><trkpt lat="43.20496981034529" lon="6.065009279210237"><ele>81.33333333333333</ele><time>2026-04-22T08:32:41Z</time></trkpt><trkpt lat="43.20495713692328" lon="6.065109379954373"><ele>81.66666666666667</ele><time>2026-04-22T08:32:43Z</time></trkpt><trkpt lat="43.20497358753354" lon="6.065204225814019"><ele>82.0</ele><time>2026-04-22T08:32:45Z</time></trkpt><trkpt lat="43.20505217219372" lon="6.065293268066506"><ele>82.33333333333334</ele><time>2026-04-22T08:33:01Z</time></trkpt><trkpt lat="43.20512468980824" lon="6.065330100064903"><ele>82.66666666666667</ele><time>2026-04-22T08:33:02Z</time></trkpt><trkpt lat="43.205185392717325" lon="6.0654117704882085"><ele>83.0</ele><time>2026-04-22T08:33:03Z</time></trkpt><trkpt lat="43.205262809135974" lon="6.065453551282755"><ele>83.0</ele><time>2026-04-22T08:33:04Z</time></trkpt><trkpt lat="43.205346589408826" lon="6.065495755842035"><ele>83.0</ele><time>2026-04-22T08:33:05Z</time></trkpt><trkpt lat="43.205419358164626" lon="6.06550888393281"><ele>83.0</ele><time>2026-04-22T08:33:06Z</time></trkpt><trkpt lat="43.20554324894612" lon="6.065513067236604"><ele>83.0</ele><time>2026-04-22T08:33:08Z</time></trkpt><trkpt lat="43.20565793599065" lon="6.065572389592358"><ele>83.0</ele><time>2026-04-22T08:33:09Z</time></trkpt><trkpt lat="43.20579535955983" lon="6.0656128300490515"><ele>83.2</ele><time>2026-04-22T08:33:10Z</time></trkpt><trkpt lat="43.205902987732436" lon="6.06567205835491"><ele>83.4</ele><time>2026-04-22T08:33:11Z</time></trkpt><trkpt lat="43.205988031843916" lon="6.065716795906768"><ele>83.60000000000001</ele><time>2026-04-22T08:33:12Z</time></trkpt><trkpt lat="43.20608097777858" lon="6.065779790076735"><ele>83.80000000000001</ele><time>2026-04-22T08:33:13Z</time></trkpt><trkpt lat="43.20618706686421" lon="6.065869426520536"><ele>84.0</ele><time>2026-04-22T08:33:14Z</time></trkpt><trkpt lat="43.20628957110608" lon="6.065942377404669"><ele>84.0</ele><time>2026-04-22T08:33:15Z</time></trkpt><trkpt lat="43.206381568454745" lon="6.066009715606786"><ele>84.0</ele><time>2026-04-22T08:33:16Z</time></trkpt><trkpt lat="43.206485423556515" lon="6.066059536703322"><ele>84.0</ele><time>2026-04-22T08:33:17Z</time></trkpt><trkpt lat="43.206566668279685" lon="6.066113456023355"><ele>84.0</ele><time>2026-04-22T08:33:18Z</time></trkpt><trkpt lat="43.206642340595906" lon="6.066143794277986"><ele>84.0</ele><time>2026-04-22T08:33:19Z</time></trkpt><trkpt lat="43.20671020986826" lon="6.066170040941485"><ele>84.0</ele><time>2026-04-22T08:33:20Z</time></trkpt><trkpt lat="43.20677770654833" lon="6.066191862915331"><ele>84.0</ele><time>2026-04-22T08:33:21Z</time></trkpt><trkpt lat="43.20684724269539" lon="6.066208509041384"><ele>84.0</ele><time>2026-04-22T08:33:22Z</time></trkpt><trkpt lat="43.206940370106295" lon="6.066243930278549"><ele>84.0</ele><time>2026-04-22T08:33:23Z</time></trkpt><trkpt lat="43.20706980628937" lon="6.0662624073328635"><ele>84.0</ele><time>2026-04-22T08:33:24Z</time></trkpt><trkpt lat="43.207198386454" lon="6.066274198522129"><ele>84.5</ele><time>2026-04-22T08:33:25Z</time></trkpt><trkpt lat="43.20734597672355" lon="6.0662894968085315"><ele>85.0</ele><time>2026-04-22T08:33:26Z</time></trkpt><trkpt lat="43.207494202836905" lon="6.066296170289621"><ele>85.5</ele><time>2026-04-22T08:33:27Z</time></trkpt><trkpt lat="43.20761946905735" lon="6.066283150514975"><ele>86.0</ele><time>2026-04-22T08:33:28Z</time></trkpt><trkpt lat="43.20774861048528" lon="6.0662648690393555"><ele>86.0</ele><time>2026-04-22T08:33:28.999Z</time></trkpt><trkpt lat="43.20788046618864" lon="6.066243296969034"><ele>86.0</ele><time>2026-04-22T08:33:29.999Z</time></trkpt><trkpt lat="43.20799063603724" lon="6.066217971036747"><ele>86.0</ele><time>2026-04-22T08:33:30.999Z</time></trkpt><trkpt lat="43.20808825880556" lon="6.066190703415575"><ele>86.0</ele><time>2026-04-22T08:33:31.999Z</time></trkpt><trkpt lat="43.208176985046634" lon="6.066147907880135"><ele>86.0</ele><time>2026-04-22T08:33:32.999Z</time></trkpt><trkpt lat="43.20827968122542" lon="6.06613321029049"><ele>86.0</ele><time>2026-04-22T08:33:33.999Z</time></trkpt><trkpt lat="43.208385289233945" lon="6.066134356869652"><ele>86.0</ele><time>2026-04-22T08:33:34.999Z</time></trkpt><trkpt lat="43.20849086637504" lon="6.066181617092303"><ele>86.0</ele><time>2026-04-22T08:33:35.999Z</time></trkpt><trkpt lat="43.208617085120075" lon="6.066192737537549"><ele>86.0</ele><time>2026-04-22T08:33:36.999Z</time></trkpt><trkpt lat="43.20874596714151" lon="6.066237898187151"><ele>86.0</ele><time>2026-04-22T08:33:37.999Z</time></trkpt><trkpt lat="43.208878626147644" lon="6.066274750530778"><ele>86.0</ele><time>2026-04-22T08:33:38.999Z</time></trkpt><trkpt lat="43.20900465748595" lon="6.066312258013801"><ele>86.0</ele><time>2026-04-22T08:33:39.999Z</time></trkpt><trkpt lat="43.209117619336" lon="6.066342520820029"><ele>86.0</ele><time>2026-04-22T08:33:40.999Z</time></trkpt><trkpt lat="43.20921439186315" lon="6.066377295050379"><ele>86.19999999999999</ele><time>2026-04-22T08:33:41.999Z</time></trkpt><trkpt lat="43.20930162655267" lon="6.066398070204106"><ele>86.39999999999999</ele><time>2026-04-22T08:33:42.999Z</time></trkpt><trkpt lat="43.2093850270872" lon="6.066441344339162"><ele>86.6</ele><time>2026-04-22T08:33:43.999Z</time></trkpt><trkpt lat="43.20946508663275" lon="6.066500717064318"><ele>86.8</ele><time>2026-04-22T08:33:44.999Z</time></trkpt><trkpt lat="43.20955298601373" lon="6.066582022309538"><ele>87.0</ele><time>2026-04-22T08:33:45.999Z</time></trkpt><trkpt lat="43.209631542613224" lon="6.066689669580963"><ele>87.0</ele><time>2026-04-22T08:33:46.999Z</time></trkpt><trkpt lat="43.20972736018663" lon="6.066786942262455"><ele>87.0</ele><time>2026-04-22T08:33:47.999Z</time></trkpt><trkpt lat="43.20982699628461" lon="6.066897166318608"><ele>87.0</ele><time>2026-04-22T08:33:48.999Z</time></trkpt><trkpt lat="43.20992277377305" lon="6.0670049318132655"><ele>87.0</ele><time>2026-04-22T08:33:49.999Z</time></trkpt><trkpt lat="43.210016473786" lon="6.067099710740458"><ele>87.0</ele><time>2026-04-22T08:33:50.999Z</time></trkpt><trkpt lat="43.21010958030226" lon="6.067189140882516"><ele>87.0</ele><time>2026-04-22T08:33:51.999Z</time></trkpt><trkpt lat="43.21021069802625" lon="6.067278489937639"><ele>87.0</ele><time>2026-04-22T08:33:52.999Z</time></trkpt><trkpt lat="43.21031673539217" lon="6.067372411583815"><ele>87.0</ele><time>2026-04-22T08:33:53.999Z</time></trkpt><trkpt lat="43.21041669246424" lon="6.067470511465026"><ele>87.0</ele><time>2026-04-22T08:33:54.999Z</time></trkpt><trkpt lat="43.21051955975481" lon="6.067554191343073"><ele>87.0</ele><time>2026-04-22T08:33:55.999Z</time></trkpt><trkpt lat="43.2106159851936" lon="6.067635569853741"><ele>87.0</ele><time>2026-04-22T08:33:56.999Z</time></trkpt><trkpt lat="43.210700455000115" lon="6.067720023847761"><ele>87.0</ele><time>2026-04-22T08:33:57.999Z</time></trkpt><trkpt lat="43.210786755672665" lon="6.0678113521554"><ele>87.0</ele><time>2026-04-22T08:33:58.999Z</time></trkpt><trkpt lat="43.210880210102104" lon="6.067886623112576"><ele>87.75</ele><time>2026-04-22T08:33:59.999Z</time></trkpt><trkpt lat="43.21098382286887" lon="6.067956145416908"><ele>88.5</ele><time>2026-04-22T08:34:00.999Z</time></trkpt><trkpt lat="43.21108422148684" lon="6.068024642443834"><ele>89.25</ele><time>2026-04-22T08:34:01.999Z</time></trkpt><trkpt lat="43.21119578539464" lon="6.068065746909355"><ele>90.0</ele><time>2026-04-22T08:34:02.999Z</time></trkpt><trkpt lat="43.211324975917684" lon="6.06807719004855"><ele>90.0</ele><time>2026-04-22T08:34:03.999Z</time></trkpt><trkpt lat="43.21146380022291" lon="6.068105929880444"><ele>90.0</ele><time>2026-04-22T08:34:04.999Z</time></trkpt><trkpt lat="43.211600954585215" lon="6.068114277539367"><ele>90.0</ele><time>2026-04-22T08:34:05.999Z</time></trkpt><trkpt lat="43.21173124249059" lon="6.068120306409844"><ele>90.0</ele><time>2026-04-22T08:34:06.999Z</time></trkpt><trkpt lat="43.21186584436204" lon="6.06814836512142"><ele>90.0</ele><time>2026-04-22T08:34:07.999Z</time></trkpt><trkpt lat="43.211989265545334" lon="6.068165561515087"><ele>90.0</ele><time>2026-04-22T08:34:08.999Z</time></trkpt><trkpt lat="43.21209947570838" lon="6.068180917148879"><ele>90.0</ele><time>2026-04-22T08:34:09.999Z</time></trkpt><trkpt lat="43.21221486513419" lon="6.068191684255212"><ele>90.0</ele><time>2026-04-22T08:34:10.999Z</time></trkpt><trkpt lat="43.21233906348094" lon="6.068203606140167"><ele>90.25</ele><time>2026-04-22T08:34:11.999Z</time></trkpt><trkpt lat="43.212465948476044" lon="6.068225004652492"><ele>90.5</ele><time>2026-04-22T08:34:12.999Z</time></trkpt><trkpt lat="43.212587340983156" lon="6.068249155010071"><ele>90.75</ele><time>2026-04-22T08:34:13.999Z</time></trkpt><trkpt lat="43.21269344012554" lon="6.068266017146012"><ele>91.0</ele><time>2026-04-22T08:34:14.999Z</time></trkpt><trkpt lat="43.21280481178012" lon="6.0682871822312645"><ele>91.4</ele><time>2026-04-22T08:34:15.999Z</time></trkpt><trkpt lat="43.212920245724305" lon="6.0683111005912105"><ele>91.8</ele><time>2026-04-22T08:34:16.999Z</time></trkpt><trkpt lat="43.213035421545676" lon="6.068352859483092"><ele>92.2</ele><time>2026-04-22T08:34:17.999Z</time></trkpt><trkpt lat="43.21314370041412" lon="6.068411653312314"><ele>92.60000000000001</ele><time>2026-04-22T08:34:18.999Z</time></trkpt><trkpt lat="43.21322364461998" lon="6.068475142217134"><ele>93.0</ele><time>2026-04-22T08:34:19.999Z</time></trkpt><trkpt lat="43.213326643001295" lon="6.068535448772066"><ele>93.0</ele><time>2026-04-22T08:34:21.001Z</time></trkpt><trkpt lat="43.213423647338345" lon="6.068592127369855"><ele>93.0</ele><time>2026-04-22T08:34:22.001Z</time></trkpt><trkpt lat="43.2135176020896" lon="6.068657735210033"><ele>93.0</ele><time>2026-04-22T08:34:23.001Z</time></trkpt><trkpt lat="43.213613465835245" lon="6.068737880098803"><ele>93.0</ele><time>2026-04-22T08:34:24.001Z</time></trkpt><trkpt lat="43.21370190774268" lon="6.0688251278379886"><ele>93.0</ele><time>2026-04-22T08:34:25.001Z</time></trkpt><trkpt lat="43.21378500275429" lon="6.068922024739297"><ele>93.0</ele><time>2026-04-22T08:34:26.001Z</time></trkpt><trkpt lat="43.213873537626775" lon="6.069023024793456"><ele>93.0</ele><time>2026-04-22T08:34:27.001Z</time></trkpt><trkpt lat="43.21397008267605" lon="6.0691143617297465"><ele>93.0</ele><time>2026-04-22T08:34:28.001Z</time></trkpt><trkpt lat="43.2140616608941" lon="6.069188941046463"><ele>93.0</ele><time>2026-04-22T08:34:29Z</time></trkpt><trkpt lat="43.21415715821509" lon="6.069255369613435"><ele>93.0</ele><time>2026-04-22T08:34:30Z</time></trkpt><trkpt lat="43.21426477540552" lon="6.0692958546560485"><ele>93.75</ele><time>2026-04-22T08:34:31Z</time></trkpt><trkpt lat="43.214385753782636" lon="6.069308430514521"><ele>94.5</ele><time>2026-04-22T08:34:32Z</time></trkpt><trkpt lat="43.21451181392627" lon="6.069309860182197"><ele>95.25</ele><time>2026-04-22T08:34:33Z</time></trkpt><trkpt lat="43.21462297005977" lon="6.069311062942703"><ele>96.0</ele><time>2026-04-22T08:34:34Z</time></trkpt><trkpt lat="43.214734343042025" lon="6.069330362020483"><ele>96.5</ele><time>2026-04-22T08:34:35Z</time></trkpt><trkpt lat="43.2148547128804" lon="6.06936463747583"><ele>97.0</ele><time>2026-04-22T08:34:36Z</time></trkpt><trkpt lat="43.21497768183374" lon="6.069406830229135"><ele>97.5</ele><time>2026-04-22T08:34:37Z</time></trkpt><trkpt lat="43.21510606196998" lon="6.069455486159891"><ele>98.0</ele><time>2026-04-22T08:34:38Z</time></trkpt><trkpt lat="43.215215529093825" lon="6.069503639466863"><ele>98.0</ele><time>2026-04-22T08:34:39Z</time></trkpt><trkpt lat="43.21531006670185" lon="6.069551605784806"><ele>98.0</ele><time>2026-04-22T08:34:40Z</time></trkpt><trkpt lat="43.215411090249496" lon="6.0695995226684385"><ele>98.0</ele><time>2026-04-22T08:34:41Z</time></trkpt><trkpt lat="43.21552205043669" lon="6.069642159369714"><ele>98.0</ele><time>2026-04-22T08:34:42Z</time></trkpt><trkpt lat="43.21562059874999" lon="6.069690609117239"><ele>98.0</ele><time>2026-04-22T08:34:43Z</time></trkpt><trkpt lat="43.215718341079295" lon="6.069713440864523"><ele>98.5</ele><time>2026-04-22T08:34:44Z</time></trkpt><trkpt lat="43.21582135659611" lon="6.069745062690121"><ele>99.0</ele><time>2026-04-22T08:34:45Z</time></trkpt><trkpt lat="43.21592471185982" lon="6.069781269770402"><ele>99.5</ele><time>2026-04-22T08:34:46Z</time></trkpt><trkpt lat="43.21603263947193" lon="6.069824837410559"><ele>100.0</ele><time>2026-04-22T08:34:47Z</time></trkpt><trkpt lat="43.21616121578052" lon="6.069870390323327"><ele>100.0</ele><time>2026-04-22T08:34:48Z</time></trkpt><trkpt lat="43.21629159733496" lon="6.069917755118453"><ele>100.0</ele><time>2026-04-22T08:34:49Z</time></trkpt><trkpt lat="43.216424627301514" lon="6.069975956641522"><ele>100.0</ele><time>2026-04-22T08:34:50Z</time></trkpt><trkpt lat="43.216559887677846" lon="6.070038393080939"><ele>100.0</ele><time>2026-04-22T08:34:51Z</time></trkpt><trkpt lat="43.216680952603134" lon="6.070097704214261"><ele>100.25</ele><time>2026-04-22T08:34:52Z</time></trkpt><trkpt lat="43.21679945239019" lon="6.070154604194545"><ele>100.5</ele><time>2026-04-22T08:34:53Z</time></trkpt><trkpt lat="43.21692243503426" lon="6.070214303730396"><ele>100.75</ele><time>2026-04-22T08:34:54Z</time></trkpt><trkpt lat="43.2170431430934" lon="6.0702749277833155"><ele>101.0</ele><time>2026-04-22T08:34:55Z</time></trkpt><trkpt lat="43.21713691491267" lon="6.070331286546266"><ele>101.0</ele><time>2026-04-22T08:34:56Z</time></trkpt><trkpt lat="43.21721948479874" lon="6.070388104148214"><ele>101.0</ele><time>2026-04-22T08:34:57Z</time></trkpt><trkpt lat="43.217306344712554" lon="6.070444146338255"><ele>101.0</ele><time>2026-04-22T08:34:58Z</time></trkpt><trkpt lat="43.21739700067531" lon="6.070498359214679"><ele>101.0</ele><time>2026-04-22T08:34:59Z</time></trkpt><trkpt lat="43.21748941927012" lon="6.070557768721059"><ele>101.0</ele><time>2026-04-22T08:35:00Z</time></trkpt><trkpt lat="43.217584520028474" lon="6.070614547690542"><ele>101.4</ele><time>2026-04-22T08:35:01Z</time></trkpt><trkpt lat="43.217676162199034" lon="6.070667645759774"><ele>101.8</ele><time>2026-04-22T08:35:02Z</time></trkpt><trkpt lat="43.217772739846204" lon="6.070712770142144"><ele>102.2</ele><time>2026-04-22T08:35:03Z</time></trkpt><trkpt lat="43.21788416701899" lon="6.070733051853465"><ele>102.60000000000001</ele><time>2026-04-22T08:35:04Z</time></trkpt><trkpt lat="43.217991967852" lon="6.070740975896479"><ele>103.0</ele><time>2026-04-22T08:35:05Z</time></trkpt><trkpt lat="43.21808695473054" lon="6.0707593448126325"><ele>103.4</ele><time>2026-04-22T08:35:06Z</time></trkpt><trkpt lat="43.21816710212134" lon="6.070793268429986"><ele>103.80000000000001</ele><time>2026-04-22T08:35:07Z</time></trkpt><trkpt lat="43.218241020561294" lon="6.0708580271664685"><ele>104.2</ele><time>2026-04-22T08:35:08Z</time></trkpt><trkpt lat="43.218320103801396" lon="6.070946602230921"><ele>104.6</ele><time>2026-04-22T08:35:09Z</time></trkpt><trkpt lat="43.218424131104385" lon="6.0710041206605165"><ele>105.0</ele><time>2026-04-22T08:35:10Z</time></trkpt><trkpt lat="43.21851287211535" lon="6.071067204062659"><ele>105.0</ele><time>2026-04-22T08:35:11Z</time></trkpt><trkpt lat="43.218611650741686" lon="6.071134689339438"><ele>105.0</ele><time>2026-04-22T08:35:12Z</time></trkpt><trkpt lat="43.21870539434617" lon="6.071201456162072"><ele>105.0</ele><time>2026-04-22T08:35:13Z</time></trkpt><trkpt lat="43.21880351481511" lon="6.071263771114416"><ele>105.0</ele><time>2026-04-22T08:35:14Z</time></trkpt><trkpt lat="43.2188912925625" lon="6.071343492088768"><ele>105.0</ele><time>2026-04-22T08:35:15Z</time></trkpt><trkpt lat="43.218987098633384" lon="6.071417081614303"><ele>104.75</ele><time>2026-04-22T08:35:16Z</time></trkpt><trkpt lat="43.21908263341971" lon="6.07150375123555"><ele>104.5</ele><time>2026-04-22T08:35:17Z</time></trkpt><trkpt lat="43.21917680042259" lon="6.071605096176112"><ele>104.25</ele><time>2026-04-22T08:35:18Z</time></trkpt><trkpt lat="43.21927778354765" lon="6.071702592603384"><ele>104.0</ele><time>2026-04-22T08:35:19Z</time></trkpt><trkpt lat="43.21936887463308" lon="6.071820396019671"><ele>104.5</ele><time>2026-04-22T08:35:20Z</time></trkpt><trkpt lat="43.219470139342164" lon="6.071941465527507"><ele>105.0</ele><time>2026-04-22T08:35:21Z</time></trkpt><trkpt lat="43.219575892412436" lon="6.07207098675479"><ele>105.5</ele><time>2026-04-22T08:35:22Z</time></trkpt><trkpt lat="43.21968397966931" lon="6.072195687283378"><ele>106.0</ele><time>2026-04-22T08:35:23Z</time></trkpt><trkpt lat="43.219769068223165" lon="6.072325926098324"><ele>106.0</ele><time>2026-04-22T08:35:24Z</time></trkpt><trkpt lat="43.21983842738537" lon="6.072410443713796"><ele>106.0</ele><time>2026-04-22T08:35:25Z</time></trkpt><trkpt lat="43.2198879861822" lon="6.072470086217292"><ele>106.0</ele><time>2026-04-22T08:35:26Z</time></trkpt><trkpt lat="43.2201117301731" lon="6.072724406627931"><ele>106.0</ele><time>2026-04-22T08:35:26.999Z</time></trkpt><trkpt lat="43.22021634906473" lon="6.072851406601046"><ele>106.0</ele><time>2026-04-22T08:35:27.999Z</time></trkpt><trkpt lat="43.220322816624304" lon="6.07297458334993"><ele>106.0</ele><time>2026-04-22T08:35:28.999Z</time></trkpt><trkpt lat="43.22041524023532" lon="6.073121378058219"><ele>106.0</ele><time>2026-04-22T08:35:29.999Z</time></trkpt><trkpt lat="43.22051829392706" lon="6.073250829301738"><ele>106.0</ele><time>2026-04-22T08:35:30.999Z</time></trkpt><trkpt lat="43.22062384906674" lon="6.073383422763602"><ele>106.25</ele><time>2026-04-22T08:35:31.999Z</time></trkpt><trkpt lat="43.22072970151136" lon="6.0735163896615765"><ele>106.5</ele><time>2026-04-22T08:35:32.999Z</time></trkpt><trkpt lat="43.220836912776214" lon="6.073651063504034"><ele>106.75</ele><time>2026-04-22T08:35:33.999Z</time></trkpt><trkpt lat="43.22094317048641" lon="6.073784539496868"><ele>107.0</ele><time>2026-04-22T08:35:34.999Z</time></trkpt><trkpt lat="43.22105571354136" lon="6.073925910842153"><ele>107.0</ele><time>2026-04-22T08:35:35.999Z</time></trkpt><trkpt lat="43.22116287859288" lon="6.074060526619401"><ele>107.0</ele><time>2026-04-22T08:35:36.999Z</time></trkpt><trkpt lat="43.221275194829055" lon="6.074203563471641"><ele>107.0</ele><time>2026-04-22T08:35:37.999Z</time></trkpt><trkpt lat="43.22138667454839" lon="6.074345845175614"><ele>108.0</ele><time>2026-04-22T08:35:38.999Z</time></trkpt><trkpt lat="43.22150318725943" lon="6.074475033664471"><ele>109.0</ele><time>2026-04-22T08:35:39.999Z</time></trkpt><trkpt lat="43.22161344365337" lon="6.074616591204746"><ele>110.0</ele><time>2026-04-22T08:35:40.999Z</time></trkpt><trkpt lat="43.22172739917804" lon="6.074760713290989"><ele>110.0</ele><time>2026-04-22T08:35:41.999Z</time></trkpt><trkpt lat="43.22183590140168" lon="6.074904418469755"><ele>110.0</ele><time>2026-04-22T08:35:42.999Z</time></trkpt><trkpt lat="43.221945363848356" lon="6.075042872210713"><ele>110.0</ele><time>2026-04-22T08:35:43.999Z</time></trkpt><trkpt lat="43.22206087835885" lon="6.075184801731036"><ele>110.0</ele><time>2026-04-22T08:35:44.999Z</time></trkpt><trkpt lat="43.22217651464071" lon="6.075327512969736"><ele>110.0</ele><time>2026-04-22T08:35:45.999Z</time></trkpt><trkpt lat="43.22229181600029" lon="6.0754731399077695"><ele>110.0</ele><time>2026-04-22T08:35:46.999Z</time></trkpt><trkpt lat="43.22240531520636" lon="6.075623691785164"><ele>110.0</ele><time>2026-04-22T08:35:47.999Z</time></trkpt><trkpt lat="43.22252411951017" lon="6.075768629805107"><ele>110.0</ele><time>2026-04-22T08:35:48.999Z</time></trkpt><trkpt lat="43.22264209724938" lon="6.075919936186562"><ele>110.0</ele><time>2026-04-22T08:35:49.999Z</time></trkpt><trkpt lat="43.22276046708686" lon="6.076070381418273"><ele>110.0</ele><time>2026-04-22T08:35:50.999Z</time></trkpt><trkpt lat="43.22287934542044" lon="6.076219289284723"><ele>110.0</ele><time>2026-04-22T08:35:51.999Z</time></trkpt><trkpt lat="43.223002026691745" lon="6.076366081991275"><ele>110.0</ele><time>2026-04-22T08:35:52.999Z</time></trkpt><trkpt lat="43.223118774559126" lon="6.07651731552473"><ele>110.33333333333333</ele><time>2026-04-22T08:35:53.999Z</time></trkpt><trkpt lat="43.22323736534411" lon="6.076667482739499"><ele>110.66666666666666</ele><time>2026-04-22T08:35:54.999Z</time></trkpt><trkpt lat="43.223355797183146" lon="6.076810476824352"><ele>111.0</ele><time>2026-04-22T08:35:55.999Z</time></trkpt><trkpt lat="43.223473749990724" lon="6.076960981586699"><ele>111.0</ele><time>2026-04-22T08:35:56.999Z</time></trkpt><trkpt lat="43.223596639155396" lon="6.077120106347795"><ele>111.0</ele><time>2026-04-22T08:35:57.999Z</time></trkpt><trkpt lat="43.22371544865759" lon="6.0772671947618075"><ele>111.0</ele><time>2026-04-22T08:35:58.999Z</time></trkpt><trkpt lat="43.223834886951224" lon="6.077413903507918"><ele>111.33333333333334</ele><time>2026-04-22T08:35:59.999Z</time></trkpt><trkpt lat="43.22395276202648" lon="6.077562542231242"><ele>111.66666666666667</ele><time>2026-04-22T08:36:00.999Z</time></trkpt><trkpt lat="43.22407196337745" lon="6.077712904273454"><ele>112.0</ele><time>2026-04-22T08:36:01.999Z</time></trkpt><trkpt lat="43.22419062678591" lon="6.077859429910782"><ele>112.0</ele><time>2026-04-22T08:36:02.999Z</time></trkpt><trkpt lat="43.22430696723589" lon="6.078007966439495"><ele>112.0</ele><time>2026-04-22T08:36:03.999Z</time></trkpt><trkpt lat="43.22443304390933" lon="6.0781539344789195"><ele>112.0</ele><time>2026-04-22T08:36:04.999Z</time></trkpt><trkpt lat="43.224564619439015" lon="6.078292854364341"><ele>112.0</ele><time>2026-04-22T08:36:05.999Z</time></trkpt><trkpt lat="43.22469344065995" lon="6.0784356377789726"><ele>112.0</ele><time>2026-04-22T08:36:06.999Z</time></trkpt><trkpt lat="43.22482521717137" lon="6.078574435772475"><ele>112.0</ele><time>2026-04-22T08:36:07.999Z</time></trkpt><trkpt lat="43.22495598051801" lon="6.078710602032555"><ele>112.33333333333334</ele><time>2026-04-22T08:36:08.999Z</time></trkpt><trkpt lat="43.225086315071195" lon="6.078850515713504"><ele>112.66666666666666</ele><time>2026-04-22T08:36:09.999Z</time></trkpt><trkpt lat="43.22521782730953" lon="6.07898422643126"><ele>113.0</ele><time>2026-04-22T08:36:10.999Z</time></trkpt><trkpt lat="43.225353843219644" lon="6.079119252887968"><ele>113.33333333333333</ele><time>2026-04-22T08:36:11.999Z</time></trkpt><trkpt lat="43.22549521554189" lon="6.07926239727671"><ele>113.66666666666666</ele><time>2026-04-22T08:36:12.999Z</time></trkpt><trkpt lat="43.22562538592048" lon="6.07939616960652"><ele>114.0</ele><time>2026-04-22T08:36:13.999Z</time></trkpt><trkpt lat="43.22575327641143" lon="6.079552098488262"><ele>114.66666666666666</ele><time>2026-04-22T08:36:14.999Z</time></trkpt><trkpt lat="43.22588342720284" lon="6.079685246066421"><ele>115.33333333333333</ele><time>2026-04-22T08:36:15.999Z</time></trkpt><trkpt lat="43.2260177456309" lon="6.07982094481447"><ele>116.0</ele><time>2026-04-22T08:36:16.999Z</time></trkpt><trkpt lat="43.22615006228196" lon="6.079929371285203"><ele>116.0</ele><time>2026-04-22T08:36:17.999Z</time></trkpt><trkpt lat="43.22625993384385" lon="6.080044181607417"><ele>116.0</ele><time>2026-04-22T08:36:18.999Z</time></trkpt><trkpt lat="43.22637532041462" lon="6.080160915114751"><ele>116.0</ele><time>2026-04-22T08:36:19.999Z</time></trkpt><trkpt lat="43.22649856810236" lon="6.080283980546441"><ele>116.0</ele><time>2026-04-22T08:36:20.999Z</time></trkpt><trkpt lat="43.22663108466865" lon="6.080410295339268"><ele>116.0</ele><time>2026-04-22T08:36:21.999Z</time></trkpt><trkpt lat="43.22677217473563" lon="6.080572763466417"><ele>116.0</ele><time>2026-04-22T08:36:22.999Z</time></trkpt><trkpt lat="43.22691672702102" lon="6.080713918356475"><ele>116.0</ele><time>2026-04-22T08:36:23.999Z</time></trkpt><trkpt lat="43.22703911216967" lon="6.080809663941474"><ele>116.0</ele><time>2026-04-22T08:36:24.999Z</time></trkpt><trkpt lat="43.22717517085619" lon="6.080938851090081"><ele>116.0</ele><time>2026-04-22T08:36:25.999Z</time></trkpt><trkpt lat="43.22729630420031" lon="6.0810791144165535"><ele>116.0</ele><time>2026-04-22T08:36:27Z</time></trkpt><trkpt lat="43.2274297889462" lon="6.081207330417209"><ele>116.66666666666666</ele><time>2026-04-22T08:36:28Z</time></trkpt><trkpt lat="43.22757002061012" lon="6.081308880222057"><ele>117.33333333333334</ele><time>2026-04-22T08:36:29Z</time></trkpt><trkpt lat="43.22770301882364" lon="6.081431933127896"><ele>118.0</ele><time>2026-04-22T08:36:30Z</time></trkpt><trkpt lat="43.22784355724062" lon="6.081554516519563"><ele>118.0</ele><time>2026-04-22T08:36:31Z</time></trkpt><trkpt lat="43.22798752726652" lon="6.081664560670284"><ele>118.0</ele><time>2026-04-22T08:36:32Z</time></trkpt><trkpt lat="43.22813205467984" lon="6.081776628636978"><ele>118.0</ele><time>2026-04-22T08:36:33Z</time></trkpt><trkpt lat="43.228282950201745" lon="6.081908993815632"><ele>118.0</ele><time>2026-04-22T08:36:34Z</time></trkpt><trkpt lat="43.22844073254266" lon="6.082009718166476"><ele>118.0</ele><time>2026-04-22T08:36:35Z</time></trkpt><trkpt lat="43.228585616515545" lon="6.082131006101117"><ele>118.0</ele><time>2026-04-22T08:36:36Z</time></trkpt><trkpt lat="43.22873311115633" lon="6.082248626881176"><ele>118.0</ele><time>2026-04-22T08:36:37Z</time></trkpt><trkpt lat="43.22888126921242" lon="6.0823470022833686"><ele>118.0</ele><time>2026-04-22T08:36:38Z</time></trkpt><trkpt lat="43.22902263248772" lon="6.082444598151213"><ele>118.0</ele><time>2026-04-22T08:36:39Z</time></trkpt><trkpt lat="43.22915466346999" lon="6.0825573742661305"><ele>118.0</ele><time>2026-04-22T08:36:40Z</time></trkpt><trkpt lat="43.2292707889086" lon="6.082639657442785"><ele>118.0</ele><time>2026-04-22T08:36:41Z</time></trkpt><trkpt lat="43.22935230846155" lon="6.082687704499309"><ele>118.0</ele><time>2026-04-22T08:36:42Z</time></trkpt><trkpt lat="43.229577152322044" lon="6.082825339575343"><ele>118.0</ele><time>2026-04-22T08:36:43Z</time></trkpt><trkpt lat="43.22972327696235" lon="6.0829213534657995"><ele>118.0</ele><time>2026-04-22T08:36:44Z</time></trkpt><trkpt lat="43.22986718738512" lon="6.083016127463271"><ele>118.0</ele><time>2026-04-22T08:36:45Z</time></trkpt><trkpt lat="43.230010777603795" lon="6.0831139833812795"><ele>118.0</ele><time>2026-04-22T08:36:46Z</time></trkpt><trkpt lat="43.23015705495497" lon="6.083195210151674"><ele>118.0</ele><time>2026-04-22T08:36:47Z</time></trkpt><trkpt lat="43.23030703257362" lon="6.083282599855675"><ele>118.0</ele><time>2026-04-22T08:36:48Z</time></trkpt><trkpt lat="43.23045572394923" lon="6.083368490303493"><ele>118.0</ele><time>2026-04-22T08:36:49Z</time></trkpt><trkpt lat="43.23059866359463" lon="6.083445257937011"><ele>118.0</ele><time>2026-04-22T08:36:50Z</time></trkpt><trkpt lat="43.23074030181389" lon="6.083520664191222"><ele>118.0</ele><time>2026-04-22T08:36:51Z</time></trkpt><trkpt lat="43.23088168107246" lon="6.0835889193798725"><ele>119.33333333333334</ele><time>2026-04-22T08:36:52Z</time></trkpt><trkpt lat="43.231019421721435" lon="6.083676931645062"><ele>120.66666666666666</ele><time>2026-04-22T08:36:53Z</time></trkpt><trkpt lat="43.23116110681953" lon="6.083753736848719"><ele>122.0</ele><time>2026-04-22T08:36:54Z</time></trkpt><trkpt lat="43.23130600852182" lon="6.083830106023812"><ele>122.0</ele><time>2026-04-22T08:36:55Z</time></trkpt><trkpt lat="43.23145836271781" lon="6.0839075330725"><ele>122.0</ele><time>2026-04-22T08:36:56Z</time></trkpt><trkpt lat="43.23160075112156" lon="6.083976310431211"><ele>122.0</ele><time>2026-04-22T08:36:57Z</time></trkpt><trkpt lat="43.23172701519291" lon="6.08404045585994"><ele>122.0</ele><time>2026-04-22T08:36:58Z</time></trkpt><trkpt lat="43.23183421081481" lon="6.084096990098497"><ele>121.99999999999999</ele><time>2026-04-22T08:36:59Z</time></trkpt><trkpt lat="43.23192076352086" lon="6.084140423415672"><ele>122.0</ele><time>2026-04-22T08:37:00Z</time></trkpt><trkpt lat="43.232004953864546" lon="6.084181438770498"><ele>122.0</ele><time>2026-04-22T08:37:01Z</time></trkpt><trkpt lat="43.23207209203826" lon="6.084209334777395"><ele>122.0</ele><time>2026-04-22T08:37:02Z</time></trkpt><trkpt lat="43.2321381141769" lon="6.084231977212413"><ele>121.99999999999999</ele><time>2026-04-22T08:37:04Z</time></trkpt><trkpt lat="43.23224034473826" lon="6.0842666213287995"><ele>122.0</ele><time>2026-04-22T08:37:12Z</time></trkpt><trkpt lat="43.23231319661513" lon="6.084289917369919"><ele>121.99999999999999</ele><time>2026-04-22T08:37:13Z</time></trkpt><trkpt lat="43.23238858855658" lon="6.084313840451888"><ele>122.0</ele><time>2026-04-22T08:37:14Z</time></trkpt><trkpt lat="43.23248488480921" lon="6.084361004453196"><ele>122.0</ele><time>2026-04-22T08:37:16Z</time></trkpt><trkpt lat="43.23258537329898" lon="6.084361572278293"><ele>122.0</ele><time>2026-04-22T08:37:17Z</time></trkpt><trkpt lat="43.23266747599231" lon="6.084368004001598"><ele>121.99999999999999</ele><time>2026-04-22T08:37:18Z</time></trkpt><trkpt lat="43.23273742983364" lon="6.084385150395671"><ele>122.0</ele><time>2026-04-22T08:37:18.999Z</time></trkpt><trkpt lat="43.23280386345576" lon="6.084404937617077"><ele>122.0</ele><time>2026-04-22T08:37:20.999Z</time></trkpt><trkpt lat="43.23287520902752" lon="6.084428854465821"><ele>121.99999999999999</ele><time>2026-04-22T08:37:21.999Z</time></trkpt><trkpt lat="43.23296408675648" lon="6.0844638365168695"><ele>121.99999999999999</ele><time>2026-04-22T08:37:22.999Z</time></trkpt><trkpt lat="43.23305194088985" lon="6.084499622148992"><ele>122.0</ele><time>2026-04-22T08:37:23.999Z</time></trkpt><trkpt lat="43.233160770226604" lon="6.084547316218665"><ele>122.0</ele><time>2026-04-22T08:37:24.999Z</time></trkpt><trkpt lat="43.23325694954181" lon="6.084591002576401"><ele>122.25</ele><time>2026-04-22T08:37:25.999Z</time></trkpt><trkpt lat="43.23336854217535" lon="6.0846451870504605"><ele>122.5</ele><time>2026-04-22T08:37:26.999Z</time></trkpt><trkpt lat="43.23348627831628" lon="6.084702455975953"><ele>122.75</ele><time>2026-04-22T08:37:27.999Z</time></trkpt><trkpt lat="43.23360843040327" lon="6.084761871033576"><ele>123.0</ele><time>2026-04-22T08:37:28.999Z</time></trkpt><trkpt lat="43.23372674890464" lon="6.084806042163543"><ele>123.0</ele><time>2026-04-22T08:37:29.999Z</time></trkpt><trkpt lat="43.233840050030935" lon="6.084865717993909"><ele>123.0</ele><time>2026-04-22T08:37:30.999Z</time></trkpt><trkpt lat="43.233954232842706" lon="6.084929933717386"><ele>123.0</ele><time>2026-04-22T08:37:31.999Z</time></trkpt><trkpt lat="43.23409342757129" lon="6.085021993424337"><ele>123.0</ele><time>2026-04-22T08:37:32.999Z</time></trkpt><trkpt lat="43.2342297290649" lon="6.085091251371575"><ele>122.25</ele><time>2026-04-22T08:37:33.999Z</time></trkpt><trkpt lat="43.23439074188294" lon="6.085101074441304"><ele>121.5</ele><time>2026-04-22T08:37:35.999Z</time></trkpt><trkpt lat="43.23452219925104" lon="6.08515481732929"><ele>120.75</ele><time>2026-04-22T08:37:36.999Z</time></trkpt><trkpt lat="43.23463876475915" lon="6.085162699621423"><ele>120.0</ele><time>2026-04-22T08:37:37.999Z</time></trkpt><trkpt lat="43.23475251797555" lon="6.085198992768"><ele>120.2</ele><time>2026-04-22T08:37:38.999Z</time></trkpt><trkpt lat="43.23485328642359" lon="6.085244122013784"><ele>120.4</ele><time>2026-04-22T08:37:39.999Z</time></trkpt><trkpt lat="43.234957366838316" lon="6.0852851676213975"><ele>120.6</ele><time>2026-04-22T08:37:40.999Z</time></trkpt><trkpt lat="43.23506070764739" lon="6.085327851864911"><ele>120.8</ele><time>2026-04-22T08:37:41.999Z</time></trkpt><trkpt lat="43.23516127561674" lon="6.085367944144896"><ele>121.0</ele><time>2026-04-22T08:37:42.999Z</time></trkpt><trkpt lat="43.235259130575855" lon="6.085405412148776"><ele>121.00000000000001</ele><time>2026-04-22T08:37:43.999Z</time></trkpt><trkpt lat="43.23534758913394" lon="6.085448805957414"><ele>121.0</ele><time>2026-04-22T08:37:44.999Z</time></trkpt><trkpt lat="43.23542162989723" lon="6.085490537227638"><ele>121.0</ele><time>2026-04-22T08:37:45.999Z</time></trkpt><trkpt lat="43.23548510140175" lon="6.08551954360328"><ele>121.0</ele><time>2026-04-22T08:37:46.999Z</time></trkpt><trkpt lat="43.23553679539941" lon="6.085570890294039"><ele>121.00000000000001</ele><time>2026-04-22T08:37:47.999Z</time></trkpt><trkpt lat="43.235585633150244" lon="6.085626796743021"><ele>121.0</ele><time>2026-04-22T08:37:48.999Z</time></trkpt><trkpt lat="43.23566372693205" lon="6.085720051602982"><ele>121.0</ele><time>2026-04-22T08:37:50.999Z</time></trkpt><trkpt lat="43.23575652063352" lon="6.085819851018706"><ele>121.0</ele><time>2026-04-22T08:37:52.999Z</time></trkpt><trkpt lat="43.235716398713535" lon="6.086013655288243"><ele>121.0</ele><time>2026-04-22T08:37:53.999Z</time></trkpt><trkpt lat="43.23570935028575" lon="6.086167494727799"><ele>121.0</ele><time>2026-04-22T08:37:54.999Z</time></trkpt><trkpt lat="43.235708043423934" lon="6.086356189502367"><ele>121.0</ele><time>2026-04-22T08:37:55.999Z</time></trkpt><trkpt lat="43.23570090515897" lon="6.086551387705618"><ele>121.0</ele><time>2026-04-22T08:37:56.999Z</time></trkpt><trkpt lat="43.235694983898796" lon="6.086749826559091"><ele>121.0</ele><time>2026-04-22T08:37:57.999Z</time></trkpt><trkpt lat="43.23569054064943" lon="6.086961714877767"><ele>121.0</ele><time>2026-04-22T08:37:58.999Z</time></trkpt><trkpt lat="43.235691178772164" lon="6.087171255979547"><ele>120.5</ele><time>2026-04-22T08:37:59.999Z</time></trkpt><trkpt lat="43.235708691221056" lon="6.087366486193685"><ele>120.0</ele><time>2026-04-22T08:38:00.999Z</time></trkpt><trkpt lat="43.235727112450164" lon="6.087525923314659"><ele>119.5</ele><time>2026-04-22T08:38:01.999Z</time></trkpt><trkpt lat="43.235730722284565" lon="6.087694560655497"><ele>119.0</ele><time>2026-04-22T08:38:02.999Z</time></trkpt><trkpt lat="43.235712540932965" lon="6.087879620226682"><ele>118.5</ele><time>2026-04-22T08:38:03.999Z</time></trkpt><trkpt lat="43.235671600999424" lon="6.088061411754887"><ele>118.0</ele><time>2026-04-22T08:38:04.999Z</time></trkpt><trkpt lat="43.23563249785586" lon="6.0882052743615125"><ele>117.5</ele><time>2026-04-22T08:38:05.999Z</time></trkpt><trkpt lat="43.23557435920307" lon="6.088306630862676"><ele>117.0</ele><time>2026-04-22T08:38:06.999Z</time></trkpt><trkpt lat="43.23552047507497" lon="6.088481724953904"><ele>116.33333333333334</ele><time>2026-04-22T08:38:07.999Z</time></trkpt><trkpt lat="43.23545936454414" lon="6.088832585424494"><ele>115.66666666666667</ele><time>2026-04-22T08:38:08.999Z</time></trkpt><trkpt lat="43.23540667051985" lon="6.089048870499202"><ele>115.0</ele><time>2026-04-22T08:38:09.999Z</time></trkpt><trkpt lat="43.235354209262624" lon="6.089249301342368"><ele>114.5</ele><time>2026-04-22T08:38:10.999Z</time></trkpt><trkpt lat="43.23530206725135" lon="6.08943690880254"><ele>114.0</ele><time>2026-04-22T08:38:11.999Z</time></trkpt><trkpt lat="43.23525135047308" lon="6.0896269363325874"><ele>113.5</ele><time>2026-04-22T08:38:12.999Z</time></trkpt><trkpt lat="43.235198487178046" lon="6.089816259182764"><ele>113.0</ele><time>2026-04-22T08:38:13.999Z</time></trkpt><trkpt lat="43.235143981682484" lon="6.08999865349517"><ele>112.66666666666666</ele><time>2026-04-22T08:38:14.999Z</time></trkpt><trkpt lat="43.235089141825604" lon="6.090194025494529"><ele>112.33333333333334</ele><time>2026-04-22T08:38:15.999Z</time></trkpt><trkpt lat="43.23503520688557" lon="6.090403901254599"><ele>112.0</ele><time>2026-04-22T08:38:16.999Z</time></trkpt><trkpt lat="43.2349865724073" lon="6.090602084633208"><ele>112.0</ele><time>2026-04-22T08:38:17.999Z</time></trkpt><trkpt lat="43.2349404790964" lon="6.090805343980569"><ele>112.0</ele><time>2026-04-22T08:38:18.999Z</time></trkpt><trkpt lat="43.23489729287869" lon="6.091007047128388"><ele>112.0</ele><time>2026-04-22T08:38:19.999Z</time></trkpt><trkpt lat="43.23484900347691" lon="6.09120368915269"><ele>112.33333333333334</ele><time>2026-04-22T08:38:20.999Z</time></trkpt><trkpt lat="43.234803668527015" lon="6.091402194378194"><ele>112.66666666666666</ele><time>2026-04-22T08:38:21.999Z</time></trkpt><trkpt lat="43.23475711550804" lon="6.091606074526797"><ele>113.0</ele><time>2026-04-22T08:38:22.999Z</time></trkpt><trkpt lat="43.23470803954024" lon="6.091794161945072"><ele>113.25</ele><time>2026-04-22T08:38:23.999Z</time></trkpt><trkpt lat="43.23466498657063" lon="6.091953029494772"><ele>113.5</ele><time>2026-04-22T08:38:24.998Z</time></trkpt><trkpt lat="43.23461779607739" lon="6.092134431872247"><ele>113.75</ele><time>2026-04-22T08:38:25.998Z</time></trkpt><trkpt lat="43.23458193743251" lon="6.092311828835568"><ele>114.0</ele><time>2026-04-22T08:38:26.998Z</time></trkpt><trkpt lat="43.2345482066538" lon="6.09249785468729"><ele>113.5</ele><time>2026-04-22T08:38:27.998Z</time></trkpt><trkpt lat="43.23451702472356" lon="6.092676501805858"><ele>113.0</ele><time>2026-04-22T08:38:28.998Z</time></trkpt><trkpt lat="43.2344841565076" lon="6.092849847148782"><ele>112.5</ele><time>2026-04-22T08:38:29.998Z</time></trkpt><trkpt lat="43.234458255925944" lon="6.0929856404121505"><ele>112.0</ele><time>2026-04-22T08:38:30.998Z</time></trkpt><trkpt lat="43.23443492331067" lon="6.093101359591493"><ele>112.00000000000001</ele><time>2026-04-22T08:38:32Z</time></trkpt><trkpt lat="43.234418541272035" lon="6.093200232548414"><ele>112.0</ele><time>2026-04-22T08:38:33Z</time></trkpt><trkpt lat="43.234396979110215" lon="6.0933445064108485"><ele>112.0</ele><time>2026-04-22T08:38:35Z</time></trkpt><trkpt lat="43.23439221375728" lon="6.093436757759024"><ele>112.0</ele><time>2026-04-22T08:38:37Z</time></trkpt><trkpt lat="43.23450052447472" lon="6.093493397133514"><ele>112.00000000000001</ele><time>2026-04-22T08:38:38Z</time></trkpt><trkpt lat="43.23457687358016" lon="6.093528783881592"><ele>112.0</ele><time>2026-04-22T08:38:39Z</time></trkpt><trkpt lat="43.23466652859413" lon="6.093572316851722"><ele>111.39999999999999</ele><time>2026-04-22T08:38:40Z</time></trkpt><trkpt lat="43.23476499006136" lon="6.093619857329783"><ele>110.79999999999998</ele><time>2026-04-22T08:38:41Z</time></trkpt><trkpt lat="43.234862367047526" lon="6.093667008511711"><ele>110.2</ele><time>2026-04-22T08:38:42Z</time></trkpt><trkpt lat="43.23496272911649" lon="6.0937286892786755"><ele>109.6</ele><time>2026-04-22T08:38:43Z</time></trkpt><trkpt lat="43.23506443508316" lon="6.093790782311192"><ele>109.0</ele><time>2026-04-22T08:38:44Z</time></trkpt><trkpt lat="43.235161169326076" lon="6.093869601393331"><ele>108.80000000000001</ele><time>2026-04-22T08:38:45Z</time></trkpt><trkpt lat="43.23526545319866" lon="6.093914609572778"><ele>108.60000000000001</ele><time>2026-04-22T08:38:46Z</time></trkpt><trkpt lat="43.235366596219684" lon="6.09397967983653"><ele>108.4</ele><time>2026-04-22T08:38:47Z</time></trkpt><trkpt lat="43.23546307822075" lon="6.094047042863938"><ele>108.2</ele><time>2026-04-22T08:38:48Z</time></trkpt><trkpt lat="43.23556029589085" lon="6.094111935470641"><ele>108.0</ele><time>2026-04-22T08:38:49Z</time></trkpt><trkpt lat="43.235660175098914" lon="6.094171061754592"><ele>108.0</ele><time>2026-04-22T08:38:50Z</time></trkpt><trkpt lat="43.23575261331818" lon="6.094239253877578"><ele>108.00000000000001</ele><time>2026-04-22T08:38:51Z</time></trkpt><trkpt lat="43.23585580445359" lon="6.094309907694147"><ele>108.00000000000001</ele><time>2026-04-22T08:38:52Z</time></trkpt><trkpt lat="43.235946110096435" lon="6.0943898237357885"><ele>108.0</ele><time>2026-04-22T08:38:53Z</time></trkpt><trkpt lat="43.23603379185266" lon="6.0944446431832455"><ele>108.0</ele><time>2026-04-22T08:38:54Z</time></trkpt><trkpt lat="43.23611024915416" lon="6.09453772659439"><ele>108.0</ele><time>2026-04-22T08:38:55Z</time></trkpt><trkpt lat="43.236176417379596" lon="6.094603482708723"><ele>108.0</ele><time>2026-04-22T08:38:56Z</time></trkpt><trkpt lat="43.236288476946434" lon="6.094619798621777"><ele>108.0</ele><time>2026-04-22T08:38:57Z</time></trkpt><trkpt lat="43.23646894873266" lon="6.0947484990456635"><ele>108.0</ele><time>2026-04-22T08:38:58Z</time></trkpt><trkpt lat="43.2365942714406" lon="6.094836801939115"><ele>108.0</ele><time>2026-04-22T08:38:59Z</time></trkpt><trkpt lat="43.236713320370896" lon="6.094909337362348"><ele>108.0</ele><time>2026-04-22T08:39:00Z</time></trkpt><trkpt lat="43.23683426518738" lon="6.094992714605664"><ele>108.0</ele><time>2026-04-22T08:39:01Z</time></trkpt><trkpt lat="43.236954505411276" lon="6.095066830558981"><ele>108.0</ele><time>2026-04-22T08:39:02Z</time></trkpt><trkpt lat="43.23706761469553" lon="6.095134993984285"><ele>107.75</ele><time>2026-04-22T08:39:03Z</time></trkpt><trkpt lat="43.23718526850964" lon="6.095200064195033"><ele>107.5</ele><time>2026-04-22T08:39:04Z</time></trkpt><trkpt lat="43.23730407273303" lon="6.095266157361623"><ele>107.25</ele><time>2026-04-22T08:39:05Z</time></trkpt><trkpt lat="43.23741950710638" lon="6.095335730730114"><ele>107.0</ele><time>2026-04-22T08:39:06Z</time></trkpt><trkpt lat="43.23753269874643" lon="6.095403018535153"><ele>106.75</ele><time>2026-04-22T08:39:07Z</time></trkpt><trkpt lat="43.237653919856086" lon="6.095474216328259"><ele>106.5</ele><time>2026-04-22T08:39:08Z</time></trkpt><trkpt lat="43.23777878312151" lon="6.095542512529381"><ele>106.25</ele><time>2026-04-22T08:39:09Z</time></trkpt><trkpt lat="43.23790696606457" lon="6.095600728193572"><ele>106.0</ele><time>2026-04-22T08:39:10Z</time></trkpt><trkpt lat="43.23803383933918" lon="6.095661312128542"><ele>106.0</ele><time>2026-04-22T08:39:11Z</time></trkpt><trkpt lat="43.2381552687752" lon="6.095718474765974"><ele>106.0</ele><time>2026-04-22T08:39:12Z</time></trkpt><trkpt lat="43.2382757387713" lon="6.095775032750102"><ele>106.0</ele><time>2026-04-22T08:39:13Z</time></trkpt><trkpt lat="43.238398886816285" lon="6.095833353281624"><ele>106.0</ele><time>2026-04-22T08:39:14Z</time></trkpt><trkpt lat="43.238513608127356" lon="6.0959050879504035"><ele>106.0</ele><time>2026-04-22T08:39:15Z</time></trkpt><trkpt lat="43.23862057701957" lon="6.095989188906612"><ele>106.0</ele><time>2026-04-22T08:39:16Z</time></trkpt><trkpt lat="43.23871183323532" lon="6.096035198861156"><ele>106.0</ele><time>2026-04-22T08:39:17Z</time></trkpt><trkpt lat="43.23881687970299" lon="6.096091420696434"><ele>106.0</ele><time>2026-04-22T08:39:18Z</time></trkpt><trkpt lat="43.23889734536092" lon="6.096137466537497"><ele>106.0</ele><time>2026-04-22T08:39:19Z</time></trkpt><trkpt lat="43.238968534740835" lon="6.096186849897492"><ele>106.4</ele><time>2026-04-22T08:39:20Z</time></trkpt><trkpt lat="43.23907281859886" lon="6.096227865837562"><ele>106.8</ele><time>2026-04-22T08:39:21.999Z</time></trkpt><trkpt lat="43.239172659089135" lon="6.0962267871082805"><ele>107.20000000000002</ele><time>2026-04-22T08:39:23.999Z</time></trkpt><trkpt lat="43.239259647034444" lon="6.096151912343591"><ele>107.60000000000001</ele><time>2026-04-22T08:39:25.999Z</time></trkpt><trkpt lat="43.23930559926563" lon="6.096055193123242"><ele>108.0</ele><time>2026-04-22T08:39:26.999Z</time></trkpt><trkpt lat="43.23934014772374" lon="6.095940576642609"><ele>108.0</ele><time>2026-04-22T08:39:27.999Z</time></trkpt><trkpt lat="43.23940459980616" lon="6.09585069469755"><ele>108.00000000000001</ele><time>2026-04-22T08:39:28.999Z</time></trkpt><trkpt lat="43.23946061126969" lon="6.095768848989224"><ele>108.00000000000001</ele><time>2026-04-22T08:39:29.999Z</time></trkpt><trkpt lat="43.23950096340366" lon="6.095604851395084"><ele>108.0</ele><time>2026-04-22T08:39:30.999Z</time></trkpt><trkpt lat="43.23954921992267" lon="6.095509351660421"><ele>108.0</ele><time>2026-04-22T08:39:31.999Z</time></trkpt><trkpt lat="43.23957831182657" lon="6.095429024039078"><ele>108.16666666666667</ele><time>2026-04-22T08:39:32.999Z</time></trkpt><trkpt lat="43.239628028649086" lon="6.0953102224463755"><ele>108.33333333333334</ele><time>2026-04-22T08:39:34.999Z</time></trkpt><trkpt lat="43.23969562198265" lon="6.095255449131311"><ele>108.5</ele><time>2026-04-22T08:39:36.999Z</time></trkpt><trkpt lat="43.23980035991718" lon="6.09527375497764"><ele>108.66666666666667</ele><time>2026-04-22T08:39:38.999Z</time></trkpt><trkpt lat="43.23986450654997" lon="6.095324077271723"><ele>108.83333333333334</ele><time>2026-04-22T08:39:39.999Z</time></trkpt><trkpt lat="43.23993373821284" lon="6.095392392455201"><ele>109.0</ele><time>2026-04-22T08:39:40.999Z</time></trkpt><trkpt lat="43.24001026020213" lon="6.095450749339041"><ele>109.0</ele><time>2026-04-22T08:39:41.999Z</time></trkpt><trkpt lat="43.24009039934464" lon="6.0955071697055025"><ele>109.0</ele><time>2026-04-22T08:39:42.999Z</time></trkpt><trkpt lat="43.24019133251396" lon="6.095565884607803"><ele>109.0</ele><time>2026-04-22T08:39:43.999Z</time></trkpt><trkpt lat="43.24029920180868" lon="6.095616056648023"><ele>109.0</ele><time>2026-04-22T08:39:44.999Z</time></trkpt><trkpt lat="43.24041269487079" lon="6.095668234495877"><ele>109.0</ele><time>2026-04-22T08:39:45.999Z</time></trkpt><trkpt lat="43.24052470016653" lon="6.095717018632909"><ele>108.6</ele><time>2026-04-22T08:39:46.999Z</time></trkpt><trkpt lat="43.24061636359265" lon="6.095759483523419"><ele>108.2</ele><time>2026-04-22T08:39:47.999Z</time></trkpt><trkpt lat="43.24070895974501" lon="6.095800315738088"><ele>107.79999999999998</ele><time>2026-04-22T08:39:48.999Z</time></trkpt><trkpt lat="43.24079537998119" lon="6.0958460842971975"><ele>107.39999999999999</ele><time>2026-04-22T08:39:49.999Z</time></trkpt><trkpt lat="43.240880166227505" lon="6.09587960465095"><ele>107.0</ele><time>2026-04-22T08:39:50.999Z</time></trkpt><trkpt lat="43.2409710629332" lon="6.095912002762731"><ele>107.0</ele><time>2026-04-22T08:39:51.999Z</time></trkpt><trkpt lat="43.2410812376109" lon="6.095919457030276"><ele>106.99999999999999</ele><time>2026-04-22T08:39:52.999Z</time></trkpt><trkpt lat="43.24118680432039" lon="6.0959216907517595"><ele>106.99999999999999</ele><time>2026-04-22T08:39:53.999Z</time></trkpt><trkpt lat="43.241293068033" lon="6.095920892767337"><ele>107.0</ele><time>2026-04-22T08:39:54.999Z</time></trkpt><trkpt lat="43.241398740890844" lon="6.095913581901541"><ele>107.0</ele><time>2026-04-22T08:39:55.999Z</time></trkpt><trkpt lat="43.24150365961334" lon="6.095893792812165"><ele>107.0</ele><time>2026-04-22T08:39:56.999Z</time></trkpt><trkpt lat="43.2416099779435" lon="6.095870667936828"><ele>106.99999999999999</ele><time>2026-04-22T08:39:57.999Z</time></trkpt><trkpt lat="43.241725164316975" lon="6.095852366678608"><ele>106.99999999999999</ele><time>2026-04-22T08:39:58.999Z</time></trkpt><trkpt lat="43.24182635990741" lon="6.095833562408994"><ele>107.0</ele><time>2026-04-22T08:39:59.999Z</time></trkpt><trkpt lat="43.2419379658662" lon="6.095813062230837"><ele>107.0</ele><time>2026-04-22T08:40:00.999Z</time></trkpt><trkpt lat="43.242045007065926" lon="6.095783410287609"><ele>107.0</ele><time>2026-04-22T08:40:01.999Z</time></trkpt><trkpt lat="43.242150563393814" lon="6.09576808327561"><ele>106.99999999999999</ele><time>2026-04-22T08:40:02.999Z</time></trkpt><trkpt lat="43.24226123502235" lon="6.095729749380922"><ele>106.99999999999999</ele><time>2026-04-22T08:40:03.999Z</time></trkpt><trkpt lat="43.24237049562699" lon="6.095702116840605"><ele>107.0</ele><time>2026-04-22T08:40:04.999Z</time></trkpt><trkpt lat="43.24247960342745" lon="6.095672348346915"><ele>107.0</ele><time>2026-04-22T08:40:05.999Z</time></trkpt><trkpt lat="43.24258655970809" lon="6.095646107938114"><ele>107.0</ele><time>2026-04-22T08:40:06.999Z</time></trkpt><trkpt lat="43.242696247728155" lon="6.095622864856396"><ele>106.99999999999999</ele><time>2026-04-22T08:40:07.999Z</time></trkpt><trkpt lat="43.242807817594134" lon="6.095599275915916"><ele>106.99999999999999</ele><time>2026-04-22T08:40:08.999Z</time></trkpt><trkpt lat="43.24290276114204" lon="6.095603872135741"><ele>107.0</ele><time>2026-04-22T08:40:09.999Z</time></trkpt><trkpt lat="43.24298798738023" lon="6.0955870585868634"><ele>107.0</ele><time>2026-04-22T08:40:10.999Z</time></trkpt><trkpt lat="43.24317507003857" lon="6.0955344339711095"><ele>107.0</ele><time>2026-04-22T08:40:11.999Z</time></trkpt><trkpt lat="43.24330051456327" lon="6.095512307791839"><ele>107.0</ele><time>2026-04-22T08:40:12.999Z</time></trkpt><trkpt lat="43.24342818784286" lon="6.095491433152997"><ele>107.0</ele><time>2026-04-22T08:40:13.999Z</time></trkpt><trkpt lat="43.24355113158036" lon="6.095469233951364"><ele>107.0</ele><time>2026-04-22T08:40:14.999Z</time></trkpt><trkpt lat="43.24366959249295" lon="6.0954417233993485"><ele>107.0</ele><time>2026-04-22T08:40:15.999Z</time></trkpt><trkpt lat="43.24378182586629" lon="6.095412227625912"><ele>106.99999999999999</ele><time>2026-04-22T08:40:16.999Z</time></trkpt><trkpt lat="43.24388863084751" lon="6.095396564623594"><ele>106.99999999999999</ele><time>2026-04-22T08:40:17.999Z</time></trkpt><trkpt lat="43.24397715945442" lon="6.09534127907063"><ele>107.0</ele><time>2026-04-22T08:40:18.999Z</time></trkpt><trkpt lat="43.24405112913807" lon="6.095288388532941"><ele>107.0</ele><time>2026-04-22T08:40:19.999Z</time></trkpt><trkpt lat="43.24414610849736" lon="6.095222741678588"><ele>107.0</ele><time>2026-04-22T08:40:21.999Z</time></trkpt><trkpt lat="43.24422104809008" lon="6.0952761111232086"><ele>106.99999999999999</ele><time>2026-04-22T08:40:24.999Z</time></trkpt><trkpt lat="43.24422123319648" lon="6.095389004318977"><ele>106.99999999999999</ele><time>2026-04-22T08:40:27.998Z</time></trkpt><trkpt lat="43.24420620496267" lon="6.0954858349806775"><ele>107.0</ele><time>2026-04-22T08:40:46Z</time></trkpt><trkpt lat="43.24418674772428" lon="6.095631438505252"><ele>107.0</ele><time>2026-04-22T08:40:48Z</time></trkpt><trkpt lat="43.24426899992871" lon="6.09576850443497"><ele>107.0</ele><time>2026-04-22T08:40:50Z</time></trkpt><trkpt lat="43.24441375640715" lon="6.095744801439505"><ele>106.99999999999999</ele><time>2026-04-22T08:40:52Z</time></trkpt><trkpt lat="43.24449035980334" lon="6.095685775957515"><ele>106.99999999999999</ele><time>2026-04-22T08:40:53Z</time></trkpt><trkpt lat="43.24456922108954" lon="6.09563643258316"><ele>107.0</ele><time>2026-04-22T08:40:54Z</time></trkpt><trkpt lat="43.24466492886887" lon="6.095605375411304"><ele>107.0</ele><time>2026-04-22T08:40:55Z</time></trkpt><trkpt lat="43.2447424696837" lon="6.095598913933875"><ele>107.0</ele><time>2026-04-22T08:40:56Z</time></trkpt><trkpt lat="43.244809035612555" lon="6.095606697275715"><ele>107.0</ele><time>2026-04-22T08:40:57Z</time></trkpt><trkpt lat="43.24495321085859" lon="6.095646355457847"><ele>107.0</ele><time>2026-04-22T08:40:59Z</time></trkpt><trkpt lat="43.2450575092381" lon="6.095663600188317"><ele>107.0</ele><time>2026-04-22T08:41:00Z</time></trkpt><trkpt lat="43.245365205596045" lon="6.095528277050451"><ele>107.0</ele><time>2026-04-22T08:41:01Z</time></trkpt><trkpt lat="43.245501029917236" lon="6.095510301151444"><ele>107.0</ele><time>2026-04-22T08:41:02Z</time></trkpt><trkpt lat="43.24563331788192" lon="6.095486485004201"><ele>107.0</ele><time>2026-04-22T08:41:03Z</time></trkpt><trkpt lat="43.24576177538111" lon="6.0954662132801545"><ele>107.0</ele><time>2026-04-22T08:41:04Z</time></trkpt><trkpt lat="43.245889330181136" lon="6.095448182086499"><ele>107.25</ele><time>2026-04-22T08:41:05Z</time></trkpt><trkpt lat="43.24601744283776" lon="6.095425852798913"><ele>107.5</ele><time>2026-04-22T08:41:06Z</time></trkpt><trkpt lat="43.24614687515607" lon="6.095400207070223"><ele>107.75</ele><time>2026-04-22T08:41:07Z</time></trkpt><trkpt lat="43.24627622912284" lon="6.095370693600378"><ele>108.0</ele><time>2026-04-22T08:41:08Z</time></trkpt><trkpt lat="43.24641182209831" lon="6.0953318653589275"><ele>108.0</ele><time>2026-04-22T08:41:09Z</time></trkpt><trkpt lat="43.24653776175815" lon="6.095294576164265"><ele>108.0</ele><time>2026-04-22T08:41:10Z</time></trkpt><trkpt lat="43.24666300367359" lon="6.095258929226077"><ele>108.0</ele><time>2026-04-22T08:41:11Z</time></trkpt><trkpt lat="43.246792926453274" lon="6.095220336542014"><ele>108.0</ele><time>2026-04-22T08:41:12Z</time></trkpt><trkpt lat="43.24691737879316" lon="6.095184127228456"><ele>108.0</ele><time>2026-04-22T08:41:13Z</time></trkpt><trkpt lat="43.24703258139786" lon="6.095149781727941"><ele>108.00000000000001</ele><time>2026-04-22T08:41:14Z</time></trkpt><trkpt lat="43.24714176702553" lon="6.095107234130768"><ele>108.00000000000001</ele><time>2026-04-22T08:41:15Z</time></trkpt><trkpt lat="43.247242926419965" lon="6.095071161188203"><ele>108.0</ele><time>2026-04-22T08:41:16Z</time></trkpt><trkpt lat="43.247351192846445" lon="6.095042764846357"><ele>108.0</ele><time>2026-04-22T08:41:17Z</time></trkpt><trkpt lat="43.24746274899902" lon="6.095029895756946"><ele>108.0</ele><time>2026-04-22T08:41:18Z</time></trkpt><trkpt lat="43.247563405934265" lon="6.095024603108229"><ele>108.00000000000001</ele><time>2026-04-22T08:41:19Z</time></trkpt><trkpt lat="43.24766202955884" lon="6.095042065643058"><ele>108.00000000000001</ele><time>2026-04-22T08:41:20Z</time></trkpt><trkpt lat="43.247763865442806" lon="6.095069238671928"><ele>108.0</ele><time>2026-04-22T08:41:21Z</time></trkpt><trkpt lat="43.24785194678564" lon="6.095171342818818"><ele>108.0</ele><time>2026-04-22T08:41:22Z</time></trkpt><trkpt lat="43.24793871474719" lon="6.095236158602358"><ele>108.0</ele><time>2026-04-22T08:41:23Z</time></trkpt><trkpt lat="43.2480423012967" lon="6.095303680771807"><ele>108.0</ele><time>2026-04-22T08:41:24Z</time></trkpt><trkpt lat="43.24813131798796" lon="6.095410587090268"><ele>108.0</ele><time>2026-04-22T08:41:25Z</time></trkpt><trkpt lat="43.24822028758596" lon="6.095533284819056"><ele>108.0</ele><time>2026-04-22T08:41:26Z</time></trkpt><trkpt lat="43.24830837653259" lon="6.095649997292483"><ele>107.5</ele><time>2026-04-22T08:41:26.999Z</time></trkpt><trkpt lat="43.24839732836552" lon="6.095760623905327"><ele>107.0</ele><time>2026-04-22T08:41:27.999Z</time></trkpt><trkpt lat="43.24849936725731" lon="6.095877013045892"><ele>106.5</ele><time>2026-04-22T08:41:28.999Z</time></trkpt><trkpt lat="43.24859612212365" lon="6.095980966458145"><ele>106.0</ele><time>2026-04-22T08:41:29.999Z</time></trkpt><trkpt lat="43.24868515041102" lon="6.0960735062843705"><ele>106.0</ele><time>2026-04-22T08:41:30.999Z</time></trkpt><trkpt lat="43.24876132269628" lon="6.096162652483623"><ele>106.0</ele><time>2026-04-22T08:41:31.999Z</time></trkpt><trkpt lat="43.24883741972301" lon="6.096239163104183"><ele>106.0</ele><time>2026-04-22T08:41:32.999Z</time></trkpt><trkpt lat="43.24892656390909" lon="6.09631417240101"><ele>106.0</ele><time>2026-04-22T08:41:33.999Z</time></trkpt><trkpt lat="43.24901191890688" lon="6.09640297775589"><ele>106.0</ele><time>2026-04-22T08:41:34.999Z</time></trkpt><trkpt lat="43.2490918032338" lon="6.0964936674073575"><ele>106.19999999999999</ele><time>2026-04-22T08:41:35.999Z</time></trkpt><trkpt lat="43.24917525825898" lon="6.096581217131"><ele>106.39999999999999</ele><time>2026-04-22T08:41:36.999Z</time></trkpt><trkpt lat="43.249257128093696" lon="6.096662498390983"><ele>106.6</ele><time>2026-04-22T08:41:37.999Z</time></trkpt><trkpt lat="43.24934184719547" lon="6.096745460875364"><ele>106.8</ele><time>2026-04-22T08:41:38.999Z</time></trkpt><trkpt lat="43.249433768361115" lon="6.096835784894859"><ele>107.0</ele><time>2026-04-22T08:41:39.999Z</time></trkpt><trkpt lat="43.24951935028926" lon="6.096918612897981"><ele>106.6</ele><time>2026-04-22T08:41:40.999Z</time></trkpt><trkpt lat="43.249592996871925" lon="6.096989259947767"><ele>106.19999999999999</ele><time>2026-04-22T08:41:41.999Z</time></trkpt><trkpt lat="43.249666838182094" lon="6.097063587633588"><ele>105.8</ele><time>2026-04-22T08:41:42.999Z</time></trkpt><trkpt lat="43.249741457608906" lon="6.0971441538517555"><ele>105.4</ele><time>2026-04-22T08:41:43.999Z</time></trkpt><trkpt lat="43.249818319919946" lon="6.097234529714864"><ele>105.0</ele><time>2026-04-22T08:41:44.999Z</time></trkpt><trkpt lat="43.249895232676565" lon="6.097329941993324"><ele>104.6</ele><time>2026-04-22T08:41:45.999Z</time></trkpt><trkpt lat="43.249972712628974" lon="6.09743050763565"><ele>104.2</ele><time>2026-04-22T08:41:46.999Z</time></trkpt><trkpt lat="43.250050314001754" lon="6.097538770150771"><ele>103.80000000000001</ele><time>2026-04-22T08:41:47.999Z</time></trkpt><trkpt lat="43.25012729853606" lon="6.097649396719641"><ele>103.4</ele><time>2026-04-22T08:41:48.999Z</time></trkpt><trkpt lat="43.250205180332394" lon="6.097761965566853"><ele>103.0</ele><time>2026-04-22T08:41:49.999Z</time></trkpt><trkpt lat="43.2502774121455" lon="6.097859555810338"><ele>103.00000000000001</ele><time>2026-04-22T08:41:50.999Z</time></trkpt><trkpt lat="43.25034403282083" lon="6.097955405017068"><ele>103.0</ele><time>2026-04-22T08:41:51.999Z</time></trkpt><trkpt lat="43.250403447282565" lon="6.098037546232502"><ele>103.0</ele><time>2026-04-22T08:41:52.999Z</time></trkpt><trkpt lat="43.25045201199637" lon="6.098111208736158"><ele>103.0</ele><time>2026-04-22T08:41:53.999Z</time></trkpt><trkpt lat="43.25049174154216" lon="6.098178708218475"><ele>103.00000000000001</ele><time>2026-04-22T08:41:54.999Z</time></trkpt><trkpt lat="43.25055179619645" lon="6.098296623117988"><ele>103.0</ele><time>2026-04-22T08:41:56.999Z</time></trkpt><trkpt lat="43.250573130800355" lon="6.098391335778466"><ele>103.25</ele><time>2026-04-22T08:41:58.999Z</time></trkpt><trkpt lat="43.250480391625786" lon="6.0986388991195835"><ele>103.5</ele><time>2026-04-22T08:42:00.999Z</time></trkpt><trkpt lat="43.25044380963344" lon="6.09876361755062"><ele>103.75</ele><time>2026-04-22T08:42:01.999Z</time></trkpt><trkpt lat="43.25041302258614" lon="6.09889835791476"><ele>104.0</ele><time>2026-04-22T08:42:02.999Z</time></trkpt><trkpt lat="43.25038350373748" lon="6.099043084023306"><ele>103.80000000000001</ele><time>2026-04-22T08:42:03.999Z</time></trkpt><trkpt lat="43.25034723246592" lon="6.099194489837791"><ele>103.60000000000001</ele><time>2026-04-22T08:42:04.999Z</time></trkpt><trkpt lat="43.250329904319734" lon="6.0993303906336"><ele>103.4</ele><time>2026-04-22T08:42:05.999Z</time></trkpt><trkpt lat="43.25030408866096" lon="6.099449707600369"><ele>103.2</ele><time>2026-04-22T08:42:06.999Z</time></trkpt><trkpt lat="43.25029768505342" lon="6.099571114696508"><ele>103.0</ele><time>2026-04-22T08:42:07.999Z</time></trkpt><trkpt lat="43.250290279448734" lon="6.099697469981478"><ele>103.0</ele><time>2026-04-22T08:42:08.999Z</time></trkpt><trkpt lat="43.250298854732044" lon="6.099833847197094"><ele>103.0</ele><time>2026-04-22T08:42:09.999Z</time></trkpt><trkpt lat="43.250323989382295" lon="6.099972135926381"><ele>103.0</ele><time>2026-04-22T08:42:10.999Z</time></trkpt><trkpt lat="43.250359872178855" lon="6.100109312502491"><ele>103.0</ele><time>2026-04-22T08:42:11.999Z</time></trkpt><trkpt lat="43.25039060039206" lon="6.100258557420558"><ele>103.0</ele><time>2026-04-22T08:42:12.999Z</time></trkpt><trkpt lat="43.2504444241438" lon="6.1004021567156945"><ele>103.0</ele><time>2026-04-22T08:42:13.999Z</time></trkpt><trkpt lat="43.25051371278474" lon="6.100547210020184"><ele>103.0</ele><time>2026-04-22T08:42:14.999Z</time></trkpt><trkpt lat="43.250572280329926" lon="6.100670204430019"><ele>103.0</ele><time>2026-04-22T08:42:15.999Z</time></trkpt><trkpt lat="43.2506196584045" lon="6.100806192847868"><ele>103.0</ele><time>2026-04-22T08:42:16.999Z</time></trkpt><trkpt lat="43.25066928190207" lon="6.100945520029471"><ele>102.0</ele><time>2026-04-22T08:42:17.999Z</time></trkpt><trkpt lat="43.250726194209655" lon="6.101085316323287"><ele>101.0</ele><time>2026-04-22T08:42:18.999Z</time></trkpt><trkpt lat="43.25079317818842" lon="6.101225188506853"><ele>100.0</ele><time>2026-04-22T08:42:19.999Z</time></trkpt><trkpt lat="43.25086929928323" lon="6.101362224838718"><ele>99.0</ele><time>2026-04-22T08:42:20.999Z</time></trkpt><trkpt lat="43.25094242650063" lon="6.10148167132258"><ele>99.0</ele><time>2026-04-22T08:42:21.999Z</time></trkpt><trkpt lat="43.251004037181744" lon="6.101580038832702"><ele>99.0</ele><time>2026-04-22T08:42:22.999Z</time></trkpt><trkpt lat="43.25105085999201" lon="6.101661291840863"><ele>99.0</ele><time>2026-04-22T08:42:23.999Z</time></trkpt><trkpt lat="43.25110045468221" lon="6.1017486929130005"><ele>99.0</ele><time>2026-04-22T08:42:25.999Z</time></trkpt><trkpt lat="43.25114945825726" lon="6.101847576122145"><ele>99.0</ele><time>2026-04-22T08:42:29.999Z</time></trkpt><trkpt lat="43.251255460676795" lon="6.101773509610655"><ele>99.0</ele><time>2026-04-22T08:42:30.999Z</time></trkpt><trkpt lat="43.251327509735994" lon="6.101745250167003"><ele>99.0</ele><time>2026-04-22T08:42:31.999Z</time></trkpt><trkpt lat="43.25139498903995" lon="6.101714727536473"><ele>99.0</ele><time>2026-04-22T08:42:32.999Z</time></trkpt><trkpt lat="43.25146822138743" lon="6.1016832425716245"><ele>99.0</ele><time>2026-04-22T08:42:33.998Z</time></trkpt><trkpt lat="43.25155463534234" lon="6.101645969943675"><ele>99.0</ele><time>2026-04-22T08:42:34.998Z</time></trkpt><trkpt lat="43.25164934817712" lon="6.101604988427435"><ele>99.0</ele><time>2026-04-22T08:42:35.998Z</time></trkpt><trkpt lat="43.25175234411319" lon="6.101561530139791"><ele>98.80000000000001</ele><time>2026-04-22T08:42:36.998Z</time></trkpt><trkpt lat="43.25185406559798" lon="6.1015207061188"><ele>98.60000000000001</ele><time>2026-04-22T08:42:37.998Z</time></trkpt><trkpt lat="43.251959231223616" lon="6.101478210198189"><ele>98.4</ele><time>2026-04-22T08:42:38.998Z</time></trkpt><trkpt lat="43.25206531454215" lon="6.101436146851927"><ele>98.2</ele><time>2026-04-22T08:42:39.998Z</time></trkpt><trkpt lat="43.25217401618296" lon="6.101394913958099"><ele>98.0</ele><time>2026-04-22T08:42:40.998Z</time></trkpt><trkpt lat="43.252268149753114" lon="6.101359284012029"><ele>98.60000000000001</ele><time>2026-04-22T08:42:41.998Z</time></trkpt><trkpt lat="43.25236384304829" lon="6.101323027798184"><ele>99.2</ele><time>2026-04-22T08:42:42.998Z</time></trkpt><trkpt lat="43.25246111200412" lon="6.101285913719759"><ele>99.8</ele><time>2026-04-22T08:42:44Z</time></trkpt><trkpt lat="43.25254744738618" lon="6.101251084919946"><ele>100.4</ele><time>2026-04-22T08:42:45Z</time></trkpt><trkpt lat="43.25262566514897" lon="6.1012185132338965"><ele>101.0</ele><time>2026-04-22T08:42:46Z</time></trkpt><trkpt lat="43.252699927373456" lon="6.1011840515398"><ele>100.99999999999999</ele><time>2026-04-22T08:42:47Z</time></trkpt><trkpt lat="43.25276367977074" lon="6.101149480609569"><ele>101.0</ele><time>2026-04-22T08:42:48Z</time></trkpt><trkpt lat="43.25283722754588" lon="6.1010994790927"><ele>101.0</ele><time>2026-04-22T08:42:49Z</time></trkpt><trkpt lat="43.252907476606474" lon="6.10103037256251"><ele>101.0</ele><time>2026-04-22T08:42:50Z</time></trkpt><trkpt lat="43.25296744200538" lon="6.100947031423737"><ele>100.99999999999999</ele><time>2026-04-22T08:42:51Z</time></trkpt><trkpt lat="43.25302091132197" lon="6.100843344793527"><ele>101.0</ele><time>2026-04-22T08:42:52Z</time></trkpt><trkpt lat="43.25306005563581" lon="6.1007473879082825"><ele>101.4</ele><time>2026-04-22T08:42:53Z</time></trkpt><trkpt lat="43.25308894491927" lon="6.100668305595962"><ele>101.8</ele><time>2026-04-22T08:42:54Z</time></trkpt><trkpt lat="43.253136549230696" lon="6.100528492999967"><ele>102.2</ele><time>2026-04-22T08:42:56Z</time></trkpt><trkpt lat="43.25316506640448" lon="6.100401600362197"><ele>102.60000000000001</ele><time>2026-04-22T08:42:58Z</time></trkpt><trkpt lat="43.253273915344046" lon="6.100377000163415"><ele>103.0</ele><time>2026-04-22T08:43:01Z</time></trkpt><trkpt lat="43.253351904881406" lon="6.100451725626282"><ele>102.80000000000001</ele><time>2026-04-22T08:43:03Z</time></trkpt><trkpt lat="43.253434439086064" lon="6.1005408364862035"><ele>102.6</ele><time>2026-04-22T08:43:05Z</time></trkpt><trkpt lat="43.25352770393044" lon="6.10058126958496"><ele>102.4</ele><time>2026-04-22T08:43:07Z</time></trkpt><trkpt lat="43.25360842653071" lon="6.1006229488689785"><ele>102.19999999999999</ele><time>2026-04-22T08:43:10Z</time></trkpt><trkpt lat="43.25368026754672" lon="6.100750286358104"><ele>102.0</ele><time>2026-04-22T08:43:12Z</time></trkpt><trkpt lat="43.25372246222192" lon="6.1008468286797815"><ele>102.0</ele><time>2026-04-22T08:43:13Z</time></trkpt><trkpt lat="43.2537661980588" lon="6.100939240771941"><ele>102.0</ele><time>2026-04-22T08:43:14Z</time></trkpt><trkpt lat="43.25381553889428" lon="6.1010311883633515"><ele>102.0</ele><time>2026-04-22T08:43:15Z</time></trkpt><trkpt lat="43.253864138594864" lon="6.10113148180169"><ele>102.0</ele><time>2026-04-22T08:43:16Z</time></trkpt><trkpt lat="43.25391250221" lon="6.101234734492298"><ele>102.0</ele><time>2026-04-22T08:43:17Z</time></trkpt><trkpt lat="43.253958365922244" lon="6.101341515930215"><ele>102.0</ele><time>2026-04-22T08:43:18Z</time></trkpt><trkpt lat="43.2540043260879" lon="6.10145412491851"><ele>102.0</ele><time>2026-04-22T08:43:19Z</time></trkpt><trkpt lat="43.25405017833484" lon="6.101568641778992"><ele>102.0</ele><time>2026-04-22T08:43:20Z</time></trkpt><trkpt lat="43.25408610656091" lon="6.101686011650133"><ele>102.0</ele><time>2026-04-22T08:43:21Z</time></trkpt><trkpt lat="43.254120666535805" lon="6.101796205368771"><ele>102.0</ele><time>2026-04-22T08:43:22Z</time></trkpt><trkpt lat="43.25416452801986" lon="6.101946632193941"><ele>102.0</ele><time>2026-04-22T08:43:23Z</time></trkpt><trkpt lat="43.25420340010837" lon="6.102085417174027"><ele>102.0</ele><time>2026-04-22T08:43:24Z</time></trkpt><trkpt lat="43.25424023407009" lon="6.102224503273192"><ele>102.0</ele><time>2026-04-22T08:43:25Z</time></trkpt><trkpt lat="43.25428235893379" lon="6.102373643436056"><ele>102.0</ele><time>2026-04-22T08:43:26Z</time></trkpt><trkpt lat="43.25432428281629" lon="6.102525419802787"><ele>102.0</ele><time>2026-04-22T08:43:27Z</time></trkpt><trkpt lat="43.25436977294203" lon="6.102666744189642"><ele>101.66666666666666</ele><time>2026-04-22T08:43:27.999Z</time></trkpt><trkpt lat="43.254431729459206" lon="6.102824068786895"><ele>101.33333333333333</ele><time>2026-04-22T08:43:28.999Z</time></trkpt><trkpt lat="43.25451894239403" lon="6.10306948075618"><ele>101.0</ele><time>2026-04-22T08:43:29.999Z</time></trkpt><trkpt lat="43.25462956209103" lon="6.10327451627388"><ele>100.5</ele><time>2026-04-22T08:43:30.999Z</time></trkpt><trkpt lat="43.254746593412555" lon="6.103483443231563"><ele>100.0</ele><time>2026-04-22T08:43:32.999Z</time></trkpt><trkpt lat="43.254830441050146" lon="6.103616491354979"><ele>99.5</ele><time>2026-04-22T08:43:35.999Z</time></trkpt><trkpt lat="43.25485506792988" lon="6.103720890275248"><ele>99.0</ele><time>2026-04-22T08:43:36.999Z</time></trkpt><trkpt lat="43.25489800436558" lon="6.103811659871736"><ele>99.0</ele><time>2026-04-22T08:43:37.999Z</time></trkpt><trkpt lat="43.25494689246457" lon="6.103889867764527"><ele>99.0</ele><time>2026-04-22T08:43:38.999Z</time></trkpt><trkpt lat="43.25503040410622" lon="6.10401039623859"><ele>99.0</ele><time>2026-04-22T08:43:40.999Z</time></trkpt><trkpt lat="43.25508235745285" lon="6.104078951272127"><ele>99.0</ele><time>2026-04-22T08:43:41.999Z</time></trkpt><trkpt lat="43.25515201170677" lon="6.104165587457808"><ele>99.0</ele><time>2026-04-22T08:43:42.999Z</time></trkpt><trkpt lat="43.255207858498935" lon="6.104240382529135"><ele>99.0</ele><time>2026-04-22T08:43:43.999Z</time></trkpt><trkpt lat="43.25525380478474" lon="6.104309891728275"><ele>98.83333333333333</ele><time>2026-04-22T08:43:44.999Z</time></trkpt><trkpt lat="43.25529997826103" lon="6.104394221533862"><ele>98.66666666666666</ele><time>2026-04-22T08:43:45.999Z</time></trkpt><trkpt lat="43.25534633514394" lon="6.104480221299547"><ele>98.5</ele><time>2026-04-22T08:43:46.999Z</time></trkpt><trkpt lat="43.25539268286583" lon="6.1045702338060694"><ele>98.33333333333333</ele><time>2026-04-22T08:43:47.999Z</time></trkpt><trkpt lat="43.25543487089325" lon="6.104661181374795"><ele>98.16666666666666</ele><time>2026-04-22T08:43:48.999Z</time></trkpt><trkpt lat="43.255494849727334" lon="6.1047716172220206"><ele>98.0</ele><time>2026-04-22T08:43:49.999Z</time></trkpt><trkpt lat="43.25554353829957" lon="6.104885672449558"><ele>97.60000000000001</ele><time>2026-04-22T08:43:50.999Z</time></trkpt><trkpt lat="43.25559321180723" lon="6.10497520028593"><ele>97.2</ele><time>2026-04-22T08:43:51.999Z</time></trkpt><trkpt lat="43.2556556734382" lon="6.1050750195114105"><ele>96.8</ele><time>2026-04-22T08:43:52.999Z</time></trkpt><trkpt lat="43.255705587308256" lon="6.105154358169109"><ele>96.4</ele><time>2026-04-22T08:43:53.999Z</time></trkpt><trkpt lat="43.25578819398478" lon="6.105274992516542"><ele>96.0</ele><time>2026-04-22T08:43:54.999Z</time></trkpt><trkpt lat="43.25586020478431" lon="6.10534777166902"><ele>96.0</ele><time>2026-04-22T08:43:55.999Z</time></trkpt><trkpt lat="43.25593195202081" lon="6.105427670196095"><ele>96.0</ele><time>2026-04-22T08:43:56.999Z</time></trkpt><trkpt lat="43.25600471515377" lon="6.105513269245861"><ele>96.0</ele><time>2026-04-22T08:43:57.999Z</time></trkpt><trkpt lat="43.25608750403516" lon="6.105581595591667"><ele>96.0</ele><time>2026-04-22T08:43:58.999Z</time></trkpt><trkpt lat="43.2561678199558" lon="6.105636704942061"><ele>96.0</ele><time>2026-04-22T08:43:59.999Z</time></trkpt><trkpt lat="43.25624034813426" lon="6.105689677913383"><ele>95.99999999999999</ele><time>2026-04-22T08:44:00.999Z</time></trkpt><trkpt lat="43.256300148381996" lon="6.105727666130808"><ele>96.0</ele><time>2026-04-22T08:44:01.999Z</time></trkpt><trkpt lat="43.25635265268518" lon="6.105789784103386"><ele>96.0</ele><time>2026-04-22T08:44:02.999Z</time></trkpt><trkpt lat="43.256416881567176" lon="6.1058233336229915"><ele>96.0</ele><time>2026-04-22T08:44:03.999Z</time></trkpt><trkpt lat="43.256468876699394" lon="6.105873414856999"><ele>96.0</ele><time>2026-04-22T08:44:04.999Z</time></trkpt><trkpt lat="43.256525646359684" lon="6.1059475676421915"><ele>95.99999999999999</ele><time>2026-04-22T08:44:05.999Z</time></trkpt><trkpt lat="43.256574440527665" lon="6.106023110884141"><ele>96.0</ele><time>2026-04-22T08:44:06.999Z</time></trkpt><trkpt lat="43.2566115926642" lon="6.106097376501092"><ele>95.8</ele><time>2026-04-22T08:44:07.999Z</time></trkpt><trkpt lat="43.25664752688775" lon="6.10618956003551"><ele>95.6</ele><time>2026-04-22T08:44:08.999Z</time></trkpt><trkpt lat="43.25668550254348" lon="6.106291087873879"><ele>95.4</ele><time>2026-04-22T08:44:09.999Z</time></trkpt><trkpt lat="43.256728855832016" lon="6.10640014216918"><ele>95.2</ele><time>2026-04-22T08:44:10.999Z</time></trkpt><trkpt lat="43.25677452971219" lon="6.106521624757928"><ele>95.0</ele><time>2026-04-22T08:44:11.999Z</time></trkpt><trkpt lat="43.25682404583321" lon="6.106643741776757"><ele>94.6</ele><time>2026-04-22T08:44:12.999Z</time></trkpt><trkpt lat="43.25686781603303" lon="6.106767267996533"><ele>94.2</ele><time>2026-04-22T08:44:13.999Z</time></trkpt><trkpt lat="43.25690579655939" lon="6.106883487926136"><ele>93.80000000000001</ele><time>2026-04-22T08:44:14.999Z</time></trkpt><trkpt lat="43.256947138129696" lon="6.107007264826397"><ele>93.4</ele><time>2026-04-22T08:44:15.999Z</time></trkpt><trkpt lat="43.25699104553353" lon="6.107131623300066"><ele>93.0</ele><time>2026-04-22T08:44:16.999Z</time></trkpt><trkpt lat="43.257032494645514" lon="6.107244253004377"><ele>93.0</ele><time>2026-04-22T08:44:17.999Z</time></trkpt><trkpt lat="43.257065172368506" lon="6.107343572194633"><ele>93.0</ele><time>2026-04-22T08:44:18.999Z</time></trkpt><trkpt lat="43.25709667862748" lon="6.1074609236530035"><ele>93.0</ele><time>2026-04-22T08:44:19.999Z</time></trkpt><trkpt lat="43.25712289963792" lon="6.107583117077494"><ele>93.0</ele><time>2026-04-22T08:44:20.999Z</time></trkpt><trkpt lat="43.25714859699951" lon="6.107698414282578"><ele>93.0</ele><time>2026-04-22T08:44:21.999Z</time></trkpt><trkpt lat="43.257171305411795" lon="6.107809168910305"><ele>93.0</ele><time>2026-04-22T08:44:22.999Z</time></trkpt><trkpt lat="43.25719098254785" lon="6.107908829116853"><ele>93.0</ele><time>2026-04-22T08:44:23.999Z</time></trkpt><trkpt lat="43.25720003311642" lon="6.107996726289741"><ele>93.0</ele><time>2026-04-22T08:44:24.999Z</time></trkpt><trkpt lat="43.25721138931988" lon="6.1080853360355905"><ele>93.0</ele><time>2026-04-22T08:44:25.999Z</time></trkpt><trkpt lat="43.25721781999701" lon="6.108248262317588"><ele>93.0</ele><time>2026-04-22T08:44:27.999Z</time></trkpt><trkpt lat="43.25720230208232" lon="6.1083434231985025"><ele>93.0</ele><time>2026-04-22T08:44:28.999Z</time></trkpt><trkpt lat="43.25717483272293" lon="6.108452036280316"><ele>93.0</ele><time>2026-04-22T08:44:29.999Z</time></trkpt><trkpt lat="43.25713533667554" lon="6.108559082635412"><ele>93.0</ele><time>2026-04-22T08:44:30.999Z</time></trkpt><trkpt lat="43.2571013663309" lon="6.108669439058457"><ele>93.0</ele><time>2026-04-22T08:44:31.999Z</time></trkpt><trkpt lat="43.257062424087984" lon="6.108781669443041"><ele>93.0</ele><time>2026-04-22T08:44:32.999Z</time></trkpt><trkpt lat="43.257027508288374" lon="6.108885452268638"><ele>93.0</ele><time>2026-04-22T08:44:33.998Z</time></trkpt><trkpt lat="43.25700757456635" lon="6.10898832323105"><ele>93.0</ele><time>2026-04-22T08:44:34.998Z</time></trkpt><trkpt lat="43.25699211205017" lon="6.109100070112814"><ele>93.0</ele><time>2026-04-22T08:44:35.998Z</time></trkpt><trkpt lat="43.25697857808631" lon="6.109221846170574"><ele>93.0</ele><time>2026-04-22T08:44:36.998Z</time></trkpt><trkpt lat="43.25697214080562" lon="6.1093447892243695"><ele>93.0</ele><time>2026-04-22T08:44:37.998Z</time></trkpt><trkpt lat="43.25696638401714" lon="6.109466369290442"><ele>93.0</ele><time>2026-04-22T08:44:38.998Z</time></trkpt><trkpt lat="43.25695764231285" lon="6.1095999775051375"><ele>93.0</ele><time>2026-04-22T08:44:39.998Z</time></trkpt><trkpt lat="43.2569543179131" lon="6.10973181575833"><ele>93.0</ele><time>2026-04-22T08:44:40.998Z</time></trkpt><trkpt lat="43.25694585114914" lon="6.109855701891287"><ele>93.2</ele><time>2026-04-22T08:44:41.998Z</time></trkpt><trkpt lat="43.256942892802236" lon="6.109988158250934"><ele>93.4</ele><time>2026-04-22T08:44:42.998Z</time></trkpt><trkpt lat="43.25694586591543" lon="6.110122435032406"><ele>93.60000000000001</ele><time>2026-04-22T08:44:43.998Z</time></trkpt><trkpt lat="43.256949312184034" lon="6.11024398973599"><ele>93.80000000000001</ele><time>2026-04-22T08:44:44.998Z</time></trkpt><trkpt lat="43.25695259402236" lon="6.110360944054788"><ele>94.0</ele><time>2026-04-22T08:44:45.998Z</time></trkpt><trkpt lat="43.256961256316096" lon="6.1104846426775685"><ele>94.0</ele><time>2026-04-22T08:44:46.998Z</time></trkpt><trkpt lat="43.25695720283207" lon="6.110611182108135"><ele>94.0</ele><time>2026-04-22T08:44:47.998Z</time></trkpt><trkpt lat="43.25697079106286" lon="6.110748997750193"><ele>94.0</ele><time>2026-04-22T08:44:48.998Z</time></trkpt><trkpt lat="43.256998333686724" lon="6.110869032671425"><ele>94.0</ele><time>2026-04-22T08:44:50Z</time></trkpt><trkpt lat="43.25701367630304" lon="6.111004526803188"><ele>94.0</ele><time>2026-04-22T08:44:51Z</time></trkpt><trkpt lat="43.25702899647486" lon="6.1111361428694035"><ele>93.80000000000001</ele><time>2026-04-22T08:44:52Z</time></trkpt><trkpt lat="43.257028430269266" lon="6.111255785379092"><ele>93.60000000000001</ele><time>2026-04-22T08:44:53Z</time></trkpt><trkpt lat="43.257045567930845" lon="6.111398115889012"><ele>93.4</ele><time>2026-04-22T08:44:54Z</time></trkpt><trkpt lat="43.25707072989946" lon="6.1115370137780145"><ele>93.2</ele><time>2026-04-22T08:44:55Z</time></trkpt><trkpt lat="43.25707471550953" lon="6.111679550802863"><ele>93.0</ele><time>2026-04-22T08:44:56Z</time></trkpt><trkpt lat="43.25709373475854" lon="6.111824697633118"><ele>93.0</ele><time>2026-04-22T08:44:57Z</time></trkpt><trkpt lat="43.257115088257336" lon="6.111954243433246"><ele>93.0</ele><time>2026-04-22T08:44:58Z</time></trkpt><trkpt lat="43.25713950335663" lon="6.11207678047892"><ele>93.0</ele><time>2026-04-22T08:44:59Z</time></trkpt><trkpt lat="43.25715848211313" lon="6.112196068880529"><ele>93.0</ele><time>2026-04-22T08:45:00Z</time></trkpt><trkpt lat="43.25717791226785" lon="6.112303554571567"><ele>93.0</ele><time>2026-04-22T08:45:01Z</time></trkpt><trkpt lat="43.2572017283171" lon="6.112421521802248"><ele>93.0</ele><time>2026-04-22T08:45:02Z</time></trkpt><trkpt lat="43.25720373703669" lon="6.112546852557294"><ele>93.2</ele><time>2026-04-22T08:45:03Z</time></trkpt><trkpt lat="43.257224644359056" lon="6.112664177349286"><ele>93.4</ele><time>2026-04-22T08:45:04Z</time></trkpt><trkpt lat="43.25725386309544" lon="6.112815540745676"><ele>93.60000000000001</ele><time>2026-04-22T08:45:05Z</time></trkpt><trkpt lat="43.25728591612441" lon="6.112961344565856"><ele>93.80000000000001</ele><time>2026-04-22T08:45:06Z</time></trkpt><trkpt lat="43.25733622271169" lon="6.1130940046191355"><ele>94.0</ele><time>2026-04-22T08:45:07Z</time></trkpt><trkpt lat="43.25736436343401" lon="6.113235794261844"><ele>94.6</ele><time>2026-04-22T08:45:08Z</time></trkpt><trkpt lat="43.25739107339148" lon="6.113366690477993"><ele>95.2</ele><time>2026-04-22T08:45:09Z</time></trkpt><trkpt lat="43.2574138133221" lon="6.113505181501453"><ele>95.8</ele><time>2026-04-22T08:45:10Z</time></trkpt><trkpt lat="43.257447465913685" lon="6.113646610895053"><ele>96.39999999999999</ele><time>2026-04-22T08:45:11Z</time></trkpt><trkpt lat="43.25749178681519" lon="6.1137855842988005"><ele>97.0</ele><time>2026-04-22T08:45:12Z</time></trkpt><trkpt lat="43.25752801623399" lon="6.113920110331343"><ele>97.0</ele><time>2026-04-22T08:45:13Z</time></trkpt><trkpt lat="43.25757006470241" lon="6.1140527314279005"><ele>97.0</ele><time>2026-04-22T08:45:14Z</time></trkpt><trkpt lat="43.257607652966385" lon="6.11417792970161"><ele>97.0</ele><time>2026-04-22T08:45:15Z</time></trkpt><trkpt lat="43.25763774140872" lon="6.114307147093714"><ele>97.0</ele><time>2026-04-22T08:45:16Z</time></trkpt><trkpt lat="43.25767840648226" lon="6.114440866655573"><ele>97.0</ele><time>2026-04-22T08:45:17Z</time></trkpt><trkpt lat="43.257721289167804" lon="6.114569095321579"><ele>97.19999999999999</ele><time>2026-04-22T08:45:18Z</time></trkpt><trkpt lat="43.257758192165774" lon="6.114678532135142"><ele>97.4</ele><time>2026-04-22T08:45:19Z</time></trkpt><trkpt lat="43.257795107281126" lon="6.114771813264314"><ele>97.6</ele><time>2026-04-22T08:45:20Z</time></trkpt><trkpt lat="43.257864120479" lon="6.1149244745688085"><ele>97.80000000000001</ele><time>2026-04-22T08:45:22Z</time></trkpt><trkpt lat="43.257897855733844" lon="6.11502271716479"><ele>98.0</ele><time>2026-04-22T08:45:23Z</time></trkpt><trkpt lat="43.2579383467459" lon="6.115143578616347"><ele>98.0</ele><time>2026-04-22T08:45:24Z</time></trkpt><trkpt lat="43.257988540724156" lon="6.115270104479984"><ele>98.0</ele><time>2026-04-22T08:45:25Z</time></trkpt><trkpt lat="43.25804061636319" lon="6.115404212069411"><ele>98.0</ele><time>2026-04-22T08:45:26Z</time></trkpt><trkpt lat="43.258091405022554" lon="6.115536107248835"><ele>98.0</ele><time>2026-04-22T08:45:27Z</time></trkpt><trkpt lat="43.258123843584535" lon="6.115674941193989"><ele>98.0</ele><time>2026-04-22T08:45:28Z</time></trkpt><trkpt lat="43.25818374497184" lon="6.115794730807747"><ele>98.0</ele><time>2026-04-22T08:45:29Z</time></trkpt><trkpt lat="43.25822684128151" lon="6.115930607386949"><ele>98.0</ele><time>2026-04-22T08:45:30Z</time></trkpt><trkpt lat="43.258274410097464" lon="6.11606581516736"><ele>98.0</ele><time>2026-04-22T08:45:31Z</time></trkpt><trkpt lat="43.25831666610914" lon="6.116200281026978"><ele>98.0</ele><time>2026-04-22T08:45:32Z</time></trkpt><trkpt lat="43.2583661674089" lon="6.1163306928701795"><ele>98.0</ele><time>2026-04-22T08:45:33Z</time></trkpt><trkpt lat="43.25841353590353" lon="6.116463913813923"><ele>97.60000000000001</ele><time>2026-04-22T08:45:33.999Z</time></trkpt><trkpt lat="43.25845909668569" lon="6.116587591404757"><ele>97.2</ele><time>2026-04-22T08:45:34.999Z</time></trkpt><trkpt lat="43.258488691393765" lon="6.116720466249357"><ele>96.8</ele><time>2026-04-22T08:45:35.999Z</time></trkpt><trkpt lat="43.258528792595314" lon="6.116852194787154"><ele>96.4</ele><time>2026-04-22T08:45:36.999Z</time></trkpt><trkpt lat="43.25856911953511" lon="6.116987864594772"><ele>96.0</ele><time>2026-04-22T08:45:37.999Z</time></trkpt><trkpt lat="43.25862081177503" lon="6.117127594822865"><ele>96.0</ele><time>2026-04-22T08:45:38.999Z</time></trkpt><trkpt lat="43.25866316518015" lon="6.11726148437169"><ele>96.0</ele><time>2026-04-22T08:45:39.999Z</time></trkpt><trkpt lat="43.258704252780575" lon="6.117397313426564"><ele>96.0</ele><time>2026-04-22T08:45:40.999Z</time></trkpt><trkpt lat="43.25874904108629" lon="6.117532132291979"><ele>96.0</ele><time>2026-04-22T08:45:41.999Z</time></trkpt><trkpt lat="43.258788823678074" lon="6.117668340716553"><ele>96.0</ele><time>2026-04-22T08:45:42.999Z</time></trkpt><trkpt lat="43.25883231275357" lon="6.117793110094041"><ele>96.19999999999999</ele><time>2026-04-22T08:45:43.999Z</time></trkpt><trkpt lat="43.25887857924457" lon="6.1179270293507555"><ele>96.39999999999999</ele><time>2026-04-22T08:45:44.999Z</time></trkpt><trkpt lat="43.25892693851567" lon="6.118055238679345"><ele>96.6</ele><time>2026-04-22T08:45:45.999Z</time></trkpt><trkpt lat="43.25896811757965" lon="6.118170924625949"><ele>96.8</ele><time>2026-04-22T08:45:46.999Z</time></trkpt><trkpt lat="43.25900482891156" lon="6.118269103570776"><ele>97.0</ele><time>2026-04-22T08:45:47.999Z</time></trkpt><trkpt lat="43.25903560763007" lon="6.118374394659215"><ele>97.6</ele><time>2026-04-22T08:45:48.999Z</time></trkpt><trkpt lat="43.25907974513303" lon="6.118483460181278"><ele>98.19999999999999</ele><time>2026-04-22T08:45:49.999Z</time></trkpt><trkpt lat="43.25910635937003" lon="6.1186237655888105"><ele>98.8</ele><time>2026-04-22T08:45:50.999Z</time></trkpt><trkpt lat="43.25915497066954" lon="6.118747911882148"><ele>99.4</ele><time>2026-04-22T08:45:51.999Z</time></trkpt><trkpt lat="43.25917234720099" lon="6.118886436288322"><ele>100.0</ele><time>2026-04-22T08:45:52.999Z</time></trkpt><trkpt lat="43.25919705587969" lon="6.118983589408591"><ele>100.0</ele><time>2026-04-22T08:45:53.999Z</time></trkpt><trkpt lat="43.259256437345584" lon="6.119143848567675"><ele>100.0</ele><time>2026-04-22T08:45:54.999Z</time></trkpt><trkpt lat="43.25928913957173" lon="6.119284731597469"><ele>100.0</ele><time>2026-04-22T08:45:55.999Z</time></trkpt><trkpt lat="43.25930755612261" lon="6.119422345191738"><ele>100.0</ele><time>2026-04-22T08:45:56.999Z</time></trkpt><trkpt lat="43.259326614631576" lon="6.119539545258253"><ele>100.0</ele><time>2026-04-22T08:45:57.999Z</time></trkpt><trkpt lat="43.25936028480073" lon="6.119665223421528"><ele>100.0</ele><time>2026-04-22T08:45:58.999Z</time></trkpt><trkpt lat="43.25937883283816" lon="6.1198001385911285"><ele>100.0</ele><time>2026-04-22T08:45:59.999Z</time></trkpt><trkpt lat="43.25939818517346" lon="6.119941248569438"><ele>100.0</ele><time>2026-04-22T08:46:00.999Z</time></trkpt><trkpt lat="43.25941484017698" lon="6.12008454958705"><ele>100.0</ele><time>2026-04-22T08:46:01.999Z</time></trkpt><trkpt lat="43.259437476517924" lon="6.1202422779253"><ele>100.0</ele><time>2026-04-22T08:46:02.999Z</time></trkpt><trkpt lat="43.25945213431214" lon="6.120387728610279"><ele>100.0</ele><time>2026-04-22T08:46:03.999Z</time></trkpt><trkpt lat="43.259469899117676" lon="6.120529160793425"><ele>100.0</ele><time>2026-04-22T08:46:04.999Z</time></trkpt><trkpt lat="43.25948569804046" lon="6.120669873237172"><ele>100.0</ele><time>2026-04-22T08:46:05.999Z</time></trkpt><trkpt lat="43.25950015066628" lon="6.1208092779299665"><ele>100.0</ele><time>2026-04-22T08:46:06.999Z</time></trkpt><trkpt lat="43.25952063716533" lon="6.1209550052442525"><ele>100.0</ele><time>2026-04-22T08:46:07.999Z</time></trkpt><trkpt lat="43.259522259287316" lon="6.121104078925432"><ele>100.0</ele><time>2026-04-22T08:46:08.999Z</time></trkpt><trkpt lat="43.25953679771077" lon="6.121238608341456"><ele>100.0</ele><time>2026-04-22T08:46:09.999Z</time></trkpt><trkpt lat="43.25955018494561" lon="6.121362485366273"><ele>100.0</ele><time>2026-04-22T08:46:10.999Z</time></trkpt><trkpt lat="43.25956498133087" lon="6.121504293682523"><ele>100.0</ele><time>2026-04-22T08:46:11.999Z</time></trkpt><trkpt lat="43.259579398408825" lon="6.121642978949977"><ele>100.0</ele><time>2026-04-22T08:46:12.999Z</time></trkpt><trkpt lat="43.25960955131078" lon="6.12178075192052"><ele>100.0</ele><time>2026-04-22T08:46:13.999Z</time></trkpt><trkpt lat="43.259606142746954" lon="6.121922569478496"><ele>100.0</ele><time>2026-04-22T08:46:14.999Z</time></trkpt><trkpt lat="43.2596328435888" lon="6.1220631360651705"><ele>100.0</ele><time>2026-04-22T08:46:15.999Z</time></trkpt><trkpt lat="43.25964361680154" lon="6.122206349693885"><ele>100.0</ele><time>2026-04-22T08:46:16.999Z</time></trkpt><trkpt lat="43.25964745203184" lon="6.1223343185271615"><ele>100.0</ele><time>2026-04-22T08:46:17.999Z</time></trkpt><trkpt lat="43.259662957105135" lon="6.122477752346839"><ele>100.00000000000001</ele><time>2026-04-22T08:46:18.999Z</time></trkpt><trkpt lat="43.25967393481817" lon="6.122602148976443"><ele>100.0</ele><time>2026-04-22T08:46:19.999Z</time></trkpt><trkpt lat="43.259671152224556" lon="6.122711273934387"><ele>100.0</ele><time>2026-04-22T08:46:20.999Z</time></trkpt><trkpt lat="43.259682453176815" lon="6.122810790752087"><ele>100.0</ele><time>2026-04-22T08:46:21.999Z</time></trkpt><trkpt lat="43.259701288623745" lon="6.12291476538888"><ele>100.00000000000001</ele><time>2026-04-22T08:46:22.999Z</time></trkpt><trkpt lat="43.25973721892605" lon="6.12303266384755"><ele>100.0</ele><time>2026-04-22T08:46:23.999Z</time></trkpt><trkpt lat="43.25977996040079" lon="6.123133127503101"><ele>100.6</ele><time>2026-04-22T08:46:24.999Z</time></trkpt><trkpt lat="43.25979187630221" lon="6.12324580938831"><ele>101.2</ele><time>2026-04-22T08:46:25.999Z</time></trkpt><trkpt lat="43.259836304519425" lon="6.123346431088433"><ele>101.80000000000001</ele><time>2026-04-22T08:46:26.999Z</time></trkpt><trkpt lat="43.25985270183931" lon="6.123463431339322"><ele>102.4</ele><time>2026-04-22T08:46:27.999Z</time></trkpt><trkpt lat="43.25990166340558" lon="6.1235818341854795"><ele>103.0</ele><time>2026-04-22T08:46:28.999Z</time></trkpt><trkpt lat="43.25993770798459" lon="6.123707534974204"><ele>103.0</ele><time>2026-04-22T08:46:29.999Z</time></trkpt><trkpt lat="43.2599688683181" lon="6.123843449277143"><ele>103.0</ele><time>2026-04-22T08:46:30.999Z</time></trkpt><trkpt lat="43.25999675431398" lon="6.12396545237163"><ele>103.0</ele><time>2026-04-22T08:46:31.999Z</time></trkpt><trkpt lat="43.260022443671225" lon="6.124087481183414"><ele>103.0</ele><time>2026-04-22T08:46:32.999Z</time></trkpt><trkpt lat="43.26004987371673" lon="6.124203499521809"><ele>103.0</ele><time>2026-04-22T08:46:33.999Z</time></trkpt><trkpt lat="43.26008405593204" lon="6.124342858230229"><ele>103.0</ele><time>2026-04-22T08:46:34.999Z</time></trkpt><trkpt lat="43.26012087954343" lon="6.1244832168371435"><ele>103.0</ele><time>2026-04-22T08:46:35.999Z</time></trkpt><trkpt lat="43.260143849623425" lon="6.124609357467943"><ele>103.0</ele><time>2026-04-22T08:46:36.999Z</time></trkpt><trkpt lat="43.26018270160245" lon="6.124705629087743"><ele>103.0</ele><time>2026-04-22T08:46:37.999Z</time></trkpt><trkpt lat="43.26021076114319" lon="6.124859327832593"><ele>103.0</ele><time>2026-04-22T08:46:39.998Z</time></trkpt><trkpt lat="43.26022343771197" lon="6.124967450343421"><ele>102.99999999999999</ele><time>2026-04-22T08:46:41.998Z</time></trkpt><trkpt lat="43.260225678033734" lon="6.125066836535922"><ele>103.0</ele><time>2026-04-22T08:46:43.998Z</time></trkpt><trkpt lat="43.26021603813181" lon="6.12516957368994"><ele>103.0</ele><time>2026-04-22T08:46:45.998Z</time></trkpt><trkpt lat="43.26024950232873" lon="6.1252498345691295"><ele>103.0</ele><time>2026-04-22T08:46:46.998Z</time></trkpt><trkpt lat="43.26026529126489" lon="6.1253424820844655"><ele>103.0</ele><time>2026-04-22T08:46:47.998Z</time></trkpt><trkpt lat="43.260290682922154" lon="6.12544039980512"><ele>102.99999999999999</ele><time>2026-04-22T08:46:48.998Z</time></trkpt><trkpt lat="43.260320939316095" lon="6.125546333475386"><ele>103.0</ele><time>2026-04-22T08:46:49.998Z</time></trkpt><trkpt lat="43.26036197007808" lon="6.125662136030354"><ele>102.80000000000001</ele><time>2026-04-22T08:46:50.998Z</time></trkpt><trkpt lat="43.26041242331875" lon="6.1257807639082715"><ele>102.6</ele><time>2026-04-22T08:46:51.998Z</time></trkpt><trkpt lat="43.260470655286" lon="6.125912811460936"><ele>102.4</ele><time>2026-04-22T08:46:52.998Z</time></trkpt><trkpt lat="43.260526808888564" lon="6.12604925443778"><ele>102.19999999999999</ele><time>2026-04-22T08:46:53.998Z</time></trkpt><trkpt lat="43.260595922110234" lon="6.126178925478856"><ele>102.0</ele><time>2026-04-22T08:46:54.998Z</time></trkpt><trkpt lat="43.260650994974576" lon="6.126294591282777"><ele>102.0</ele><time>2026-04-22T08:46:56Z</time></trkpt><trkpt lat="43.26069721281687" lon="6.126404402457097"><ele>102.0</ele><time>2026-04-22T08:46:57Z</time></trkpt><trkpt lat="43.260746858762225" lon="6.126518250924633"><ele>102.0</ele><time>2026-04-22T08:46:58Z</time></trkpt><trkpt lat="43.26077357586728" lon="6.126647790148839"><ele>102.0</ele><time>2026-04-22T08:46:59Z</time></trkpt><trkpt lat="43.26081754600602" lon="6.126739507402267"><ele>102.0</ele><time>2026-04-22T08:47:00Z</time></trkpt><trkpt lat="43.26083636068152" lon="6.126822687911997"><ele>102.0</ele><time>2026-04-22T08:47:01Z</time></trkpt><trkpt lat="43.26085564987531" lon="6.126911073108095"><ele>101.83333333333333</ele><time>2026-04-22T08:47:02Z</time></trkpt><trkpt lat="43.26088348696039" lon="6.127006294217095"><ele>101.66666666666666</ele><time>2026-04-22T08:47:03Z</time></trkpt><trkpt lat="43.26091581816142" lon="6.127106231903157"><ele>101.5</ele><time>2026-04-22T08:47:04Z</time></trkpt><trkpt lat="43.260948232254876" lon="6.127204211701548"><ele>101.33333333333333</ele><time>2026-04-22T08:47:05Z</time></trkpt><trkpt lat="43.260989638956495" lon="6.127303300291106"><ele>101.16666666666666</ele><time>2026-04-22T08:47:06Z</time></trkpt><trkpt lat="43.261030489990254" lon="6.127407808394759"><ele>101.0</ele><time>2026-04-22T08:47:07Z</time></trkpt><trkpt lat="43.26107355053323" lon="6.127511343808611"><ele>101.0</ele><time>2026-04-22T08:47:08Z</time></trkpt><trkpt lat="43.26111105313765" lon="6.127619808649516"><ele>101.0</ele><time>2026-04-22T08:47:09Z</time></trkpt><trkpt lat="43.261142762325356" lon="6.1277427114793905"><ele>101.0</ele><time>2026-04-22T08:47:10Z</time></trkpt><trkpt lat="43.261197118902594" lon="6.127849922603665"><ele>101.0</ele><time>2026-04-22T08:47:11Z</time></trkpt><trkpt lat="43.261239133781814" lon="6.127965179363703"><ele>101.0</ele><time>2026-04-22T08:47:12Z</time></trkpt><trkpt lat="43.26127827694277" lon="6.128076679932412"><ele>101.0</ele><time>2026-04-22T08:47:13Z</time></trkpt><trkpt lat="43.26131698175219" lon="6.128187951095806"><ele>101.0</ele><time>2026-04-22T08:47:14Z</time></trkpt><trkpt lat="43.261359467954875" lon="6.128300659017475"><ele>101.0</ele><time>2026-04-22T08:47:15Z</time></trkpt><trkpt lat="43.26139882391051" lon="6.128411005758611"><ele>101.0</ele><time>2026-04-22T08:47:16Z</time></trkpt><trkpt lat="43.26143892110749" lon="6.128527587051933"><ele>101.0</ele><time>2026-04-22T08:47:17Z</time></trkpt><trkpt lat="43.261464967976366" lon="6.1286469459032835"><ele>101.5</ele><time>2026-04-22T08:47:18Z</time></trkpt><trkpt lat="43.26150044111761" lon="6.128768110787868"><ele>102.0</ele><time>2026-04-22T08:47:19Z</time></trkpt><trkpt lat="43.2615547202636" lon="6.128892711923466"><ele>102.5</ele><time>2026-04-22T08:47:20Z</time></trkpt><trkpt lat="43.26159820466185" lon="6.129085744818061"><ele>103.0</ele><time>2026-04-22T08:47:21Z</time></trkpt><trkpt lat="43.26164389532895" lon="6.129255802668399"><ele>103.2</ele><time>2026-04-22T08:47:22Z</time></trkpt><trkpt lat="43.26168648898623" lon="6.129371891260031"><ele>103.4</ele><time>2026-04-22T08:47:24Z</time></trkpt><trkpt lat="43.26172149285331" lon="6.129489448504132"><ele>103.60000000000001</ele><time>2026-04-22T08:47:25Z</time></trkpt><trkpt lat="43.261752233606444" lon="6.129623115732782"><ele>103.80000000000001</ele><time>2026-04-22T08:47:26Z</time></trkpt><trkpt lat="43.26177870548653" lon="6.129750845215822"><ele>104.0</ele><time>2026-04-22T08:47:27Z</time></trkpt><trkpt lat="43.261809318294404" lon="6.129856488719454"><ele>104.49999999999999</ele><time>2026-04-22T08:47:28Z</time></trkpt><trkpt lat="43.26183775250569" lon="6.1299616168268765"><ele>105.0</ele><time>2026-04-22T08:47:29Z</time></trkpt><trkpt lat="43.26186324286289" lon="6.1300664619426755"><ele>105.5</ele><time>2026-04-22T08:47:30Z</time></trkpt><trkpt lat="43.261883082561965" lon="6.130169860485204"><ele>106.0</ele><time>2026-04-22T08:47:31Z</time></trkpt><trkpt lat="43.26190263697724" lon="6.130278044596724"><ele>106.49999999999999</ele><time>2026-04-22T08:47:32Z</time></trkpt><trkpt lat="43.26191934667503" lon="6.130397698643732"><ele>107.0</ele><time>2026-04-22T08:47:33Z</time></trkpt><trkpt lat="43.261951163548126" lon="6.130521011670626"><ele>106.99999999999999</ele><time>2026-04-22T08:47:34Z</time></trkpt><trkpt lat="43.2619589111512" lon="6.130629578725692"><ele>107.0</ele><time>2026-04-22T08:47:35Z</time></trkpt><trkpt lat="43.26197587753241" lon="6.130750617306672"><ele>107.0</ele><time>2026-04-22T08:47:36Z</time></trkpt><trkpt lat="43.261987520876154" lon="6.130842604460253"><ele>107.0</ele><time>2026-04-22T08:47:37Z</time></trkpt><trkpt lat="43.262005530494406" lon="6.130986321198696"><ele>106.99999999999999</ele><time>2026-04-22T08:47:38Z</time></trkpt><trkpt lat="43.262037393283634" lon="6.13110947783717"><ele>107.0</ele><time>2026-04-22T08:47:39Z</time></trkpt><trkpt lat="43.262050325165056" lon="6.131211091018831"><ele>107.19999999999999</ele><time>2026-04-22T08:47:40Z</time></trkpt><trkpt lat="43.26206841014696" lon="6.131337021907057"><ele>107.39999999999999</ele><time>2026-04-22T08:47:41Z</time></trkpt><trkpt lat="43.26204969355641" lon="6.131458863864224"><ele>107.60000000000001</ele><time>2026-04-22T08:47:42Z</time></trkpt><trkpt lat="43.262045616449285" lon="6.131570424409437"><ele>107.80000000000001</ele><time>2026-04-22T08:47:43Z</time></trkpt><trkpt lat="43.26205826423957" lon="6.131685266862805"><ele>108.0</ele><time>2026-04-22T08:47:44Z</time></trkpt><trkpt lat="43.262057290342135" lon="6.1318238843772885"><ele>108.0</ele><time>2026-04-22T08:47:45Z</time></trkpt><trkpt lat="43.26206059390441" lon="6.131956400911202"><ele>108.00000000000001</ele><time>2026-04-22T08:47:45.999Z</time></trkpt><trkpt lat="43.2620448390359" lon="6.132087385814634"><ele>108.00000000000001</ele><time>2026-04-22T08:47:46.999Z</time></trkpt><trkpt lat="43.26203847316675" lon="6.132216837999458"><ele>108.0</ele><time>2026-04-22T08:47:47.999Z</time></trkpt><trkpt lat="43.26201906006258" lon="6.132341047093098"><ele>108.0</ele><time>2026-04-22T08:47:48.999Z</time></trkpt><trkpt lat="43.26199422919039" lon="6.1324730537994"><ele>108.60000000000001</ele><time>2026-04-22T08:47:49.999Z</time></trkpt><trkpt lat="43.26199868613031" lon="6.1326026403758584"><ele>109.20000000000002</ele><time>2026-04-22T08:47:50.999Z</time></trkpt><trkpt lat="43.261989200758926" lon="6.132698309195822"><ele>109.8</ele><time>2026-04-22T08:47:51.999Z</time></trkpt><trkpt lat="43.26199474900421" lon="6.132835335777294"><ele>110.4</ele><time>2026-04-22T08:47:53.999Z</time></trkpt><trkpt lat="43.26205829566237" lon="6.132987851756725"><ele>111.0</ele><time>2026-04-22T08:47:55.999Z</time></trkpt><trkpt lat="43.26209458374076" lon="6.133090141681206"><ele>111.0</ele><time>2026-04-22T08:47:56.999Z</time></trkpt><trkpt lat="43.26214040164026" lon="6.133188659219747"><ele>111.0</ele><time>2026-04-22T08:47:57.999Z</time></trkpt><trkpt lat="43.262190673803595" lon="6.133282613509539"><ele>111.0</ele><time>2026-04-22T08:47:58.999Z</time></trkpt><trkpt lat="43.26222959383298" lon="6.133401336518672"><ele>111.0</ele><time>2026-04-22T08:47:59.999Z</time></trkpt><trkpt lat="43.26227475453413" lon="6.133530504423766"><ele>111.0</ele><time>2026-04-22T08:48:00.999Z</time></trkpt><trkpt lat="43.26232410840335" lon="6.1336664561884895"><ele>110.6</ele><time>2026-04-22T08:48:01.999Z</time></trkpt><trkpt lat="43.262372842048954" lon="6.133802198219952"><ele>110.19999999999999</ele><time>2026-04-22T08:48:02.999Z</time></trkpt><trkpt lat="43.262419319479626" lon="6.133937883421868"><ele>109.80000000000001</ele><time>2026-04-22T08:48:03.999Z</time></trkpt><trkpt lat="43.26246966515455" lon="6.134079381570871"><ele>109.4</ele><time>2026-04-22T08:48:04.999Z</time></trkpt><trkpt lat="43.26251028882603" lon="6.134199221112737"><ele>109.0</ele><time>2026-04-22T08:48:05.999Z</time></trkpt><trkpt lat="43.26252945706689" lon="6.134314965916197"><ele>109.00000000000001</ele><time>2026-04-22T08:48:06.999Z</time></trkpt><trkpt lat="43.262569212150396" lon="6.134401212095713"><ele>109.0</ele><time>2026-04-22T08:48:07.999Z</time></trkpt><trkpt lat="43.262590463353746" lon="6.134491888453514"><ele>109.0</ele><time>2026-04-22T08:48:08.999Z</time></trkpt><trkpt lat="43.26259375955729" lon="6.13459981364311"><ele>109.0</ele><time>2026-04-22T08:48:09.999Z</time></trkpt><trkpt lat="43.26259744501115" lon="6.134720991709361"><ele>109.00000000000001</ele><time>2026-04-22T08:48:10.999Z</time></trkpt><trkpt lat="43.26260837484096" lon="6.134850816366763"><ele>109.0</ele><time>2026-04-22T08:48:11.999Z</time></trkpt><trkpt lat="43.262597214136896" lon="6.134986922550267"><ele>109.00000000000001</ele><time>2026-04-22T08:48:12.999Z</time></trkpt><trkpt lat="43.26257552957085" lon="6.135124815273855"><ele>109.0</ele><time>2026-04-22T08:48:13.999Z</time></trkpt><trkpt lat="43.26256627018689" lon="6.135252272094091"><ele>109.0</ele><time>2026-04-22T08:48:14.999Z</time></trkpt><trkpt lat="43.262559082091244" lon="6.135362887017116"><ele>109.0</ele><time>2026-04-22T08:48:15.999Z</time></trkpt><trkpt lat="43.262555650850096" lon="6.135459789889355"><ele>109.00000000000001</ele><time>2026-04-22T08:48:16.999Z</time></trkpt><trkpt lat="43.26256547262155" lon="6.135562868216323"><ele>109.0</ele><time>2026-04-22T08:48:17.999Z</time></trkpt><trkpt lat="43.26259960923299" lon="6.135666273667724"><ele>109.0</ele><time>2026-04-22T08:48:18.999Z</time></trkpt><trkpt lat="43.26263002154537" lon="6.135783114688842"><ele>109.0</ele><time>2026-04-22T08:48:19.999Z</time></trkpt><trkpt lat="43.26266851153256" lon="6.135903599033781"><ele>109.0</ele><time>2026-04-22T08:48:20.999Z</time></trkpt><trkpt lat="43.26271433175731" lon="6.136019366826618"><ele>109.0</ele><time>2026-04-22T08:48:21.999Z</time></trkpt><trkpt lat="43.262747459279815" lon="6.136141717318683"><ele>109.0</ele><time>2026-04-22T08:48:22.999Z</time></trkpt><trkpt lat="43.26278454820471" lon="6.136265528822409"><ele>109.00000000000001</ele><time>2026-04-22T08:48:23.999Z</time></trkpt><trkpt lat="43.262818539872015" lon="6.136380010703498"><ele>109.0</ele><time>2026-04-22T08:48:24.999Z</time></trkpt><trkpt lat="43.26284889628458" lon="6.136477003820926"><ele>109.0</ele><time>2026-04-22T08:48:25.999Z</time></trkpt><trkpt lat="43.26289269579642" lon="6.136584330538841"><ele>109.0</ele><time>2026-04-22T08:48:26.999Z</time></trkpt><trkpt lat="43.262929067298735" lon="6.136704419689309"><ele>109.00000000000001</ele><time>2026-04-22T08:48:27.999Z</time></trkpt><trkpt lat="43.262972178439774" lon="6.136822293597382"><ele>109.0</ele><time>2026-04-22T08:48:28.999Z</time></trkpt><trkpt lat="43.26301231724382" lon="6.136940176529897"><ele>109.0</ele><time>2026-04-22T08:48:29.999Z</time></trkpt><trkpt lat="43.26306352362621" lon="6.137043398474841"><ele>109.0</ele><time>2026-04-22T08:48:30.999Z</time></trkpt><trkpt lat="43.263100801457945" lon="6.137180790572881"><ele>109.0</ele><time>2026-04-22T08:48:31.999Z</time></trkpt><trkpt lat="43.263147113796556" lon="6.137323938754252"><ele>109.0</ele><time>2026-04-22T08:48:32.999Z</time></trkpt><trkpt lat="43.26319530356353" lon="6.137471698810768"><ele>109.0</ele><time>2026-04-22T08:48:33.999Z</time></trkpt><trkpt lat="43.263235851953766" lon="6.137619216923692"><ele>108.75</ele><time>2026-04-22T08:48:34.999Z</time></trkpt><trkpt lat="43.26327725472903" lon="6.137762598457793"><ele>108.5</ele><time>2026-04-22T08:48:35.999Z</time></trkpt><trkpt lat="43.263306683205776" lon="6.13790747091213"><ele>108.25</ele><time>2026-04-22T08:48:36.999Z</time></trkpt><trkpt lat="43.263366192905245" lon="6.138055407701144"><ele>108.0</ele><time>2026-04-22T08:48:37.999Z</time></trkpt><trkpt lat="43.263399570259814" lon="6.138225823394409"><ele>107.5</ele><time>2026-04-22T08:48:38.999Z</time></trkpt><trkpt lat="43.26344555397875" lon="6.138380555346541"><ele>107.0</ele><time>2026-04-22T08:48:39.999Z</time></trkpt><trkpt lat="43.263492261591125" lon="6.138537723127186"><ele>106.5</ele><time>2026-04-22T08:48:40.999Z</time></trkpt><trkpt lat="43.26353774136373" lon="6.1386907593264"><ele>106.0</ele><time>2026-04-22T08:48:41.999Z</time></trkpt><trkpt lat="43.26358221952839" lon="6.138840425184649"><ele>106.0</ele><time>2026-04-22T08:48:42.999Z</time></trkpt><trkpt lat="43.26364440966431" lon="6.138989368244579"><ele>106.0</ele><time>2026-04-22T08:48:43.999Z</time></trkpt><trkpt lat="43.26368354302448" lon="6.1391255116341625"><ele>106.0</ele><time>2026-04-22T08:48:44.999Z</time></trkpt><trkpt lat="43.263723922984816" lon="6.139263272653011"><ele>106.0</ele><time>2026-04-22T08:48:45.999Z</time></trkpt><trkpt lat="43.26377054830787" lon="6.139427295004665"><ele>106.5</ele><time>2026-04-22T08:48:46.999Z</time></trkpt><trkpt lat="43.263812093702" lon="6.139571501692547"><ele>107.0</ele><time>2026-04-22T08:48:47.999Z</time></trkpt><trkpt lat="43.263842319463414" lon="6.139729893022777"><ele>107.5</ele><time>2026-04-22T08:48:48.999Z</time></trkpt><trkpt lat="43.263885993953814" lon="6.1398806764606"><ele>108.0</ele><time>2026-04-22T08:48:49.999Z</time></trkpt><trkpt lat="43.2639287061547" lon="6.140028136872041"><ele>108.5</ele><time>2026-04-22T08:48:50.999Z</time></trkpt><trkpt lat="43.263984372248295" lon="6.140164174409664"><ele>109.0</ele><time>2026-04-22T08:48:51.999Z</time></trkpt><trkpt lat="43.2640127723167" lon="6.1403183683901545"><ele>109.5</ele><time>2026-04-22T08:48:52.998Z</time></trkpt><trkpt lat="43.26406464294871" lon="6.140455837171801"><ele>110.0</ele><time>2026-04-22T08:48:53.998Z</time></trkpt><trkpt lat="43.26410938616053" lon="6.140595319601779"><ele>110.0</ele><time>2026-04-22T08:48:54.998Z</time></trkpt><trkpt lat="43.264145905672756" lon="6.140732570544979"><ele>110.0</ele><time>2026-04-22T08:48:55.998Z</time></trkpt><trkpt lat="43.264181059160975" lon="6.140850756180506"><ele>110.0</ele><time>2026-04-22T08:48:56.998Z</time></trkpt><trkpt lat="43.26421704473686" lon="6.140963926020172"><ele>110.0</ele><time>2026-04-22T08:48:57.998Z</time></trkpt><trkpt lat="43.26424820763346" lon="6.141075990882926"><ele>110.0</ele><time>2026-04-22T08:48:58.998Z</time></trkpt><trkpt lat="43.26427705867283" lon="6.14118695287196"><ele>109.99999999999999</ele><time>2026-04-22T08:48:59.998Z</time></trkpt><trkpt lat="43.264307575827964" lon="6.14127492592822"><ele>110.0</ele><time>2026-04-22T08:49:00.998Z</time></trkpt><trkpt lat="43.264317275163656" lon="6.1413692647337355"><ele>110.0</ele><time>2026-04-22T08:49:02Z</time></trkpt><trkpt lat="43.26434257187793" lon="6.141451578417985"><ele>110.0</ele><time>2026-04-22T08:49:03Z</time></trkpt><trkpt lat="43.264377972573655" lon="6.1415650910438515"><ele>109.99999999999999</ele><time>2026-04-22T08:49:05Z</time></trkpt><trkpt lat="43.26440154894486" lon="6.141659192809904"><ele>110.0</ele><time>2026-04-22T08:49:08Z</time></trkpt><trkpt lat="43.26430112118976" lon="6.141696307059124"><ele>109.25</ele><time>2026-04-22T08:49:09Z</time></trkpt><trkpt lat="43.26418126631275" lon="6.1417475317607915"><ele>108.5</ele><time>2026-04-22T08:49:11Z</time></trkpt><trkpt lat="43.264126468020685" lon="6.141796320992411"><ele>107.75</ele><time>2026-04-22T08:49:12Z</time></trkpt><trkpt lat="43.26399169947655" lon="6.141879498023004"><ele>107.0</ele><time>2026-04-22T08:49:14Z</time></trkpt><trkpt lat="43.26403160712346" lon="6.14216640808575"><ele>107.0</ele><time>2026-04-22T08:49:18Z</time></trkpt><trkpt lat="43.26406543828071" lon="6.142260102522991"><ele>106.99999999999999</ele><time>2026-04-22T08:49:19Z</time></trkpt><trkpt lat="43.26410580818867" lon="6.1423720890928895"><ele>106.99999999999999</ele><time>2026-04-22T08:49:20Z</time></trkpt><trkpt lat="43.264152485680476" lon="6.142482906896446"><ele>107.0</ele><time>2026-04-22T08:49:21Z</time></trkpt><trkpt lat="43.26419297073952" lon="6.142610070045242"><ele>107.0</ele><time>2026-04-22T08:49:22Z</time></trkpt><trkpt lat="43.26423013610638" lon="6.142739614033048"><ele>107.19999999999999</ele><time>2026-04-22T08:49:23Z</time></trkpt><trkpt lat="43.26426899979029" lon="6.142858031566451"><ele>107.39999999999999</ele><time>2026-04-22T08:49:24Z</time></trkpt><trkpt lat="43.26430602531987" lon="6.142992345588308"><ele>107.60000000000001</ele><time>2026-04-22T08:49:25Z</time></trkpt><trkpt lat="43.26433561193488" lon="6.143138883128923"><ele>107.80000000000001</ele><time>2026-04-22T08:49:26Z</time></trkpt><trkpt lat="43.26437231957923" lon="6.143265351311972"><ele>108.0</ele><time>2026-04-22T08:49:27Z</time></trkpt><trkpt lat="43.26441085684086" lon="6.14339812333419"><ele>108.0</ele><time>2026-04-22T08:49:28Z</time></trkpt><trkpt lat="43.26445215549222" lon="6.143536678273963"><ele>108.00000000000001</ele><time>2026-04-22T08:49:29Z</time></trkpt><trkpt lat="43.264494437820076" lon="6.143676471763938"><ele>108.00000000000001</ele><time>2026-04-22T08:49:30Z</time></trkpt><trkpt lat="43.26454961641358" lon="6.143795791859182"><ele>108.0</ele><time>2026-04-22T08:49:31Z</time></trkpt><trkpt lat="43.264574721116425" lon="6.1439290076272846"><ele>108.0</ele><time>2026-04-22T08:49:32Z</time></trkpt><trkpt lat="43.26463202092151" lon="6.144049744722872"><ele>108.2</ele><time>2026-04-22T08:49:33Z</time></trkpt><trkpt lat="43.26467135742362" lon="6.144188097070963"><ele>108.4</ele><time>2026-04-22T08:49:34Z</time></trkpt><trkpt lat="43.26471544531378" lon="6.144308966046274"><ele>108.60000000000001</ele><time>2026-04-22T08:49:35Z</time></trkpt><trkpt lat="43.264734829866086" lon="6.144426934379394"><ele>108.80000000000001</ele><time>2026-04-22T08:49:36Z</time></trkpt><trkpt lat="43.26478199344789" lon="6.144525888331512"><ele>109.0</ele><time>2026-04-22T08:49:37Z</time></trkpt><trkpt lat="43.26479672869167" lon="6.144633835535948"><ele>109.2</ele><time>2026-04-22T08:49:38Z</time></trkpt><trkpt lat="43.26483231244771" lon="6.144747763351056"><ele>109.4</ele><time>2026-04-22T08:49:39Z</time></trkpt><trkpt lat="43.26484826740832" lon="6.144874326730185"><ele>109.6</ele><time>2026-04-22T08:49:40Z</time></trkpt><trkpt lat="43.26486282354653" lon="6.145000515972487"><ele>109.8</ele><time>2026-04-22T08:49:41Z</time></trkpt><trkpt lat="43.26487351262638" lon="6.1451296368668915"><ele>110.0</ele><time>2026-04-22T08:49:42Z</time></trkpt><trkpt lat="43.26488428200372" lon="6.145259502184301"><ele>109.8</ele><time>2026-04-22T08:49:43Z</time></trkpt><trkpt lat="43.264892267499526" lon="6.145394174682263"><ele>109.6</ele><time>2026-04-22T08:49:44Z</time></trkpt><trkpt lat="43.26489779692738" lon="6.145532918864571"><ele>109.4</ele><time>2026-04-22T08:49:45Z</time></trkpt><trkpt lat="43.26490441265923" lon="6.145646978230859"><ele>109.2</ele><time>2026-04-22T08:49:46Z</time></trkpt><trkpt lat="43.26489818299486" lon="6.1458516935989325"><ele>109.0</ele><time>2026-04-22T08:49:48Z</time></trkpt><trkpt lat="43.26490397523527" lon="6.145983985427449"><ele>109.0</ele><time>2026-04-22T08:49:49Z</time></trkpt><trkpt lat="43.264909337908804" lon="6.1461139656396675"><ele>109.0</ele><time>2026-04-22T08:49:50Z</time></trkpt><trkpt lat="43.26491474294624" lon="6.146244972693361"><ele>109.0</ele><time>2026-04-22T08:49:50.999Z</time></trkpt><trkpt lat="43.264920384711324" lon="6.146381717551999"><ele>109.0</ele><time>2026-04-22T08:49:51.999Z</time></trkpt><trkpt lat="43.26492624747371" lon="6.1465238189157505"><ele>109.0</ele><time>2026-04-22T08:49:52.999Z</time></trkpt><trkpt lat="43.26493167862501" lon="6.146655458906198"><ele>108.80000000000001</ele><time>2026-04-22T08:49:53.999Z</time></trkpt><trkpt lat="43.264953071027925" lon="6.1467908374235645"><ele>108.60000000000001</ele><time>2026-04-22T08:49:54.999Z</time></trkpt><trkpt lat="43.26494508312576" lon="6.146935145100447"><ele>108.4</ele><time>2026-04-22T08:49:55.999Z</time></trkpt><trkpt lat="43.26496258480755" lon="6.147073514600952"><ele>108.2</ele><time>2026-04-22T08:49:56.999Z</time></trkpt><trkpt lat="43.26497122436186" lon="6.147204557295956"><ele>108.0</ele><time>2026-04-22T08:49:57.999Z</time></trkpt><trkpt lat="43.26497880437733" lon="6.147345265233296"><ele>107.60000000000001</ele><time>2026-04-22T08:49:58.999Z</time></trkpt><trkpt lat="43.264987322315896" lon="6.147486102047523"><ele>107.20000000000002</ele><time>2026-04-22T08:49:59.999Z</time></trkpt><trkpt lat="43.26497638618237" lon="6.147625822530008"><ele>106.8</ele><time>2026-04-22T08:50:00.999Z</time></trkpt><trkpt lat="43.26499274347873" lon="6.147768590087678"><ele>106.4</ele><time>2026-04-22T08:50:01.999Z</time></trkpt><trkpt lat="43.264987823003715" lon="6.147910041129268"><ele>106.0</ele><time>2026-04-22T08:50:02.999Z</time></trkpt><trkpt lat="43.26499409531778" lon="6.14805532292292"><ele>106.0</ele><time>2026-04-22T08:50:03.999Z</time></trkpt><trkpt lat="43.26501517672148" lon="6.1481940246211115"><ele>106.0</ele><time>2026-04-22T08:50:04.999Z</time></trkpt><trkpt lat="43.265022292323216" lon="6.148326850587592"><ele>106.0</ele><time>2026-04-22T08:50:05.999Z</time></trkpt><trkpt lat="43.26503003372951" lon="6.148459833041599"><ele>106.0</ele><time>2026-04-22T08:50:06.999Z</time></trkpt><trkpt lat="43.26502290533153" lon="6.148600431305003"><ele>106.0</ele><time>2026-04-22T08:50:07.999Z</time></trkpt><trkpt lat="43.2650473688728" lon="6.148734113510826"><ele>106.19999999999999</ele><time>2026-04-22T08:50:08.999Z</time></trkpt><trkpt lat="43.265056905772276" lon="6.1488697207776255"><ele>106.39999999999999</ele><time>2026-04-22T08:50:09.999Z</time></trkpt><trkpt lat="43.26506427931337" lon="6.148995304862416"><ele>106.6</ele><time>2026-04-22T08:50:10.999Z</time></trkpt><trkpt lat="43.26507394012996" lon="6.149123517298155"><ele>106.8</ele><time>2026-04-22T08:50:11.999Z</time></trkpt><trkpt lat="43.265083450859784" lon="6.149260631615366"><ele>107.0</ele><time>2026-04-22T08:50:12.999Z</time></trkpt><trkpt lat="43.26508300198717" lon="6.149405844847203"><ele>107.0</ele><time>2026-04-22T08:50:13.999Z</time></trkpt><trkpt lat="43.26509463335007" lon="6.149548970143457"><ele>106.99999999999999</ele><time>2026-04-22T08:50:14.999Z</time></trkpt><trkpt lat="43.265122384541925" lon="6.149690136933808"><ele>106.99999999999999</ele><time>2026-04-22T08:50:15.999Z</time></trkpt><trkpt lat="43.26512718783264" lon="6.149828631748232"><ele>107.0</ele><time>2026-04-22T08:50:16.999Z</time></trkpt><trkpt lat="43.265124372795114" lon="6.14996940347932"><ele>107.0</ele><time>2026-04-22T08:50:17.999Z</time></trkpt><trkpt lat="43.265145874356044" lon="6.150109749001979"><ele>106.8</ele><time>2026-04-22T08:50:18.999Z</time></trkpt><trkpt lat="43.26515323358856" lon="6.150251117968717"><ele>106.6</ele><time>2026-04-22T08:50:19.999Z</time></trkpt><trkpt lat="43.26514600404623" lon="6.150399038319489"><ele>106.39999999999999</ele><time>2026-04-22T08:50:20.999Z</time></trkpt><trkpt lat="43.26516879647668" lon="6.1505483862403585"><ele>106.19999999999999</ele><time>2026-04-22T08:50:21.999Z</time></trkpt><trkpt lat="43.26519398395782" lon="6.150691859482319"><ele>106.0</ele><time>2026-04-22T08:50:22.999Z</time></trkpt><trkpt lat="43.26522456870712" lon="6.150827569643562"><ele>106.4</ele><time>2026-04-22T08:50:23.999Z</time></trkpt><trkpt lat="43.265250091390655" lon="6.150967994001311"><ele>106.8</ele><time>2026-04-22T08:50:24.999Z</time></trkpt><trkpt lat="43.26527968761433" lon="6.151107173731271"><ele>107.20000000000002</ele><time>2026-04-22T08:50:25.999Z</time></trkpt><trkpt lat="43.265309034216976" lon="6.151236107321211"><ele>107.60000000000001</ele><time>2026-04-22T08:50:26.999Z</time></trkpt><trkpt lat="43.265336650168045" lon="6.151367959967227"><ele>108.0</ele><time>2026-04-22T08:50:27.999Z</time></trkpt><trkpt lat="43.26536769883174" lon="6.151506933846398"><ele>107.83333333333333</ele><time>2026-04-22T08:50:28.999Z</time></trkpt><trkpt lat="43.26539412305281" lon="6.151624876588788"><ele>107.66666666666666</ele><time>2026-04-22T08:50:29.999Z</time></trkpt><trkpt lat="43.265419381425886" lon="6.151741313489464"><ele>107.5</ele><time>2026-04-22T08:50:30.999Z</time></trkpt><trkpt lat="43.265444876812516" lon="6.151849424580514"><ele>107.33333333333333</ele><time>2026-04-22T08:50:31.999Z</time></trkpt><trkpt lat="43.26547232274858" lon="6.15194898701948"><ele>107.16666666666666</ele><time>2026-04-22T08:50:32.999Z</time></trkpt><trkpt lat="43.26550206774485" lon="6.152086338539872"><ele>107.0</ele><time>2026-04-22T08:50:34.999Z</time></trkpt><trkpt lat="43.26552024472422" lon="6.152173800516543"><ele>106.99999999999999</ele><time>2026-04-22T08:50:36.999Z</time></trkpt><trkpt lat="43.26554867274517" lon="6.152285427576158"><ele>107.0</ele><time>2026-04-22T08:50:38.999Z</time></trkpt><trkpt lat="43.26556863926288" lon="6.152373208944317"><ele>107.0</ele><time>2026-04-22T08:50:41.999Z</time></trkpt><trkpt lat="43.265675959242046" lon="6.152278852597085"><ele>107.0</ele><time>2026-04-22T08:50:42.999Z</time></trkpt><trkpt lat="43.26574212036204" lon="6.152258593027639"><ele>106.99999999999999</ele><time>2026-04-22T08:50:43.999Z</time></trkpt><trkpt lat="43.26580769154311" lon="6.1522396362118865"><ele>107.0</ele><time>2026-04-22T08:50:44.999Z</time></trkpt><trkpt lat="43.26594468942645" lon="6.15220167740894"><ele>107.49999999999999</ele><time>2026-04-22T08:50:46.999Z</time></trkpt><trkpt lat="43.266020220730184" lon="6.152182123334348"><ele>108.0</ele><time>2026-04-22T08:50:47.999Z</time></trkpt><trkpt lat="43.266083084248756" lon="6.15216584877593"><ele>108.5</ele><time>2026-04-22T08:50:48.999Z</time></trkpt><trkpt lat="43.265980337931374" lon="6.152192448424184"><ele>109.0</ele><time>2026-04-22T08:51:24Z</time></trkpt><trkpt lat="43.26587036367483" lon="6.152222302642046"><ele>109.49999999999999</ele><time>2026-04-22T08:51:26Z</time></trkpt><trkpt lat="43.26580406185663" lon="6.152240639829197"><ele>110.0</ele><time>2026-04-22T08:51:27Z</time></trkpt><trkpt lat="43.265736961877096" lon="6.1522591977177"><ele>110.0</ele><time>2026-04-22T08:51:28Z</time></trkpt><trkpt lat="43.26566112102924" lon="6.15228339601721"><ele>110.0</ele><time>2026-04-22T08:51:30Z</time></trkpt><trkpt lat="43.26558692431246" lon="6.152311343138703"><ele>110.0</ele><time>2026-04-22T08:51:33Z</time></trkpt><trkpt lat="43.26559297819811" lon="6.152507314518792"><ele>110.0</ele><time>2026-04-22T08:51:35Z</time></trkpt><trkpt lat="43.26561555345098" lon="6.152607508286079"><ele>110.0</ele><time>2026-04-22T08:51:36Z</time></trkpt><trkpt lat="43.2656599959796" lon="6.152722161448529"><ele>109.75</ele><time>2026-04-22T08:51:37Z</time></trkpt><trkpt lat="43.26570757564164" lon="6.152844841496753"><ele>109.5</ele><time>2026-04-22T08:51:38Z</time></trkpt><trkpt lat="43.26575858880739" lon="6.152979175791418"><ele>109.25</ele><time>2026-04-22T08:51:39Z</time></trkpt><trkpt lat="43.26581002753077" lon="6.153119706963736"><ele>109.0</ele><time>2026-04-22T08:51:40Z</time></trkpt><trkpt lat="43.2658672765163" lon="6.153274274185771"><ele>108.6</ele><time>2026-04-22T08:51:41Z</time></trkpt><trkpt lat="43.26592157112894" lon="6.153407946456747"><ele>108.2</ele><time>2026-04-22T08:51:42Z</time></trkpt><trkpt lat="43.265976935942916" lon="6.1535401545780335"><ele>107.79999999999998</ele><time>2026-04-22T08:51:43Z</time></trkpt><trkpt lat="43.2660285632408" lon="6.1536775817731115"><ele>107.39999999999999</ele><time>2026-04-22T08:51:44Z</time></trkpt><trkpt lat="43.26608964966652" lon="6.153793770851074"><ele>107.0</ele><time>2026-04-22T08:51:45Z</time></trkpt><trkpt lat="43.26612903204036" lon="6.1539243672205135"><ele>106.6</ele><time>2026-04-22T08:51:46Z</time></trkpt><trkpt lat="43.266183649203356" lon="6.1540609965355815"><ele>106.19999999999999</ele><time>2026-04-22T08:51:47Z</time></trkpt><trkpt lat="43.2662477263232" lon="6.154182638083965"><ele>105.8</ele><time>2026-04-22T08:51:48Z</time></trkpt><trkpt lat="43.26629682924381" lon="6.154321943581945"><ele>105.4</ele><time>2026-04-22T08:51:49Z</time></trkpt><trkpt lat="43.266331276482354" lon="6.154466424693813"><ele>105.0</ele><time>2026-04-22T08:51:50Z</time></trkpt><trkpt lat="43.266385493037475" lon="6.154611207406297"><ele>105.0</ele><time>2026-04-22T08:51:51Z</time></trkpt><trkpt lat="43.26643587851795" lon="6.154768767706912"><ele>105.0</ele><time>2026-04-22T08:51:52Z</time></trkpt><trkpt lat="43.266482112097655" lon="6.154918176193359"><ele>105.0</ele><time>2026-04-22T08:51:53Z</time></trkpt><trkpt lat="43.266520998247806" lon="6.155048040016187"><ele>105.0</ele><time>2026-04-22T08:51:54Z</time></trkpt><trkpt lat="43.266562564704415" lon="6.155165495090439"><ele>105.0</ele><time>2026-04-22T08:51:55Z</time></trkpt><trkpt lat="43.266585386923964" lon="6.15526519501705"><ele>105.4</ele><time>2026-04-22T08:51:55.999Z</time></trkpt><trkpt lat="43.26660959014076" lon="6.155357011400534"><ele>105.8</ele><time>2026-04-22T08:51:56.999Z</time></trkpt><trkpt lat="43.2665698449758" lon="6.155469314952149"><ele>106.19999999999999</ele><time>2026-04-22T08:51:57.999Z</time></trkpt><trkpt lat="43.26657804561749" lon="6.155600291988209"><ele>106.6</ele><time>2026-04-22T08:51:58.999Z</time></trkpt><trkpt lat="43.266609004023465" lon="6.155724963475721"><ele>107.0</ele><time>2026-04-22T08:51:59.999Z</time></trkpt><trkpt lat="43.26665396086104" lon="6.15586239529708"><ele>107.0</ele><time>2026-04-22T08:52:00.999Z</time></trkpt><trkpt lat="43.26670047630618" lon="6.1559982492359415"><ele>106.99999999999999</ele><time>2026-04-22T08:52:01.999Z</time></trkpt><trkpt lat="43.26675200099506" lon="6.156123233852823"><ele>106.99999999999999</ele><time>2026-04-22T08:52:02.999Z</time></trkpt><trkpt lat="43.26680418485526" lon="6.1562199019854615"><ele>107.0</ele><time>2026-04-22T08:52:03.999Z</time></trkpt><trkpt lat="43.266861638076115" lon="6.156293109930037"><ele>107.0</ele><time>2026-04-22T08:52:04.999Z</time></trkpt><trkpt lat="43.266953955949084" lon="6.156317897076187"><ele>107.0</ele><time>2026-04-22T08:52:05.999Z</time></trkpt><trkpt lat="43.26704785056613" lon="6.15635723876695"><ele>106.99999999999999</ele><time>2026-04-22T08:52:06.999Z</time></trkpt><trkpt lat="43.2671356007613" lon="6.156429762071163"><ele>106.99999999999999</ele><time>2026-04-22T08:52:07.999Z</time></trkpt><trkpt lat="43.26723286168859" lon="6.15645901009954"><ele>107.0</ele><time>2026-04-22T08:52:08.999Z</time></trkpt><trkpt lat="43.267327653796265" lon="6.156512876249395"><ele>107.0</ele><time>2026-04-22T08:52:09.999Z</time></trkpt><trkpt lat="43.267423400912456" lon="6.156557342134606"><ele>107.33333333333333</ele><time>2026-04-22T08:52:10.999Z</time></trkpt><trkpt lat="43.26751977176288" lon="6.156584156280629"><ele>107.66666666666666</ele><time>2026-04-22T08:52:11.999Z</time></trkpt><trkpt lat="43.26760185928604" lon="6.156607511324978"><ele>108.0</ele><time>2026-04-22T08:52:12.999Z</time></trkpt><trkpt lat="43.26767022962376" lon="6.15662543106841"><ele>108.33333333333334</ele><time>2026-04-22T08:52:13.999Z</time></trkpt><trkpt lat="43.267731010818466" lon="6.15665406650325"><ele>108.66666666666667</ele><time>2026-04-22T08:52:14.999Z</time></trkpt><trkpt lat="43.26779940349695" lon="6.156702994251341"><ele>109.0</ele><time>2026-04-22T08:52:15.999Z</time></trkpt><trkpt lat="43.26782978245677" lon="6.156802594163938"><ele>109.0</ele><time>2026-04-22T08:52:16.999Z</time></trkpt><trkpt lat="43.26785533478378" lon="6.156902080978602"><ele>109.0</ele><time>2026-04-22T08:52:17.999Z</time></trkpt><trkpt lat="43.26789365885491" lon="6.1570135925272975"><ele>109.0</ele><time>2026-04-22T08:52:18.999Z</time></trkpt><trkpt lat="43.26794819858088" lon="6.157126054945554"><ele>109.0</ele><time>2026-04-22T08:52:19.999Z</time></trkpt><trkpt lat="43.267987641994324" lon="6.157270827919379"><ele>109.0</ele><time>2026-04-22T08:52:20.999Z</time></trkpt><trkpt lat="43.268034163187465" lon="6.157417237164453"><ele>108.80000000000001</ele><time>2026-04-22T08:52:21.999Z</time></trkpt><trkpt lat="43.268078882357315" lon="6.157556394990748"><ele>108.60000000000001</ele><time>2026-04-22T08:52:22.999Z</time></trkpt><trkpt lat="43.26810492407631" lon="6.157687430791209"><ele>108.4</ele><time>2026-04-22T08:52:23.999Z</time></trkpt><trkpt lat="43.26814209749393" lon="6.157813423838854"><ele>108.2</ele><time>2026-04-22T08:52:24.999Z</time></trkpt><trkpt lat="43.26818038420801" lon="6.157945407750789"><ele>108.0</ele><time>2026-04-22T08:52:25.999Z</time></trkpt><trkpt lat="43.26823162699668" lon="6.158070302728661"><ele>108.60000000000001</ele><time>2026-04-22T08:52:26.999Z</time></trkpt><trkpt lat="43.26826174053819" lon="6.158203072952686"><ele>109.20000000000002</ele><time>2026-04-22T08:52:27.999Z</time></trkpt><trkpt lat="43.26829286115311" lon="6.158335229188774"><ele>109.8</ele><time>2026-04-22T08:52:28.999Z</time></trkpt><trkpt lat="43.26832370372566" lon="6.158469261944081"><ele>110.4</ele><time>2026-04-22T08:52:29.999Z</time></trkpt><trkpt lat="43.26835795865448" lon="6.158605810304183"><ele>111.0</ele><time>2026-04-22T08:52:30.999Z</time></trkpt><trkpt lat="43.26839142722456" lon="6.158752130215278"><ele>111.0</ele><time>2026-04-22T08:52:31.999Z</time></trkpt><trkpt lat="43.2684242892334" lon="6.158895263759285"><ele>111.0</ele><time>2026-04-22T08:52:32.999Z</time></trkpt><trkpt lat="43.26845667395945" lon="6.15903210120273"><ele>111.0</ele><time>2026-04-22T08:52:33.999Z</time></trkpt><trkpt lat="43.26848008734118" lon="6.159155870375129"><ele>111.0</ele><time>2026-04-22T08:52:34.999Z</time></trkpt><trkpt lat="43.268506649597114" lon="6.159265866500507"><ele>111.0</ele><time>2026-04-22T08:52:35.999Z</time></trkpt><trkpt lat="43.26853026661498" lon="6.159355519235211"><ele>111.0</ele><time>2026-04-22T08:52:36.999Z</time></trkpt><trkpt lat="43.268554592112345" lon="6.159447470719374"><ele>111.0</ele><time>2026-04-22T08:52:37.999Z</time></trkpt><trkpt lat="43.26857830710913" lon="6.15960681224317"><ele>111.0</ele><time>2026-04-22T08:52:39.999Z</time></trkpt><trkpt lat="43.26853792174407" lon="6.159698374304644"><ele>111.0</ele><time>2026-04-22T08:52:40.999Z</time></trkpt><trkpt lat="43.26842274199207" lon="6.159805730875268"><ele>111.0</ele><time>2026-04-22T08:52:42.999Z</time></trkpt><trkpt lat="43.26836113127315" lon="6.159897848761473"><ele>110.83333333333333</ele><time>2026-04-22T08:52:43.999Z</time></trkpt><trkpt lat="43.268334257485925" lon="6.159986683490009"><ele>110.66666666666666</ele><time>2026-04-22T08:52:44.999Z</time></trkpt><trkpt lat="43.268305930495714" lon="6.1601235966889405"><ele>110.5</ele><time>2026-04-22T08:52:46.999Z</time></trkpt><trkpt lat="43.268407114105436" lon="6.160235932176712"><ele>110.33333333333333</ele><time>2026-04-22T08:52:48.999Z</time></trkpt><trkpt lat="43.26844087091727" lon="6.160310843367544"><ele>110.16666666666666</ele><time>2026-04-22T08:52:49.999Z</time></trkpt><trkpt lat="43.268488422339274" lon="6.160375443686889"><ele>110.0</ele><time>2026-04-22T08:52:50.999Z</time></trkpt><trkpt lat="43.268549064382036" lon="6.160458145020014"><ele>110.0</ele><time>2026-04-22T08:52:52.999Z</time></trkpt><trkpt lat="43.26855932036149" lon="6.160591218990768"><ele>110.0</ele><time>2026-04-22T08:52:54.999Z</time></trkpt><trkpt lat="43.26852264307549" lon="6.160770900976591"><ele>110.0</ele><time>2026-04-22T08:52:56.999Z</time></trkpt><trkpt lat="43.26851660017868" lon="6.1608847844780135"><ele>110.0</ele><time>2026-04-22T08:52:57.999Z</time></trkpt><trkpt lat="43.26848757693424" lon="6.160976102693972"><ele>110.0</ele><time>2026-04-22T08:52:58.999Z</time></trkpt><trkpt lat="43.26845977364762" lon="6.161059101705423"><ele>109.85714285714285</ele><time>2026-04-22T08:52:59.999Z</time></trkpt><trkpt lat="43.26842346227587" lon="6.161135985721867"><ele>109.71428571428571</ele><time>2026-04-22T08:53:00.999Z</time></trkpt><trkpt lat="43.268388690727285" lon="6.1612311565823195"><ele>109.57142857142857</ele><time>2026-04-22T08:53:01.998Z</time></trkpt><trkpt lat="43.2683540262486" lon="6.161322316539564"><ele>109.42857142857142</ele><time>2026-04-22T08:53:02.998Z</time></trkpt><trkpt lat="43.26832042050127" lon="6.161406447072532"><ele>109.28571428571429</ele><time>2026-04-22T08:53:03.998Z</time></trkpt><trkpt lat="43.26828821341362" lon="6.161486762416595"><ele>109.14285714285714</ele><time>2026-04-22T08:53:04.998Z</time></trkpt><trkpt lat="43.2682536542777" lon="6.161589399394668"><ele>109.0</ele><time>2026-04-22T08:53:05.998Z</time></trkpt><trkpt lat="43.268216142921325" lon="6.161698184256076"><ele>108.50000000000001</ele><time>2026-04-22T08:53:06.998Z</time></trkpt><trkpt lat="43.26817385853846" lon="6.161793765579467"><ele>108.0</ele><time>2026-04-22T08:53:07.998Z</time></trkpt><trkpt lat="43.2681244487294" lon="6.161860538164151"><ele>107.5</ele><time>2026-04-22T08:53:08.998Z</time></trkpt><trkpt lat="43.26808140349148" lon="6.161944719385606"><ele>107.0</ele><time>2026-04-22T08:53:09.998Z</time></trkpt><trkpt lat="43.26803192334478" lon="6.1620393870938175"><ele>106.50000000000001</ele><time>2026-04-22T08:53:10.998Z</time></trkpt><trkpt lat="43.26797292323728" lon="6.162149295325736"><ele>106.0</ele><time>2026-04-22T08:53:11.998Z</time></trkpt><trkpt lat="43.26793096446894" lon="6.16226788528487"><ele>105.83333333333334</ele><time>2026-04-22T08:53:12.998Z</time></trkpt><trkpt lat="43.26788101709032" lon="6.162361548074331"><ele>105.66666666666667</ele><time>2026-04-22T08:53:14Z</time></trkpt><trkpt lat="43.26783794822354" lon="6.162439855835184"><ele>105.5</ele><time>2026-04-22T08:53:15Z</time></trkpt><trkpt lat="43.267796361697066" lon="6.162573185617903"><ele>105.33333333333334</ele><time>2026-04-22T08:53:17Z</time></trkpt><trkpt lat="43.26778207162163" lon="6.16270908012687"><ele>105.16666666666667</ele><time>2026-04-22T08:53:19Z</time></trkpt><trkpt lat="43.267780436204205" lon="6.16280961262946"><ele>105.0</ele><time>2026-04-22T08:53:20Z</time></trkpt><trkpt lat="43.26782581467036" lon="6.162964258144338"><ele>105.0</ele><time>2026-04-22T08:53:22Z</time></trkpt><trkpt lat="43.26782054798239" lon="6.1630673061652566"><ele>105.0</ele><time>2026-04-22T08:53:23Z</time></trkpt><trkpt lat="43.26784265088627" lon="6.163225198257173"><ele>105.0</ele><time>2026-04-22T08:53:25Z</time></trkpt><trkpt lat="43.26784491281666" lon="6.163323773771227"><ele>105.0</ele><time>2026-04-22T08:53:26Z</time></trkpt><trkpt lat="43.26785428698162" lon="6.163445856014315"><ele>105.0</ele><time>2026-04-22T08:53:27Z</time></trkpt><trkpt lat="43.2678675756891" lon="6.163558757446575"><ele>105.0</ele><time>2026-04-22T08:53:28Z</time></trkpt><trkpt lat="43.26787819443061" lon="6.16366341458776"><ele>105.16666666666667</ele><time>2026-04-22T08:53:29Z</time></trkpt><trkpt lat="43.26788803748315" lon="6.163752418648208"><ele>105.33333333333334</ele><time>2026-04-22T08:53:30Z</time></trkpt><trkpt lat="43.26790040493068" lon="6.163848304918421"><ele>105.5</ele><time>2026-04-22T08:53:31Z</time></trkpt><trkpt lat="43.26789767896606" lon="6.164027666669865"><ele>105.66666666666667</ele><time>2026-04-22T08:53:33Z</time></trkpt><trkpt lat="43.26790419366201" lon="6.164132067367468"><ele>105.83333333333334</ele><time>2026-04-22T08:53:34Z</time></trkpt><trkpt lat="43.26790997809005" lon="6.164249073687865"><ele>106.0</ele><time>2026-04-22T08:53:35Z</time></trkpt><trkpt lat="43.26791544173099" lon="6.16436560148217"><ele>106.16666666666667</ele><time>2026-04-22T08:53:36Z</time></trkpt><trkpt lat="43.26792118379475" lon="6.164488067429784"><ele>106.33333333333334</ele><time>2026-04-22T08:53:37Z</time></trkpt><trkpt lat="43.26792698615436" lon="6.164611819368101"><ele>106.5</ele><time>2026-04-22T08:53:38Z</time></trkpt><trkpt lat="43.267948719467505" lon="6.164731513245419"><ele>106.66666666666666</ele><time>2026-04-22T08:53:39Z</time></trkpt><trkpt lat="43.26794132078303" lon="6.16485501997394"><ele>106.83333333333333</ele><time>2026-04-22T08:53:40Z</time></trkpt><trkpt lat="43.2679503432658" lon="6.16497171381389"><ele>107.0</ele><time>2026-04-22T08:53:41Z</time></trkpt><trkpt lat="43.267958784430874" lon="6.165080889066886"><ele>107.39999999999999</ele><time>2026-04-22T08:53:42Z</time></trkpt><trkpt lat="43.267962450762845" lon="6.165230487371244"><ele>107.79999999999998</ele><time>2026-04-22T08:53:44Z</time></trkpt><trkpt lat="43.26797113400529" lon="6.165316521495385"><ele>108.2</ele><time>2026-04-22T08:53:46Z</time></trkpt><trkpt lat="43.26801710356783" lon="6.1654096731236585"><ele>108.6</ele><time>2026-04-22T08:53:48Z</time></trkpt><trkpt lat="43.268134389116355" lon="6.165390994380595"><ele>109.0</ele><time>2026-04-22T08:53:50Z</time></trkpt><trkpt lat="43.26821430860122" lon="6.165384415766573"><ele>109.0</ele><time>2026-04-22T08:53:52Z</time></trkpt><trkpt lat="43.26828571343381" lon="6.165388720135228"><ele>109.0</ele><time>2026-04-22T08:53:54Z</time></trkpt><trkpt lat="43.268191108983125" lon="6.165419846745388"><ele>109.0</ele><time>2026-04-22T08:54:08.999Z</time></trkpt><trkpt lat="43.2680842513664" lon="6.165407447820123"><ele>109.0</ele><time>2026-04-22T08:54:10.999Z</time></trkpt><trkpt lat="43.26802221369736" lon="6.165389360900968"><ele>109.0</ele><time>2026-04-22T08:54:11.999Z</time></trkpt><trkpt lat="43.267899049455494" lon="6.165356543447927"><ele>109.0</ele><time>2026-04-22T08:54:13.999Z</time></trkpt><trkpt lat="43.2678337375498" lon="6.165199487018441"><ele>109.0</ele><time>2026-04-22T08:54:14.999Z</time></trkpt><trkpt lat="43.26767142607206" lon="6.165302253935013"><ele>109.0</ele><time>2026-04-22T08:54:15.999Z</time></trkpt><trkpt lat="43.267580663821406" lon="6.165289403203711"><ele>109.0</ele><time>2026-04-22T08:54:16.999Z</time></trkpt><trkpt lat="43.26750072618489" lon="6.165280636342706"><ele>109.0</ele><time>2026-04-22T08:54:17.999Z</time></trkpt><trkpt lat="43.267416350462256" lon="6.165267246538246"><ele>109.0</ele><time>2026-04-22T08:54:18.999Z</time></trkpt><trkpt lat="43.26733085283368" lon="6.165248636085867"><ele>109.0</ele><time>2026-04-22T08:54:19.999Z</time></trkpt><trkpt lat="43.267255649646124" lon="6.165235377577117"><ele>109.0</ele><time>2026-04-22T08:54:20.999Z</time></trkpt><trkpt lat="43.26715303147721" lon="6.165187740168303"><ele>109.0</ele><time>2026-04-22T08:54:22.999Z</time></trkpt><trkpt lat="43.267086955697664" lon="6.165055310802066"><ele>108.80000000000001</ele><time>2026-04-22T08:54:24.999Z</time></trkpt><trkpt lat="43.267046058806365" lon="6.1649175296577585"><ele>108.60000000000001</ele><time>2026-04-22T08:54:26.999Z</time></trkpt><trkpt lat="43.267024425898704" lon="6.164810501808463"><ele>108.4</ele><time>2026-04-22T08:54:28.999Z</time></trkpt><trkpt lat="43.266958785020876" lon="6.164652545019441"><ele>108.2</ele><time>2026-04-22T08:54:30.999Z</time></trkpt><trkpt lat="43.266916732853886" lon="6.1645603567696305"><ele>108.0</ele><time>2026-04-22T08:54:31.999Z</time></trkpt><trkpt lat="43.26688220055238" lon="6.164467049594065"><ele>108.0</ele><time>2026-04-22T08:54:32.999Z</time></trkpt><trkpt lat="43.266846061122486" lon="6.164369730419251"><ele>108.0</ele><time>2026-04-22T08:54:33.999Z</time></trkpt><trkpt lat="43.26681265265908" lon="6.164276141302896"><ele>108.0</ele><time>2026-04-22T08:54:34.999Z</time></trkpt><trkpt lat="43.266760212878275" lon="6.1641357934530285"><ele>108.0</ele><time>2026-04-22T08:54:36.999Z</time></trkpt><trkpt lat="43.266704478503044" lon="6.164034350557091"><ele>108.0</ele><time>2026-04-22T08:54:38.999Z</time></trkpt><trkpt lat="43.26665438942913" lon="6.163946468481174"><ele>108.0</ele><time>2026-04-22T08:54:40.999Z</time></trkpt><trkpt lat="43.26657030724083" lon="6.163906545592205"><ele>108.0</ele><time>2026-04-22T08:54:42.999Z</time></trkpt><trkpt lat="43.26645334437007" lon="6.163909494876688"><ele>108.00000000000001</ele><time>2026-04-22T08:54:44.999Z</time></trkpt><trkpt lat="43.26638125127957" lon="6.163907272995919"><ele>108.00000000000001</ele><time>2026-04-22T08:54:46.999Z</time></trkpt><trkpt lat="43.26629996140716" lon="6.1639685677636455"><ele>108.0</ele><time>2026-04-22T08:54:49.999Z</time></trkpt><trkpt lat="43.26635675365785" lon="6.163916351332328"><ele>108.0</ele><time>2026-04-22T08:55:08.998Z</time></trkpt><trkpt lat="43.266464180650274" lon="6.163908421023876"><ele>108.0</ele><time>2026-04-22T08:55:11.998Z</time></trkpt><trkpt lat="43.266573352505574" lon="6.163919996936754"><ele>108.00000000000001</ele><time>2026-04-22T08:55:13.998Z</time></trkpt><trkpt lat="43.2666734317087" lon="6.163973161228169"><ele>108.00000000000001</ele><time>2026-04-22T08:55:15.998Z</time></trkpt><trkpt lat="43.26674597032263" lon="6.164093737439861"><ele>108.0</ele><time>2026-04-22T08:55:17.998Z</time></trkpt><trkpt lat="43.26678218638205" lon="6.164183807704119"><ele>108.0</ele><time>2026-04-22T08:55:18.998Z</time></trkpt><trkpt lat="43.26682104507645" lon="6.164280726248015"><ele>108.0</ele><time>2026-04-22T08:55:20Z</time></trkpt><trkpt lat="43.26686323829856" lon="6.164397182859701"><ele>108.0</ele><time>2026-04-22T08:55:21Z</time></trkpt><trkpt lat="43.26690528785997" lon="6.164515130548695"><ele>108.0</ele><time>2026-04-22T08:55:22Z</time></trkpt><trkpt lat="43.266950292203155" lon="6.164630442592074"><ele>108.0</ele><time>2026-04-22T08:55:23Z</time></trkpt><trkpt lat="43.266982962005514" lon="6.164718893854703"><ele>108.0</ele><time>2026-04-22T08:55:24Z</time></trkpt><trkpt lat="43.26701743737667" lon="6.164791906855405"><ele>108.0</ele><time>2026-04-22T08:55:25Z</time></trkpt><trkpt lat="43.267059606287475" lon="6.164919908061425"><ele>108.16666666666667</ele><time>2026-04-22T08:55:27Z</time></trkpt><trkpt lat="43.267083781491735" lon="6.165034823849596"><ele>108.33333333333334</ele><time>2026-04-22T08:55:29Z</time></trkpt><trkpt lat="43.267148154827815" lon="6.165169203024317"><ele>108.5</ele><time>2026-04-22T08:55:31Z</time></trkpt><trkpt lat="43.26719871294964" lon="6.165223425149447"><ele>108.66666666666667</ele><time>2026-04-22T08:55:32Z</time></trkpt><trkpt lat="43.267270284083416" lon="6.165256992934091"><ele>108.83333333333334</ele><time>2026-04-22T08:55:33Z</time></trkpt><trkpt lat="43.26736424764699" lon="6.165269944139578"><ele>109.0</ele><time>2026-04-22T08:55:34Z</time></trkpt><trkpt lat="43.26746307892765" lon="6.1652748162000846"><ele>109.0</ele><time>2026-04-22T08:55:35Z</time></trkpt><trkpt lat="43.26756389078235" lon="6.165286423832992"><ele>109.0</ele><time>2026-04-22T08:55:36Z</time></trkpt><trkpt lat="43.26765529782529" lon="6.165305153344477"><ele>109.0</ele><time>2026-04-22T08:55:37Z</time></trkpt><trkpt lat="43.267750666620856" lon="6.165324008856555"><ele>109.0</ele><time>2026-04-22T08:55:38Z</time></trkpt><trkpt lat="43.267840792361476" lon="6.165341144621056"><ele>109.0</ele><time>2026-04-22T08:55:39Z</time></trkpt><trkpt lat="43.26791186582663" lon="6.165355125921467"><ele>109.00000000000001</ele><time>2026-04-22T08:55:40Z</time></trkpt><trkpt lat="43.26799559751861" lon="6.165354752356156"><ele>109.0</ele><time>2026-04-22T08:55:42Z</time></trkpt><trkpt lat="43.26805847313139" lon="6.165370335357633"><ele>109.0</ele><time>2026-04-22T08:55:44Z</time></trkpt><trkpt lat="43.2681502804428" lon="6.1653915235948356"><ele>109.0</ele><time>2026-04-22T08:55:46Z</time></trkpt><trkpt lat="43.26825772191502" lon="6.165381110655811"><ele>109.00000000000001</ele><time>2026-04-22T08:55:48Z</time></trkpt><trkpt lat="43.26832609612122" lon="6.165460221695529"><ele>109.0</ele><time>2026-04-22T08:55:51Z</time></trkpt><trkpt lat="43.268323846771956" lon="6.165587294846004"><ele>109.00000000000001</ele><time>2026-04-22T08:55:53Z</time></trkpt><trkpt lat="43.26832006703767" lon="6.165678841685487"><ele>109.0</ele><time>2026-04-22T08:55:54Z</time></trkpt><trkpt lat="43.268309877713484" lon="6.165779428344648"><ele>109.0</ele><time>2026-04-22T08:55:55Z</time></trkpt><trkpt lat="43.268292898968646" lon="6.165888359434357"><ele>109.0</ele><time>2026-04-22T08:55:56Z</time></trkpt><trkpt lat="43.268280369494015" lon="6.165987411605852"><ele>109.00000000000001</ele><time>2026-04-22T08:55:57Z</time></trkpt><trkpt lat="43.268262595735756" lon="6.166076715144934"><ele>109.0</ele><time>2026-04-22T08:55:58Z</time></trkpt><trkpt lat="43.26822229775921" lon="6.166245460266163"><ele>109.50000000000001</ele><time>2026-04-22T08:56:00Z</time></trkpt><trkpt lat="43.26820331596586" lon="6.166334217453041"><ele>110.0</ele><time>2026-04-22T08:56:01Z</time></trkpt><trkpt lat="43.26818566512735" lon="6.166424986146789"><ele>110.5</ele><time>2026-04-22T08:56:02Z</time></trkpt><trkpt lat="43.268167032750625" lon="6.166515372353521"><ele>111.0</ele><time>2026-04-22T08:56:03Z</time></trkpt><trkpt lat="43.268151750544455" lon="6.166678459519122"><ele>111.50000000000001</ele><time>2026-04-22T08:56:05Z</time></trkpt><trkpt lat="43.268150377749016" lon="6.16676895279611"><ele>112.0</ele><time>2026-04-22T08:56:05.999Z</time></trkpt><trkpt lat="43.26817526313554" lon="6.166895569559329"><ele>113.39999999999999</ele><time>2026-04-22T08:56:07.999Z</time></trkpt><trkpt lat="43.26822660701628" lon="6.166967178673046"><ele>114.79999999999998</ele><time>2026-04-22T08:56:09.999Z</time></trkpt><trkpt lat="43.26830016157825" lon="6.167037375306842"><ele>116.2</ele><time>2026-04-22T08:56:11.999Z</time></trkpt><trkpt lat="43.26839391402573" lon="6.1670677778260155"><ele>117.6</ele><time>2026-04-22T08:56:13.999Z</time></trkpt><trkpt lat="43.26845776999519" lon="6.167098832182402"><ele>119.0</ele><time>2026-04-22T08:56:14.999Z</time></trkpt><trkpt lat="43.268571218462164" lon="6.167168461746023"><ele>118.99999999999999</ele><time>2026-04-22T08:56:16.999Z</time></trkpt><trkpt lat="43.26866699597743" lon="6.167258646966091"><ele>119.0</ele><time>2026-04-22T08:56:18.999Z</time></trkpt><trkpt lat="43.26871938613227" lon="6.167342317412039"><ele>119.0</ele><time>2026-04-22T08:56:19.999Z</time></trkpt><trkpt lat="43.26877327698075" lon="6.167421440171304"><ele>119.0</ele><time>2026-04-22T08:56:20.999Z</time></trkpt><trkpt lat="43.2688216823227" lon="6.167492117400282"><ele>118.99999999999999</ele><time>2026-04-22T08:56:21.999Z</time></trkpt><trkpt lat="43.26886302021706" lon="6.167560812978455"><ele>119.0</ele><time>2026-04-22T08:56:22.999Z</time></trkpt><trkpt lat="43.26891566097854" lon="6.167639499828158"><ele>119.66666666666666</ele><time>2026-04-22T08:56:23.999Z</time></trkpt><trkpt lat="43.2689677883842" lon="6.167718094568249"><ele>120.33333333333333</ele><time>2026-04-22T08:56:24.999Z</time></trkpt><trkpt lat="43.26901080847437" lon="6.167799131216426"><ele>121.0</ele><time>2026-04-22T08:56:25.999Z</time></trkpt><trkpt lat="43.2690553573245" lon="6.167896588294872"><ele>121.66666666666666</ele><time>2026-04-22T08:56:26.999Z</time></trkpt><trkpt lat="43.26909158805491" lon="6.167980266925003"><ele>122.33333333333333</ele><time>2026-04-22T08:56:27.999Z</time></trkpt><trkpt lat="43.26918070873532" lon="6.168089895466875"><ele>123.0</ele><time>2026-04-22T08:56:29.999Z</time></trkpt><trkpt lat="43.26930561629075" lon="6.168148092399556"><ele>125.14285714285717</ele><time>2026-04-22T08:56:31.999Z</time></trkpt><trkpt lat="43.2693726342605" lon="6.168202351336323"><ele>127.28571428571429</ele><time>2026-04-22T08:56:32.999Z</time></trkpt><trkpt lat="43.26943717218516" lon="6.168261942969581"><ele>129.42857142857144</ele><time>2026-04-22T08:56:33.999Z</time></trkpt><trkpt lat="43.2694899258781" lon="6.168315227908427"><ele>131.57142857142858</ele><time>2026-04-22T08:56:34.999Z</time></trkpt><trkpt lat="43.2695525316311" lon="6.168372928816894"><ele>133.71428571428572</ele><time>2026-04-22T08:56:35.999Z</time></trkpt><trkpt lat="43.26961087954834" lon="6.168428421857941"><ele>135.85714285714286</ele><time>2026-04-22T08:56:36.999Z</time></trkpt><trkpt lat="43.26967439900024" lon="6.168488123147002"><ele>138.0</ele><time>2026-04-22T08:56:37.999Z</time></trkpt><trkpt lat="43.269725428732166" lon="6.16854196939349"><ele>138.0</ele><time>2026-04-22T08:56:38.999Z</time></trkpt><trkpt lat="43.269774020097955" lon="6.168603678385881"><ele>138.0</ele><time>2026-04-22T08:56:39.999Z</time></trkpt><trkpt lat="43.26984541844615" lon="6.16866296433001"><ele>138.0</ele><time>2026-04-22T08:56:40.999Z</time></trkpt><trkpt lat="43.269905746015006" lon="6.1687421357343775"><ele>138.0</ele><time>2026-04-22T08:56:41.999Z</time></trkpt><trkpt lat="43.269965167588964" lon="6.168797107655746"><ele>138.0</ele><time>2026-04-22T08:56:42.999Z</time></trkpt><trkpt lat="43.27003799533866" lon="6.168899658853084"><ele>138.0</ele><time>2026-04-22T08:56:44.999Z</time></trkpt><trkpt lat="43.27009267046632" lon="6.16895083495744"><ele>137.8</ele><time>2026-04-22T08:56:46.999Z</time></trkpt><trkpt lat="43.27012674493422" lon="6.169075231647005"><ele>137.60000000000002</ele><time>2026-04-22T08:56:49.999Z</time></trkpt><trkpt lat="43.270102793528324" lon="6.169211725005406"><ele>137.39999999999998</ele><time>2026-04-22T08:56:51.999Z</time></trkpt><trkpt lat="43.27006012275129" lon="6.16931006884462"><ele>137.2</ele><time>2026-04-22T08:56:53.999Z</time></trkpt><trkpt lat="43.270022325059564" lon="6.169427236916287"><ele>137.0</ele><time>2026-04-22T08:56:55.999Z</time></trkpt><trkpt lat="43.269969727407506" lon="6.169507423499957"><ele>137.0</ele><time>2026-04-22T08:56:57.999Z</time></trkpt><trkpt lat="43.26990465435848" lon="6.169567318161447"><ele>137.0</ele><time>2026-04-22T08:56:59.999Z</time></trkpt><trkpt lat="43.269905089387045" lon="6.169667762832476"><ele>137.0</ele><time>2026-04-22T08:57:36Z</time></trkpt><trkpt lat="43.269937221366916" lon="6.169743703293428"><ele>137.0</ele><time>2026-04-22T08:58:36.999Z</time></trkpt><trkpt lat="43.26999392755672" lon="6.169783793145849"><ele>137.0</ele><time>2026-04-22T08:59:00.999Z</time></trkpt><trkpt lat="43.27007549837079" lon="6.169839238105986"><ele>137.0</ele><time>2026-04-22T08:59:02.999Z</time></trkpt><trkpt lat="43.27013359871701" lon="6.169943908676"><ele>138.66666666666666</ele><time>2026-04-22T08:59:05.999Z</time></trkpt><trkpt lat="43.2701499510299" lon="6.170060097138406"><ele>140.33333333333331</ele><time>2026-04-22T08:59:07.999Z</time></trkpt><trkpt lat="43.27011030289612" lon="6.170164156634737"><ele>142.0</ele><time>2026-04-22T08:59:09.999Z</time></trkpt><trkpt lat="43.2700367710161" lon="6.170205481578661"><ele>143.66666666666666</ele><time>2026-04-22T08:59:11.999Z</time></trkpt><trkpt lat="43.269954012545206" lon="6.17023766223274"><ele>145.33333333333334</ele><time>2026-04-22T08:59:13.999Z</time></trkpt><trkpt lat="43.26987534550201" lon="6.170286648027249"><ele>147.0</ele><time>2026-04-22T08:59:15.998Z</time></trkpt><trkpt lat="43.2698126161156" lon="6.170351803272353"><ele>147.0</ele><time>2026-04-22T08:59:17.998Z</time></trkpt><trkpt lat="43.26976602503237" lon="6.170433340862815"><ele>147.0</ele><time>2026-04-22T08:59:19.998Z</time></trkpt><trkpt lat="43.269771537780926" lon="6.170531620904012"><ele>147.0</ele><time>2026-04-22T08:59:21.998Z</time></trkpt><trkpt lat="43.26979534865704" lon="6.170657748584673"><ele>147.0</ele><time>2026-04-22T08:59:23.998Z</time></trkpt><trkpt lat="43.2698262515873" lon="6.1708035531843715"><ele>147.0</ele><time>2026-04-22T08:59:25.998Z</time></trkpt><trkpt lat="43.26983931662317" lon="6.170949087959703"><ele>149.0</ele><time>2026-04-22T08:59:27.998Z</time></trkpt><trkpt lat="43.26981002951741" lon="6.171107861401944"><ele>151.0</ele><time>2026-04-22T08:59:29.998Z</time></trkpt><trkpt lat="43.26978556732729" lon="6.1711896028420385"><ele>153.0</ele><time>2026-04-22T08:59:30.998Z</time></trkpt><trkpt lat="43.26974028811" lon="6.171332812431341"><ele>155.0</ele><time>2026-04-22T08:59:33Z</time></trkpt><trkpt lat="43.26972003421722" lon="6.171415173457334"><ele>157.0</ele><time>2026-04-22T08:59:34Z</time></trkpt><trkpt lat="43.26967486964994" lon="6.1715647934465565"><ele>162.8</ele><time>2026-04-22T08:59:36Z</time></trkpt><trkpt lat="43.26965442540245" lon="6.171650136531661"><ele>168.6</ele><time>2026-04-22T08:59:37Z</time></trkpt><trkpt lat="43.26960393461144" lon="6.171818536064506"><ele>174.4</ele><time>2026-04-22T08:59:39Z</time></trkpt><trkpt lat="43.2695674204201" lon="6.17192889927336"><ele>180.20000000000002</ele><time>2026-04-22T08:59:40Z</time></trkpt><trkpt lat="43.26952495327019" lon="6.17204036694262"><ele>186.0</ele><time>2026-04-22T08:59:41Z</time></trkpt><trkpt lat="43.269491265399566" lon="6.172136558135344"><ele>186.0</ele><time>2026-04-22T08:59:42Z</time></trkpt><trkpt lat="43.26944346036087" lon="6.172252785263907"><ele>186.0</ele><time>2026-04-22T08:59:44Z</time></trkpt><trkpt lat="43.269404336766684" lon="6.172394395266585"><ele>186.0</ele><time>2026-04-22T08:59:46Z</time></trkpt><trkpt lat="43.269377667001706" lon="6.172558976656369"><ele>186.0</ele><time>2026-04-22T08:59:48Z</time></trkpt><trkpt lat="43.26936145741908" lon="6.172730019082563"><ele>186.60000000000002</ele><time>2026-04-22T08:59:50Z</time></trkpt><trkpt lat="43.26935562488251" lon="6.172879800933541"><ele>187.2</ele><time>2026-04-22T08:59:52Z</time></trkpt><trkpt lat="43.26934964085449" lon="6.172995911363774"><ele>187.8</ele><time>2026-04-22T08:59:54Z</time></trkpt><trkpt lat="43.26934778744133" lon="6.1731566401029365"><ele>188.39999999999998</ele><time>2026-04-22T08:59:56Z</time></trkpt><trkpt lat="43.269351406874925" lon="6.173279748905594"><ele>189.0</ele><time>2026-04-22T08:59:58Z</time></trkpt><trkpt lat="43.269352372410204" lon="6.173423567674664"><ele>189.16666666666666</ele><time>2026-04-22T09:00:00Z</time></trkpt><trkpt lat="43.269366874631096" lon="6.173564288983236"><ele>189.33333333333334</ele><time>2026-04-22T09:00:02Z</time></trkpt><trkpt lat="43.269383580517385" lon="6.173651603994336"><ele>189.5</ele><time>2026-04-22T09:00:04Z</time></trkpt><trkpt lat="43.26940963009118" lon="6.173765202248461"><ele>189.66666666666669</ele><time>2026-04-22T09:00:07Z</time></trkpt><trkpt lat="43.269439531743615" lon="6.17386399578754"><ele>189.83333333333334</ele><time>2026-04-22T09:00:10Z</time></trkpt><trkpt lat="43.269453283965476" lon="6.173953098036671"><ele>190.0</ele><time>2026-04-22T09:00:14Z</time></trkpt><trkpt lat="43.269448434419395" lon="6.1740457225914644"><ele>189.0</ele><time>2026-04-22T09:00:18.999Z</time></trkpt><trkpt lat="43.26947028313226" lon="6.174128691660089"><ele>188.0</ele><time>2026-04-22T09:00:38.999Z</time></trkpt><trkpt lat="43.269496544591405" lon="6.174234013122469"><ele>187.0</ele><time>2026-04-22T09:00:41.999Z</time></trkpt><trkpt lat="43.26950934525842" lon="6.174324130006818"><ele>186.0</ele><time>2026-04-22T09:00:43.999Z</time></trkpt><trkpt lat="43.269520910624486" lon="6.1744439881774476"><ele>185.0</ele><time>2026-04-22T09:00:46.999Z</time></trkpt><trkpt lat="43.269531888520554" lon="6.174571376858698"><ele>184.0</ele><time>2026-04-22T09:00:49.999Z</time></trkpt><trkpt lat="43.26954405460449" lon="6.174657892413941"><ele>184.0</ele><time>2026-04-22T09:00:51.999Z</time></trkpt><trkpt lat="43.26955216932552" lon="6.174775554276263"><ele>184.0</ele><time>2026-04-22T09:00:54.999Z</time></trkpt><trkpt lat="43.26955690919277" lon="6.174902385411304"><ele>184.0</ele><time>2026-04-22T09:00:57.999Z</time></trkpt><trkpt lat="43.26956935939867" lon="6.174994947930104"><ele>184.0</ele><time>2026-04-22T09:00:59.999Z</time></trkpt><trkpt lat="43.2695873234115" lon="6.175091828214173"><ele>184.0</ele><time>2026-04-22T09:01:01.999Z</time></trkpt><trkpt lat="43.2695957578046" lon="6.175190081655567"><ele>184.0</ele><time>2026-04-22T09:01:03.999Z</time></trkpt><trkpt lat="43.26959457165829" lon="6.175279339358556"><ele>182.71428571428572</ele><time>2026-04-22T09:01:05.999Z</time></trkpt><trkpt lat="43.26961622779669" lon="6.175363719213391"><ele>181.42857142857142</ele><time>2026-04-22T09:01:07.999Z</time></trkpt><trkpt lat="43.269641434481926" lon="6.175453325275226"><ele>180.14285714285714</ele><time>2026-04-22T09:01:09.999Z</time></trkpt><trkpt lat="43.269650261667834" lon="6.175541943416366"><ele>178.85714285714286</ele><time>2026-04-22T09:01:11.999Z</time></trkpt><trkpt lat="43.269660939734514" lon="6.175662959844342"><ele>177.57142857142856</ele><time>2026-04-22T09:01:14.999Z</time></trkpt><trkpt lat="43.26967512280335" lon="6.175761104994908"><ele>176.28571428571428</ele><time>2026-04-22T09:01:16.999Z</time></trkpt><trkpt lat="43.269704865248976" lon="6.175844117816281"><ele>175.0</ele><time>2026-04-22T09:01:18.999Z</time></trkpt><trkpt lat="43.269739833532405" lon="6.1759549152847635"><ele>172.6</ele><time>2026-04-22T09:01:20.999Z</time></trkpt><trkpt lat="43.26974976376263" lon="6.176072031939222"><ele>170.2</ele><time>2026-04-22T09:01:22.999Z</time></trkpt><trkpt lat="43.269761679144324" lon="6.176202644081901"><ele>167.8</ele><time>2026-04-22T09:01:24.999Z</time></trkpt><trkpt lat="43.26977637993463" lon="6.176338119954086"><ele>165.4</ele><time>2026-04-22T09:01:26.999Z</time></trkpt><trkpt lat="43.269803898816846" lon="6.176482394714591"><ele>163.0</ele><time>2026-04-22T09:01:28.998Z</time></trkpt><trkpt lat="43.26982281393083" lon="6.176638140034066"><ele>160.66666666666669</ele><time>2026-04-22T09:01:30.998Z</time></trkpt><trkpt lat="43.26983160721669" lon="6.176743158548058"><ele>158.33333333333334</ele><time>2026-04-22T09:01:31.998Z</time></trkpt><trkpt lat="43.26984185203293" lon="6.17686212769289"><ele>156.0</ele><time>2026-04-22T09:01:32.998Z</time></trkpt><trkpt lat="43.26984442760567" lon="6.176975799344848"><ele>153.66666666666666</ele><time>2026-04-22T09:01:33.998Z</time></trkpt><trkpt lat="43.26985061357222" lon="6.17708386160254"><ele>151.33333333333331</ele><time>2026-04-22T09:01:34.998Z</time></trkpt><trkpt lat="43.2698622224104" lon="6.177206311149383"><ele>149.0</ele><time>2026-04-22T09:01:35.998Z</time></trkpt><trkpt lat="43.26986384050257" lon="6.177323058081776"><ele>148.6</ele><time>2026-04-22T09:01:36.998Z</time></trkpt><trkpt lat="43.26986165491759" lon="6.177447512494043"><ele>148.2</ele><time>2026-04-22T09:01:38Z</time></trkpt><trkpt lat="43.26986155645788" lon="6.177591633469407"><ele>147.79999999999998</ele><time>2026-04-22T09:01:39Z</time></trkpt><trkpt lat="43.26986157917301" lon="6.177721998051258"><ele>147.4</ele><time>2026-04-22T09:01:40Z</time></trkpt><trkpt lat="43.26986305291477" lon="6.17784188071356"><ele>147.0</ele><time>2026-04-22T09:01:41Z</time></trkpt><trkpt lat="43.26987204527716" lon="6.177964106845396"><ele>147.0</ele><time>2026-04-22T09:01:42Z</time></trkpt><trkpt lat="43.26988096789352" lon="6.178076659195693"><ele>147.0</ele><time>2026-04-22T09:01:43Z</time></trkpt><trkpt lat="43.26989370617978" lon="6.178181553163628"><ele>147.0</ele><time>2026-04-22T09:01:44Z</time></trkpt><trkpt lat="43.269916267420925" lon="6.178272122890885"><ele>147.0</ele><time>2026-04-22T09:01:45Z</time></trkpt><trkpt lat="43.26995386139857" lon="6.178413959560454"><ele>147.0</ele><time>2026-04-22T09:01:47Z</time></trkpt><trkpt lat="43.26997431347534" lon="6.178502085715307"><ele>147.0</ele><time>2026-04-22T09:01:49Z</time></trkpt><trkpt lat="43.2700001051731" lon="6.178593703961873"><ele>147.16666666666666</ele><time>2026-04-22T09:01:51Z</time></trkpt><trkpt lat="43.27003377611378" lon="6.178673861318801"><ele>147.33333333333334</ele><time>2026-04-22T09:01:53Z</time></trkpt><trkpt lat="43.27006984676157" lon="6.178762888724643"><ele>147.5</ele><time>2026-04-22T09:01:56Z</time></trkpt><trkpt lat="43.27011653784179" lon="6.178853564427923"><ele>147.66666666666669</ele><time>2026-04-22T09:01:59Z</time></trkpt><trkpt lat="43.27015452749487" lon="6.178952748053373"><ele>147.83333333333334</ele><time>2026-04-22T09:02:02Z</time></trkpt><trkpt lat="43.2701936538926" lon="6.17905199199754"><ele>148.0</ele><time>2026-04-22T09:02:05Z</time></trkpt><trkpt lat="43.270220376574244" lon="6.17917642211032"><ele>148.0</ele><time>2026-04-22T09:02:08Z</time></trkpt><trkpt lat="43.27023279634859" lon="6.179288836291298"><ele>148.0</ele><time>2026-04-22T09:02:11Z</time></trkpt><trkpt lat="43.27024303604822" lon="6.179408859850459"><ele>148.0</ele><time>2026-04-22T09:02:14Z</time></trkpt><trkpt lat="43.27025847737109" lon="6.179497454513648"><ele>148.0</ele><time>2026-04-22T09:02:16Z</time></trkpt><trkpt lat="43.2702567943183" lon="6.179589655367493"><ele>148.0</ele><time>2026-04-22T09:02:18Z</time></trkpt><trkpt lat="43.27026988169838" lon="6.179723300704573"><ele>148.0</ele><time>2026-04-22T09:02:21Z</time></trkpt><trkpt lat="43.27027931443923" lon="6.179809024101248"><ele>146.5</ele><time>2026-04-22T09:02:23Z</time></trkpt><trkpt lat="43.27028756234877" lon="6.179900499417658"><ele>145.0</ele><time>2026-04-22T09:02:25Z</time></trkpt><trkpt lat="43.2702843099386" lon="6.180016216472915"><ele>143.5</ele><time>2026-04-22T09:02:27.999Z</time></trkpt><trkpt lat="43.270260590511676" lon="6.180153518802829"><ele>142.0</ele><time>2026-04-22T09:02:29.999Z</time></trkpt><trkpt lat="43.270236844500545" lon="6.18026926894691"><ele>140.5</ele><time>2026-04-22T09:02:31.999Z</time></trkpt><trkpt lat="43.27022262625129" lon="6.180399352539679"><ele>139.0</ele><time>2026-04-22T09:02:33.999Z</time></trkpt><trkpt lat="43.270206655934565" lon="6.180501011625528"><ele>139.0</ele><time>2026-04-22T09:02:35.999Z</time></trkpt><trkpt lat="43.27021648901598" lon="6.180609844833717"><ele>139.0</ele><time>2026-04-22T09:02:37.999Z</time></trkpt><trkpt lat="43.270217761748995" lon="6.1807067284635515"><ele>139.0</ele><time>2026-04-22T09:02:39.999Z</time></trkpt><trkpt lat="43.27022276197154" lon="6.180800490778278"><ele>139.0</ele><time>2026-04-22T09:02:41.999Z</time></trkpt><trkpt lat="43.270224837888016" lon="6.180923594031891"><ele>139.0</ele><time>2026-04-22T09:02:43.999Z</time></trkpt><trkpt lat="43.270223252053114" lon="6.181035064393784"><ele>139.0</ele><time>2026-04-22T09:02:45.999Z</time></trkpt><trkpt lat="43.2702269448869" lon="6.181146354162411"><ele>137.66666666666669</ele><time>2026-04-22T09:02:48.999Z</time></trkpt><trkpt lat="43.27022852847542" lon="6.181279150191767"><ele>136.33333333333334</ele><time>2026-04-22T09:02:50.999Z</time></trkpt><trkpt lat="43.270212447605644" lon="6.181404585276411"><ele>135.0</ele><time>2026-04-22T09:02:52.999Z</time></trkpt><trkpt lat="43.2702078571574" lon="6.18152330199799"><ele>133.66666666666666</ele><time>2026-04-22T09:02:54.999Z</time></trkpt><trkpt lat="43.270191810283" lon="6.18161816808417"><ele>132.33333333333331</ele><time>2026-04-22T09:02:56.999Z</time></trkpt><trkpt lat="43.270193079114016" lon="6.181734857410125"><ele>131.0</ele><time>2026-04-22T09:02:59.999Z</time></trkpt><trkpt lat="43.270232460880145" lon="6.181895888748258"><ele>130.0</ele><time>2026-04-22T09:03:02.999Z</time></trkpt><trkpt lat="43.27025820241068" lon="6.1820674083783125"><ele>129.0</ele><time>2026-04-22T09:03:04.999Z</time></trkpt><trkpt lat="43.270266625974244" lon="6.182166878247058"><ele>128.0</ele><time>2026-04-22T09:03:05.999Z</time></trkpt><trkpt lat="43.27027379559236" lon="6.182277591457294"><ele>127.0</ele><time>2026-04-22T09:03:06.999Z</time></trkpt><trkpt lat="43.270271509847625" lon="6.182389468797383"><ele>125.99999999999999</ele><time>2026-04-22T09:03:07.999Z</time></trkpt><trkpt lat="43.27026792458104" lon="6.182501977691821"><ele>125.0</ele><time>2026-04-22T09:03:08.999Z</time></trkpt><trkpt lat="43.270263632859944" lon="6.182609103925168"><ele>124.33333333333333</ele><time>2026-04-22T09:03:09.999Z</time></trkpt><trkpt lat="43.270263339364874" lon="6.182791678451501"><ele>123.66666666666666</ele><time>2026-04-22T09:03:11.999Z</time></trkpt><trkpt lat="43.27028006486229" lon="6.18289045784142"><ele>123.0</ele><time>2026-04-22T09:03:12.999Z</time></trkpt><trkpt lat="43.270306944966435" lon="6.182988252450851"><ele>122.33333333333334</ele><time>2026-04-22T09:03:13.999Z</time></trkpt><trkpt lat="43.2703347985591" lon="6.183083003514666"><ele>121.66666666666667</ele><time>2026-04-22T09:03:14.999Z</time></trkpt><trkpt lat="43.270377948749854" lon="6.183194059903687"><ele>121.0</ele><time>2026-04-22T09:03:15.999Z</time></trkpt><trkpt lat="43.27042174043983" lon="6.183299205818072"><ele>121.66666666666667</ele><time>2026-04-22T09:03:16.999Z</time></trkpt><trkpt lat="43.27045986755556" lon="6.183384124246981"><ele>122.33333333333334</ele><time>2026-04-22T09:03:17.999Z</time></trkpt><trkpt lat="43.270497232794455" lon="6.183475984705383"><ele>123.0</ele><time>2026-04-22T09:03:18.999Z</time></trkpt><trkpt lat="43.27054202552004" lon="6.183589264201675"><ele>123.66666666666666</ele><time>2026-04-22T09:03:19.999Z</time></trkpt><trkpt lat="43.27058125250384" lon="6.183691403105908"><ele>124.33333333333333</ele><time>2026-04-22T09:03:20.999Z</time></trkpt><trkpt lat="43.270605118720965" lon="6.183791572954256"><ele>125.0</ele><time>2026-04-22T09:03:21.999Z</time></trkpt><trkpt lat="43.27062808134541" lon="6.183890180651588"><ele>124.99999999999999</ele><time>2026-04-22T09:03:22.999Z</time></trkpt><trkpt lat="43.27065327025172" lon="6.183987564302641"><ele>125.0</ele><time>2026-04-22T09:03:23.999Z</time></trkpt><trkpt lat="43.27068297623454" lon="6.184074949780474"><ele>125.0</ele><time>2026-04-22T09:03:24.999Z</time></trkpt><trkpt lat="43.27070746519395" lon="6.1841737438216"><ele>125.0</ele><time>2026-04-22T09:03:25.999Z</time></trkpt><trkpt lat="43.270724967450185" lon="6.1842836235314165"><ele>124.99999999999999</ele><time>2026-04-22T09:03:26.999Z</time></trkpt><trkpt lat="43.27073803353491" lon="6.184401010722959"><ele>125.0</ele><time>2026-04-22T09:03:27.999Z</time></trkpt><trkpt lat="43.27075379723142" lon="6.184519278375267"><ele>123.99999999999999</ele><time>2026-04-22T09:03:28.999Z</time></trkpt><trkpt lat="43.27076876009747" lon="6.184616421341159"><ele>123.0</ele><time>2026-04-22T09:03:29.999Z</time></trkpt><trkpt lat="43.27077917205688" lon="6.1847163886900836"><ele>122.0</ele><time>2026-04-22T09:03:30.999Z</time></trkpt><trkpt lat="43.27079392657154" lon="6.184820883981319"><ele>121.0</ele><time>2026-04-22T09:03:31.999Z</time></trkpt><trkpt lat="43.27081210284683" lon="6.184925380114327"><ele>119.99999999999999</ele><time>2026-04-22T09:03:32.999Z</time></trkpt><trkpt lat="43.270823465981834" lon="6.185026809576364"><ele>119.0</ele><time>2026-04-22T09:03:33.999Z</time></trkpt><trkpt lat="43.270843540057896" lon="6.185125216823893"><ele>118.33333333333333</ele><time>2026-04-22T09:03:34.999Z</time></trkpt><trkpt lat="43.270866107049606" lon="6.185212981370126"><ele>117.66666666666666</ele><time>2026-04-22T09:03:35.998Z</time></trkpt><trkpt lat="43.27089617507978" lon="6.185302878675008"><ele>117.0</ele><time>2026-04-22T09:03:36.998Z</time></trkpt><trkpt lat="43.270935056787046" lon="6.185384125995488"><ele>116.33333333333334</ele><time>2026-04-22T09:03:37.998Z</time></trkpt><trkpt lat="43.27097868238734" lon="6.185449119638556"><ele>115.66666666666667</ele><time>2026-04-22T09:03:38.998Z</time></trkpt><trkpt lat="43.27109298743837" lon="6.1855411608413"><ele>115.0</ele><time>2026-04-22T09:03:40.998Z</time></trkpt><trkpt lat="43.27116766105001" lon="6.185581653001803"><ele>115.00000000000001</ele><time>2026-04-22T09:03:41.998Z</time></trkpt><trkpt lat="43.271246733657115" lon="6.185621367917453"><ele>115.0</ele><time>2026-04-22T09:03:42.998Z</time></trkpt><trkpt lat="43.27133019111308" lon="6.1856626511605075"><ele>115.0</ele><time>2026-04-22T09:03:44Z</time></trkpt><trkpt lat="43.27141538275119" lon="6.1857005494183275"><ele>115.0</ele><time>2026-04-22T09:03:45Z</time></trkpt><trkpt lat="43.27149079060416" lon="6.18573869799349"><ele>115.00000000000001</ele><time>2026-04-22T09:03:46Z</time></trkpt><trkpt lat="43.271574652468445" lon="6.1857735054598635"><ele>115.0</ele><time>2026-04-22T09:03:47Z</time></trkpt><trkpt lat="43.271659000397" lon="6.1858041132417885"><ele>115.00000000000001</ele><time>2026-04-22T09:03:48Z</time></trkpt><trkpt lat="43.27173774113688" lon="6.185837542632025"><ele>115.0</ele><time>2026-04-22T09:03:49Z</time></trkpt><trkpt lat="43.27182255125011" lon="6.185869915632798"><ele>115.0</ele><time>2026-04-22T09:03:50Z</time></trkpt><trkpt lat="43.271910294882325" lon="6.185901231895563"><ele>115.0</ele><time>2026-04-22T09:03:51Z</time></trkpt><trkpt lat="43.27199982918082" lon="6.185929858685015"><ele>115.00000000000001</ele><time>2026-04-22T09:03:52Z</time></trkpt><trkpt lat="43.272089629177735" lon="6.185962909524023"><ele>115.0</ele><time>2026-04-22T09:03:53Z</time></trkpt><trkpt lat="43.27217491571426" lon="6.186005995529749"><ele>115.0</ele><time>2026-04-22T09:03:54Z</time></trkpt><trkpt lat="43.272263926143154" lon="6.1860505039803915"><ele>115.0</ele><time>2026-04-22T09:03:55Z</time></trkpt><trkpt lat="43.27235795022402" lon="6.186097927916445"><ele>115.0</ele><time>2026-04-22T09:03:56Z</time></trkpt><trkpt lat="43.272451129800885" lon="6.186132281220713"><ele>115.0</ele><time>2026-04-22T09:03:57Z</time></trkpt><trkpt lat="43.27253124422451" lon="6.1861597640830475"><ele>115.0</ele><time>2026-04-22T09:03:58Z</time></trkpt><trkpt lat="43.272646917065245" lon="6.186209366490838"><ele>115.83333333333334</ele><time>2026-04-22T09:04:00Z</time></trkpt><trkpt lat="43.27271299705976" lon="6.18624627978574"><ele>116.66666666666667</ele><time>2026-04-22T09:04:01Z</time></trkpt><trkpt lat="43.272784892314554" lon="6.186289172810883"><ele>117.5</ele><time>2026-04-22T09:04:02Z</time></trkpt><trkpt lat="43.272865844759096" lon="6.186325490400862"><ele>118.33333333333334</ele><time>2026-04-22T09:04:03Z</time></trkpt><trkpt lat="43.27295202646481" lon="6.186358879773212"><ele>119.16666666666667</ele><time>2026-04-22T09:04:04Z</time></trkpt><trkpt lat="43.273034104896986" lon="6.186381911564566"><ele>120.0</ele><time>2026-04-22T09:04:05Z</time></trkpt><trkpt lat="43.27311176601292" lon="6.186403093331271"><ele>120.0</ele><time>2026-04-22T09:04:06Z</time></trkpt><trkpt lat="43.273184801558436" lon="6.186414192786216"><ele>120.0</ele><time>2026-04-22T09:04:07Z</time></trkpt><trkpt lat="43.2732506178192" lon="6.186419049721997"><ele>120.0</ele><time>2026-04-22T09:04:08Z</time></trkpt><trkpt lat="43.2733229917184" lon="6.186427577271282"><ele>120.0</ele><time>2026-04-22T09:04:09Z</time></trkpt><trkpt lat="43.27344439667797" lon="6.186413566292668"><ele>120.0</ele><time>2026-04-22T09:04:11Z</time></trkpt><trkpt lat="43.27352859911723" lon="6.186387991314391"><ele>120.0</ele><time>2026-04-22T09:04:13Z</time></trkpt><trkpt lat="43.273663032323235" lon="6.186371155698769"><ele>120.0</ele><time>2026-04-22T09:04:15Z</time></trkpt><trkpt lat="43.273752292744476" lon="6.186376816888447"><ele>120.0</ele><time>2026-04-22T09:04:16Z</time></trkpt><trkpt lat="43.273840751327455" lon="6.186376065468415"><ele>120.0</ele><time>2026-04-22T09:04:17Z</time></trkpt><trkpt lat="43.27393673477331" lon="6.186371091377618"><ele>120.0</ele><time>2026-04-22T09:04:18Z</time></trkpt><trkpt lat="43.27403645998827" lon="6.186366701970074"><ele>120.0</ele><time>2026-04-22T09:04:19Z</time></trkpt><trkpt lat="43.27412563321805" lon="6.186367622542769"><ele>119.66666666666667</ele><time>2026-04-22T09:04:20Z</time></trkpt><trkpt lat="43.2742029192081" lon="6.1863715025645405"><ele>119.33333333333334</ele><time>2026-04-22T09:04:21Z</time></trkpt><trkpt lat="43.27427977315239" lon="6.186372284657769"><ele>119.0</ele><time>2026-04-22T09:04:22Z</time></trkpt><trkpt lat="43.274346268303496" lon="6.186381375292408"><ele>118.66666666666667</ele><time>2026-04-22T09:04:23Z</time></trkpt><trkpt lat="43.27445514844445" lon="6.186397518708583"><ele>118.33333333333334</ele><time>2026-04-22T09:04:25Z</time></trkpt><trkpt lat="43.27452320140917" lon="6.186432725904841"><ele>118.0</ele><time>2026-04-22T09:04:26.999Z</time></trkpt><trkpt lat="43.27455981708727" lon="6.1865153246794256"><ele>116.80000000000001</ele><time>2026-04-22T09:04:29.999Z</time></trkpt><trkpt lat="43.27450608596755" lon="6.186643532971509"><ele>115.60000000000001</ele><time>2026-04-22T09:04:32.999Z</time></trkpt><trkpt lat="43.27442009537415" lon="6.186765287096887"><ele>114.39999999999999</ele><time>2026-04-22T09:04:34.999Z</time></trkpt><trkpt lat="43.27443555117755" lon="6.186884791775341"><ele>113.19999999999999</ele><time>2026-04-22T09:04:37.999Z</time></trkpt><trkpt lat="43.27448878544845" lon="6.186969378268259"><ele>112.0</ele><time>2026-04-22T09:04:39.999Z</time></trkpt><trkpt lat="43.274541958862756" lon="6.187039165861284"><ele>112.0</ele><time>2026-04-22T09:04:41.999Z</time></trkpt><trkpt lat="43.27461032044802" lon="6.187070855129933"><ele>112.0</ele><time>2026-04-22T09:04:44.999Z</time></trkpt><trkpt lat="43.274580701583474" lon="6.187148352191473"><ele>112.0</ele><time>2026-04-22T09:06:41.999Z</time></trkpt><trkpt lat="43.2745141349791" lon="6.18715106702343"><ele>112.0</ele><time>2026-04-22T09:08:18Z</time></trkpt><trkpt lat="43.27448123392318" lon="6.187067125070865"><ele>112.0</ele><time>2026-04-22T09:08:25Z</time></trkpt><trkpt lat="43.274447457187456" lon="6.1869773293785615"><ele>112.0</ele><time>2026-04-22T09:08:30Z</time></trkpt><trkpt lat="43.27438611930987" lon="6.186946510615328"><ele>112.0</ele><time>2026-04-22T09:08:36Z</time></trkpt><trkpt lat="43.27432215021822" lon="6.18699941642064"><ele>112.0</ele><time>2026-04-22T09:08:41Z</time></trkpt><trkpt lat="43.27426848232122" lon="6.187063049637512"><ele>112.0</ele><time>2026-04-22T09:08:46Z</time></trkpt><trkpt lat="43.27419903534936" lon="6.187097101162207"><ele>112.0</ele><time>2026-04-22T09:08:51.999Z</time></trkpt><trkpt lat="43.274133439369045" lon="6.187116215563045"><ele>112.0</ele><time>2026-04-22T09:08:56.999Z</time></trkpt><trkpt lat="43.27406920423554" lon="6.187130514039255"><ele>112.0</ele><time>2026-04-22T09:09:01.999Z</time></trkpt><trkpt lat="43.27399751347833" lon="6.1871610486055975"><ele>112.0</ele><time>2026-04-22T09:09:07.999Z</time></trkpt><trkpt lat="43.27392974391385" lon="6.18718121732818"><ele>112.0</ele><time>2026-04-22T09:09:13.999Z</time></trkpt><trkpt lat="43.2738631455441" lon="6.187213396162768"><ele>111.8</ele><time>2026-04-22T09:09:19.999Z</time></trkpt><trkpt lat="43.27380127094601" lon="6.187178205651214"><ele>111.6</ele><time>2026-04-22T09:16:33Z</time></trkpt><trkpt lat="43.27373799257528" lon="6.187193096433084"><ele>111.39999999999999</ele><time>2026-04-22T09:16:58Z</time></trkpt><trkpt lat="43.273577104531505" lon="6.1872331666387606"><ele>111.19999999999999</ele><time>2026-04-22T09:17:16.999Z</time></trkpt><trkpt lat="43.27348423245562" lon="6.187255826087576"><ele>111.0</ele><time>2026-04-22T09:17:18.999Z</time></trkpt><trkpt lat="43.27339436212436" lon="6.187254221956582"><ele>111.0</ele><time>2026-04-22T09:17:20.999Z</time></trkpt><trkpt lat="43.273293993307675" lon="6.187237301635194"><ele>111.0</ele><time>2026-04-22T09:17:22.999Z</time></trkpt><trkpt lat="43.273212278816075" lon="6.187221909077293"><ele>111.0</ele><time>2026-04-22T09:17:24.999Z</time></trkpt><trkpt lat="43.273123293246954" lon="6.187226210742131"><ele>111.0</ele><time>2026-04-22T09:17:26.999Z</time></trkpt><trkpt lat="43.273027974887164" lon="6.1872903767523555"><ele>111.0</ele><time>2026-04-22T09:17:28.999Z</time></trkpt><trkpt lat="43.27295148566213" lon="6.187440370265369"><ele>110.4</ele><time>2026-04-22T09:17:30.999Z</time></trkpt><trkpt lat="43.27284791285525" lon="6.187497553915503"><ele>109.8</ele><time>2026-04-22T09:17:32.999Z</time></trkpt><trkpt lat="43.27274297829699" lon="6.187569012060202"><ele>109.20000000000002</ele><time>2026-04-22T09:17:34.999Z</time></trkpt><trkpt lat="43.27268097918284" lon="6.1876119900098905"><ele>108.60000000000001</ele><time>2026-04-22T09:17:36.999Z</time></trkpt><trkpt lat="43.272606902868766" lon="6.187639856049655"><ele>108.0</ele><time>2026-04-22T09:17:39.999Z</time></trkpt><trkpt lat="43.27268462984599" lon="6.187635003916482"><ele>108.0</ele><time>2026-04-22T09:17:56.999Z</time></trkpt><trkpt lat="43.27278400018902" lon="6.187566120719346"><ele>108.0</ele><time>2026-04-22T09:17:58.999Z</time></trkpt><trkpt lat="43.272893527047486" lon="6.187491784720128"><ele>108.0</ele><time>2026-04-22T09:17:59.999Z</time></trkpt><trkpt lat="43.27300343118536" lon="6.187480987483147"><ele>108.0</ele><time>2026-04-22T09:18:00.999Z</time></trkpt><trkpt lat="43.273118718690014" lon="6.187459538129688"><ele>109.5</ele><time>2026-04-22T09:18:01.999Z</time></trkpt><trkpt lat="43.273234301225514" lon="6.1874433373586495"><ele>111.0</ele><time>2026-04-22T09:18:02.999Z</time></trkpt><trkpt lat="43.27337855774867" lon="6.1874521239690905"><ele>112.5</ele><time>2026-04-22T09:18:03.999Z</time></trkpt><trkpt lat="43.27353231264819" lon="6.187450273275058"><ele>114.0</ele><time>2026-04-22T09:18:04.999Z</time></trkpt><trkpt lat="43.27367138710249" lon="6.187450114196737"><ele>114.0</ele><time>2026-04-22T09:18:05.999Z</time></trkpt><trkpt lat="43.27383915333806" lon="6.187446210087896"><ele>114.0</ele><time>2026-04-22T09:18:06.999Z</time></trkpt><trkpt lat="43.27403287863395" lon="6.187442063709935"><ele>114.0</ele><time>2026-04-22T09:18:07.999Z</time></trkpt><trkpt lat="43.274199284086144" lon="6.187437585707002"><ele>115.75</ele><time>2026-04-22T09:18:08.999Z</time></trkpt><trkpt lat="43.27434125975389" lon="6.187443481209971"><ele>117.5</ele><time>2026-04-22T09:18:09.999Z</time></trkpt><trkpt lat="43.27446297050597" lon="6.18744768849334"><ele>119.25</ele><time>2026-04-22T09:18:10.999Z</time></trkpt><trkpt lat="43.27457617309408" lon="6.187448429807886"><ele>121.0</ele><time>2026-04-22T09:18:11.999Z</time></trkpt><trkpt lat="43.27467579131058" lon="6.18746200943779"><ele>121.0</ele><time>2026-04-22T09:18:12.998Z</time></trkpt><trkpt lat="43.27475845354484" lon="6.187498644085861"><ele>121.0</ele><time>2026-04-22T09:18:13.998Z</time></trkpt><trkpt lat="43.27486010250822" lon="6.187543881878485"><ele>121.0</ele><time>2026-04-22T09:18:14.998Z</time></trkpt><trkpt lat="43.27495161889801" lon="6.187622230065284"><ele>121.0</ele><time>2026-04-22T09:18:15.998Z</time></trkpt><trkpt lat="43.27502809124117" lon="6.187727080083246"><ele>121.0</ele><time>2026-04-22T09:18:16.998Z</time></trkpt><trkpt lat="43.27508522574145" lon="6.187880707255821"><ele>120.5</ele><time>2026-04-22T09:18:17.998Z</time></trkpt><trkpt lat="43.275142854119636" lon="6.188033839453754"><ele>120.0</ele><time>2026-04-22T09:18:18.998Z</time></trkpt><trkpt lat="43.27520434624318" lon="6.188188975057483"><ele>119.5</ele><time>2026-04-22T09:18:19.998Z</time></trkpt><trkpt lat="43.27524983496007" lon="6.188332128340966"><ele>119.0</ele><time>2026-04-22T09:18:20.998Z</time></trkpt><trkpt lat="43.275274587626186" lon="6.188497335697195"><ele>119.6</ele><time>2026-04-22T09:18:21.998Z</time></trkpt><trkpt lat="43.2752891583776" lon="6.18866399457593"><ele>120.2</ele><time>2026-04-22T09:18:22.998Z</time></trkpt><trkpt lat="43.275303886468315" lon="6.188815765985849"><ele>120.79999999999998</ele><time>2026-04-22T09:18:23.998Z</time></trkpt><trkpt lat="43.27531602038647" lon="6.188938384538532"><ele>121.39999999999999</ele><time>2026-04-22T09:18:24.998Z</time></trkpt><trkpt lat="43.275327409288934" lon="6.189042057635842"><ele>122.0</ele><time>2026-04-22T09:18:26Z</time></trkpt><trkpt lat="43.275346673441774" lon="6.189136297587949"><ele>122.0</ele><time>2026-04-22T09:18:27Z</time></trkpt><trkpt lat="43.27535923417784" lon="6.1892454612041305"><ele>121.99999999999999</ele><time>2026-04-22T09:18:28Z</time></trkpt><trkpt lat="43.27540375082845" lon="6.189352849086726"><ele>121.99999999999999</ele><time>2026-04-22T09:18:29Z</time></trkpt><trkpt lat="43.275474936615915" lon="6.189472659319047"><ele>122.0</ele><time>2026-04-22T09:18:30Z</time></trkpt><trkpt lat="43.275558601235964" lon="6.189599684573986"><ele>122.0</ele><time>2026-04-22T09:18:31Z</time></trkpt><trkpt lat="43.27564657046555" lon="6.189733245213215"><ele>122.0</ele><time>2026-04-22T09:18:32Z</time></trkpt><trkpt lat="43.27572861828887" lon="6.189857815715654"><ele>122.0</ele><time>2026-04-22T09:18:33Z</time></trkpt><trkpt lat="43.27581847971494" lon="6.189994249184412"><ele>122.0</ele><time>2026-04-22T09:18:34Z</time></trkpt><trkpt lat="43.27591355718242" lon="6.1901386021321905"><ele>122.0</ele><time>2026-04-22T09:18:35Z</time></trkpt><trkpt lat="43.276003840315845" lon="6.190279653007647"><ele>122.0</ele><time>2026-04-22T09:18:36Z</time></trkpt><trkpt lat="43.2760966962517" lon="6.1904070064918235"><ele>122.0</ele><time>2026-04-22T09:18:37Z</time></trkpt><trkpt lat="43.27617028062337" lon="6.19056695935529"><ele>122.0</ele><time>2026-04-22T09:18:38Z</time></trkpt><trkpt lat="43.276255614596536" lon="6.190721757486956"><ele>122.0</ele><time>2026-04-22T09:18:39Z</time></trkpt><trkpt lat="43.2763555426056" lon="6.190868809932024"><ele>122.75</ele><time>2026-04-22T09:18:40Z</time></trkpt><trkpt lat="43.2764728221836" lon="6.190995725010799"><ele>123.5</ele><time>2026-04-22T09:18:41Z</time></trkpt><trkpt lat="43.27656151140078" lon="6.191143230642686"><ele>124.25</ele><time>2026-04-22T09:18:42Z</time></trkpt><trkpt lat="43.27664905263862" lon="6.191261185830522"><ele>125.0</ele><time>2026-04-22T09:18:43Z</time></trkpt><trkpt lat="43.27672784921054" lon="6.191349377713002"><ele>125.0</ele><time>2026-04-22T09:18:44Z</time></trkpt><trkpt lat="43.276786656906026" lon="6.191470567346514"><ele>125.0</ele><time>2026-04-22T09:18:45Z</time></trkpt><trkpt lat="43.27681878500019" lon="6.191643548446695"><ele>125.0</ele><time>2026-04-22T09:18:46Z</time></trkpt><trkpt lat="43.27686316460963" lon="6.191830903505754"><ele>125.0</ele><time>2026-04-22T09:18:47Z</time></trkpt><trkpt lat="43.27691627327141" lon="6.191999230446901"><ele>125.25</ele><time>2026-04-22T09:18:48Z</time></trkpt><trkpt lat="43.27697922897646" lon="6.192096348298806"><ele>125.5</ele><time>2026-04-22T09:18:49Z</time></trkpt><trkpt lat="43.27705227389638" lon="6.192210163646503"><ele>125.75</ele><time>2026-04-22T09:18:50Z</time></trkpt><trkpt lat="43.27715612727665" lon="6.192348237862226"><ele>126.0</ele><time>2026-04-22T09:18:51Z</time></trkpt><trkpt lat="43.2772734666647" lon="6.192486391598963"><ele>126.0</ele><time>2026-04-22T09:18:52Z</time></trkpt><trkpt lat="43.277387755959126" lon="6.192608972876604"><ele>126.0</ele><time>2026-04-22T09:18:53Z</time></trkpt><trkpt lat="43.27750165283757" lon="6.192719553095493"><ele>126.0</ele><time>2026-04-22T09:18:54Z</time></trkpt><trkpt lat="43.277615790018366" lon="6.192825800873214"><ele>126.0</ele><time>2026-04-22T09:18:55Z</time></trkpt><trkpt lat="43.277739707592325" lon="6.192910268673909"><ele>126.0</ele><time>2026-04-22T09:18:56Z</time></trkpt><trkpt lat="43.27787272508379" lon="6.192979961632439"><ele>126.0</ele><time>2026-04-22T09:18:57Z</time></trkpt><trkpt lat="43.2780278034478" lon="6.193032835992498"><ele>126.0</ele><time>2026-04-22T09:18:58Z</time></trkpt><trkpt lat="43.27819451257658" lon="6.193083559822539"><ele>127.33333333333334</ele><time>2026-04-22T09:18:59Z</time></trkpt><trkpt lat="43.2783684713573" lon="6.193153108508846"><ele>128.66666666666669</ele><time>2026-04-22T09:19:00Z</time></trkpt><trkpt lat="43.27853479622968" lon="6.193217537277781"><ele>130.0</ele><time>2026-04-22T09:19:01Z</time></trkpt><trkpt lat="43.27867968306214" lon="6.193280062036178"><ele>128.66666666666669</ele><time>2026-04-22T09:19:02Z</time></trkpt><trkpt lat="43.278793134158285" lon="6.193322943460827"><ele>127.33333333333334</ele><time>2026-04-22T09:19:02.999Z</time></trkpt><trkpt lat="43.278880349843895" lon="6.19335267637362"><ele>126.0</ele><time>2026-04-22T09:19:03.999Z</time></trkpt><trkpt lat="43.27893185592127" lon="6.193410683490636"><ele>124.66666666666666</ele><time>2026-04-22T09:19:04.999Z</time></trkpt><trkpt lat="43.27899321720991" lon="6.193459368287883"><ele>123.33333333333333</ele><time>2026-04-22T09:19:05.999Z</time></trkpt><trkpt lat="43.27903540172406" lon="6.19355267157278"><ele>122.0</ele><time>2026-04-22T09:19:06.999Z</time></trkpt><trkpt lat="43.27907262192096" lon="6.19366877206438"><ele>122.0</ele><time>2026-04-22T09:19:07.999Z</time></trkpt><trkpt lat="43.2791116222048" lon="6.193821218181468"><ele>122.0</ele><time>2026-04-22T09:19:08.999Z</time></trkpt><trkpt lat="43.27915782532363" lon="6.193987292374812"><ele>122.0</ele><time>2026-04-22T09:19:09.999Z</time></trkpt><trkpt lat="43.27922373561881" lon="6.1941705217528265"><ele>122.0</ele><time>2026-04-22T09:19:10.999Z</time></trkpt><trkpt lat="43.27927197575044" lon="6.194359639766858"><ele>121.0</ele><time>2026-04-22T09:19:11.999Z</time></trkpt><trkpt lat="43.27934451027024" lon="6.194538773927462"><ele>120.0</ele><time>2026-04-22T09:19:12.999Z</time></trkpt><trkpt lat="43.2794278033702" lon="6.194719590487316"><ele>119.0</ele><time>2026-04-22T09:19:13.999Z</time></trkpt><trkpt lat="43.27951522156531" lon="6.194902656840382"><ele>118.0</ele><time>2026-04-22T09:19:14.999Z</time></trkpt><trkpt lat="43.279614037829035" lon="6.195075489976442"><ele>117.0</ele><time>2026-04-22T09:19:15.999Z</time></trkpt><trkpt lat="43.27971160532869" lon="6.195262536385715"><ele>116.0</ele><time>2026-04-22T09:19:16.999Z</time></trkpt><trkpt lat="43.279801906475555" lon="6.195434630833693"><ele>117.75</ele><time>2026-04-22T09:19:17.999Z</time></trkpt><trkpt lat="43.27987873515553" lon="6.195628364564834"><ele>119.5</ele><time>2026-04-22T09:19:18.999Z</time></trkpt><trkpt lat="43.279959346632836" lon="6.1957969588410595"><ele>121.25</ele><time>2026-04-22T09:19:19.999Z</time></trkpt><trkpt lat="43.28004306511856" lon="6.195943798270212"><ele>123.0</ele><time>2026-04-22T09:19:20.999Z</time></trkpt><trkpt lat="43.28009697398529" lon="6.196106761780848"><ele>123.0</ele><time>2026-04-22T09:19:21.999Z</time></trkpt><trkpt lat="43.28013273086867" lon="6.196292639325644"><ele>123.0</ele><time>2026-04-22T09:19:22.999Z</time></trkpt><trkpt lat="43.280157440403215" lon="6.196481450155286"><ele>123.0</ele><time>2026-04-22T09:19:23.999Z</time></trkpt><trkpt lat="43.280176793911956" lon="6.196697852728344"><ele>123.0</ele><time>2026-04-22T09:19:24.999Z</time></trkpt><trkpt lat="43.28020920022093" lon="6.19691379666457"><ele>122.33333333333334</ele><time>2026-04-22T09:19:25.999Z</time></trkpt><trkpt lat="43.280224729797325" lon="6.197140039587401"><ele>121.66666666666667</ele><time>2026-04-22T09:19:26.999Z</time></trkpt><trkpt lat="43.28022851872227" lon="6.197366273250354"><ele>121.0</ele><time>2026-04-22T09:19:27.999Z</time></trkpt><trkpt lat="43.2802438290931" lon="6.197552035320376"><ele>120.75</ele><time>2026-04-22T09:19:28.999Z</time></trkpt><trkpt lat="43.28025452393412" lon="6.197720760713823"><ele>120.5</ele><time>2026-04-22T09:19:29.999Z</time></trkpt><trkpt lat="43.280258389720146" lon="6.197887784029322"><ele>120.25</ele><time>2026-04-22T09:19:30.999Z</time></trkpt><trkpt lat="43.280254852781596" lon="6.198057616188992"><ele>120.0</ele><time>2026-04-22T09:19:31.999Z</time></trkpt><trkpt lat="43.28024243005978" lon="6.198218168072228"><ele>120.0</ele><time>2026-04-22T09:19:32.999Z</time></trkpt><trkpt lat="43.280227652102965" lon="6.198366448415605"><ele>120.0</ele><time>2026-04-22T09:19:33.999Z</time></trkpt><trkpt lat="43.28021371952841" lon="6.198512496879017"><ele>120.0</ele><time>2026-04-22T09:19:34.999Z</time></trkpt><trkpt lat="43.28022182500414" lon="6.198662828007112"><ele>120.0</ele><time>2026-04-22T09:19:35.999Z</time></trkpt><trkpt lat="43.28022829890524" lon="6.198822164298005"><ele>120.0</ele><time>2026-04-22T09:19:36.999Z</time></trkpt><trkpt lat="43.28025738346828" lon="6.198995117638188"><ele>120.5</ele><time>2026-04-22T09:19:37.999Z</time></trkpt><trkpt lat="43.28030381278198" lon="6.199169650047253"><ele>121.0</ele><time>2026-04-22T09:19:38.999Z</time></trkpt><trkpt lat="43.28036317630669" lon="6.199345740004533"><ele>121.5</ele><time>2026-04-22T09:19:39.999Z</time></trkpt><trkpt lat="43.280447566983526" lon="6.199512634209955"><ele>122.0</ele><time>2026-04-22T09:19:40.999Z</time></trkpt><trkpt lat="43.280556881948534" lon="6.199666012052463"><ele>123.25</ele><time>2026-04-22T09:19:41.999Z</time></trkpt><trkpt lat="43.28064240047635" lon="6.199822565959303"><ele>124.5</ele><time>2026-04-22T09:19:42.999Z</time></trkpt><trkpt lat="43.280742177178546" lon="6.199956072104393"><ele>125.75</ele><time>2026-04-22T09:19:43.999Z</time></trkpt><trkpt lat="43.28083964025648" lon="6.20004906945628"><ele>127.0</ele><time>2026-04-22T09:19:44.999Z</time></trkpt><trkpt lat="43.28092791254212" lon="6.200140903467689"><ele>127.0</ele><time>2026-04-22T09:19:45.999Z</time></trkpt><trkpt lat="43.28103331459317" lon="6.200217894353664"><ele>126.99999999999999</ele><time>2026-04-22T09:19:46.999Z</time></trkpt><trkpt lat="43.28112510061029" lon="6.200290899418054"><ele>126.99999999999999</ele><time>2026-04-22T09:19:47.999Z</time></trkpt><trkpt lat="43.281183460378585" lon="6.2004021192841385"><ele>127.0</ele><time>2026-04-22T09:19:48.999Z</time></trkpt><trkpt lat="43.28122941618176" lon="6.20049877339687"><ele>127.0</ele><time>2026-04-22T09:19:49.999Z</time></trkpt><trkpt lat="43.281269439267476" lon="6.200626211629083"><ele>125.25</ele><time>2026-04-22T09:19:50.999Z</time></trkpt><trkpt lat="43.281297579597215" lon="6.200774945474359"><ele>123.5</ele><time>2026-04-22T09:19:51.999Z</time></trkpt><trkpt lat="43.281327675205205" lon="6.200932872655239"><ele>121.75</ele><time>2026-04-22T09:19:52.999Z</time></trkpt><trkpt lat="43.28135214097656" lon="6.201068268942328"><ele>120.0</ele><time>2026-04-22T09:19:53.999Z</time></trkpt><trkpt lat="43.28140077012735" lon="6.20124770696371"><ele>123.25</ele><time>2026-04-22T09:19:54.999Z</time></trkpt><trkpt lat="43.281442277356675" lon="6.201430442307533"><ele>126.5</ele><time>2026-04-22T09:19:55.999Z</time></trkpt><trkpt lat="43.28147134039176" lon="6.201603896818252"><ele>129.75</ele><time>2026-04-22T09:19:56.999Z</time></trkpt><trkpt lat="43.28151314617356" lon="6.201787399616701"><ele>133.0</ele><time>2026-04-22T09:19:57.999Z</time></trkpt><trkpt lat="43.28156653575746" lon="6.201960741449995"><ele>133.0</ele><time>2026-04-22T09:19:58.999Z</time></trkpt><trkpt lat="43.281613524408165" lon="6.20213884275964"><ele>133.0</ele><time>2026-04-22T09:19:59.999Z</time></trkpt><trkpt lat="43.2816577508717" lon="6.202336332605962"><ele>133.0</ele><time>2026-04-22T09:20:00.999Z</time></trkpt><trkpt lat="43.28169959348273" lon="6.202521962408225"><ele>133.0</ele><time>2026-04-22T09:20:01.999Z</time></trkpt><trkpt lat="43.28174963150688" lon="6.20271532917041"><ele>132.0</ele><time>2026-04-22T09:20:02.999Z</time></trkpt><trkpt lat="43.28178687376147" lon="6.202886695988243"><ele>131.0</ele><time>2026-04-22T09:20:03.999Z</time></trkpt><trkpt lat="43.28181032961225" lon="6.203049689929476"><ele>130.0</ele><time>2026-04-22T09:20:04.999Z</time></trkpt><trkpt lat="43.28182106197331" lon="6.203216595944308"><ele>129.0</ele><time>2026-04-22T09:20:05.999Z</time></trkpt><trkpt lat="43.2818151601235" lon="6.203397057141742"><ele>128.25</ele><time>2026-04-22T09:20:06.999Z</time></trkpt><trkpt lat="43.281825234680646" lon="6.203585220888688"><ele>127.5</ele><time>2026-04-22T09:20:07.999Z</time></trkpt><trkpt lat="43.28183143800003" lon="6.203771949544261"><ele>126.75</ele><time>2026-04-22T09:20:08.999Z</time></trkpt><trkpt lat="43.28183192372989" lon="6.203929841633777"><ele>126.0</ele><time>2026-04-22T09:20:09.998Z</time></trkpt><trkpt lat="43.28183060806335" lon="6.204149321292145"><ele>126.0</ele><time>2026-04-22T09:20:10.998Z</time></trkpt><trkpt lat="43.28183677811205" lon="6.204345949441105"><ele>126.0</ele><time>2026-04-22T09:20:11.998Z</time></trkpt><trkpt lat="43.28183461036974" lon="6.204530281575603"><ele>126.0</ele><time>2026-04-22T09:20:12.998Z</time></trkpt><trkpt lat="43.281838680966665" lon="6.204668774380428"><ele>126.0</ele><time>2026-04-22T09:20:13.998Z</time></trkpt><trkpt lat="43.281845151867735" lon="6.204822405396016"><ele>125.6</ele><time>2026-04-22T09:20:14.998Z</time></trkpt><trkpt lat="43.281860512006084" lon="6.204952185125968"><ele>125.19999999999999</ele><time>2026-04-22T09:20:15.998Z</time></trkpt><trkpt lat="43.281869814551264" lon="6.205079531802179"><ele>124.80000000000001</ele><time>2026-04-22T09:20:16.998Z</time></trkpt><trkpt lat="43.28192585853027" lon="6.205205622662441"><ele>124.4</ele><time>2026-04-22T09:20:17.998Z</time></trkpt><trkpt lat="43.281992364882825" lon="6.2053193238226765"><ele>124.0</ele><time>2026-04-22T09:20:18.998Z</time></trkpt><trkpt lat="43.28204786053323" lon="6.2054174540501155"><ele>124.0</ele><time>2026-04-22T09:20:19.998Z</time></trkpt><trkpt lat="43.282086482523475" lon="6.20550388727169"><ele>124.0</ele><time>2026-04-22T09:20:20.998Z</time></trkpt><trkpt lat="43.2821147577727" lon="6.205611896688834"><ele>124.0</ele><time>2026-04-22T09:20:21.998Z</time></trkpt><trkpt lat="43.282140179055865" lon="6.205737574686519"><ele>124.0</ele><time>2026-04-22T09:20:22.998Z</time></trkpt><trkpt lat="43.282159800638865" lon="6.205873712054985"><ele>124.0</ele><time>2026-04-22T09:20:23.998Z</time></trkpt><trkpt lat="43.282185614313605" lon="6.206015326328247"><ele>124.25</ele><time>2026-04-22T09:20:24.998Z</time></trkpt><trkpt lat="43.28219247763268" lon="6.206167957330512"><ele>124.5</ele><time>2026-04-22T09:20:25.998Z</time></trkpt><trkpt lat="43.28220527247257" lon="6.206326406863948"><ele>124.75</ele><time>2026-04-22T09:20:26.998Z</time></trkpt><trkpt lat="43.282226380659516" lon="6.20651338670116"><ele>125.0</ele><time>2026-04-22T09:20:27.998Z</time></trkpt><trkpt lat="43.28223395090873" lon="6.206696815018042"><ele>125.0</ele><time>2026-04-22T09:20:28.998Z</time></trkpt><trkpt lat="43.28225385474158" lon="6.206875392928273"><ele>125.0</ele><time>2026-04-22T09:20:29.998Z</time></trkpt><trkpt lat="43.28226815532524" lon="6.2070599394256485"><ele>125.0</ele><time>2026-04-22T09:20:30.998Z</time></trkpt><trkpt lat="43.28227270229042" lon="6.207246453792084"><ele>125.0</ele><time>2026-04-22T09:20:32Z</time></trkpt><trkpt lat="43.28225250886087" lon="6.207446082025793"><ele>124.33333333333333</ele><time>2026-04-22T09:20:33Z</time></trkpt><trkpt lat="43.282226922229526" lon="6.207647227169782"><ele>123.66666666666666</ele><time>2026-04-22T09:20:34Z</time></trkpt><trkpt lat="43.28219756431402" lon="6.207849607559686"><ele>123.0</ele><time>2026-04-22T09:20:35Z</time></trkpt><trkpt lat="43.2821731088436" lon="6.208055742000554"><ele>123.75</ele><time>2026-04-22T09:20:36Z</time></trkpt><trkpt lat="43.28215188986652" lon="6.208246696906466"><ele>124.5</ele><time>2026-04-22T09:20:37Z</time></trkpt><trkpt lat="43.28213034586485" lon="6.208407958319678"><ele>125.25</ele><time>2026-04-22T09:20:38Z</time></trkpt><trkpt lat="43.28210776742816" lon="6.208583247946367"><ele>126.0</ele><time>2026-04-22T09:20:39Z</time></trkpt><trkpt lat="43.282064989486805" lon="6.208766113019779"><ele>126.0</ele><time>2026-04-22T09:20:40Z</time></trkpt><trkpt lat="43.28201524168584" lon="6.208956287101617"><ele>126.0</ele><time>2026-04-22T09:20:41Z</time></trkpt><trkpt lat="43.28196931365143" lon="6.209153291290978"><ele>126.0</ele><time>2026-04-22T09:20:42Z</time></trkpt><trkpt lat="43.281925904883934" lon="6.209327146310662"><ele>126.0</ele><time>2026-04-22T09:20:43Z</time></trkpt><trkpt lat="43.28189837180123" lon="6.209518440314747"><ele>127.0</ele><time>2026-04-22T09:20:44Z</time></trkpt><trkpt lat="43.28188227080669" lon="6.209692824896698"><ele>128.0</ele><time>2026-04-22T09:20:45Z</time></trkpt><trkpt lat="43.28187667482336" lon="6.209851755965996"><ele>129.0</ele><time>2026-04-22T09:20:46Z</time></trkpt><trkpt lat="43.28188552941289" lon="6.209995206693347"><ele>130.0</ele><time>2026-04-22T09:20:47Z</time></trkpt><trkpt lat="43.28189358278283" lon="6.210131128314861"><ele>131.0</ele><time>2026-04-22T09:20:48Z</time></trkpt><trkpt lat="43.28190075353634" lon="6.210239972331246"><ele>131.4</ele><time>2026-04-22T09:20:49Z</time></trkpt><trkpt lat="43.2818977255988" lon="6.210336508459681"><ele>131.8</ele><time>2026-04-22T09:20:50Z</time></trkpt><trkpt lat="43.28186211911982" lon="6.210433291016047"><ele>132.20000000000002</ele><time>2026-04-22T09:20:51Z</time></trkpt><trkpt lat="43.2817945154099" lon="6.210523493505467"><ele>132.6</ele><time>2026-04-22T09:20:52Z</time></trkpt><trkpt lat="43.28169997590812" lon="6.210592856141055"><ele>133.0</ele><time>2026-04-22T09:20:53Z</time></trkpt><trkpt lat="43.28160744141809" lon="6.210664356949372"><ele>133.0</ele><time>2026-04-22T09:20:54Z</time></trkpt><trkpt lat="43.28152474437777" lon="6.210745122116164"><ele>133.0</ele><time>2026-04-22T09:20:55Z</time></trkpt><trkpt lat="43.281433979573436" lon="6.210880235011073"><ele>133.0</ele><time>2026-04-22T09:20:56Z</time></trkpt><trkpt lat="43.2813599572982" lon="6.210972904807987"><ele>133.0</ele><time>2026-04-22T09:20:57Z</time></trkpt><trkpt lat="43.28130254932031" lon="6.211058137382206"><ele>133.0</ele><time>2026-04-22T09:20:58Z</time></trkpt><trkpt lat="43.28126436163903" lon="6.211173662800926"><ele>133.0</ele><time>2026-04-22T09:20:59Z</time></trkpt><trkpt lat="43.28123003309901" lon="6.211267386483021"><ele>133.0</ele><time>2026-04-22T09:21:00Z</time></trkpt><trkpt lat="43.28121254377199" lon="6.211404970282909"><ele>133.0</ele><time>2026-04-22T09:21:01Z</time></trkpt><trkpt lat="43.281231858307244" lon="6.2115709876088365"><ele>133.0</ele><time>2026-04-22T09:21:02Z</time></trkpt><trkpt lat="43.28127256828103" lon="6.211729240741422"><ele>133.0</ele><time>2026-04-22T09:21:03Z</time></trkpt><trkpt lat="43.28130758633145" lon="6.211880508780985"><ele>133.8</ele><time>2026-04-22T09:21:04Z</time></trkpt><trkpt lat="43.28133918662464" lon="6.212027438646687"><ele>134.60000000000002</ele><time>2026-04-22T09:21:05Z</time></trkpt><trkpt lat="43.28137276862727" lon="6.212173854494187"><ele>135.39999999999998</ele><time>2026-04-22T09:21:06Z</time></trkpt><trkpt lat="43.28140368090935" lon="6.212294279596047"><ele>136.2</ele><time>2026-04-22T09:21:06.999Z</time></trkpt><trkpt lat="43.28144610613493" lon="6.212392389389449"><ele>137.0</ele><time>2026-04-22T09:21:07.999Z</time></trkpt><trkpt lat="43.281486617088014" lon="6.212503528363627"><ele>139.0</ele><time>2026-04-22T09:21:08.999Z</time></trkpt><trkpt lat="43.28153002028965" lon="6.212638528715664"><ele>141.0</ele><time>2026-04-22T09:21:09.999Z</time></trkpt><trkpt lat="43.28159631812118" lon="6.212757806306743"><ele>143.0</ele><time>2026-04-22T09:21:10.999Z</time></trkpt><trkpt lat="43.281673576938054" lon="6.212889545374162"><ele>145.0</ele><time>2026-04-22T09:21:11.999Z</time></trkpt><trkpt lat="43.281743415832324" lon="6.213021257115844"><ele>144.5</ele><time>2026-04-22T09:21:12.999Z</time></trkpt><trkpt lat="43.28181894279584" lon="6.213177548084629"><ele>144.0</ele><time>2026-04-22T09:21:13.999Z</time></trkpt><trkpt lat="43.281887907833884" lon="6.213316995512767"><ele>143.5</ele><time>2026-04-22T09:21:14.999Z</time></trkpt><trkpt lat="43.281949418169496" lon="6.213437689236196"><ele>143.0</ele><time>2026-04-22T09:21:15.999Z</time></trkpt><trkpt lat="43.28201167298394" lon="6.213539916545112"><ele>143.0</ele><time>2026-04-22T09:21:16.999Z</time></trkpt><trkpt lat="43.282074510184295" lon="6.213620848006353"><ele>143.0</ele><time>2026-04-22T09:21:17.999Z</time></trkpt><trkpt lat="43.28214575883882" lon="6.213674373974543"><ele>143.0</ele><time>2026-04-22T09:21:18.999Z</time></trkpt><trkpt lat="43.28222845155337" lon="6.213717034569028"><ele>143.0</ele><time>2026-04-22T09:21:19.999Z</time></trkpt><trkpt lat="43.2823538630505" lon="6.213710791372543"><ele>143.0</ele><time>2026-04-22T09:21:20.999Z</time></trkpt><trkpt lat="43.282467234294444" lon="6.213672553796499"><ele>146.0</ele><time>2026-04-22T09:21:21.999Z</time></trkpt><trkpt lat="43.28258383508047" lon="6.213678352739613"><ele>149.0</ele><time>2026-04-22T09:21:22.999Z</time></trkpt><trkpt lat="43.28268904860184" lon="6.213669109016535"><ele>152.0</ele><time>2026-04-22T09:21:23.999Z</time></trkpt><trkpt lat="43.28280155856435" lon="6.213671988840559"><ele>155.0</ele><time>2026-04-22T09:21:24.999Z</time></trkpt><trkpt lat="43.28292231881605" lon="6.213710154795541"><ele>155.0</ele><time>2026-04-22T09:21:25.999Z</time></trkpt><trkpt lat="43.283027183937236" lon="6.2137876953747435"><ele>155.0</ele><time>2026-04-22T09:21:26.999Z</time></trkpt><trkpt lat="43.28314582530627" lon="6.213854163060493"><ele>155.0</ele><time>2026-04-22T09:21:27.999Z</time></trkpt><trkpt lat="43.28326891022995" lon="6.2139229175436554"><ele>155.0</ele><time>2026-04-22T09:21:28.999Z</time></trkpt><trkpt lat="43.28339610152845" lon="6.213989840609381"><ele>152.75</ele><time>2026-04-22T09:21:29.999Z</time></trkpt><trkpt lat="43.28352456183349" lon="6.214057431046175"><ele>150.5</ele><time>2026-04-22T09:21:30.999Z</time></trkpt><trkpt lat="43.28364678808346" lon="6.214100561558481"><ele>148.25</ele><time>2026-04-22T09:21:31.999Z</time></trkpt><trkpt lat="43.28374475610942" lon="6.214173702739517"><ele>146.0</ele><time>2026-04-22T09:21:32.999Z</time></trkpt><trkpt lat="43.28383961731255" lon="6.214254480294747"><ele>149.75</ele><time>2026-04-22T09:21:33.999Z</time></trkpt><trkpt lat="43.28394676993412" lon="6.214313486260295"><ele>153.5</ele><time>2026-04-22T09:21:34.999Z</time></trkpt><trkpt lat="43.284003332946945" lon="6.21448241329904"><ele>157.25</ele><time>2026-04-22T09:21:35.999Z</time></trkpt><trkpt lat="43.284078212609536" lon="6.2146125465788895"><ele>161.0</ele><time>2026-04-22T09:21:36.999Z</time></trkpt><trkpt lat="43.2841717640164" lon="6.214785681108753"><ele>154.5</ele><time>2026-04-22T09:21:37.999Z</time></trkpt><trkpt lat="43.28426065234929" lon="6.214964038532135"><ele>148.0</ele><time>2026-04-22T09:21:38.999Z</time></trkpt><trkpt lat="43.28458876953751" lon="6.215054018501657"><ele>148.0</ele><time>2026-04-22T09:21:40.999Z</time></trkpt><trkpt lat="43.284659284573664" lon="6.215169451473693"><ele>148.0</ele><time>2026-04-22T09:21:41.999Z</time></trkpt><trkpt lat="43.28482424018419" lon="6.2152733218686"><ele>148.0</ele><time>2026-04-22T09:21:42.999Z</time></trkpt><trkpt lat="43.28493162528123" lon="6.215383344276106"><ele>148.0</ele><time>2026-04-22T09:21:43.999Z</time></trkpt><trkpt lat="43.28504922522875" lon="6.215478281415082"><ele>148.75</ele><time>2026-04-22T09:21:44.999Z</time></trkpt><trkpt lat="43.285169368502885" lon="6.215576590265335"><ele>149.5</ele><time>2026-04-22T09:21:45.999Z</time></trkpt><trkpt lat="43.285289736791526" lon="6.215647430638137"><ele>150.25</ele><time>2026-04-22T09:21:46.999Z</time></trkpt><trkpt lat="43.2853968909923" lon="6.215729975963748"><ele>151.0</ele><time>2026-04-22T09:21:47.999Z</time></trkpt><trkpt lat="43.28553160638756" lon="6.215786034379494"><ele>154.5</ele><time>2026-04-22T09:21:48.999Z</time></trkpt><trkpt lat="43.285666343456796" lon="6.215844068247515"><ele>158.0</ele><time>2026-04-22T09:21:49.999Z</time></trkpt><trkpt lat="43.28579397527383" lon="6.215896634812173"><ele>161.5</ele><time>2026-04-22T09:21:50.999Z</time></trkpt><trkpt lat="43.28588740217394" lon="6.2159680029732"><ele>165.0</ele><time>2026-04-22T09:21:51.999Z</time></trkpt><trkpt lat="43.285974571848634" lon="6.216037502892914"><ele>165.0</ele><time>2026-04-22T09:21:52.999Z</time></trkpt><trkpt lat="43.286053440260524" lon="6.216134214416098"><ele>165.0</ele><time>2026-04-22T09:21:53.999Z</time></trkpt><trkpt lat="43.28612892840036" lon="6.216265857633967"><ele>165.0</ele><time>2026-04-22T09:21:54.999Z</time></trkpt><trkpt lat="43.286214099471756" lon="6.216408362020949"><ele>165.0</ele><time>2026-04-22T09:21:55.999Z</time></trkpt><trkpt lat="43.28630252686691" lon="6.216550012867051"><ele>164.6</ele><time>2026-04-22T09:21:56.999Z</time></trkpt><trkpt lat="43.286378501318595" lon="6.216673122464147"><ele>164.2</ele><time>2026-04-22T09:21:57.999Z</time></trkpt><trkpt lat="43.28644918376821" lon="6.216766302287458"><ele>163.8</ele><time>2026-04-22T09:21:58.999Z</time></trkpt><trkpt lat="43.28652221077439" lon="6.216875172401945"><ele>163.4</ele><time>2026-04-22T09:21:59.999Z</time></trkpt><trkpt lat="43.286591289406424" lon="6.216953450328594"><ele>163.0</ele><time>2026-04-22T09:22:00.999Z</time></trkpt><trkpt lat="43.28667699997802" lon="6.217012712645094"><ele>163.0</ele><time>2026-04-22T09:22:01.999Z</time></trkpt><trkpt lat="43.28676841498607" lon="6.217041882729601"><ele>163.0</ele><time>2026-04-22T09:22:02.999Z</time></trkpt><trkpt lat="43.286866445200914" lon="6.2170441281680615"><ele>163.0</ele><time>2026-04-22T09:22:03.999Z</time></trkpt><trkpt lat="43.2869660742661" lon="6.217027894605305"><ele>163.0</ele><time>2026-04-22T09:22:04.999Z</time></trkpt><trkpt lat="43.28706911079503" lon="6.216943625923485"><ele>163.0</ele><time>2026-04-22T09:22:05.999Z</time></trkpt><trkpt lat="43.28714936619454" lon="6.216889241729605"><ele>163.0</ele><time>2026-04-22T09:22:06.999Z</time></trkpt><trkpt lat="43.28721740542943" lon="6.216834949755311"><ele>163.0</ele><time>2026-04-22T09:22:07.999Z</time></trkpt><trkpt lat="43.287280392101" lon="6.21681583712998"><ele>163.0</ele><time>2026-04-22T09:22:08.999Z</time></trkpt><trkpt lat="43.28737310559161" lon="6.216786627899037"><ele>163.0</ele><time>2026-04-22T09:22:10.999Z</time></trkpt><trkpt lat="43.28746736014669" lon="6.216883114847537"><ele>163.0</ele><time>2026-04-22T09:22:12.999Z</time></trkpt><trkpt lat="43.28751902044503" lon="6.216937586955633"><ele>163.0</ele><time>2026-04-22T09:22:13.999Z</time></trkpt><trkpt lat="43.287585316193436" lon="6.2169419479264985"><ele>161.4</ele><time>2026-04-22T09:22:14.999Z</time></trkpt><trkpt lat="43.28767653311868" lon="6.216908523534315"><ele>159.8</ele><time>2026-04-22T09:22:15.999Z</time></trkpt><trkpt lat="43.28777626871059" lon="6.216899493146789"><ele>158.2</ele><time>2026-04-22T09:22:16.999Z</time></trkpt><trkpt lat="43.287874667630476" lon="6.216885891838179"><ele>156.6</ele><time>2026-04-22T09:22:17.999Z</time></trkpt><trkpt lat="43.287977852521934" lon="6.216914877660895"><ele>155.0</ele><time>2026-04-22T09:22:18.999Z</time></trkpt><trkpt lat="43.288089962464035" lon="6.216952700597104"><ele>155.0</ele><time>2026-04-22T09:22:19.999Z</time></trkpt><trkpt lat="43.28820648519464" lon="6.216987581260043"><ele>155.0</ele><time>2026-04-22T09:22:20.999Z</time></trkpt><trkpt lat="43.288320047892775" lon="6.217021575938723"><ele>155.0</ele><time>2026-04-22T09:22:21.998Z</time></trkpt><trkpt lat="43.28844440297098" lon="6.217059521283543"><ele>155.0</ele><time>2026-04-22T09:22:22.998Z</time></trkpt><trkpt lat="43.28856477908234" lon="6.2170962320408405"><ele>155.0</ele><time>2026-04-22T09:22:23.998Z</time></trkpt><trkpt lat="43.28868485728892" lon="6.217135870919713"><ele>155.0</ele><time>2026-04-22T09:22:24.998Z</time></trkpt><trkpt lat="43.288805020853914" lon="6.2171831915673215"><ele>155.0</ele><time>2026-04-22T09:22:25.998Z</time></trkpt><trkpt lat="43.28890922341678" lon="6.217226415489752"><ele>155.0</ele><time>2026-04-22T09:22:26.998Z</time></trkpt><trkpt lat="43.28900007264476" lon="6.217263159942455"><ele>156.0</ele><time>2026-04-22T09:22:27.998Z</time></trkpt><trkpt lat="43.28908147471814" lon="6.217295574172602"><ele>157.0</ele><time>2026-04-22T09:22:28.998Z</time></trkpt><trkpt lat="43.28915270020328" lon="6.217322492272573"><ele>158.0</ele><time>2026-04-22T09:22:29.998Z</time></trkpt><trkpt lat="43.289256582551275" lon="6.217361752180586"><ele>159.0</ele><time>2026-04-22T09:22:31.998Z</time></trkpt><trkpt lat="43.2893068147312" lon="6.217506527408807"><ele>160.0</ele><time>2026-04-22T09:22:34.998Z</time></trkpt><trkpt lat="43.28931533142418" lon="6.21760356353218"><ele>160.0</ele><time>2026-04-22T09:22:35.998Z</time></trkpt><trkpt lat="43.28929126645953" lon="6.217738273277978"><ele>160.0</ele><time>2026-04-22T09:22:36.998Z</time></trkpt><trkpt lat="43.2892868630296" lon="6.217876838446861"><ele>160.0</ele><time>2026-04-22T09:22:38Z</time></trkpt><trkpt lat="43.28928141302206" lon="6.218048338919815"><ele>160.0</ele><time>2026-04-22T09:22:39Z</time></trkpt><trkpt lat="43.289275973254405" lon="6.2182195172761805"><ele>160.25</ele><time>2026-04-22T09:22:40Z</time></trkpt><trkpt lat="43.289268041717385" lon="6.218393887128335"><ele>160.5</ele><time>2026-04-22T09:22:41Z</time></trkpt><trkpt lat="43.289265550606814" lon="6.2185871357471285"><ele>160.75</ele><time>2026-04-22T09:22:42Z</time></trkpt><trkpt lat="43.28924350648242" lon="6.218772798418049"><ele>161.0</ele><time>2026-04-22T09:22:43Z</time></trkpt><trkpt lat="43.289219419815964" lon="6.21897205524964"><ele>162.0</ele><time>2026-04-22T09:22:44Z</time></trkpt><trkpt lat="43.28919354362803" lon="6.219172005223531"><ele>163.0</ele><time>2026-04-22T09:22:45Z</time></trkpt><trkpt lat="43.28916397176208" lon="6.219369241236585"><ele>164.0</ele><time>2026-04-22T09:22:46Z</time></trkpt><trkpt lat="43.2891416447744" lon="6.219569697416989"><ele>165.0</ele><time>2026-04-22T09:22:47Z</time></trkpt><trkpt lat="43.289119080191995" lon="6.2197686106965575"><ele>167.25</ele><time>2026-04-22T09:22:48Z</time></trkpt><trkpt lat="43.289083737473405" lon="6.219951052081142"><ele>169.5</ele><time>2026-04-22T09:22:49Z</time></trkpt><trkpt lat="43.289063824702524" lon="6.220124864424342"><ele>171.75</ele><time>2026-04-22T09:22:50Z</time></trkpt><trkpt lat="43.28904695817807" lon="6.220293818338083"><ele>174.0</ele><time>2026-04-22T09:22:51Z</time></trkpt><trkpt lat="43.28904814245564" lon="6.220459715478758"><ele>174.0</ele><time>2026-04-22T09:22:52Z</time></trkpt><trkpt lat="43.289027913914744" lon="6.220601400689618"><ele>174.0</ele><time>2026-04-22T09:22:53Z</time></trkpt><trkpt lat="43.28902730322664" lon="6.220729218463741"><ele>174.0</ele><time>2026-04-22T09:22:54Z</time></trkpt><trkpt lat="43.289003764998164" lon="6.220839508998785"><ele>174.0</ele><time>2026-04-22T09:22:55Z</time></trkpt><trkpt lat="43.28900530834213" lon="6.220962300910861"><ele>174.0</ele><time>2026-04-22T09:22:56Z</time></trkpt><trkpt lat="43.28899521483636" lon="6.221099437452898"><ele>174.6</ele><time>2026-04-22T09:22:57Z</time></trkpt><trkpt lat="43.288988995047674" lon="6.221242292249629"><ele>175.2</ele><time>2026-04-22T09:22:58Z</time></trkpt><trkpt lat="43.28898290112562" lon="6.221388816633"><ele>175.79999999999998</ele><time>2026-04-22T09:22:59Z</time></trkpt><trkpt lat="43.288974160940086" lon="6.22153347687898"><ele>176.39999999999998</ele><time>2026-04-22T09:23:00Z</time></trkpt><trkpt lat="43.288965398781755" lon="6.221676371727328"><ele>177.0</ele><time>2026-04-22T09:23:01Z</time></trkpt><trkpt lat="43.2889591581393" lon="6.221820768445949"><ele>177.0</ele><time>2026-04-22T09:23:02Z</time></trkpt><trkpt lat="43.288952707251184" lon="6.221964068123019"><ele>177.0</ele><time>2026-04-22T09:23:03Z</time></trkpt><trkpt lat="43.28894853476398" lon="6.222107628808587"><ele>177.0</ele><time>2026-04-22T09:23:04Z</time></trkpt><trkpt lat="43.28894235693307" lon="6.222254867055471"><ele>177.0</ele><time>2026-04-22T09:23:05Z</time></trkpt><trkpt lat="43.28893551386452" lon="6.222399516873624"><ele>177.0</ele><time>2026-04-22T09:23:06Z</time></trkpt><trkpt lat="43.28892903656508" lon="6.22253990059041"><ele>181.39999999999998</ele><time>2026-04-22T09:23:07Z</time></trkpt><trkpt lat="43.28892579360057" lon="6.222685194071216"><ele>185.79999999999998</ele><time>2026-04-22T09:23:08Z</time></trkpt><trkpt lat="43.28892583756281" lon="6.222825952368332"><ele>190.2</ele><time>2026-04-22T09:23:09Z</time></trkpt><trkpt lat="43.28892382426641" lon="6.22297049125758"><ele>194.6</ele><time>2026-04-22T09:23:10Z</time></trkpt><trkpt lat="43.288902647431065" lon="6.2231072080399015"><ele>199.0</ele><time>2026-04-22T09:23:11Z</time></trkpt><trkpt lat="43.288896985393336" lon="6.223244078329012"><ele>199.39999999999998</ele><time>2026-04-22T09:23:12Z</time></trkpt><trkpt lat="43.28889130773132" lon="6.223381326350505"><ele>199.8</ele><time>2026-04-22T09:23:13Z</time></trkpt><trkpt lat="43.28888451025189" lon="6.223518205648085"><ele>200.2</ele><time>2026-04-22T09:23:14Z</time></trkpt><trkpt lat="43.28887650802969" lon="6.223662569116785"><ele>200.60000000000002</ele><time>2026-04-22T09:23:15Z</time></trkpt><trkpt lat="43.2888687782504" lon="6.223802017743397"><ele>201.0</ele><time>2026-04-22T09:23:15.999Z</time></trkpt><trkpt lat="43.28886132943042" lon="6.223936397711951"><ele>200.0</ele><time>2026-04-22T09:23:16.999Z</time></trkpt><trkpt lat="43.28885492890486" lon="6.22405186590599"><ele>199.0</ele><time>2026-04-22T09:23:17.999Z</time></trkpt><trkpt lat="43.288864461042124" lon="6.224166252613087"><ele>198.0</ele><time>2026-04-22T09:23:18.999Z</time></trkpt><trkpt lat="43.28885206735013" lon="6.224278036034665"><ele>197.0</ele><time>2026-04-22T09:23:19.999Z</time></trkpt><trkpt lat="43.28885063316703" lon="6.224373505886486"><ele>196.0</ele><time>2026-04-22T09:23:20.999Z</time></trkpt><trkpt lat="43.28885220751174" lon="6.224464704386326"><ele>195.0</ele><time>2026-04-22T09:23:21.999Z</time></trkpt><trkpt lat="43.28885453737767" lon="6.224557011956423"><ele>195.0</ele><time>2026-04-22T09:23:22.999Z</time></trkpt><trkpt lat="43.28886069748002" lon="6.224649969296648"><ele>195.0</ele><time>2026-04-22T09:23:23.999Z</time></trkpt><trkpt lat="43.288866217215606" lon="6.224742750741792"><ele>195.0</ele><time>2026-04-22T09:23:24.999Z</time></trkpt><trkpt lat="43.28886902137736" lon="6.224837664225895"><ele>195.0</ele><time>2026-04-22T09:23:25.999Z</time></trkpt><trkpt lat="43.28887158904676" lon="6.224924824107503"><ele>195.0</ele><time>2026-04-22T09:23:26.999Z</time></trkpt><trkpt lat="43.288870458381396" lon="6.2250155348602805"><ele>195.0</ele><time>2026-04-22T09:23:27.999Z</time></trkpt><trkpt lat="43.288872893048094" lon="6.225163339329252"><ele>195.0</ele><time>2026-04-22T09:23:29.999Z</time></trkpt><trkpt lat="43.28886961324008" lon="6.225317548919448"><ele>193.4</ele><time>2026-04-22T09:23:31.999Z</time></trkpt><trkpt lat="43.28886521832874" lon="6.2254131068204925"><ele>191.8</ele><time>2026-04-22T09:23:33.999Z</time></trkpt><trkpt lat="43.28883666303293" lon="6.225503118582087"><ele>190.2</ele><time>2026-04-22T09:23:37.999Z</time></trkpt><trkpt lat="43.28872563799969" lon="6.225580235963024"><ele>188.6</ele><time>2026-04-22T09:23:39.999Z</time></trkpt><trkpt lat="43.288678400803995" lon="6.22571916219566"><ele>187.0</ele><time>2026-04-22T09:23:41.999Z</time></trkpt><trkpt lat="43.288659866214154" lon="6.2258475678053395"><ele>187.0</ele><time>2026-04-22T09:23:43.999Z</time></trkpt><trkpt lat="43.28862038842417" lon="6.225948413486245"><ele>187.0</ele><time>2026-04-22T09:23:46.999Z</time></trkpt><trkpt lat="43.28854931377464" lon="6.2259337252228875"><ele>187.0</ele><time>2026-04-22T09:23:49.999Z</time></trkpt><trkpt lat="43.28851194998416" lon="6.225825308672644"><ele>187.0</ele><time>2026-04-22T09:23:52.999Z</time></trkpt><trkpt lat="43.28850288270141" lon="6.225663767459456"><ele>187.0</ele><time>2026-04-22T09:23:54.999Z</time></trkpt><trkpt lat="43.288471058470584" lon="6.225493189944699"><ele>187.0</ele><time>2026-04-22T09:23:56.999Z</time></trkpt><trkpt lat="43.28848192431125" lon="6.225327348627553"><ele>187.0</ele><time>2026-04-22T09:23:58.999Z</time></trkpt><trkpt lat="43.28845302615262" lon="6.22515976443274"><ele>187.0</ele><time>2026-04-22T09:24:00.999Z</time></trkpt><trkpt lat="43.28841937262214" lon="6.225062004933291"><ele>187.0</ele><time>2026-04-22T09:24:01.999Z</time></trkpt><trkpt lat="43.288378085577385" lon="6.2249826696224675"><ele>187.0</ele><time>2026-04-22T09:24:02.999Z</time></trkpt><trkpt lat="43.28834305884305" lon="6.224892528976591"><ele>188.33333333333334</ele><time>2026-04-22T09:24:03.999Z</time></trkpt><trkpt lat="43.28831842356011" lon="6.224808072096244"><ele>189.66666666666669</ele><time>2026-04-22T09:24:04.999Z</time></trkpt><trkpt lat="43.288300160836776" lon="6.224719713502073"><ele>191.0</ele><time>2026-04-22T09:24:05.999Z</time></trkpt><trkpt lat="43.28829345606108" lon="6.224543491284209"><ele>192.33333333333334</ele><time>2026-04-22T09:24:07.999Z</time></trkpt><trkpt lat="43.28829892639526" lon="6.224454605632554"><ele>193.66666666666666</ele><time>2026-04-22T09:24:08.999Z</time></trkpt><trkpt lat="43.28829619865735" lon="6.224310403222944"><ele>195.0</ele><time>2026-04-22T09:24:10.999Z</time></trkpt><trkpt lat="43.28829234834656" lon="6.224220825959497"><ele>195.0</ele><time>2026-04-22T09:24:11.999Z</time></trkpt><trkpt lat="43.288293756538295" lon="6.224117778730786"><ele>195.0</ele><time>2026-04-22T09:24:12.999Z</time></trkpt><trkpt lat="43.288281590537004" lon="6.22402651078506"><ele>195.0</ele><time>2026-04-22T09:24:13.999Z</time></trkpt><trkpt lat="43.28825012070982" lon="6.2239076981345685"><ele>195.0</ele><time>2026-04-22T09:24:14.999Z</time></trkpt><trkpt lat="43.28824846360752" lon="6.2237974686030775"><ele>195.0</ele><time>2026-04-22T09:24:15.999Z</time></trkpt><trkpt lat="43.28822247236603" lon="6.223699127012506"><ele>195.0</ele><time>2026-04-22T09:24:16.999Z</time></trkpt><trkpt lat="43.28820040636658" lon="6.223594781504312"><ele>196.0</ele><time>2026-04-22T09:24:17.999Z</time></trkpt><trkpt lat="43.28818567552273" lon="6.223488171265287"><ele>197.0</ele><time>2026-04-22T09:24:18.999Z</time></trkpt><trkpt lat="43.28817276529379" lon="6.22334081332384"><ele>198.0</ele><time>2026-04-22T09:24:20.999Z</time></trkpt><trkpt lat="43.28814338804704" lon="6.223237373565356"><ele>199.0</ele><time>2026-04-22T09:24:23.999Z</time></trkpt><trkpt lat="43.288101888506716" lon="6.223157177983912"><ele>200.0</ele><time>2026-04-22T09:24:25.999Z</time></trkpt><trkpt lat="43.28803818311538" lon="6.22311450139044"><ele>201.0</ele><time>2026-04-22T09:24:26.999Z</time></trkpt><trkpt lat="43.28791664805436" lon="6.2231082545623275"><ele>201.66666666666666</ele><time>2026-04-22T09:24:28.999Z</time></trkpt><trkpt lat="43.28784914106723" lon="6.223106467646041"><ele>202.33333333333331</ele><time>2026-04-22T09:24:29.999Z</time></trkpt><trkpt lat="43.28778502159536" lon="6.223107145335006"><ele>203.0</ele><time>2026-04-22T09:24:30.999Z</time></trkpt><trkpt lat="43.2877181736604" lon="6.223107851867028"><ele>203.66666666666666</ele><time>2026-04-22T09:24:31.999Z</time></trkpt><trkpt lat="43.28760519430871" lon="6.223100934613771"><ele>204.33333333333331</ele><time>2026-04-22T09:24:33.998Z</time></trkpt><trkpt lat="43.28748213667727" lon="6.223130359370784"><ele>205.0</ele><time>2026-04-22T09:24:35.998Z</time></trkpt><trkpt lat="43.287419757103414" lon="6.2231615571276375"><ele>204.99999999999997</ele><time>2026-04-22T09:24:36.998Z</time></trkpt><trkpt lat="43.28735862488795" lon="6.223188376658921"><ele>205.0</ele><time>2026-04-22T09:24:37.998Z</time></trkpt><trkpt lat="43.287289523734515" lon="6.223211513348281"><ele>205.0</ele><time>2026-04-22T09:24:38.998Z</time></trkpt><trkpt lat="43.287226542767456" lon="6.22323208918398"><ele>205.0</ele><time>2026-04-22T09:24:39.998Z</time></trkpt><trkpt lat="43.2871639458555" lon="6.223247807385108"><ele>204.99999999999997</ele><time>2026-04-22T09:24:40.998Z</time></trkpt><trkpt lat="43.28706366426607" lon="6.223264378213287"><ele>205.0</ele><time>2026-04-22T09:24:42.998Z</time></trkpt><trkpt lat="43.28697253084692" lon="6.223268705363173"><ele>205.8</ele><time>2026-04-22T09:24:45Z</time></trkpt><trkpt lat="43.286899768933615" lon="6.223260669997635"><ele>206.6</ele><time>2026-04-22T09:24:48Z</time></trkpt><trkpt lat="43.28682518199343" lon="6.2231987240428355"><ele>207.39999999999998</ele><time>2026-04-22T09:24:52Z</time></trkpt><trkpt lat="43.28679404013886" lon="6.223036550954457"><ele>208.2</ele><time>2026-04-22T09:24:54Z</time></trkpt><trkpt lat="43.28674357244056" lon="6.2228748772079046"><ele>209.0</ele><time>2026-04-22T09:24:56Z</time></trkpt><trkpt lat="43.28669933953592" lon="6.222733076702445"><ele>209.2</ele><time>2026-04-22T09:24:58Z</time></trkpt><trkpt lat="43.28665323315337" lon="6.222644596862434"><ele>209.39999999999998</ele><time>2026-04-22T09:25:00Z</time></trkpt><trkpt lat="43.2866028298896" lon="6.222574040165396"><ele>209.6</ele><time>2026-04-22T09:25:11Z</time></trkpt><trkpt lat="43.28671059343439" lon="6.22237585655682"><ele>209.8</ele><time>2026-04-22T09:25:15Z</time></trkpt><trkpt lat="43.28674453258511" lon="6.22227410025981"><ele>210.0</ele><time>2026-04-22T09:25:18Z</time></trkpt><trkpt lat="43.286751576864106" lon="6.222184297921392"><ele>210.0</ele><time>2026-04-22T09:25:20Z</time></trkpt><trkpt lat="43.286722683989396" lon="6.222047625295942"><ele>210.0</ele><time>2026-04-22T09:25:22Z</time></trkpt><trkpt lat="43.286685292411235" lon="6.221928113346223"><ele>210.0</ele><time>2026-04-22T09:25:24Z</time></trkpt><trkpt lat="43.28663443384926" lon="6.221837021740365"><ele>210.0</ele><time>2026-04-22T09:25:26Z</time></trkpt><trkpt lat="43.286579192136976" lon="6.2217576948737"><ele>210.0</ele><time>2026-04-22T09:25:29Z</time></trkpt><trkpt lat="43.28656180455336" lon="6.22160341587844"><ele>209.4</ele><time>2026-04-22T09:25:33.999Z</time></trkpt><trkpt lat="43.286502501127565" lon="6.221473107863517"><ele>208.8</ele><time>2026-04-22T09:25:35.999Z</time></trkpt><trkpt lat="43.28647087175631" lon="6.221352563408731"><ele>208.2</ele><time>2026-04-22T09:25:37.999Z</time></trkpt><trkpt lat="43.28644584152775" lon="6.221236791888288"><ele>207.6</ele><time>2026-04-22T09:25:39.999Z</time></trkpt><trkpt lat="43.28639166242417" lon="6.2210955748492704"><ele>207.0</ele><time>2026-04-22T09:25:41.999Z</time></trkpt><trkpt lat="43.28636167738403" lon="6.220954425497793"><ele>207.0</ele><time>2026-04-22T09:25:43.999Z</time></trkpt><trkpt lat="43.28631317151689" lon="6.220868925068525"><ele>207.0</ele><time>2026-04-22T09:25:45.999Z</time></trkpt><trkpt lat="43.28628256434488" lon="6.220765031263327"><ele>207.0</ele><time>2026-04-22T09:25:47.999Z</time></trkpt><trkpt lat="43.28619261044436" lon="6.220675276152414"><ele>207.0</ele><time>2026-04-22T09:25:50.999Z</time></trkpt><trkpt lat="43.286110701808035" lon="6.220638994016853"><ele>207.0</ele><time>2026-04-22T09:25:52.999Z</time></trkpt><trkpt lat="43.28604244549708" lon="6.220589756561617"><ele>207.0</ele><time>2026-04-22T09:25:54.999Z</time></trkpt><trkpt lat="43.28596761721755" lon="6.220519233118081"><ele>207.0</ele><time>2026-04-22T09:26:07.999Z</time></trkpt><trkpt lat="43.286035086500824" lon="6.220512451715276"><ele>207.0</ele><time>2026-04-22T09:28:07.999Z</time></trkpt><trkpt lat="43.286119105797795" lon="6.220557610682795"><ele>207.0</ele><time>2026-04-22T09:28:09.999Z</time></trkpt><trkpt lat="43.286205120550754" lon="6.220630338308341"><ele>207.0</ele><time>2026-04-22T09:28:11.999Z</time></trkpt><trkpt lat="43.28627309789478" lon="6.220712902151141"><ele>207.0</ele><time>2026-04-22T09:28:13.999Z</time></trkpt><trkpt lat="43.28632973326868" lon="6.220875711404567"><ele>207.0</ele><time>2026-04-22T09:28:15.999Z</time></trkpt><trkpt lat="43.28637409776192" lon="6.221023630443687"><ele>207.0</ele><time>2026-04-22T09:28:17.999Z</time></trkpt><trkpt lat="43.28639438906672" lon="6.221113946345791"><ele>207.0</ele><time>2026-04-22T09:28:18.999Z</time></trkpt><trkpt lat="43.286420889110154" lon="6.221198926260209"><ele>207.0</ele><time>2026-04-22T09:28:19.999Z</time></trkpt><trkpt lat="43.28645263133742" lon="6.221284458564444"><ele>207.0</ele><time>2026-04-22T09:28:20.999Z</time></trkpt><trkpt lat="43.28649933575179" lon="6.221437173083317"><ele>207.0</ele><time>2026-04-22T09:28:22.999Z</time></trkpt><trkpt lat="43.28652786228124" lon="6.221514472629354"><ele>207.6</ele><time>2026-04-22T09:28:23.999Z</time></trkpt><trkpt lat="43.28655153765012" lon="6.221642766759744"><ele>208.2</ele><time>2026-04-22T09:28:25.999Z</time></trkpt><trkpt lat="43.286588151824155" lon="6.221731561004847"><ele>208.8</ele><time>2026-04-22T09:28:27.999Z</time></trkpt><trkpt lat="43.286666009862415" lon="6.221858543375184"><ele>209.4</ele><time>2026-04-22T09:28:29.999Z</time></trkpt><trkpt lat="43.2867035936206" lon="6.221981711799977"><ele>210.0</ele><time>2026-04-22T09:28:31.999Z</time></trkpt><trkpt lat="43.28671757176864" lon="6.222067267337114"><ele>210.0</ele><time>2026-04-22T09:28:32.999Z</time></trkpt><trkpt lat="43.28672390060907" lon="6.2221922840756765"><ele>210.0</ele><time>2026-04-22T09:28:34.999Z</time></trkpt><trkpt lat="43.28672489833997" lon="6.222324995263181"><ele>210.0</ele><time>2026-04-22T09:28:36.999Z</time></trkpt><trkpt lat="43.28664935585454" lon="6.222405964183888"><ele>210.0</ele><time>2026-04-22T09:28:40.999Z</time></trkpt><trkpt lat="43.286641813079946" lon="6.2224943463294435"><ele>210.0</ele><time>2026-04-22T09:28:43.999Z</time></trkpt><trkpt lat="43.28665983851842" lon="6.222599301954453"><ele>210.0</ele><time>2026-04-22T09:28:44.999Z</time></trkpt><trkpt lat="43.28667555265435" lon="6.222708976222302"><ele>210.16666666666666</ele><time>2026-04-22T09:28:45.999Z</time></trkpt><trkpt lat="43.286703990658026" lon="6.222811570161656"><ele>210.33333333333331</ele><time>2026-04-22T09:28:46.999Z</time></trkpt><trkpt lat="43.2867294579854" lon="6.222913973887212"><ele>210.5</ele><time>2026-04-22T09:28:47.999Z</time></trkpt><trkpt lat="43.286751421846255" lon="6.223010642946046"><ele>210.66666666666666</ele><time>2026-04-22T09:28:48.999Z</time></trkpt><trkpt lat="43.28677321837358" lon="6.223107100007153"><ele>210.83333333333331</ele><time>2026-04-22T09:28:49.999Z</time></trkpt><trkpt lat="43.286809449428" lon="6.223227609975226"><ele>211.0</ele><time>2026-04-22T09:28:51.999Z</time></trkpt><trkpt lat="43.286946610441454" lon="6.223312789294256"><ele>210.66666666666666</ele><time>2026-04-22T09:28:54.999Z</time></trkpt><trkpt lat="43.287026130157" lon="6.22331286175681"><ele>210.33333333333331</ele><time>2026-04-22T09:28:56Z</time></trkpt><trkpt lat="43.287108975658526" lon="6.223304821902731"><ele>210.0</ele><time>2026-04-22T09:28:57Z</time></trkpt><trkpt lat="43.28723508999096" lon="6.2232762928145915"><ele>209.66666666666669</ele><time>2026-04-22T09:28:59Z</time></trkpt><trkpt lat="43.28730742687121" lon="6.223252575262851"><ele>209.33333333333334</ele><time>2026-04-22T09:29:00Z</time></trkpt><trkpt lat="43.287381044682164" lon="6.223226964066264"><ele>209.0</ele><time>2026-04-22T09:29:01Z</time></trkpt><trkpt lat="43.2874433350796" lon="6.2231984885116995"><ele>208.66666666666669</ele><time>2026-04-22T09:29:02Z</time></trkpt><trkpt lat="43.28752258923417" lon="6.223162807446921"><ele>208.33333333333334</ele><time>2026-04-22T09:29:04Z</time></trkpt><trkpt lat="43.287616474552756" lon="6.2231458422796955"><ele>208.0</ele><time>2026-04-22T09:29:07Z</time></trkpt><trkpt lat="43.28770646538672" lon="6.2231519476781605"><ele>207.66666666666669</ele><time>2026-04-22T09:29:10Z</time></trkpt><trkpt lat="43.28779031352873" lon="6.223152680053018"><ele>207.33333333333334</ele><time>2026-04-22T09:40:03Z</time></trkpt><trkpt lat="43.287863912334174" lon="6.223152199884287"><ele>207.0</ele><time>2026-04-22T09:40:05Z</time></trkpt><trkpt lat="43.28792925262452" lon="6.223153698001205"><ele>206.66666666666666</ele><time>2026-04-22T09:40:07Z</time></trkpt><trkpt lat="43.28801325072683" lon="6.223166695224232"><ele>206.33333333333331</ele><time>2026-04-22T09:40:09Z</time></trkpt><trkpt lat="43.28807522381137" lon="6.223188729885108"><ele>206.0</ele><time>2026-04-22T09:40:11Z</time></trkpt><trkpt lat="43.288137395580314" lon="6.223261400839965"><ele>205.66666666666666</ele><time>2026-04-22T09:40:13Z</time></trkpt><trkpt lat="43.28815111479754" lon="6.223407298676295"><ele>205.33333333333331</ele><time>2026-04-22T09:40:15Z</time></trkpt><trkpt lat="43.28816511263164" lon="6.223493936182367"><ele>205.0</ele><time>2026-04-22T09:40:16Z</time></trkpt><trkpt lat="43.28819118371189" lon="6.223581221649541"><ele>204.33333333333331</ele><time>2026-04-22T09:40:17Z</time></trkpt><trkpt lat="43.28820968406335" lon="6.223670833551808"><ele>203.66666666666666</ele><time>2026-04-22T09:40:18Z</time></trkpt><trkpt lat="43.288223102142226" lon="6.22375712214633"><ele>203.0</ele><time>2026-04-22T09:40:19Z</time></trkpt><trkpt lat="43.28824916921548" lon="6.223925388438583"><ele>202.33333333333331</ele><time>2026-04-22T09:40:21Z</time></trkpt><trkpt lat="43.28824623890917" lon="6.224016814591017"><ele>201.66666666666666</ele><time>2026-04-22T09:40:22Z</time></trkpt><trkpt lat="43.28826728674183" lon="6.224181532596305"><ele>201.0</ele><time>2026-04-22T09:40:23.999Z</time></trkpt><trkpt lat="43.28829033682482" lon="6.224323713000941"><ele>199.8</ele><time>2026-04-22T09:40:25.999Z</time></trkpt><trkpt lat="43.28827932692402" lon="6.224461139539806"><ele>198.60000000000002</ele><time>2026-04-22T09:40:27.999Z</time></trkpt><trkpt lat="43.28828013419338" lon="6.224584422609238"><ele>197.4</ele><time>2026-04-22T09:40:29.999Z</time></trkpt><trkpt lat="43.28827495330676" lon="6.22471906544169"><ele>196.2</ele><time>2026-04-22T09:40:31.999Z</time></trkpt><trkpt lat="43.28830758479129" lon="6.22485767270032"><ele>195.0</ele><time>2026-04-22T09:40:33.999Z</time></trkpt><trkpt lat="43.288354481516734" lon="6.2249838676125675"><ele>193.4</ele><time>2026-04-22T09:40:35.999Z</time></trkpt><trkpt lat="43.28841528023824" lon="6.225114698678723"><ele>191.8</ele><time>2026-04-22T09:40:37.999Z</time></trkpt><trkpt lat="43.288440143831444" lon="6.22525184165886"><ele>190.2</ele><time>2026-04-22T09:40:39.999Z</time></trkpt><trkpt lat="43.28845860284242" lon="6.225413368016829"><ele>188.6</ele><time>2026-04-22T09:40:41.999Z</time></trkpt><trkpt lat="43.288461675080256" lon="6.22556192353649"><ele>187.0</ele><time>2026-04-22T09:40:43.999Z</time></trkpt><trkpt lat="43.28846232065319" lon="6.225698518703858"><ele>185.83333333333334</ele><time>2026-04-22T09:40:45.999Z</time></trkpt><trkpt lat="43.28848990736797" lon="6.225808376696278"><ele>184.66666666666669</ele><time>2026-04-22T09:40:47.999Z</time></trkpt><trkpt lat="43.28852149616413" lon="6.225917487230308"><ele>183.5</ele><time>2026-04-22T09:40:50.999Z</time></trkpt><trkpt lat="43.28857858206031" lon="6.225994100727976"><ele>182.33333333333334</ele><time>2026-04-22T09:40:53.999Z</time></trkpt><trkpt lat="43.28866501154613" lon="6.225948977760198"><ele>181.16666666666666</ele><time>2026-04-22T09:40:55.999Z</time></trkpt><trkpt lat="43.288708574088325" lon="6.225822974338115"><ele>180.0</ele><time>2026-04-22T09:40:57.999Z</time></trkpt><trkpt lat="43.28871108840172" lon="6.225734682048538"><ele>180.0</ele><time>2026-04-22T09:40:58.999Z</time></trkpt><trkpt lat="43.28873163894571" lon="6.225647841331577"><ele>180.0</ele><time>2026-04-22T09:41:00.999Z</time></trkpt><trkpt lat="43.2887778866143" lon="6.225556983715289"><ele>180.0</ele><time>2026-04-22T09:41:03.999Z</time></trkpt><trkpt lat="43.28882176753401" lon="6.225475794972782"><ele>180.0</ele><time>2026-04-22T09:41:06.999Z</time></trkpt><trkpt lat="43.28887245379425" lon="6.225700623769774"><ele>180.0</ele><time>2026-04-22T09:41:12.999Z</time></trkpt><trkpt lat="43.288871548671324" lon="6.225852897408336"><ele>180.0</ele><time>2026-04-22T09:41:14.999Z</time></trkpt><trkpt lat="43.28887113088539" lon="6.225945785714246"><ele>180.0</ele><time>2026-04-22T09:41:15.999Z</time></trkpt><trkpt lat="43.288875450887176" lon="6.226105101810243"><ele>180.0</ele><time>2026-04-22T09:41:17.999Z</time></trkpt><trkpt lat="43.28888145295029" lon="6.226199353965209"><ele>180.0</ele><time>2026-04-22T09:41:18.999Z</time></trkpt><trkpt lat="43.28888725426434" lon="6.226287030434968"><ele>180.0</ele><time>2026-04-22T09:41:19.999Z</time></trkpt><trkpt lat="43.288890355133574" lon="6.226434758474988"><ele>180.0</ele><time>2026-04-22T09:41:21.999Z</time></trkpt><trkpt lat="43.288894089807705" lon="6.226579372388739"><ele>179.2</ele><time>2026-04-22T09:41:23.999Z</time></trkpt><trkpt lat="43.28888884669017" lon="6.226735785490424"><ele>178.4</ele><time>2026-04-22T09:41:25.999Z</time></trkpt><trkpt lat="43.28888173373903" lon="6.226886997188226"><ele>177.60000000000002</ele><time>2026-04-22T09:41:27.999Z</time></trkpt><trkpt lat="43.28886388517553" lon="6.227026442348318"><ele>176.8</ele><time>2026-04-22T09:41:29.999Z</time></trkpt><trkpt lat="43.28885561205798" lon="6.227180887611545"><ele>176.0</ele><time>2026-04-22T09:41:32Z</time></trkpt><trkpt lat="43.28883956473715" lon="6.2273339496046844"><ele>173.66666666666666</ele><time>2026-04-22T09:41:34Z</time></trkpt><trkpt lat="43.28882609410774" lon="6.227469248443641"><ele>171.33333333333331</ele><time>2026-04-22T09:41:36Z</time></trkpt><trkpt lat="43.28882319485881" lon="6.2275793222660845"><ele>169.0</ele><time>2026-04-22T09:41:38Z</time></trkpt><trkpt lat="43.28881057919232" lon="6.227673142910042"><ele>166.66666666666666</ele><time>2026-04-22T09:41:40Z</time></trkpt><trkpt lat="43.288809821976855" lon="6.22777920591758"><ele>164.33333333333334</ele><time>2026-04-22T09:41:42Z</time></trkpt><trkpt lat="43.28880712841769" lon="6.227901669972004"><ele>162.0</ele><time>2026-04-22T09:41:44Z</time></trkpt><trkpt lat="43.28879757788694" lon="6.228061461270795"><ele>160.0</ele><time>2026-04-22T09:41:46Z</time></trkpt><trkpt lat="43.2887928717267" lon="6.2281612610800074"><ele>158.0</ele><time>2026-04-22T09:41:47Z</time></trkpt><trkpt lat="43.288793655798585" lon="6.228268128861433"><ele>156.0</ele><time>2026-04-22T09:41:48Z</time></trkpt><trkpt lat="43.28879331663485" lon="6.228383033450245"><ele>154.0</ele><time>2026-04-22T09:41:49Z</time></trkpt><trkpt lat="43.28878450550543" lon="6.2285102001988335"><ele>152.0</ele><time>2026-04-22T09:41:50Z</time></trkpt><trkpt lat="43.28877940871435" lon="6.228634561035925"><ele>150.0</ele><time>2026-04-22T09:41:51Z</time></trkpt><trkpt lat="43.28876844512216" lon="6.2287587070152455"><ele>150.0</ele><time>2026-04-22T09:41:52Z</time></trkpt><trkpt lat="43.288757801830975" lon="6.228887036775663"><ele>150.0</ele><time>2026-04-22T09:41:53Z</time></trkpt><trkpt lat="43.2887502557907" lon="6.229016530976189"><ele>150.0</ele><time>2026-04-22T09:41:54Z</time></trkpt><trkpt lat="43.28874906925195" lon="6.229144712798865"><ele>150.0</ele><time>2026-04-22T09:41:55Z</time></trkpt><trkpt lat="43.288741577490896" lon="6.229266699978653"><ele>150.0</ele><time>2026-04-22T09:41:56Z</time></trkpt><trkpt lat="43.288741597707606" lon="6.229415793977127"><ele>150.0</ele><time>2026-04-22T09:41:57Z</time></trkpt><trkpt lat="43.2887341822536" lon="6.229567906753154"><ele>150.0</ele><time>2026-04-22T09:41:58Z</time></trkpt><trkpt lat="43.28872864287825" lon="6.229725245313951"><ele>150.0</ele><time>2026-04-22T09:41:59Z</time></trkpt><trkpt lat="43.28871569259026" lon="6.229892181649081"><ele>150.0</ele><time>2026-04-22T09:42:00Z</time></trkpt><trkpt lat="43.2887084195715" lon="6.230071585107044"><ele>150.33333333333334</ele><time>2026-04-22T09:42:01Z</time></trkpt><trkpt lat="43.288702510855096" lon="6.230217066954396"><ele>150.66666666666666</ele><time>2026-04-22T09:42:02Z</time></trkpt><trkpt lat="43.28869733368113" lon="6.230343194790825"><ele>151.0</ele><time>2026-04-22T09:42:03Z</time></trkpt><trkpt lat="43.28868754524259" lon="6.230446770354951"><ele>151.33333333333331</ele><time>2026-04-22T09:42:04Z</time></trkpt><trkpt lat="43.2886758064549" lon="6.230567615989138"><ele>151.66666666666666</ele><time>2026-04-22T09:42:06Z</time></trkpt><trkpt lat="43.28863554423052" lon="6.230638344358612"><ele>152.0</ele><time>2026-04-22T09:42:09Z</time></trkpt><trkpt lat="43.2886325908745" lon="6.230817929462511"><ele>152.5</ele><time>2026-04-22T09:42:11Z</time></trkpt><trkpt lat="43.28861673257852" lon="6.230948175964313"><ele>153.0</ele><time>2026-04-22T09:42:12Z</time></trkpt><trkpt lat="43.2886212636781" lon="6.231100707316394"><ele>153.5</ele><time>2026-04-22T09:42:13Z</time></trkpt><trkpt lat="43.28864361973201" lon="6.231279942160302"><ele>154.0</ele><time>2026-04-22T09:42:14Z</time></trkpt><trkpt lat="43.28864685506879" lon="6.231470764141367"><ele>154.25</ele><time>2026-04-22T09:42:15Z</time></trkpt><trkpt lat="43.28863063553128" lon="6.231687453565823"><ele>154.5</ele><time>2026-04-22T09:42:16Z</time></trkpt><trkpt lat="43.28862002859474" lon="6.231881356952683"><ele>154.75</ele><time>2026-04-22T09:42:17Z</time></trkpt><trkpt lat="43.288629444686464" lon="6.23205652988456"><ele>155.0</ele><time>2026-04-22T09:42:17.999Z</time></trkpt><trkpt lat="43.288622200316226" lon="6.232242639416764"><ele>155.5</ele><time>2026-04-22T09:42:18.999Z</time></trkpt><trkpt lat="43.28861993684951" lon="6.232433582741109"><ele>156.0</ele><time>2026-04-22T09:42:19.999Z</time></trkpt><trkpt lat="43.288629840550016" lon="6.232618527143141"><ele>156.5</ele><time>2026-04-22T09:42:20.999Z</time></trkpt><trkpt lat="43.288641912960266" lon="6.232790003321857"><ele>157.0</ele><time>2026-04-22T09:42:21.999Z</time></trkpt><trkpt lat="43.288648443671775" lon="6.2329476753367095"><ele>157.0</ele><time>2026-04-22T09:42:22.999Z</time></trkpt><trkpt lat="43.288641990922564" lon="6.233100581158461"><ele>157.0</ele><time>2026-04-22T09:42:23.999Z</time></trkpt><trkpt lat="43.28863139952344" lon="6.233267566572411"><ele>157.0</ele><time>2026-04-22T09:42:24.999Z</time></trkpt><trkpt lat="43.28861887018613" lon="6.233440441984749"><ele>157.0</ele><time>2026-04-22T09:42:25.999Z</time></trkpt><trkpt lat="43.28860165453213" lon="6.23363715764069"><ele>157.66666666666669</ele><time>2026-04-22T09:42:26.999Z</time></trkpt><trkpt lat="43.28858216353026" lon="6.2338468090998225"><ele>158.33333333333334</ele><time>2026-04-22T09:42:27.999Z</time></trkpt><trkpt lat="43.28856056843845" lon="6.234075430635462"><ele>159.0</ele><time>2026-04-22T09:42:28.999Z</time></trkpt><trkpt lat="43.28854317057418" lon="6.234310652862415"><ele>159.33333333333334</ele><time>2026-04-22T09:42:29.999Z</time></trkpt><trkpt lat="43.28852002218791" lon="6.234536890890589"><ele>159.66666666666669</ele><time>2026-04-22T09:42:30.999Z</time></trkpt><trkpt lat="43.28851378471319" lon="6.23475226752592"><ele>160.0</ele><time>2026-04-22T09:42:31.999Z</time></trkpt><trkpt lat="43.28850217482077" lon="6.234984321838194"><ele>160.33333333333334</ele><time>2026-04-22T09:42:32.999Z</time></trkpt><trkpt lat="43.288494479150216" lon="6.235196672967548"><ele>160.66666666666666</ele><time>2026-04-22T09:42:33.999Z</time></trkpt><trkpt lat="43.28848601044911" lon="6.2354102098747335"><ele>161.0</ele><time>2026-04-22T09:42:34.999Z</time></trkpt><trkpt lat="43.28848089205969" lon="6.23562179816568"><ele>161.0</ele><time>2026-04-22T09:42:35.999Z</time></trkpt><trkpt lat="43.28847536312725" lon="6.235806569631446"><ele>161.0</ele><time>2026-04-22T09:42:36.999Z</time></trkpt><trkpt lat="43.28847218338039" lon="6.235995180234342"><ele>161.0</ele><time>2026-04-22T09:42:37.999Z</time></trkpt><trkpt lat="43.28846596848117" lon="6.236191512175863"><ele>161.0</ele><time>2026-04-22T09:42:38.999Z</time></trkpt><trkpt lat="43.28846094592694" lon="6.2363901896649665"><ele>162.66666666666666</ele><time>2026-04-22T09:42:39.999Z</time></trkpt><trkpt lat="43.28845197556868" lon="6.236604600036573"><ele>164.33333333333334</ele><time>2026-04-22T09:42:40.999Z</time></trkpt><trkpt lat="43.288441907682014" lon="6.236826675441005"><ele>166.0</ele><time>2026-04-22T09:42:41.999Z</time></trkpt><trkpt lat="43.2884232624549" lon="6.237036554877088"><ele>166.0</ele><time>2026-04-22T09:42:42.999Z</time></trkpt><trkpt lat="43.28840513251943" lon="6.237228947457908"><ele>166.0</ele><time>2026-04-22T09:42:43.999Z</time></trkpt><trkpt lat="43.28838682333549" lon="6.237407297101304"><ele>166.0</ele><time>2026-04-22T09:42:44.999Z</time></trkpt><trkpt lat="43.28838251381218" lon="6.237559581038368"><ele>166.0</ele><time>2026-04-22T09:42:45.999Z</time></trkpt><trkpt lat="43.28835408147626" lon="6.237698655843041"><ele>166.75</ele><time>2026-04-22T09:42:46.999Z</time></trkpt><trkpt lat="43.28834109848548" lon="6.237859600979982"><ele>167.5</ele><time>2026-04-22T09:42:47.999Z</time></trkpt><trkpt lat="43.288340914085666" lon="6.238039996907524"><ele>168.25</ele><time>2026-04-22T09:42:48.999Z</time></trkpt><trkpt lat="43.28830613457214" lon="6.238218144066158"><ele>169.0</ele><time>2026-04-22T09:42:49.999Z</time></trkpt><trkpt lat="43.28828698338327" lon="6.238382554010562"><ele>169.6</ele><time>2026-04-22T09:42:50.999Z</time></trkpt><trkpt lat="43.28826672122254" lon="6.238520290171913"><ele>170.2</ele><time>2026-04-22T09:42:51.999Z</time></trkpt><trkpt lat="43.28824695869362" lon="6.2386554356853345"><ele>170.79999999999998</ele><time>2026-04-22T09:42:52.999Z</time></trkpt><trkpt lat="43.288231519110475" lon="6.238794526658121"><ele>171.39999999999998</ele><time>2026-04-22T09:42:53.999Z</time></trkpt><trkpt lat="43.2882215345799" lon="6.238944010341573"><ele>172.0</ele><time>2026-04-22T09:42:54.999Z</time></trkpt><trkpt lat="43.288208100096035" lon="6.2391008248022075"><ele>172.75</ele><time>2026-04-22T09:42:55.999Z</time></trkpt><trkpt lat="43.28819905025396" lon="6.239254056744738"><ele>173.5</ele><time>2026-04-22T09:42:56.999Z</time></trkpt><trkpt lat="43.28818292660433" lon="6.239411657970589"><ele>174.25</ele><time>2026-04-22T09:42:57.999Z</time></trkpt><trkpt lat="43.28819812442241" lon="6.239568607370638"><ele>175.0</ele><time>2026-04-22T09:42:58.999Z</time></trkpt><trkpt lat="43.28820221458501" lon="6.239716121851778"><ele>175.6</ele><time>2026-04-22T09:42:59.999Z</time></trkpt><trkpt lat="43.28820570221823" lon="6.239849216194424"><ele>176.2</ele><time>2026-04-22T09:43:00.999Z</time></trkpt><trkpt lat="43.28821325392131" lon="6.239963386618376"><ele>176.8</ele><time>2026-04-22T09:43:01.999Z</time></trkpt><trkpt lat="43.28822582910079" lon="6.240110071197461"><ele>177.4</ele><time>2026-04-22T09:43:02.999Z</time></trkpt><trkpt lat="43.28825159529122" lon="6.2402520865225055"><ele>178.0</ele><time>2026-04-22T09:43:03.999Z</time></trkpt><trkpt lat="43.28827288641577" lon="6.240387083287803"><ele>178.0</ele><time>2026-04-22T09:43:04.999Z</time></trkpt><trkpt lat="43.28828002011631" lon="6.240489820625602"><ele>178.0</ele><time>2026-04-22T09:43:05.999Z</time></trkpt><trkpt lat="43.28828512476976" lon="6.240600196980006"><ele>178.0</ele><time>2026-04-22T09:43:06.999Z</time></trkpt><trkpt lat="43.28829074322042" lon="6.240747029470932"><ele>178.0</ele><time>2026-04-22T09:43:07.999Z</time></trkpt><trkpt lat="43.28829788718606" lon="6.240904479963904"><ele>178.0</ele><time>2026-04-22T09:43:08.999Z</time></trkpt><trkpt lat="43.28832267973505" lon="6.2410724041236785"><ele>178.4</ele><time>2026-04-22T09:43:09.999Z</time></trkpt><trkpt lat="43.28833295209805" lon="6.2412311912129015"><ele>178.8</ele><time>2026-04-22T09:43:10.999Z</time></trkpt><trkpt lat="43.28833982634789" lon="6.241369422420992"><ele>179.2</ele><time>2026-04-22T09:43:11.999Z</time></trkpt><trkpt lat="43.2883500258404" lon="6.241518107803342"><ele>179.6</ele><time>2026-04-22T09:43:12.999Z</time></trkpt><trkpt lat="43.28835493025645" lon="6.241686820253718"><ele>180.0</ele><time>2026-04-22T09:43:13.999Z</time></trkpt><trkpt lat="43.28835403108197" lon="6.241861107688226"><ele>180.25</ele><time>2026-04-22T09:43:14.999Z</time></trkpt><trkpt lat="43.28835448338869" lon="6.242033598377931"><ele>180.5</ele><time>2026-04-22T09:43:15.999Z</time></trkpt><trkpt lat="43.28835907066843" lon="6.242216738632413"><ele>180.75</ele><time>2026-04-22T09:43:16.999Z</time></trkpt><trkpt lat="43.28835980370738" lon="6.242386055747081"><ele>181.0</ele><time>2026-04-22T09:43:17.999Z</time></trkpt><trkpt lat="43.28835630990424" lon="6.242546893827715"><ele>180.8</ele><time>2026-04-22T09:43:18.999Z</time></trkpt><trkpt lat="43.28834816443307" lon="6.2427092716129025"><ele>180.60000000000002</ele><time>2026-04-22T09:43:19.999Z</time></trkpt><trkpt lat="43.28835263537452" lon="6.24286240931879"><ele>180.4</ele><time>2026-04-22T09:43:20.999Z</time></trkpt><trkpt lat="43.28835101161247" lon="6.242986761755651"><ele>180.2</ele><time>2026-04-22T09:43:21.999Z</time></trkpt><trkpt lat="43.28835007096777" lon="6.243107111454406"><ele>180.0</ele><time>2026-04-22T09:43:22.999Z</time></trkpt><trkpt lat="43.28835598870593" lon="6.243212670107228"><ele>180.0</ele><time>2026-04-22T09:43:23.999Z</time></trkpt><trkpt lat="43.28837563056679" lon="6.2433493672996265"><ele>180.0</ele><time>2026-04-22T09:43:24.999Z</time></trkpt><trkpt lat="43.28840433954831" lon="6.243475254467634"><ele>180.0</ele><time>2026-04-22T09:43:25.999Z</time></trkpt><trkpt lat="43.288437354784676" lon="6.2436096403267225"><ele>180.0</ele><time>2026-04-22T09:43:26.999Z</time></trkpt><trkpt lat="43.28844984719444" lon="6.24377522264074"><ele>180.0</ele><time>2026-04-22T09:43:27.999Z</time></trkpt><trkpt lat="43.288462383382374" lon="6.243911227582275"><ele>180.4</ele><time>2026-04-22T09:43:28.999Z</time></trkpt><trkpt lat="43.2884535691306" lon="6.244049512666352"><ele>180.8</ele><time>2026-04-22T09:43:29.999Z</time></trkpt><trkpt lat="43.28847210056574" lon="6.244178764535678"><ele>181.2</ele><time>2026-04-22T09:43:30.999Z</time></trkpt><trkpt lat="43.288471794222986" lon="6.244298149158263"><ele>181.6</ele><time>2026-04-22T09:43:31.999Z</time></trkpt><trkpt lat="43.2884900051887" lon="6.244435169230746"><ele>182.0</ele><time>2026-04-22T09:43:32.999Z</time></trkpt><trkpt lat="43.28851142492061" lon="6.244583418855521"><ele>182.0</ele><time>2026-04-22T09:43:33.999Z</time></trkpt><trkpt lat="43.28853655140631" lon="6.244750081777678"><ele>182.0</ele><time>2026-04-22T09:43:34.998Z</time></trkpt><trkpt lat="43.28856784221817" lon="6.244927314908746"><ele>182.0</ele><time>2026-04-22T09:43:35.998Z</time></trkpt><trkpt lat="43.2885764252763" lon="6.245098875286253"><ele>182.0</ele><time>2026-04-22T09:43:36.998Z</time></trkpt><trkpt lat="43.28860244280962" lon="6.2452789325922025"><ele>182.5</ele><time>2026-04-22T09:43:38Z</time></trkpt><trkpt lat="43.28862561610178" lon="6.2454567322534436"><ele>183.0</ele><time>2026-04-22T09:43:39Z</time></trkpt><trkpt lat="43.288668319397594" lon="6.245660904682807"><ele>183.5</ele><time>2026-04-22T09:43:40Z</time></trkpt><trkpt lat="43.28869322632472" lon="6.2458766559578"><ele>184.0</ele><time>2026-04-22T09:43:41Z</time></trkpt><trkpt lat="43.288719734560175" lon="6.246118816028893"><ele>185.25</ele><time>2026-04-22T09:43:42Z</time></trkpt><trkpt lat="43.288755610943944" lon="6.246323684440992"><ele>186.5</ele><time>2026-04-22T09:43:43Z</time></trkpt><trkpt lat="43.28878165611521" lon="6.246507086140529"><ele>187.75</ele><time>2026-04-22T09:43:44Z</time></trkpt><trkpt lat="43.28880764622915" lon="6.246689105372817"><ele>189.0</ele><time>2026-04-22T09:43:45Z</time></trkpt><trkpt lat="43.28883376222795" lon="6.2468815832556785"><ele>189.75</ele><time>2026-04-22T09:43:46Z</time></trkpt><trkpt lat="43.28886031358006" lon="6.247080705836824"><ele>190.5</ele><time>2026-04-22T09:43:47Z</time></trkpt><trkpt lat="43.288885813918434" lon="6.2472796550496525"><ele>191.25</ele><time>2026-04-22T09:43:48Z</time></trkpt><trkpt lat="43.28891344555728" lon="6.247469362839766"><ele>192.0</ele><time>2026-04-22T09:43:49Z</time></trkpt><trkpt lat="43.28894100013333" lon="6.247647401676334"><ele>193.8</ele><time>2026-04-22T09:43:50Z</time></trkpt><trkpt lat="43.28896421909988" lon="6.247799836381228"><ele>195.6</ele><time>2026-04-22T09:43:51Z</time></trkpt><trkpt lat="43.28898073096032" lon="6.247934193549184"><ele>197.4</ele><time>2026-04-22T09:43:52Z</time></trkpt><trkpt lat="43.28898969408272" lon="6.248037142650354"><ele>199.20000000000002</ele><time>2026-04-22T09:43:53Z</time></trkpt><trkpt lat="43.2890081524177" lon="6.24821762601925"><ele>201.0</ele><time>2026-04-22T09:43:55Z</time></trkpt><trkpt lat="43.289019174388855" lon="6.248319152940819"><ele>201.16666666666666</ele><time>2026-04-22T09:43:56Z</time></trkpt><trkpt lat="43.28902829429184" lon="6.248435500096082"><ele>201.33333333333331</ele><time>2026-04-22T09:43:57Z</time></trkpt><trkpt lat="43.28904237973549" lon="6.248541707075143"><ele>201.5</ele><time>2026-04-22T09:43:58Z</time></trkpt><trkpt lat="43.28903522627808" lon="6.248632635384566"><ele>201.66666666666666</ele><time>2026-04-22T09:43:59Z</time></trkpt><trkpt lat="43.28904280977177" lon="6.248723350422445"><ele>201.83333333333331</ele><time>2026-04-22T09:44:00Z</time></trkpt><trkpt lat="43.289054268575285" lon="6.248893880439285"><ele>202.0</ele><time>2026-04-22T09:44:02Z</time></trkpt><trkpt lat="43.2890798919934" lon="6.249048833616966"><ele>203.0</ele><time>2026-04-22T09:44:04Z</time></trkpt><trkpt lat="43.289085798078176" lon="6.249229643276684"><ele>204.0</ele><time>2026-04-22T09:44:06Z</time></trkpt><trkpt lat="43.2890951901407" lon="6.24932927711305"><ele>205.0</ele><time>2026-04-22T09:44:07Z</time></trkpt><trkpt lat="43.289080043219805" lon="6.249423539845425"><ele>206.0</ele><time>2026-04-22T09:44:08Z</time></trkpt><trkpt lat="43.28909373087213" lon="6.2495783433417795"><ele>207.0</ele><time>2026-04-22T09:44:10Z</time></trkpt><trkpt lat="43.28906024623701" lon="6.249767632967583"><ele>208.83333333333334</ele><time>2026-04-22T09:44:12Z</time></trkpt><trkpt lat="43.28907668729852" lon="6.249851581171786"><ele>210.66666666666669</ele><time>2026-04-22T09:44:13Z</time></trkpt><trkpt lat="43.28911618824457" lon="6.249996657922035"><ele>212.5</ele><time>2026-04-22T09:44:14.999Z</time></trkpt><trkpt lat="43.289212845146054" lon="6.250103045307413"><ele>214.33333333333334</ele><time>2026-04-22T09:44:16.999Z</time></trkpt><trkpt lat="43.28924723007896" lon="6.250176067427777"><ele>216.16666666666669</ele><time>2026-04-22T09:44:17.999Z</time></trkpt><trkpt lat="43.289282356622" lon="6.250253167188396"><ele>218.0</ele><time>2026-04-22T09:44:18.999Z</time></trkpt><trkpt lat="43.28931406330351" lon="6.250328233074731"><ele>218.0</ele><time>2026-04-22T09:44:19.999Z</time></trkpt><trkpt lat="43.289376547837776" lon="6.25047616425817"><ele>218.0</ele><time>2026-04-22T09:44:21.999Z</time></trkpt><trkpt lat="43.28942198883239" lon="6.250609477666499"><ele>218.0</ele><time>2026-04-22T09:44:23.999Z</time></trkpt><trkpt lat="43.28904824287822" lon="6.251049172682178"><ele>219.00000000000003</ele><time>2026-04-22T09:44:25.999Z</time></trkpt><trkpt lat="43.28903681672784" lon="6.251146272136753"><ele>220.0</ele><time>2026-04-22T09:44:27.999Z</time></trkpt><trkpt lat="43.28910555345386" lon="6.251265922456686"><ele>221.0</ele><time>2026-04-22T09:44:29.999Z</time></trkpt><trkpt lat="43.28914561766748" lon="6.251357861402057"><ele>222.0</ele><time>2026-04-22T09:44:30.999Z</time></trkpt><trkpt lat="43.28917257398883" lon="6.2514595901130825"><ele>223.00000000000003</ele><time>2026-04-22T09:44:31.999Z</time></trkpt><trkpt lat="43.28921817144427" lon="6.251576549548555"><ele>224.0</ele><time>2026-04-22T09:44:33.999Z</time></trkpt><trkpt lat="43.2892108338139" lon="6.251741014580149"><ele>224.00000000000003</ele><time>2026-04-22T09:44:35.999Z</time></trkpt><trkpt lat="43.28916513355287" lon="6.251818113151615"><ele>224.0</ele><time>2026-04-22T09:44:37.999Z</time></trkpt><trkpt lat="43.28908623811533" lon="6.2517544790601125"><ele>224.0</ele><time>2026-04-22T09:44:40.999Z</time></trkpt><trkpt lat="43.289066856581364" lon="6.251623539470751"><ele>224.0</ele><time>2026-04-22T09:44:42.999Z</time></trkpt><trkpt lat="43.289032542258354" lon="6.251510369223591"><ele>224.00000000000003</ele><time>2026-04-22T09:44:44.999Z</time></trkpt><trkpt lat="43.288977896147955" lon="6.2514536791986215"><ele>224.0</ele><time>2026-04-22T09:44:45.999Z</time></trkpt><trkpt lat="43.28890104758411" lon="6.251408943446018"><ele>228.83333333333334</ele><time>2026-04-22T09:44:46.999Z</time></trkpt><trkpt lat="43.288839123344786" lon="6.251375193223458"><ele>233.66666666666669</ele><time>2026-04-22T09:44:47.999Z</time></trkpt><trkpt lat="43.28877603080824" lon="6.251280628679323"><ele>238.5</ele><time>2026-04-22T09:44:49.999Z</time></trkpt><trkpt lat="43.28878420855552" lon="6.251120600967744"><ele>243.33333333333331</ele><time>2026-04-22T09:44:51.999Z</time></trkpt><trkpt lat="43.288790228586976" lon="6.251021683433085"><ele>248.16666666666666</ele><time>2026-04-22T09:44:52.999Z</time></trkpt><trkpt lat="43.288773136916234" lon="6.250927560486507"><ele>253.0</ele><time>2026-04-22T09:44:53.999Z</time></trkpt><trkpt lat="43.28874575117262" lon="6.250828648112623"><ele>252.99999999999997</ele><time>2026-04-22T09:44:54.999Z</time></trkpt><trkpt lat="43.2887135878416" lon="6.250729117935554"><ele>253.0</ele><time>2026-04-22T09:44:55.999Z</time></trkpt><trkpt lat="43.28866593946381" lon="6.250612250610582"><ele>253.0</ele><time>2026-04-22T09:44:56.999Z</time></trkpt><trkpt lat="43.2886144551135" lon="6.25050608878182"><ele>253.0</ele><time>2026-04-22T09:44:57.999Z</time></trkpt><trkpt lat="43.288567268061904" lon="6.250387636164295"><ele>252.99999999999997</ele><time>2026-04-22T09:44:58.999Z</time></trkpt><trkpt lat="43.288530015892114" lon="6.250288383801471"><ele>253.0</ele><time>2026-04-22T09:44:59.999Z</time></trkpt><trkpt lat="43.28849216544445" lon="6.250185894614238"><ele>251.83333333333331</ele><time>2026-04-22T09:45:00.999Z</time></trkpt><trkpt lat="43.288444036902625" lon="6.250089177053852"><ele>250.66666666666666</ele><time>2026-04-22T09:45:01.999Z</time></trkpt><trkpt lat="43.288387372637644" lon="6.250012794677133"><ele>249.5</ele><time>2026-04-22T09:45:02.999Z</time></trkpt><trkpt lat="43.28832656533362" lon="6.249932194702216"><ele>248.33333333333331</ele><time>2026-04-22T09:45:03.999Z</time></trkpt><trkpt lat="43.28827714408661" lon="6.249873018306166"><ele>247.16666666666666</ele><time>2026-04-22T09:45:04.999Z</time></trkpt><trkpt lat="43.28821782891309" lon="6.249800813032974"><ele>246.0</ele><time>2026-04-22T09:45:05.999Z</time></trkpt><trkpt lat="43.288147555904914" lon="6.249737296509089"><ele>246.5714285714286</ele><time>2026-04-22T09:45:06.999Z</time></trkpt><trkpt lat="43.28807398702533" lon="6.249681055343988"><ele>247.14285714285717</ele><time>2026-04-22T09:45:07.999Z</time></trkpt><trkpt lat="43.287998528208576" lon="6.249652487802785"><ele>247.71428571428572</ele><time>2026-04-22T09:45:08.999Z</time></trkpt><trkpt lat="43.28793186775779" lon="6.249640721876205"><ele>248.2857142857143</ele><time>2026-04-22T09:45:09.999Z</time></trkpt><trkpt lat="43.28786105327264" lon="6.2496410830213165"><ele>248.8571428571429</ele><time>2026-04-22T09:45:10.999Z</time></trkpt><trkpt lat="43.2877955759407" lon="6.249668389762836"><ele>249.42857142857142</ele><time>2026-04-22T09:45:11.999Z</time></trkpt><trkpt lat="43.28773851246235" lon="6.249714485672096"><ele>250.0</ele><time>2026-04-22T09:45:12.999Z</time></trkpt><trkpt lat="43.28769651779035" lon="6.249811462739084"><ele>249.99999999999997</ele><time>2026-04-22T09:45:14.999Z</time></trkpt><trkpt lat="43.287737566503225" lon="6.249924752043317"><ele>250.0</ele><time>2026-04-22T09:45:17.999Z</time></trkpt><trkpt lat="43.287800988348486" lon="6.24993279145971"><ele>250.0</ele><time>2026-04-22T09:45:19.999Z</time></trkpt><trkpt lat="43.2879146285062" lon="6.249907571521347"><ele>250.0</ele><time>2026-04-22T09:45:21.999Z</time></trkpt><trkpt lat="43.28800557738311" lon="6.249982933732093"><ele>249.99999999999997</ele><time>2026-04-22T09:45:23.999Z</time></trkpt><trkpt lat="43.288045685976975" lon="6.250058616176549"><ele>250.0</ele><time>2026-04-22T09:45:24.999Z</time></trkpt><trkpt lat="43.28808625185779" lon="6.2501570012383745"><ele>250.6</ele><time>2026-04-22T09:45:25.999Z</time></trkpt><trkpt lat="43.28811826761167" lon="6.250263595510559"><ele>251.2</ele><time>2026-04-22T09:45:26.999Z</time></trkpt><trkpt lat="43.2881450820039" lon="6.250382002074059"><ele>251.8</ele><time>2026-04-22T09:45:27.999Z</time></trkpt><trkpt lat="43.288151896803" lon="6.250516203081094"><ele>252.4</ele><time>2026-04-22T09:45:28.999Z</time></trkpt><trkpt lat="43.28815017561656" lon="6.250655877101017"><ele>253.0</ele><time>2026-04-22T09:45:29.999Z</time></trkpt><trkpt lat="43.288144220848736" lon="6.250770792087242"><ele>253.0</ele><time>2026-04-22T09:45:30.999Z</time></trkpt><trkpt lat="43.28813318564836" lon="6.2508599049887446"><ele>253.0</ele><time>2026-04-22T09:45:31.999Z</time></trkpt><trkpt lat="43.28811422530202" lon="6.25096138089559"><ele>253.0</ele><time>2026-04-22T09:45:32.999Z</time></trkpt><trkpt lat="43.288085419346" lon="6.251090787047069"><ele>253.0</ele><time>2026-04-22T09:45:33.999Z</time></trkpt><trkpt lat="43.28804302211923" lon="6.251230677798457"><ele>253.0</ele><time>2026-04-22T09:45:34.999Z</time></trkpt><trkpt lat="43.288001675367" lon="6.251368461415871"><ele>254.83333333333331</ele><time>2026-04-22T09:45:35.999Z</time></trkpt><trkpt lat="43.2879728296398" lon="6.2514841902225715"><ele>256.66666666666663</ele><time>2026-04-22T09:45:36.999Z</time></trkpt><trkpt lat="43.287942673155314" lon="6.251583258985812"><ele>258.5</ele><time>2026-04-22T09:45:37.999Z</time></trkpt><trkpt lat="43.28790716317131" lon="6.2516925871281925"><ele>260.3333333333333</ele><time>2026-04-22T09:45:38.999Z</time></trkpt><trkpt lat="43.287884447260936" lon="6.251789645937663"><ele>262.1666666666667</ele><time>2026-04-22T09:45:39.999Z</time></trkpt><trkpt lat="43.287851496199444" lon="6.251871434534332"><ele>264.0</ele><time>2026-04-22T09:45:40.999Z</time></trkpt><trkpt lat="43.28782095719174" lon="6.251951739756383"><ele>264.0</ele><time>2026-04-22T09:45:41.998Z</time></trkpt><trkpt lat="43.28773562921882" lon="6.25207128011138"><ele>264.0</ele><time>2026-04-22T09:45:44Z</time></trkpt><trkpt lat="43.287677700875214" lon="6.252129883330512"><ele>264.0</ele><time>2026-04-22T09:45:45Z</time></trkpt><trkpt lat="43.28761617152584" lon="6.252180521454857"><ele>264.0</ele><time>2026-04-22T09:45:46Z</time></trkpt><trkpt lat="43.28753034580875" lon="6.252232396928146"><ele>264.0</ele><time>2026-04-22T09:45:47Z</time></trkpt><trkpt lat="43.28744520902533" lon="6.252308879030628"><ele>264.4</ele><time>2026-04-22T09:45:48Z</time></trkpt><trkpt lat="43.28736499084603" lon="6.252398723402618"><ele>264.79999999999995</ele><time>2026-04-22T09:45:49Z</time></trkpt><trkpt lat="43.28730441502139" lon="6.252486966292341"><ele>265.20000000000005</ele><time>2026-04-22T09:45:50Z</time></trkpt><trkpt lat="43.287249674151255" lon="6.252584179924656"><ele>265.6</ele><time>2026-04-22T09:45:51Z</time></trkpt><trkpt lat="43.287162182162184" lon="6.252714455932152"><ele>266.0</ele><time>2026-04-22T09:45:53Z</time></trkpt><trkpt lat="43.2871069356538" lon="6.252812914302923"><ele>267.83333333333337</ele><time>2026-04-22T09:45:54Z</time></trkpt><trkpt lat="43.28704900611509" lon="6.252894316517635"><ele>269.6666666666667</ele><time>2026-04-22T09:45:55Z</time></trkpt><trkpt lat="43.286987812967865" lon="6.25299647772234"><ele>271.5</ele><time>2026-04-22T09:45:56Z</time></trkpt><trkpt lat="43.286930771608496" lon="6.253079568944901"><ele>273.3333333333333</ele><time>2026-04-22T09:45:57Z</time></trkpt><trkpt lat="43.28688814270245" lon="6.253185049277493"><ele>275.16666666666663</ele><time>2026-04-22T09:45:58Z</time></trkpt><trkpt lat="43.286842178408776" lon="6.253298424834367"><ele>277.0</ele><time>2026-04-22T09:45:59Z</time></trkpt><trkpt lat="43.28680685599933" lon="6.253391151512599"><ele>278.4</ele><time>2026-04-22T09:46:00Z</time></trkpt><trkpt lat="43.28677191142158" lon="6.253497426071999"><ele>279.79999999999995</ele><time>2026-04-22T09:46:02Z</time></trkpt><trkpt lat="43.286695548571174" lon="6.253565582700672"><ele>281.2</ele><time>2026-04-22T09:46:05Z</time></trkpt><trkpt lat="43.28666998254946" lon="6.253442338294507"><ele>282.59999999999997</ele><time>2026-04-22T09:46:09Z</time></trkpt><trkpt lat="43.28669985708436" lon="6.2533542880404545"><ele>284.0</ele><time>2026-04-22T09:46:11Z</time></trkpt><trkpt lat="43.2867302360843" lon="6.2531897164914785"><ele>284.0</ele><time>2026-04-22T09:46:13Z</time></trkpt><trkpt lat="43.28673153999584" lon="6.253096675892709"><ele>284.0</ele><time>2026-04-22T09:46:14Z</time></trkpt><trkpt lat="43.28668100526378" lon="6.252968926682002"><ele>284.0</ele><time>2026-04-22T09:46:16Z</time></trkpt><trkpt lat="43.286623675754115" lon="6.252929753157122"><ele>284.0</ele><time>2026-04-22T09:46:17Z</time></trkpt><trkpt lat="43.28655751245955" lon="6.252908590420332"><ele>284.0</ele><time>2026-04-22T09:46:18Z</time></trkpt><trkpt lat="43.28647813572464" lon="6.252893825949773"><ele>284.0</ele><time>2026-04-22T09:46:19Z</time></trkpt><trkpt lat="43.28639664445489" lon="6.252869868317022"><ele>284.0</ele><time>2026-04-22T09:46:20Z</time></trkpt><trkpt lat="43.286319822506506" lon="6.252841541095173"><ele>284.0</ele><time>2026-04-22T09:46:21Z</time></trkpt><trkpt lat="43.28625228097543" lon="6.252803786590912"><ele>284.0</ele><time>2026-04-22T09:46:22Z</time></trkpt><trkpt lat="43.28619121600146" lon="6.252782376278812"><ele>284.0</ele><time>2026-04-22T09:46:23Z</time></trkpt><trkpt lat="43.28606668612762" lon="6.252766073437246"><ele>284.0</ele><time>2026-04-22T09:46:25Z</time></trkpt><trkpt lat="43.28598799647819" lon="6.252773714102471"><ele>284.0</ele><time>2026-04-22T09:46:26.999Z</time></trkpt><trkpt lat="43.285959667299224" lon="6.2528607612163025"><ele>284.0</ele><time>2026-04-22T09:46:29.999Z</time></trkpt><trkpt lat="43.28602311708213" lon="6.252938923274404"><ele>284.0</ele><time>2026-04-22T09:46:33.999Z</time></trkpt><trkpt lat="43.286107025735355" lon="6.252961338147891"><ele>284.0</ele><time>2026-04-22T09:46:35.999Z</time></trkpt><trkpt lat="43.28621300386991" lon="6.253014757589919"><ele>284.0</ele><time>2026-04-22T09:46:37.999Z</time></trkpt><trkpt lat="43.28630810006083" lon="6.253112391189085"><ele>284.0</ele><time>2026-04-22T09:46:39.999Z</time></trkpt><trkpt lat="43.28635485708937" lon="6.253260593107011"><ele>286.83333333333337</ele><time>2026-04-22T09:46:41.999Z</time></trkpt><trkpt lat="43.28636402476514" lon="6.253353346902465"><ele>289.6666666666667</ele><time>2026-04-22T09:46:42.999Z</time></trkpt><trkpt lat="43.2863476766051" lon="6.253444450362081"><ele>292.5</ele><time>2026-04-22T09:46:43.999Z</time></trkpt><trkpt lat="43.286311010230456" lon="6.253538505124398"><ele>295.3333333333333</ele><time>2026-04-22T09:46:44.999Z</time></trkpt><trkpt lat="43.2862568551397" lon="6.253641680459462"><ele>298.16666666666663</ele><time>2026-04-22T09:46:45.999Z</time></trkpt><trkpt lat="43.28619862634115" lon="6.253743367300688"><ele>301.0</ele><time>2026-04-22T09:46:46.999Z</time></trkpt><trkpt lat="43.2861204011983" lon="6.253869101611419"><ele>301.2</ele><time>2026-04-22T09:46:47.999Z</time></trkpt><trkpt lat="43.28604365556612" lon="6.253969177615647"><ele>301.40000000000003</ele><time>2026-04-22T09:46:48.999Z</time></trkpt><trkpt lat="43.28598068318236" lon="6.254055767866682"><ele>301.6</ele><time>2026-04-22T09:46:49.999Z</time></trkpt><trkpt lat="43.285908846281714" lon="6.25414521246855"><ele>301.8</ele><time>2026-04-22T09:46:50.999Z</time></trkpt><trkpt lat="43.285837478431084" lon="6.254231501046885"><ele>302.0</ele><time>2026-04-22T09:46:51.999Z</time></trkpt><trkpt lat="43.28576022924825" lon="6.254316669596201"><ele>302.0</ele><time>2026-04-22T09:46:52.999Z</time></trkpt><trkpt lat="43.28567926800593" lon="6.254389592722952"><ele>302.0</ele><time>2026-04-22T09:46:53.999Z</time></trkpt><trkpt lat="43.28560008077494" lon="6.254467566620907"><ele>302.0</ele><time>2026-04-22T09:46:54.999Z</time></trkpt><trkpt lat="43.2855148743527" lon="6.254540292334135"><ele>302.0</ele><time>2026-04-22T09:46:55.999Z</time></trkpt><trkpt lat="43.28543676636447" lon="6.2546202118857375"><ele>302.0</ele><time>2026-04-22T09:46:56.999Z</time></trkpt><trkpt lat="43.28536210310217" lon="6.254692639374563"><ele>302.33333333333337</ele><time>2026-04-22T09:46:57.999Z</time></trkpt><trkpt lat="43.28529834667324" lon="6.25473661967142"><ele>302.6666666666667</ele><time>2026-04-22T09:46:58.999Z</time></trkpt><trkpt lat="43.28522957284165" lon="6.254769715231889"><ele>303.0</ele><time>2026-04-22T09:46:59.999Z</time></trkpt><trkpt lat="43.285154824227476" lon="6.254800021028075"><ele>303.3333333333333</ele><time>2026-04-22T09:47:00.999Z</time></trkpt><trkpt lat="43.28507627159813" lon="6.25480970136253"><ele>303.66666666666663</ele><time>2026-04-22T09:47:01.999Z</time></trkpt><trkpt lat="43.2849811221287" lon="6.254818524276577"><ele>304.0</ele><time>2026-04-22T09:47:02.999Z</time></trkpt><trkpt lat="43.28488689406829" lon="6.254816303345357"><ele>304.0</ele><time>2026-04-22T09:47:03.999Z</time></trkpt><trkpt lat="43.28480603028038" lon="6.254804082167628"><ele>304.0</ele><time>2026-04-22T09:47:04.999Z</time></trkpt><trkpt lat="43.284707419603706" lon="6.2547845683055785"><ele>304.0</ele><time>2026-04-22T09:47:05.999Z</time></trkpt><trkpt lat="43.284608444383224" lon="6.254774591605242"><ele>304.0</ele><time>2026-04-22T09:47:06.999Z</time></trkpt><trkpt lat="43.28453215915322" lon="6.254782510435504"><ele>304.0</ele><time>2026-04-22T09:47:07.999Z</time></trkpt><trkpt lat="43.28444790021966" lon="6.2548026142618935"><ele>304.0</ele><time>2026-04-22T09:47:08.999Z</time></trkpt><trkpt lat="43.28435915744219" lon="6.254830560106211"><ele>305.8333333333333</ele><time>2026-04-22T09:47:09.999Z</time></trkpt><trkpt lat="43.28427482541656" lon="6.254856099786386"><ele>307.66666666666663</ele><time>2026-04-22T09:47:10.999Z</time></trkpt><trkpt lat="43.28417782309347" lon="6.254855816681827"><ele>309.5</ele><time>2026-04-22T09:47:11.999Z</time></trkpt><trkpt lat="43.28409441219063" lon="6.254852972958149"><ele>311.3333333333333</ele><time>2026-04-22T09:47:12.999Z</time></trkpt><trkpt lat="43.284027949849616" lon="6.2548459820718545"><ele>313.1666666666667</ele><time>2026-04-22T09:47:13.999Z</time></trkpt><trkpt lat="43.283961774083515" lon="6.25484322331397"><ele>315.0</ele><time>2026-04-22T09:47:14.999Z</time></trkpt><trkpt lat="43.28389371673901" lon="6.254867002325067"><ele>316.6666666666667</ele><time>2026-04-22T09:47:15.999Z</time></trkpt><trkpt lat="43.283830356118195" lon="6.254915936206282"><ele>318.3333333333333</ele><time>2026-04-22T09:47:16.999Z</time></trkpt><trkpt lat="43.28377270805046" lon="6.254975416066206"><ele>320.0</ele><time>2026-04-22T09:47:17.999Z</time></trkpt><trkpt lat="43.28372293955698" lon="6.255053725390642"><ele>321.66666666666663</ele><time>2026-04-22T09:47:18.999Z</time></trkpt><trkpt lat="43.283680375615575" lon="6.255147125497429"><ele>323.3333333333333</ele><time>2026-04-22T09:47:19.999Z</time></trkpt><trkpt lat="43.28361568212801" lon="6.255261562748324"><ele>325.0</ele><time>2026-04-22T09:47:20.999Z</time></trkpt><trkpt lat="43.28354363833276" lon="6.255388572507001"><ele>325.0</ele><time>2026-04-22T09:47:21.999Z</time></trkpt><trkpt lat="43.28349316055141" lon="6.255481127096272"><ele>325.0</ele><time>2026-04-22T09:47:22.999Z</time></trkpt><trkpt lat="43.28345638347841" lon="6.2555565628303444"><ele>325.0</ele><time>2026-04-22T09:47:23.999Z</time></trkpt><trkpt lat="43.283413148786195" lon="6.255635724277179"><ele>325.0</ele><time>2026-04-22T09:47:24.999Z</time></trkpt><trkpt lat="43.283358011539455" lon="6.255714230349383"><ele>325.0</ele><time>2026-04-22T09:47:25.999Z</time></trkpt><trkpt lat="43.283300366124124" lon="6.255763888401583"><ele>325.0</ele><time>2026-04-22T09:47:26.999Z</time></trkpt><trkpt lat="43.28323400414685" lon="6.255804409590983"><ele>325.0</ele><time>2026-04-22T09:47:27.999Z</time></trkpt><trkpt lat="43.283162229007196" lon="6.25582845360069"><ele>324.3333333333333</ele><time>2026-04-22T09:47:28.999Z</time></trkpt><trkpt lat="43.28309204850617" lon="6.255822883654203"><ele>323.66666666666663</ele><time>2026-04-22T09:47:29.999Z</time></trkpt><trkpt lat="43.28302011727004" lon="6.2557928318935305"><ele>323.0</ele><time>2026-04-22T09:47:30.999Z</time></trkpt><trkpt lat="43.28294678245161" lon="6.255742391009432"><ele>322.3333333333333</ele><time>2026-04-22T09:47:31.999Z</time></trkpt><trkpt lat="43.28286044457638" lon="6.255685398883433"><ele>321.6666666666667</ele><time>2026-04-22T09:47:32.999Z</time></trkpt><trkpt lat="43.28276907720438" lon="6.255623144700081"><ele>321.0</ele><time>2026-04-22T09:47:33.999Z</time></trkpt><trkpt lat="43.28266844689357" lon="6.255573559715064"><ele>323.0</ele><time>2026-04-22T09:47:34.999Z</time></trkpt><trkpt lat="43.282569338821425" lon="6.255529178195848"><ele>325.0</ele><time>2026-04-22T09:47:35.999Z</time></trkpt><trkpt lat="43.28247842263698" lon="6.255489239473181"><ele>327.0</ele><time>2026-04-22T09:47:36.999Z</time></trkpt><trkpt lat="43.28238679528364" lon="6.255443991844177"><ele>329.0</ele><time>2026-04-22T09:47:37.999Z</time></trkpt><trkpt lat="43.28231140691953" lon="6.255408834211335"><ele>331.0</ele><time>2026-04-22T09:47:38.999Z</time></trkpt><trkpt lat="43.282226499091756" lon="6.2553751696383735"><ele>332.0</ele><time>2026-04-22T09:47:39.999Z</time></trkpt><trkpt lat="43.28213684208498" lon="6.255343097702783"><ele>333.0</ele><time>2026-04-22T09:47:40.999Z</time></trkpt><trkpt lat="43.28205393629807" lon="6.255311496588804"><ele>334.0</ele><time>2026-04-22T09:47:41.999Z</time></trkpt><trkpt lat="43.28198032038028" lon="6.255297993306746"><ele>335.0</ele><time>2026-04-22T09:47:42.999Z</time></trkpt><trkpt lat="43.281889427417866" lon="6.255306817122529"><ele>336.0</ele><time>2026-04-22T09:47:43.999Z</time></trkpt><trkpt lat="43.281789831604364" lon="6.255333315008118"><ele>337.0</ele><time>2026-04-22T09:47:44.999Z</time></trkpt><trkpt lat="43.281715173043516" lon="6.255372035598706"><ele>337.0</ele><time>2026-04-22T09:47:45.999Z</time></trkpt><trkpt lat="43.2816329159938" lon="6.255431828651186"><ele>337.0</ele><time>2026-04-22T09:47:46.999Z</time></trkpt><trkpt lat="43.281578187982895" lon="6.255496144875769"><ele>337.0</ele><time>2026-04-22T09:47:47.999Z</time></trkpt><trkpt lat="43.28152224990065" lon="6.2555773012121"><ele>337.0</ele><time>2026-04-22T09:47:50Z</time></trkpt><trkpt lat="43.2814538053352" lon="6.255557991005173"><ele>337.0</ele><time>2026-04-22T09:47:53Z</time></trkpt><trkpt lat="43.281453973458575" lon="6.255464663515663"><ele>337.0</ele><time>2026-04-22T09:47:55Z</time></trkpt><trkpt lat="43.281524897488104" lon="6.255367411664381"><ele>337.0</ele><time>2026-04-22T09:47:57Z</time></trkpt><trkpt lat="43.281568792164606" lon="6.255291336793036"><ele>337.0</ele><time>2026-04-22T09:47:58Z</time></trkpt><trkpt lat="43.28157762945013" lon="6.255180415539862"><ele>337.0</ele><time>2026-04-22T09:48:00Z</time></trkpt><trkpt lat="43.28150259352598" lon="6.255057750786267"><ele>337.0</ele><time>2026-04-22T09:48:02Z</time></trkpt><trkpt lat="43.28143429435783" lon="6.255008810764551"><ele>337.0</ele><time>2026-04-22T09:48:03Z</time></trkpt><trkpt lat="43.281361311643906" lon="6.254969496314089"><ele>337.0</ele><time>2026-04-22T09:48:04Z</time></trkpt><trkpt lat="43.28127409365558" lon="6.2549298941556595"><ele>338.8333333333333</ele><time>2026-04-22T09:48:05Z</time></trkpt><trkpt lat="43.28120419238367" lon="6.254879141926765"><ele>340.66666666666663</ele><time>2026-04-22T09:48:06Z</time></trkpt><trkpt lat="43.28113569900949" lon="6.254845452902766"><ele>342.5</ele><time>2026-04-22T09:48:07Z</time></trkpt><trkpt lat="43.281064912867244" lon="6.254835481423946"><ele>344.3333333333333</ele><time>2026-04-22T09:48:08Z</time></trkpt><trkpt lat="43.2809813032533" lon="6.2548467022418555"><ele>346.1666666666667</ele><time>2026-04-22T09:48:09Z</time></trkpt><trkpt lat="43.28090554703449" lon="6.254861586122922"><ele>348.0</ele><time>2026-04-22T09:48:10Z</time></trkpt><trkpt lat="43.28083471627459" lon="6.254908271134913"><ele>348.0</ele><time>2026-04-22T09:48:11Z</time></trkpt><trkpt lat="43.280746755069266" lon="6.254987875792468"><ele>348.0</ele><time>2026-04-22T09:48:12Z</time></trkpt><trkpt lat="43.280661414082324" lon="6.255049920543326"><ele>348.0</ele><time>2026-04-22T09:48:13Z</time></trkpt><trkpt lat="43.2805904915931" lon="6.255112854720492"><ele>348.0</ele><time>2026-04-22T09:48:14Z</time></trkpt><trkpt lat="43.28053544598574" lon="6.255181756377836"><ele>348.0</ele><time>2026-04-22T09:48:15Z</time></trkpt><trkpt lat="43.28050193272337" lon="6.255263606694652"><ele>348.0</ele><time>2026-04-22T09:48:16Z</time></trkpt><trkpt lat="43.28047968286049" lon="6.255370961309133"><ele>347.6666666666667</ele><time>2026-04-22T09:48:17Z</time></trkpt><trkpt lat="43.280458055291284" lon="6.255496580794457"><ele>347.3333333333333</ele><time>2026-04-22T09:48:18Z</time></trkpt><trkpt lat="43.28042618441169" lon="6.2556091966544125"><ele>347.0</ele><time>2026-04-22T09:48:19Z</time></trkpt><trkpt lat="43.28038593154962" lon="6.255694924624476"><ele>346.66666666666663</ele><time>2026-04-22T09:48:20Z</time></trkpt><trkpt lat="43.280329704521556" lon="6.25577475025342"><ele>346.3333333333333</ele><time>2026-04-22T09:48:21Z</time></trkpt><trkpt lat="43.28025607187548" lon="6.255850026988836"><ele>346.0</ele><time>2026-04-22T09:48:22Z</time></trkpt><trkpt lat="43.280181623920654" lon="6.255907538951939"><ele>348.5</ele><time>2026-04-22T09:48:23Z</time></trkpt><trkpt lat="43.28010229323305" lon="6.255957591255539"><ele>351.0</ele><time>2026-04-22T09:48:24Z</time></trkpt><trkpt lat="43.2800133618699" lon="6.255995797061552"><ele>353.5</ele><time>2026-04-22T09:48:25Z</time></trkpt><trkpt lat="43.27993540715544" lon="6.256031716298905"><ele>356.0</ele><time>2026-04-22T09:48:26Z</time></trkpt><trkpt lat="43.27985411273568" lon="6.256046387875434"><ele>358.5</ele><time>2026-04-22T09:48:27Z</time></trkpt><trkpt lat="43.27976149821762" lon="6.256050721472931"><ele>361.0</ele><time>2026-04-22T09:48:28Z</time></trkpt><trkpt lat="43.27966202247071" lon="6.25605128699449"><ele>361.66666666666663</ele><time>2026-04-22T09:48:29Z</time></trkpt><trkpt lat="43.27957712608553" lon="6.2560343024876435"><ele>362.3333333333333</ele><time>2026-04-22T09:48:30Z</time></trkpt><trkpt lat="43.279499254066714" lon="6.256003979836355"><ele>363.0</ele><time>2026-04-22T09:48:31Z</time></trkpt><trkpt lat="43.279432354152036" lon="6.255959683500919"><ele>363.6666666666667</ele><time>2026-04-22T09:48:32Z</time></trkpt><trkpt lat="43.27934271827827" lon="6.255887214914981"><ele>364.33333333333337</ele><time>2026-04-22T09:48:34Z</time></trkpt><trkpt lat="43.279285245605315" lon="6.255933438660344"><ele>365.0</ele><time>2026-04-22T09:48:36Z</time></trkpt><trkpt lat="43.279302079509655" lon="6.256040738980607"><ele>365.0</ele><time>2026-04-22T09:48:39Z</time></trkpt><trkpt lat="43.27938033931691" lon="6.256096517463804"><ele>365.0</ele><time>2026-04-22T09:48:40.999Z</time></trkpt><trkpt lat="43.27945861451839" lon="6.256115414136779"><ele>365.0</ele><time>2026-04-22T09:48:41.999Z</time></trkpt><trkpt lat="43.27953633164004" lon="6.256144177077086"><ele>365.0</ele><time>2026-04-22T09:48:42.999Z</time></trkpt><trkpt lat="43.279618431717225" lon="6.256201644289425"><ele>365.0</ele><time>2026-04-22T09:48:43.999Z</time></trkpt><trkpt lat="43.2796926460019" lon="6.256266961093305"><ele>365.0</ele><time>2026-04-22T09:48:44.999Z</time></trkpt><trkpt lat="43.27977120040202" lon="6.256314643133094"><ele>364.33333333333337</ele><time>2026-04-22T09:48:45.999Z</time></trkpt><trkpt lat="43.27983276932634" lon="6.256355753811484"><ele>363.6666666666667</ele><time>2026-04-22T09:48:46.999Z</time></trkpt><trkpt lat="43.27993757853249" lon="6.256392366827606"><ele>363.0</ele><time>2026-04-22T09:48:47.999Z</time></trkpt><trkpt lat="43.28002853675236" lon="6.256395927732268"><ele>362.3333333333333</ele><time>2026-04-22T09:48:48.999Z</time></trkpt><trkpt lat="43.28009873855544" lon="6.256392166127716"><ele>361.66666666666663</ele><time>2026-04-22T09:48:49.999Z</time></trkpt><trkpt lat="43.28020469376314" lon="6.256405494455666"><ele>361.0</ele><time>2026-04-22T09:48:51.999Z</time></trkpt><trkpt lat="43.28027820016354" lon="6.256489467540694"><ele>363.4</ele><time>2026-04-22T09:48:53.999Z</time></trkpt><trkpt lat="43.28026861718646" lon="6.256610500568557"><ele>365.8</ele><time>2026-04-22T09:48:55.999Z</time></trkpt><trkpt lat="43.28018647273692" lon="6.256709901264311"><ele>368.2</ele><time>2026-04-22T09:48:57.999Z</time></trkpt><trkpt lat="43.28013107344892" lon="6.256757691858934"><ele>370.59999999999997</ele><time>2026-04-22T09:48:58.999Z</time></trkpt><trkpt lat="43.28007216160855" lon="6.256813568708699"><ele>373.0</ele><time>2026-04-22T09:48:59.999Z</time></trkpt><trkpt lat="43.279962892144276" lon="6.256909738148204"><ele>373.0</ele><time>2026-04-22T09:49:01.999Z</time></trkpt><trkpt lat="43.27990263617158" lon="6.2569810883026715"><ele>373.0</ele><time>2026-04-22T09:49:02.999Z</time></trkpt><trkpt lat="43.27982731496148" lon="6.257078073561817"><ele>373.0</ele><time>2026-04-22T09:49:03.999Z</time></trkpt><trkpt lat="43.27973615682116" lon="6.257191664896507"><ele>373.0</ele><time>2026-04-22T09:49:04.999Z</time></trkpt><trkpt lat="43.27963604739547" lon="6.25732450481567"><ele>373.0</ele><time>2026-04-22T09:49:05.999Z</time></trkpt><trkpt lat="43.279521837247906" lon="6.257464683525296"><ele>376.0</ele><time>2026-04-22T09:49:06.999Z</time></trkpt><trkpt lat="43.27942731838709" lon="6.257570644927178"><ele>379.0</ele><time>2026-04-22T09:49:07.999Z</time></trkpt><trkpt lat="43.279353687226234" lon="6.257663961385584"><ele>382.0</ele><time>2026-04-22T09:49:08.999Z</time></trkpt><trkpt lat="43.27928642597562" lon="6.257755727586126"><ele>385.0</ele><time>2026-04-22T09:49:09.999Z</time></trkpt><trkpt lat="43.27922843055125" lon="6.257822644413026"><ele>388.0</ele><time>2026-04-22T09:49:10.999Z</time></trkpt><trkpt lat="43.27916941611152" lon="6.257884990961955"><ele>388.0</ele><time>2026-04-22T09:49:12.999Z</time></trkpt><trkpt lat="43.27910762365969" lon="6.257822552876056"><ele>388.0</ele><time>2026-04-22T09:49:15.999Z</time></trkpt><trkpt lat="43.27911343437028" lon="6.257714872923763"><ele>388.0</ele><time>2026-04-22T09:49:17.999Z</time></trkpt><trkpt lat="43.27918745523426" lon="6.25760912572767"><ele>388.0</ele><time>2026-04-22T09:49:19.999Z</time></trkpt><trkpt lat="43.27927445755651" lon="6.257473226918745"><ele>388.0</ele><time>2026-04-22T09:49:21.999Z</time></trkpt><trkpt lat="43.279307718814195" lon="6.257395463646234"><ele>388.00000000000006</ele><time>2026-04-22T09:49:22.999Z</time></trkpt><trkpt lat="43.2793244172437" lon="6.257292569171505"><ele>388.0</ele><time>2026-04-22T09:49:23.999Z</time></trkpt><trkpt lat="43.27932186786675" lon="6.257197221888274"><ele>388.0</ele><time>2026-04-22T09:49:24.999Z</time></trkpt><trkpt lat="43.27927096023749" lon="6.257062857433344"><ele>388.0</ele><time>2026-04-22T09:49:26.999Z</time></trkpt><trkpt lat="43.279199203458056" lon="6.2569844579614795"><ele>388.00000000000006</ele><time>2026-04-22T09:49:28.999Z</time></trkpt><trkpt lat="43.279131337667515" lon="6.2569639815362565"><ele>388.0</ele><time>2026-04-22T09:49:29.999Z</time></trkpt><trkpt lat="43.27898285442567" lon="6.256877449861642"><ele>389.57142857142856</ele><time>2026-04-22T09:49:31.999Z</time></trkpt><trkpt lat="43.27890579984214" lon="6.256842348836719"><ele>391.14285714285717</ele><time>2026-04-22T09:49:32.999Z</time></trkpt><trkpt lat="43.27883493551759" lon="6.256800525980145"><ele>392.7142857142857</ele><time>2026-04-22T09:49:33.999Z</time></trkpt><trkpt lat="43.278776358373364" lon="6.25675710619902"><ele>394.2857142857143</ele><time>2026-04-22T09:49:34.999Z</time></trkpt><trkpt lat="43.27869811209438" lon="6.2567042318332335"><ele>395.8571428571429</ele><time>2026-04-22T09:49:36.999Z</time></trkpt><trkpt lat="43.2786344985501" lon="6.256705817383349"><ele>397.42857142857144</ele><time>2026-04-22T09:49:38.999Z</time></trkpt><trkpt lat="43.278610193437714" lon="6.256797939777916"><ele>399.0</ele><time>2026-04-22T09:49:41.999Z</time></trkpt><trkpt lat="43.2786745976948" lon="6.256851466448692"><ele>399.0</ele><time>2026-04-22T09:49:43.999Z</time></trkpt><trkpt lat="43.27878290259686" lon="6.256896247832806"><ele>399.0</ele><time>2026-04-22T09:49:45.999Z</time></trkpt><trkpt lat="43.2788546323023" lon="6.2570091851280525"><ele>399.0</ele><time>2026-04-22T09:49:47.999Z</time></trkpt><trkpt lat="43.278900979379586" lon="6.257138372291602"><ele>399.0</ele><time>2026-04-22T09:49:49.999Z</time></trkpt><trkpt lat="43.27890794842796" lon="6.257300634161226"><ele>399.0</ele><time>2026-04-22T09:49:51.999Z</time></trkpt><trkpt lat="43.278842596780336" lon="6.2574332695806625"><ele>400.1666666666667</ele><time>2026-04-22T09:49:53.999Z</time></trkpt><trkpt lat="43.27878689502887" lon="6.257495574188313"><ele>401.33333333333337</ele><time>2026-04-22T09:49:54.999Z</time></trkpt><trkpt lat="43.27872661154738" lon="6.257549407877492"><ele>402.5</ele><time>2026-04-22T09:49:56Z</time></trkpt><trkpt lat="43.27865942705302" lon="6.2576076217500285"><ele>403.6666666666667</ele><time>2026-04-22T09:49:57Z</time></trkpt><trkpt lat="43.2785843515088" lon="6.257664683120948"><ele>404.83333333333337</ele><time>2026-04-22T09:49:58Z</time></trkpt><trkpt lat="43.278514747316265" lon="6.257719293000999"><ele>406.0</ele><time>2026-04-22T09:49:59Z</time></trkpt><trkpt lat="43.27843075006266" lon="6.257772987335358"><ele>406.0</ele><time>2026-04-22T09:50:00Z</time></trkpt><trkpt lat="43.27835062529327" lon="6.257815661387661"><ele>406.0</ele><time>2026-04-22T09:50:01Z</time></trkpt><trkpt lat="43.27826554961741" lon="6.257868057605349"><ele>406.0</ele><time>2026-04-22T09:50:02Z</time></trkpt><trkpt lat="43.27817094241878" lon="6.257927988974943"><ele>406.0</ele><time>2026-04-22T09:50:03Z</time></trkpt><trkpt lat="43.27809430360178" lon="6.25798526850228"><ele>406.0</ele><time>2026-04-22T09:50:04Z</time></trkpt><trkpt lat="43.27801543421065" lon="6.258059518362828"><ele>407.20000000000005</ele><time>2026-04-22T09:50:05Z</time></trkpt><trkpt lat="43.2779410461289" lon="6.2581176706888595"><ele>408.40000000000003</ele><time>2026-04-22T09:50:06Z</time></trkpt><trkpt lat="43.27786859831289" lon="6.258216961231399"><ele>409.6</ele><time>2026-04-22T09:50:07Z</time></trkpt><trkpt lat="43.2777873397234" lon="6.258304599206971"><ele>410.8</ele><time>2026-04-22T09:50:08Z</time></trkpt><trkpt lat="43.27771067031742" lon="6.2583754285637"><ele>412.0</ele><time>2026-04-22T09:50:09Z</time></trkpt><trkpt lat="43.277647231633146" lon="6.2584363099388"><ele>411.99999999999994</ele><time>2026-04-22T09:50:10Z</time></trkpt><trkpt lat="43.277583785992086" lon="6.2584843474135265"><ele>412.0</ele><time>2026-04-22T09:50:11Z</time></trkpt><trkpt lat="43.27751496957864" lon="6.258513514547861"><ele>412.0</ele><time>2026-04-22T09:50:12Z</time></trkpt><trkpt lat="43.277441387179245" lon="6.258518680325496"><ele>412.0</ele><time>2026-04-22T09:50:13Z</time></trkpt><trkpt lat="43.27737880092401" lon="6.258493321548933"><ele>412.0</ele><time>2026-04-22T09:50:14Z</time></trkpt><trkpt lat="43.27731384510883" lon="6.258445383511726"><ele>411.99999999999994</ele><time>2026-04-22T09:50:15Z</time></trkpt><trkpt lat="43.27723880655731" lon="6.258381840905733"><ele>412.0</ele><time>2026-04-22T09:50:16Z</time></trkpt><trkpt lat="43.27716258807286" lon="6.25832707090167"><ele>412.20000000000005</ele><time>2026-04-22T09:50:17Z</time></trkpt><trkpt lat="43.27706969198154" lon="6.258304639647714"><ele>412.4</ele><time>2026-04-22T09:50:18Z</time></trkpt><trkpt lat="43.27696525637611" lon="6.258283557834306"><ele>412.6</ele><time>2026-04-22T09:50:19Z</time></trkpt><trkpt lat="43.276873261522404" lon="6.258249769921816"><ele>412.79999999999995</ele><time>2026-04-22T09:50:20Z</time></trkpt><trkpt lat="43.27677988701895" lon="6.25820904831426"><ele>413.0</ele><time>2026-04-22T09:50:21Z</time></trkpt><trkpt lat="43.27667969943464" lon="6.2581821664075"><ele>413.0</ele><time>2026-04-22T09:50:22Z</time></trkpt><trkpt lat="43.276580710605316" lon="6.258161778175631"><ele>413.0</ele><time>2026-04-22T09:50:23Z</time></trkpt><trkpt lat="43.27650089475112" lon="6.2581608580489805"><ele>413.0</ele><time>2026-04-22T09:50:24Z</time></trkpt><trkpt lat="43.27639639058765" lon="6.258193141513978"><ele>413.0</ele><time>2026-04-22T09:50:25Z</time></trkpt><trkpt lat="43.27629321957105" lon="6.258217109289754"><ele>413.0</ele><time>2026-04-22T09:50:26Z</time></trkpt><trkpt lat="43.276200688948364" lon="6.258247404300282"><ele>413.99999999999994</ele><time>2026-04-22T09:50:27Z</time></trkpt><trkpt lat="43.276101889037825" lon="6.258272800322409"><ele>415.0</ele><time>2026-04-22T09:50:28Z</time></trkpt><trkpt lat="43.275997325873085" lon="6.258292879247878"><ele>416.0</ele><time>2026-04-22T09:50:29Z</time></trkpt><trkpt lat="43.27591177483175" lon="6.258320424981584"><ele>417.0</ele><time>2026-04-22T09:50:30Z</time></trkpt><trkpt lat="43.27583745599093" lon="6.258331749999066"><ele>417.99999999999994</ele><time>2026-04-22T09:50:31Z</time></trkpt><trkpt lat="43.275763707882376" lon="6.258341124869995"><ele>419.0</ele><time>2026-04-22T09:50:32Z</time></trkpt><trkpt lat="43.27568757518439" lon="6.258320024190097"><ele>419.2</ele><time>2026-04-22T09:50:33Z</time></trkpt><trkpt lat="43.27559711679849" lon="6.2582768566120235"><ele>419.4</ele><time>2026-04-22T09:50:34Z</time></trkpt><trkpt lat="43.27551528327063" lon="6.258226868021933"><ele>419.6</ele><time>2026-04-22T09:50:35Z</time></trkpt><trkpt lat="43.27541982829923" lon="6.258169010856622"><ele>419.8</ele><time>2026-04-22T09:50:36Z</time></trkpt><trkpt lat="43.27531991747378" lon="6.258113270896013"><ele>420.0</ele><time>2026-04-22T09:50:37Z</time></trkpt><trkpt lat="43.27523550584896" lon="6.2580517063775964"><ele>420.8</ele><time>2026-04-22T09:50:38Z</time></trkpt><trkpt lat="43.27514248562487" lon="6.2579928191499645"><ele>421.6</ele><time>2026-04-22T09:50:39Z</time></trkpt><trkpt lat="43.27502877304324" lon="6.257954693944307"><ele>422.4</ele><time>2026-04-22T09:50:40Z</time></trkpt><trkpt lat="43.27494633207668" lon="6.2578934465778895"><ele>423.2</ele><time>2026-04-22T09:50:41Z</time></trkpt><trkpt lat="43.274855081744846" lon="6.257862090572497"><ele>424.0</ele><time>2026-04-22T09:50:42Z</time></trkpt><trkpt lat="43.27476182630896" lon="6.257859290966765"><ele>425.1666666666667</ele><time>2026-04-22T09:50:43Z</time></trkpt><trkpt lat="43.27466344585907" lon="6.257860281661851"><ele>426.33333333333337</ele><time>2026-04-22T09:50:44Z</time></trkpt><trkpt lat="43.27457042606177" lon="6.257861358430255"><ele>427.5</ele><time>2026-04-22T09:50:45Z</time></trkpt><trkpt lat="43.27448511107824" lon="6.257839863927917"><ele>428.66666666666663</ele><time>2026-04-22T09:50:46Z</time></trkpt><trkpt lat="43.27440255920772" lon="6.257805801952466"><ele>429.8333333333333</ele><time>2026-04-22T09:50:47Z</time></trkpt><trkpt lat="43.27432264703882" lon="6.257773076501349"><ele>431.0</ele><time>2026-04-22T09:50:48Z</time></trkpt><trkpt lat="43.274254015846964" lon="6.257737579792093"><ele>430.99999999999994</ele><time>2026-04-22T09:50:49Z</time></trkpt><trkpt lat="43.2741805666919" lon="6.257715548214681"><ele>431.0</ele><time>2026-04-22T09:50:50Z</time></trkpt><trkpt lat="43.27411209257335" lon="6.257727116414887"><ele>431.0</ele><time>2026-04-22T09:50:51Z</time></trkpt><trkpt lat="43.27403820600876" lon="6.257759322926247"><ele>431.0</ele><time>2026-04-22T09:50:52Z</time></trkpt><trkpt lat="43.27397897209131" lon="6.2578066472709635"><ele>430.99999999999994</ele><time>2026-04-22T09:50:53Z</time></trkpt><trkpt lat="43.273908448324654" lon="6.257864549412963"><ele>431.0</ele><time>2026-04-22T09:50:54Z</time></trkpt><trkpt lat="43.273845827682344" lon="6.25792652561462"><ele>431.3333333333333</ele><time>2026-04-22T09:50:55Z</time></trkpt><trkpt lat="43.27378303883771" lon="6.258001387598239"><ele>431.66666666666663</ele><time>2026-04-22T09:50:55.999Z</time></trkpt><trkpt lat="43.27370109260357" lon="6.258069914830636"><ele>432.0</ele><time>2026-04-22T09:50:56.999Z</time></trkpt><trkpt lat="43.273612239196886" lon="6.25811457663912"><ele>432.33333333333337</ele><time>2026-04-22T09:50:57.999Z</time></trkpt><trkpt lat="43.27351679290239" lon="6.2581396582877575"><ele>432.6666666666667</ele><time>2026-04-22T09:50:58.999Z</time></trkpt><trkpt lat="43.27344133408253" lon="6.258167480582984"><ele>433.0</ele><time>2026-04-22T09:50:59.999Z</time></trkpt><trkpt lat="43.273353185282126" lon="6.258176833302198"><ele>435.83333333333337</ele><time>2026-04-22T09:51:00.999Z</time></trkpt><trkpt lat="43.273265064338375" lon="6.258180331523436"><ele>438.6666666666667</ele><time>2026-04-22T09:51:01.999Z</time></trkpt><trkpt lat="43.273176076284166" lon="6.258176804504822"><ele>441.5</ele><time>2026-04-22T09:51:02.999Z</time></trkpt><trkpt lat="43.273102246013224" lon="6.258184394874919"><ele>444.33333333333337</ele><time>2026-04-22T09:51:03.999Z</time></trkpt><trkpt lat="43.27301593537422" lon="6.258195295785858"><ele>447.1666666666667</ele><time>2026-04-22T09:51:04.999Z</time></trkpt><trkpt lat="43.272937391639225" lon="6.2582068709607235"><ele>450.0</ele><time>2026-04-22T09:51:05.999Z</time></trkpt><trkpt lat="43.272847799637916" lon="6.258230323786642"><ele>452.0</ele><time>2026-04-22T09:51:06.999Z</time></trkpt><trkpt lat="43.272762498720944" lon="6.258246877383024"><ele>454.0</ele><time>2026-04-22T09:51:07.999Z</time></trkpt><trkpt lat="43.27266784023928" lon="6.2582562191312245"><ele>456.0</ele><time>2026-04-22T09:51:08.999Z</time></trkpt><trkpt lat="43.27256285483189" lon="6.258259091415265"><ele>458.0</ele><time>2026-04-22T09:51:09.999Z</time></trkpt><trkpt lat="43.27245581498727" lon="6.258250259475638"><ele>460.0</ele><time>2026-04-22T09:51:10.999Z</time></trkpt><trkpt lat="43.27235525271409" lon="6.258236849980041"><ele>459.4</ele><time>2026-04-22T09:51:11.999Z</time></trkpt><trkpt lat="43.2722593494231" lon="6.258217283019639"><ele>458.8</ele><time>2026-04-22T09:51:12.999Z</time></trkpt><trkpt lat="43.272155079487035" lon="6.258187479964787"><ele>458.20000000000005</ele><time>2026-04-22T09:51:13.999Z</time></trkpt><trkpt lat="43.27208103803202" lon="6.258144206035668"><ele>457.6</ele><time>2026-04-22T09:51:14.999Z</time></trkpt><trkpt lat="43.27199590032642" lon="6.25809235105107"><ele>457.0</ele><time>2026-04-22T09:51:15.999Z</time></trkpt><trkpt lat="43.271913311232936" lon="6.258046177022032"><ele>457.0</ele><time>2026-04-22T09:51:16.999Z</time></trkpt><trkpt lat="43.27181591739647" lon="6.258004773564629"><ele>457.00000000000006</ele><time>2026-04-22T09:51:17.999Z</time></trkpt><trkpt lat="43.27173278028642" lon="6.257977217492336"><ele>457.00000000000006</ele><time>2026-04-22T09:51:18.999Z</time></trkpt><trkpt lat="43.27166713268465" lon="6.257944525796535"><ele>457.0</ele><time>2026-04-22T09:51:19.999Z</time></trkpt><trkpt lat="43.27155768957259" lon="6.257888897686634"><ele>457.0</ele><time>2026-04-22T09:51:21.999Z</time></trkpt><trkpt lat="43.2714745279575" lon="6.257889849516349"><ele>460.1666666666667</ele><time>2026-04-22T09:51:22.999Z</time></trkpt><trkpt lat="43.27138566884923" lon="6.257858355479652"><ele>463.33333333333337</ele><time>2026-04-22T09:51:23.999Z</time></trkpt><trkpt lat="43.271303052700404" lon="6.257821960307484"><ele>466.5</ele><time>2026-04-22T09:51:24.999Z</time></trkpt><trkpt lat="43.27122905873948" lon="6.257792408782038"><ele>469.66666666666663</ele><time>2026-04-22T09:51:25.999Z</time></trkpt><trkpt lat="43.27115513212819" lon="6.257756130787774"><ele>472.8333333333333</ele><time>2026-04-22T09:51:26.999Z</time></trkpt><trkpt lat="43.271067871617255" lon="6.257727603893672"><ele>476.0</ele><time>2026-04-22T09:51:27.999Z</time></trkpt><trkpt lat="43.270993835623" lon="6.257694512035808"><ele>475.99999999999994</ele><time>2026-04-22T09:51:28.999Z</time></trkpt><trkpt lat="43.2709110606492" lon="6.257658724118399"><ele>476.0</ele><time>2026-04-22T09:51:29.999Z</time></trkpt><trkpt lat="43.27082534808966" lon="6.257619875315158"><ele>476.0</ele><time>2026-04-22T09:51:30.999Z</time></trkpt><trkpt lat="43.270759076612585" lon="6.257543048761124"><ele>476.0</ele><time>2026-04-22T09:51:31.999Z</time></trkpt><trkpt lat="43.27070378650725" lon="6.257426765019542"><ele>475.99999999999994</ele><time>2026-04-22T09:51:32.999Z</time></trkpt><trkpt lat="43.27067529474287" lon="6.257337052518"><ele>476.0</ele><time>2026-04-22T09:51:33.999Z</time></trkpt><trkpt lat="43.270639017037475" lon="6.257246389122143"><ele>476.99999999999994</ele><time>2026-04-22T09:51:34.999Z</time></trkpt><trkpt lat="43.27056087557802" lon="6.2571218706836955"><ele>478.0</ele><time>2026-04-22T09:51:36.999Z</time></trkpt><trkpt lat="43.27050629766486" lon="6.257069508819964"><ele>479.0</ele><time>2026-04-22T09:51:37.999Z</time></trkpt><trkpt lat="43.27045177096396" lon="6.257012801592724"><ele>480.0</ele><time>2026-04-22T09:51:38.999Z</time></trkpt><trkpt lat="43.27037161927959" lon="6.256955069922914"><ele>480.99999999999994</ele><time>2026-04-22T09:51:39.999Z</time></trkpt><trkpt lat="43.27028995304395" lon="6.256883333750149"><ele>482.0</ele><time>2026-04-22T09:51:40.999Z</time></trkpt><trkpt lat="43.27021906185211" lon="6.256806755355388"><ele>482.0</ele><time>2026-04-22T09:51:41.999Z</time></trkpt><trkpt lat="43.27014912595881" lon="6.256725617150967"><ele>482.00000000000006</ele><time>2026-04-22T09:51:42.999Z</time></trkpt><trkpt lat="43.270078418888964" lon="6.256619836491811"><ele>482.00000000000006</ele><time>2026-04-22T09:51:43.999Z</time></trkpt><trkpt lat="43.270002333579264" lon="6.2565020298210765"><ele>482.0</ele><time>2026-04-22T09:51:44.999Z</time></trkpt><trkpt lat="43.269937743498836" lon="6.256405923936127"><ele>482.0</ele><time>2026-04-22T09:51:45.999Z</time></trkpt><trkpt lat="43.26986099141717" lon="6.256304631086912"><ele>481.8</ele><time>2026-04-22T09:51:46.999Z</time></trkpt><trkpt lat="43.269792949122476" lon="6.256190137860961"><ele>481.6</ele><time>2026-04-22T09:51:47.999Z</time></trkpt><trkpt lat="43.269733445816556" lon="6.256071086096667"><ele>481.40000000000003</ele><time>2026-04-22T09:51:48.999Z</time></trkpt><trkpt lat="43.26968390312569" lon="6.255950997345187"><ele>481.20000000000005</ele><time>2026-04-22T09:51:49.999Z</time></trkpt><trkpt lat="43.26963618554234" lon="6.255828608377899"><ele>481.0</ele><time>2026-04-22T09:51:50.999Z</time></trkpt><trkpt lat="43.26958085050455" lon="6.255724004774334"><ele>484.4</ele><time>2026-04-22T09:51:51.999Z</time></trkpt><trkpt lat="43.26954222636155" lon="6.2556148700719545"><ele>487.8</ele><time>2026-04-22T09:51:52.999Z</time></trkpt><trkpt lat="43.269493192113224" lon="6.2555011749124425"><ele>491.19999999999993</ele><time>2026-04-22T09:51:53.999Z</time></trkpt><trkpt lat="43.26943486753938" lon="6.255381303630766"><ele>494.59999999999997</ele><time>2026-04-22T09:51:54.999Z</time></trkpt><trkpt lat="43.26939142432595" lon="6.2552794734088275"><ele>498.0</ele><time>2026-04-22T09:51:55.999Z</time></trkpt><trkpt lat="43.26934512202767" lon="6.255128492943268"><ele>498.0</ele><time>2026-04-22T09:51:57.999Z</time></trkpt><trkpt lat="43.269296412389224" lon="6.255003732505951"><ele>498.0</ele><time>2026-04-22T09:51:59.999Z</time></trkpt><trkpt lat="43.26923407981465" lon="6.254942726726833"><ele>498.0</ele><time>2026-04-22T09:52:02Z</time></trkpt><trkpt lat="43.26912137222329" lon="6.254881473546262"><ele>498.0</ele><time>2026-04-22T09:52:04Z</time></trkpt><trkpt lat="43.26905700397192" lon="6.254881013978076"><ele>498.0</ele><time>2026-04-22T09:52:05Z</time></trkpt><trkpt lat="43.2689878395364" lon="6.254890065754427"><ele>498.0</ele><time>2026-04-22T09:52:06Z</time></trkpt><trkpt lat="43.26892024543231" lon="6.254900435303357"><ele>496.8333333333333</ele><time>2026-04-22T09:52:07Z</time></trkpt><trkpt lat="43.26881662397414" lon="6.254893535664045"><ele>495.66666666666663</ele><time>2026-04-22T09:52:09Z</time></trkpt><trkpt lat="43.268757595923375" lon="6.254850149085658"><ele>494.5</ele><time>2026-04-22T09:52:10Z</time></trkpt><trkpt lat="43.26869372831584" lon="6.254790752250276"><ele>493.3333333333333</ele><time>2026-04-22T09:52:11Z</time></trkpt><trkpt lat="43.26861804189284" lon="6.25472002245851"><ele>492.16666666666663</ele><time>2026-04-22T09:52:12Z</time></trkpt><trkpt lat="43.268521448388775" lon="6.254652671645605"><ele>491.0</ele><time>2026-04-22T09:52:13Z</time></trkpt><trkpt lat="43.26843620165245" lon="6.254545956961947"><ele>493.25</ele><time>2026-04-22T09:52:14Z</time></trkpt><trkpt lat="43.268339492630865" lon="6.254453332582627"><ele>495.5</ele><time>2026-04-22T09:52:15Z</time></trkpt><trkpt lat="43.268217994369586" lon="6.2543605972885645"><ele>497.75</ele><time>2026-04-22T09:52:16Z</time></trkpt><trkpt lat="43.26810724825827" lon="6.25424014916102"><ele>500.0</ele><time>2026-04-22T09:52:17Z</time></trkpt><trkpt lat="43.26799663445432" lon="6.254164098670183"><ele>500.0</ele><time>2026-04-22T09:52:18Z</time></trkpt><trkpt lat="43.26789677688597" lon="6.25408213418049"><ele>500.0</ele><time>2026-04-22T09:52:19Z</time></trkpt><trkpt lat="43.26781138836536" lon="6.254012135395319"><ele>500.0</ele><time>2026-04-22T09:52:20Z</time></trkpt><trkpt lat="43.26774409695545" lon="6.253954077077854"><ele>500.0</ele><time>2026-04-22T09:52:21Z</time></trkpt><trkpt lat="43.267667021457" lon="6.253903532303427"><ele>500.0</ele><time>2026-04-22T09:52:22Z</time></trkpt><trkpt lat="43.26758033186972" lon="6.253853347901963"><ele>502.0</ele><time>2026-04-22T09:52:23Z</time></trkpt><trkpt lat="43.267468888235264" lon="6.253846167322585"><ele>504.0</ele><time>2026-04-22T09:52:24Z</time></trkpt><trkpt lat="43.26737462643456" lon="6.253853351281967"><ele>506.0</ele><time>2026-04-22T09:52:25Z</time></trkpt><trkpt lat="43.26728808394334" lon="6.253852962132912"><ele>508.0</ele><time>2026-04-22T09:52:26Z</time></trkpt><trkpt lat="43.26719212756675" lon="6.253863174579178"><ele>510.0</ele><time>2026-04-22T09:52:27Z</time></trkpt><trkpt lat="43.26708823938315" lon="6.253835259294571"><ele>509.0</ele><time>2026-04-22T09:52:28Z</time></trkpt><trkpt lat="43.26699206525235" lon="6.25381606950065"><ele>508.0</ele><time>2026-04-22T09:52:29Z</time></trkpt><trkpt lat="43.26690327998042" lon="6.253795227300491"><ele>507.0</ele><time>2026-04-22T09:52:30Z</time></trkpt><trkpt lat="43.26681637032439" lon="6.2538067901710415"><ele>506.0</ele><time>2026-04-22T09:52:31Z</time></trkpt><trkpt lat="43.26673551444509" lon="6.253861758349902"><ele>505.0</ele><time>2026-04-22T09:52:32Z</time></trkpt><trkpt lat="43.26665898962832" lon="6.253888285373626"><ele>504.0</ele><time>2026-04-22T09:52:33Z</time></trkpt><trkpt lat="43.2665877493346" lon="6.253982845004096"><ele>504.0</ele><time>2026-04-22T09:52:34Z</time></trkpt><trkpt lat="43.26649030394678" lon="6.254088421439662"><ele>504.0</ele><time>2026-04-22T09:52:35Z</time></trkpt><trkpt lat="43.266423821881084" lon="6.254168481580646"><ele>504.0</ele><time>2026-04-22T09:52:36Z</time></trkpt><trkpt lat="43.26634678152714" lon="6.254242250050287"><ele>504.0</ele><time>2026-04-22T09:52:37Z</time></trkpt><trkpt lat="43.26627603046305" lon="6.254346255393296"><ele>504.0</ele><time>2026-04-22T09:52:38Z</time></trkpt><trkpt lat="43.266210337543264" lon="6.254468842938412"><ele>506.0</ele><time>2026-04-22T09:52:39Z</time></trkpt><trkpt lat="43.26615763360521" lon="6.254577696790789"><ele>508.0</ele><time>2026-04-22T09:52:40Z</time></trkpt><trkpt lat="43.266116063989195" lon="6.254695295461122"><ele>510.0</ele><time>2026-04-22T09:52:41Z</time></trkpt><trkpt lat="43.26606758285576" lon="6.254806724584826"><ele>512.0</ele><time>2026-04-22T09:52:42Z</time></trkpt><trkpt lat="43.26603306864568" lon="6.2549148238296155"><ele>514.0</ele><time>2026-04-22T09:52:43Z</time></trkpt><trkpt lat="43.26597547877216" lon="6.255063961436256"><ele>514.0</ele><time>2026-04-22T09:52:44Z</time></trkpt><trkpt lat="43.265924612902495" lon="6.255211545064353"><ele>514.0</ele><time>2026-04-22T09:52:45Z</time></trkpt><trkpt lat="43.26587118511893" lon="6.2553383089219246"><ele>514.0</ele><time>2026-04-22T09:52:46Z</time></trkpt><trkpt lat="43.265824538890264" lon="6.255483614922315"><ele>514.0</ele><time>2026-04-22T09:52:47Z</time></trkpt><trkpt lat="43.26577878592702" lon="6.255613222253924"><ele>514.0</ele><time>2026-04-22T09:52:48Z</time></trkpt><trkpt lat="43.26573780010502" lon="6.255721420474451"><ele>514.1666666666667</ele><time>2026-04-22T09:52:49Z</time></trkpt><trkpt lat="43.26569916264838" lon="6.255823419265323"><ele>514.3333333333334</ele><time>2026-04-22T09:52:50Z</time></trkpt><trkpt lat="43.265661993259876" lon="6.255911687165964"><ele>514.5</ele><time>2026-04-22T09:52:51Z</time></trkpt><trkpt lat="43.26562234569382" lon="6.256013947317975"><ele>514.6666666666666</ele><time>2026-04-22T09:52:52Z</time></trkpt><trkpt lat="43.26555486510777" lon="6.256081164809578"><ele>514.8333333333333</ele><time>2026-04-22T09:52:53Z</time></trkpt><trkpt lat="43.26548243822195" lon="6.256152576963143"><ele>515.0</ele><time>2026-04-22T09:52:54Z</time></trkpt><trkpt lat="43.26540074436" lon="6.256221614229335"><ele>515.0</ele><time>2026-04-22T09:52:55Z</time></trkpt><trkpt lat="43.26531070028021" lon="6.256283677201375"><ele>515.0</ele><time>2026-04-22T09:52:56Z</time></trkpt><trkpt lat="43.265221961996666" lon="6.256368466046073"><ele>515.0</ele><time>2026-04-22T09:52:57Z</time></trkpt><trkpt lat="43.26511834165074" lon="6.2564358248769265"><ele>515.0</ele><time>2026-04-22T09:52:58Z</time></trkpt><trkpt lat="43.265026589092265" lon="6.256495799992653"><ele>515.0</ele><time>2026-04-22T09:52:59Z</time></trkpt><trkpt lat="43.264939848253135" lon="6.256544670804272"><ele>511.8</ele><time>2026-04-22T09:52:59.999Z</time></trkpt><trkpt lat="43.26485789235951" lon="6.256596121830329"><ele>508.6</ele><time>2026-04-22T09:53:00.999Z</time></trkpt><trkpt lat="43.264766264808486" lon="6.256649417012747"><ele>505.4</ele><time>2026-04-22T09:53:01.999Z</time></trkpt><trkpt lat="43.26468561806084" lon="6.256692933580647"><ele>502.2</ele><time>2026-04-22T09:53:02.999Z</time></trkpt><trkpt lat="43.264596231913636" lon="6.256742420373254"><ele>499.0</ele><time>2026-04-22T09:53:03.999Z</time></trkpt><trkpt lat="43.26451103916244" lon="6.256802055217371"><ele>499.00000000000006</ele><time>2026-04-22T09:53:04.999Z</time></trkpt><trkpt lat="43.26444185223107" lon="6.256854083872029"><ele>499.0</ele><time>2026-04-22T09:53:05.999Z</time></trkpt><trkpt lat="43.26435593259362" lon="6.256915324410532"><ele>499.0</ele><time>2026-04-22T09:53:06.999Z</time></trkpt><trkpt lat="43.26427811441727" lon="6.256963740541619"><ele>499.0</ele><time>2026-04-22T09:53:07.999Z</time></trkpt><trkpt lat="43.26422130567679" lon="6.257034590919633"><ele>499.00000000000006</ele><time>2026-04-22T09:53:08.999Z</time></trkpt><trkpt lat="43.264184354539395" lon="6.257106364657689"><ele>499.0</ele><time>2026-04-22T09:53:09.999Z</time></trkpt><trkpt lat="43.264138201479376" lon="6.257216399513744"><ele>496.33333333333337</ele><time>2026-04-22T09:53:10.999Z</time></trkpt><trkpt lat="43.264104811579294" lon="6.257327497626007"><ele>493.6666666666667</ele><time>2026-04-22T09:53:11.999Z</time></trkpt><trkpt lat="43.2640791696139" lon="6.257448233253018"><ele>491.0</ele><time>2026-04-22T09:53:12.999Z</time></trkpt><trkpt lat="43.2640743706551" lon="6.257571607926505"><ele>488.33333333333337</ele><time>2026-04-22T09:53:13.999Z</time></trkpt><trkpt lat="43.26405917043964" lon="6.257682511961553"><ele>485.6666666666667</ele><time>2026-04-22T09:53:14.999Z</time></trkpt><trkpt lat="43.26404415942837" lon="6.25776884520011"><ele>483.0</ele><time>2026-04-22T09:53:15.999Z</time></trkpt><trkpt lat="43.26402645358036" lon="6.257891568035946"><ele>483.0</ele><time>2026-04-22T09:53:17.999Z</time></trkpt><trkpt lat="43.263999952745976" lon="6.258043064411613"><ele>483.0</ele><time>2026-04-22T09:53:19.999Z</time></trkpt><trkpt lat="43.264085130557724" lon="6.258184235743246"><ele>483.0</ele><time>2026-04-22T09:53:20.999Z</time></trkpt><trkpt lat="43.26410468359584" lon="6.2583290268879255"><ele>483.0</ele><time>2026-04-22T09:53:21.999Z</time></trkpt><trkpt lat="43.26411479460358" lon="6.25848143321031"><ele>482.79999999999995</ele><time>2026-04-22T09:53:22.999Z</time></trkpt><trkpt lat="43.264111612294116" lon="6.258633427615728"><ele>482.59999999999997</ele><time>2026-04-22T09:53:23.999Z</time></trkpt><trkpt lat="43.26412210304184" lon="6.2587926717734295"><ele>482.40000000000003</ele><time>2026-04-22T09:53:24.999Z</time></trkpt><trkpt lat="43.26414854769145" lon="6.2589259511074395"><ele>482.20000000000005</ele><time>2026-04-22T09:53:25.999Z</time></trkpt><trkpt lat="43.26414353186066" lon="6.259054190145512"><ele>482.0</ele><time>2026-04-22T09:53:26.999Z</time></trkpt><trkpt lat="43.26415524804292" lon="6.259194492142757"><ele>482.0</ele><time>2026-04-22T09:53:27.999Z</time></trkpt><trkpt lat="43.26418211181565" lon="6.259324250570742"><ele>482.00000000000006</ele><time>2026-04-22T09:53:28.999Z</time></trkpt><trkpt lat="43.264174895735195" lon="6.259466754822008"><ele>482.00000000000006</ele><time>2026-04-22T09:53:29.999Z</time></trkpt><trkpt lat="43.26419102761912" lon="6.259603246028799"><ele>482.0</ele><time>2026-04-22T09:53:30.999Z</time></trkpt><trkpt lat="43.26418124929597" lon="6.259759910618288"><ele>482.0</ele><time>2026-04-22T09:53:31.999Z</time></trkpt><trkpt lat="43.26419298690136" lon="6.259893874172282"><ele>483.16666666666663</ele><time>2026-04-22T09:53:32.999Z</time></trkpt><trkpt lat="43.264193394435885" lon="6.260016521786516"><ele>484.3333333333333</ele><time>2026-04-22T09:53:33.999Z</time></trkpt><trkpt lat="43.26418243265689" lon="6.260130665758382"><ele>485.5</ele><time>2026-04-22T09:53:34.999Z</time></trkpt><trkpt lat="43.26415688302115" lon="6.260251348536003"><ele>486.66666666666663</ele><time>2026-04-22T09:53:35.999Z</time></trkpt><trkpt lat="43.26413326654196" lon="6.260373992577378"><ele>487.8333333333333</ele><time>2026-04-22T09:53:36.999Z</time></trkpt><trkpt lat="43.264105513900184" lon="6.260486426271909"><ele>489.0</ele><time>2026-04-22T09:53:37.999Z</time></trkpt><trkpt lat="43.26405834535475" lon="6.260581139809422"><ele>487.79999999999995</ele><time>2026-04-22T09:53:38.999Z</time></trkpt><trkpt lat="43.264046714725644" lon="6.260687976072437"><ele>486.59999999999997</ele><time>2026-04-22T09:53:39.999Z</time></trkpt><trkpt lat="43.264025022577876" lon="6.260803169685897"><ele>485.4</ele><time>2026-04-22T09:53:40.999Z</time></trkpt><trkpt lat="43.26399121915554" lon="6.260910672608555"><ele>484.2</ele><time>2026-04-22T09:53:41.999Z</time></trkpt><trkpt lat="43.263979517018086" lon="6.261038313977287"><ele>483.0</ele><time>2026-04-22T09:53:42.999Z</time></trkpt><trkpt lat="43.263937185563705" lon="6.261172307737147"><ele>483.0</ele><time>2026-04-22T09:53:43.999Z</time></trkpt><trkpt lat="43.263921853088405" lon="6.261289757312858"><ele>482.99999999999994</ele><time>2026-04-22T09:53:44.999Z</time></trkpt><trkpt lat="43.26389231045378" lon="6.261406747465273"><ele>482.99999999999994</ele><time>2026-04-22T09:53:45.999Z</time></trkpt><trkpt lat="43.26385644317256" lon="6.261527355472864"><ele>483.0</ele><time>2026-04-22T09:53:46.999Z</time></trkpt><trkpt lat="43.2638118626513" lon="6.261622865066782"><ele>483.0</ele><time>2026-04-22T09:53:47.999Z</time></trkpt><trkpt lat="43.26377113712971" lon="6.261746541317062"><ele>486.79999999999995</ele><time>2026-04-22T09:53:48.999Z</time></trkpt><trkpt lat="43.26372532484658" lon="6.261859146175955"><ele>490.59999999999997</ele><time>2026-04-22T09:53:49.999Z</time></trkpt><trkpt lat="43.26367646740257" lon="6.261961049475389"><ele>494.40000000000003</ele><time>2026-04-22T09:53:50.999Z</time></trkpt><trkpt lat="43.26362632764426" lon="6.262051359606746"><ele>498.20000000000005</ele><time>2026-04-22T09:53:51.999Z</time></trkpt><trkpt lat="43.26358109087508" lon="6.262168435989039"><ele>502.0</ele><time>2026-04-22T09:53:52.999Z</time></trkpt><trkpt lat="43.263513275863005" lon="6.262285607974707"><ele>504.1666666666667</ele><time>2026-04-22T09:53:53.999Z</time></trkpt><trkpt lat="43.26344716709992" lon="6.262378094497187"><ele>506.33333333333337</ele><time>2026-04-22T09:53:54.999Z</time></trkpt><trkpt lat="43.263407252587" lon="6.26249068141891"><ele>508.5</ele><time>2026-04-22T09:53:55.999Z</time></trkpt><trkpt lat="43.26336435999737" lon="6.262570702217791"><ele>510.66666666666663</ele><time>2026-04-22T09:53:56.999Z</time></trkpt><trkpt lat="43.26332481215226" lon="6.262651119489558"><ele>512.8333333333333</ele><time>2026-04-22T09:53:57.999Z</time></trkpt><trkpt lat="43.26328632970372" lon="6.262733173132922"><ele>515.0</ele><time>2026-04-22T09:53:58.999Z</time></trkpt><trkpt lat="43.263277143847745" lon="6.262834418982648"><ele>515.0</ele><time>2026-04-22T09:53:59.999Z</time></trkpt><trkpt lat="43.26326707708726" lon="6.262936231748706"><ele>515.0</ele><time>2026-04-22T09:54:00.999Z</time></trkpt><trkpt lat="43.263266242570836" lon="6.2630634789938595"><ele>515.0</ele><time>2026-04-22T09:54:01.999Z</time></trkpt><trkpt lat="43.263251776691085" lon="6.263166238469464"><ele>515.0</ele><time>2026-04-22T09:54:02.999Z</time></trkpt><trkpt lat="43.26324847817023" lon="6.263275552955257"><ele>515.0</ele><time>2026-04-22T09:54:03.999Z</time></trkpt><trkpt lat="43.26319972825334" lon="6.263378708497685"><ele>515.0</ele><time>2026-04-22T09:54:04.999Z</time></trkpt><trkpt lat="43.26313800136064" lon="6.263468919515654"><ele>514.0</ele><time>2026-04-22T09:54:05.999Z</time></trkpt><trkpt lat="43.263098819736385" lon="6.263576630101481"><ele>513.0</ele><time>2026-04-22T09:54:06.999Z</time></trkpt><trkpt lat="43.26307009285592" lon="6.26367876934162"><ele>512.0</ele><time>2026-04-22T09:54:08Z</time></trkpt><trkpt lat="43.26303388254331" lon="6.263869863073072"><ele>511.0</ele><time>2026-04-22T09:54:10Z</time></trkpt><trkpt lat="43.26302197674792" lon="6.2639593882551114"><ele>510.0</ele><time>2026-04-22T09:54:11Z</time></trkpt><trkpt lat="43.26298845096639" lon="6.264113972464959"><ele>510.0</ele><time>2026-04-22T09:54:13Z</time></trkpt><trkpt lat="43.26296319150946" lon="6.264210777904271"><ele>510.0</ele><time>2026-04-22T09:54:14Z</time></trkpt><trkpt lat="43.262565994066094" lon="6.2642193058689735"><ele>510.0</ele><time>2026-04-22T09:54:15Z</time></trkpt><trkpt lat="43.26249892788439" lon="6.264294817229151"><ele>510.0</ele><time>2026-04-22T09:54:16Z</time></trkpt><trkpt lat="43.26243424579384" lon="6.26437042816696"><ele>510.0</ele><time>2026-04-22T09:54:17Z</time></trkpt><trkpt lat="43.262366459519654" lon="6.264442173510337"><ele>510.0</ele><time>2026-04-22T09:54:18Z</time></trkpt><trkpt lat="43.262304997082346" lon="6.264509382960661"><ele>510.0</ele><time>2026-04-22T09:54:19Z</time></trkpt><trkpt lat="43.26225581616872" lon="6.264563758904362"><ele>510.0</ele><time>2026-04-22T09:54:20Z</time></trkpt><trkpt lat="43.26220591580949" lon="6.264630220852901"><ele>508.0</ele><time>2026-04-22T09:54:21Z</time></trkpt><trkpt lat="43.262167295095146" lon="6.264704730591325"><ele>506.0</ele><time>2026-04-22T09:54:22Z</time></trkpt><trkpt lat="43.26214328402279" lon="6.264849054907075"><ele>504.0</ele><time>2026-04-22T09:54:24Z</time></trkpt><trkpt lat="43.262182135400614" lon="6.265027519934808"><ele>502.0</ele><time>2026-04-22T09:54:26Z</time></trkpt><trkpt lat="43.26222677514685" lon="6.265133834724709"><ele>500.0</ele><time>2026-04-22T09:54:27Z</time></trkpt><trkpt lat="43.26227184989285" lon="6.26526611539854"><ele>502.8</ele><time>2026-04-22T09:54:28Z</time></trkpt><trkpt lat="43.26232240343472" lon="6.265410149321365"><ele>505.6</ele><time>2026-04-22T09:54:29Z</time></trkpt><trkpt lat="43.262371200289685" lon="6.265545351360187"><ele>508.4</ele><time>2026-04-22T09:54:30Z</time></trkpt><trkpt lat="43.26240834494952" lon="6.265672698004191"><ele>511.2</ele><time>2026-04-22T09:54:31Z</time></trkpt><trkpt lat="43.26243696253963" lon="6.265792884729732"><ele>514.0</ele><time>2026-04-22T09:54:32Z</time></trkpt><trkpt lat="43.26246141087278" lon="6.265890648470039"><ele>514.0</ele><time>2026-04-22T09:54:33Z</time></trkpt><trkpt lat="43.26248023597737" lon="6.265987946339983"><ele>514.0</ele><time>2026-04-22T09:54:34Z</time></trkpt><trkpt lat="43.26249514923894" lon="6.266110597033837"><ele>514.0</ele><time>2026-04-22T09:54:35Z</time></trkpt><trkpt lat="43.262502126972514" lon="6.2662468523547075"><ele>514.0</ele><time>2026-04-22T09:54:36Z</time></trkpt><trkpt lat="43.26249896851963" lon="6.2663612602126415"><ele>514.0</ele><time>2026-04-22T09:54:37Z</time></trkpt><trkpt lat="43.26249552262181" lon="6.26645775366991"><ele>514.0</ele><time>2026-04-22T09:54:38Z</time></trkpt><trkpt lat="43.26249313887763" lon="6.266558689308514"><ele>512.3333333333334</ele><time>2026-04-22T09:54:39Z</time></trkpt><trkpt lat="43.262497201851424" lon="6.266657967397131"><ele>510.6666666666667</ele><time>2026-04-22T09:54:40Z</time></trkpt><trkpt lat="43.26251396459976" lon="6.266774201912325"><ele>509.0</ele><time>2026-04-22T09:54:41Z</time></trkpt><trkpt lat="43.26254141494322" lon="6.266890326713521"><ele>507.33333333333337</ele><time>2026-04-22T09:54:42Z</time></trkpt><trkpt lat="43.26255769951163" lon="6.266993849663508"><ele>505.6666666666667</ele><time>2026-04-22T09:54:43Z</time></trkpt><trkpt lat="43.26255978031662" lon="6.2671165980089105"><ele>504.0</ele><time>2026-04-22T09:54:44Z</time></trkpt><trkpt lat="43.262558174229355" lon="6.267254023920383"><ele>503.4</ele><time>2026-04-22T09:54:45Z</time></trkpt><trkpt lat="43.26254463382457" lon="6.2673796658500915"><ele>502.79999999999995</ele><time>2026-04-22T09:54:46Z</time></trkpt><trkpt lat="43.262521980254725" lon="6.267490994057721"><ele>502.20000000000005</ele><time>2026-04-22T09:54:47Z</time></trkpt><trkpt lat="43.26248300683353" lon="6.267606707341398"><ele>501.6</ele><time>2026-04-22T09:54:48Z</time></trkpt><trkpt lat="43.262441669558314" lon="6.2677177364474685"><ele>501.0</ele><time>2026-04-22T09:54:49Z</time></trkpt><trkpt lat="43.26240182325462" lon="6.267842585656385"><ele>501.0</ele><time>2026-04-22T09:54:50Z</time></trkpt><trkpt lat="43.26235702543029" lon="6.267961059986688"><ele>501.0</ele><time>2026-04-22T09:54:51Z</time></trkpt><trkpt lat="43.26231177717611" lon="6.268083776930689"><ele>501.0</ele><time>2026-04-22T09:54:52Z</time></trkpt><trkpt lat="43.26226341396881" lon="6.268204468551582"><ele>501.0</ele><time>2026-04-22T09:54:53Z</time></trkpt><trkpt lat="43.26221445828139" lon="6.268319458217169"><ele>501.0</ele><time>2026-04-22T09:54:54Z</time></trkpt><trkpt lat="43.2621747545811" lon="6.268440263756567"><ele>497.20000000000005</ele><time>2026-04-22T09:54:55Z</time></trkpt><trkpt lat="43.262131841801015" lon="6.268560014452762"><ele>493.40000000000003</ele><time>2026-04-22T09:54:56Z</time></trkpt><trkpt lat="43.26209778762659" lon="6.268677471761283"><ele>489.6</ele><time>2026-04-22T09:54:57Z</time></trkpt><trkpt lat="43.262060259934394" lon="6.268795089035774"><ele>485.8</ele><time>2026-04-22T09:54:58Z</time></trkpt><trkpt lat="43.262024285016935" lon="6.268916515007134"><ele>482.0</ele><time>2026-04-22T09:54:59Z</time></trkpt><trkpt lat="43.261977663617856" lon="6.269020519825803"><ele>482.0</ele><time>2026-04-22T09:55:00Z</time></trkpt><trkpt lat="43.26193162614648" lon="6.269124984339721"><ele>482.00000000000006</ele><time>2026-04-22T09:55:01Z</time></trkpt><trkpt lat="43.26187617503017" lon="6.2692439088557785"><ele>482.00000000000006</ele><time>2026-04-22T09:55:02Z</time></trkpt><trkpt lat="43.26180742968637" lon="6.269363947637238"><ele>482.0</ele><time>2026-04-22T09:55:03Z</time></trkpt><trkpt lat="43.261729902325314" lon="6.269469001718043"><ele>482.0</ele><time>2026-04-22T09:55:04Z</time></trkpt><trkpt lat="43.26165263491432" lon="6.269549805457598"><ele>482.0</ele><time>2026-04-22T09:55:05Z</time></trkpt><trkpt lat="43.26157491199711" lon="6.269629030440404"><ele>482.00000000000006</ele><time>2026-04-22T09:55:06Z</time></trkpt><trkpt lat="43.261500168301104" lon="6.269686145805908"><ele>482.00000000000006</ele><time>2026-04-22T09:55:07Z</time></trkpt><trkpt lat="43.2614341573894" lon="6.269699771809294"><ele>482.0</ele><time>2026-04-22T09:55:08Z</time></trkpt><trkpt lat="43.261336124414186" lon="6.2697724059350595"><ele>482.0</ele><time>2026-04-22T09:55:10Z</time></trkpt><trkpt lat="43.26126570679217" lon="6.269878083860784"><ele>478.8</ele><time>2026-04-22T09:55:12Z</time></trkpt><trkpt lat="43.261232220988674" lon="6.269997355895223"><ele>475.6</ele><time>2026-04-22T09:55:14Z</time></trkpt><trkpt lat="43.261241186072986" lon="6.270186957190686"><ele>472.40000000000003</ele><time>2026-04-22T09:55:16Z</time></trkpt><trkpt lat="43.261270061721916" lon="6.27029585589973"><ele>469.20000000000005</ele><time>2026-04-22T09:55:17Z</time></trkpt><trkpt lat="43.261304865283535" lon="6.270416027524043"><ele>466.0</ele><time>2026-04-22T09:55:17.999Z</time></trkpt><trkpt lat="43.26133992198973" lon="6.270523251212593"><ele>463.1666666666667</ele><time>2026-04-22T09:55:18.999Z</time></trkpt><trkpt lat="43.26138233425839" lon="6.270636820076769"><ele>460.33333333333337</ele><time>2026-04-22T09:55:19.999Z</time></trkpt><trkpt lat="43.261434384367256" lon="6.270751035888719"><ele>457.5</ele><time>2026-04-22T09:55:20.999Z</time></trkpt><trkpt lat="43.261477757977" lon="6.270853788365678"><ele>454.66666666666663</ele><time>2026-04-22T09:55:21.999Z</time></trkpt><trkpt lat="43.261522444298976" lon="6.270954904351872"><ele>451.8333333333333</ele><time>2026-04-22T09:55:22.999Z</time></trkpt><trkpt lat="43.261560266554156" lon="6.271028352349667"><ele>449.0</ele><time>2026-04-22T09:55:23.999Z</time></trkpt><trkpt lat="43.261604346064715" lon="6.2711092377587025"><ele>455.6</ele><time>2026-04-22T09:55:24.999Z</time></trkpt><trkpt lat="43.26163327279715" lon="6.271189137935463"><ele>462.2</ele><time>2026-04-22T09:55:25.999Z</time></trkpt><trkpt lat="43.26166301848505" lon="6.271275158786481"><ele>468.80000000000007</ele><time>2026-04-22T09:55:26.999Z</time></trkpt><trkpt lat="43.26166793425212" lon="6.271463970063505"><ele>475.40000000000003</ele><time>2026-04-22T09:55:28.999Z</time></trkpt><trkpt lat="43.261629890568294" lon="6.2715696930999565"><ele>482.0</ele><time>2026-04-22T09:55:29.999Z</time></trkpt><trkpt lat="43.2615699315711" lon="6.27167697081841"><ele>482.0</ele><time>2026-04-22T09:55:30.999Z</time></trkpt><trkpt lat="43.26151178795559" lon="6.271765465887491"><ele>482.00000000000006</ele><time>2026-04-22T09:55:31.999Z</time></trkpt><trkpt lat="43.261442989271245" lon="6.271881605321178"><ele>482.00000000000006</ele><time>2026-04-22T09:55:32.999Z</time></trkpt><trkpt lat="43.26136595737396" lon="6.272006735894585"><ele>482.0</ele><time>2026-04-22T09:55:33.999Z</time></trkpt><trkpt lat="43.26129423924564" lon="6.272122898065137"><ele>482.0</ele><time>2026-04-22T09:55:34.999Z</time></trkpt><trkpt lat="43.261222110770774" lon="6.272218835171957"><ele>478.3333333333333</ele><time>2026-04-22T09:55:35.999Z</time></trkpt><trkpt lat="43.261157738988" lon="6.272300782783752"><ele>474.66666666666663</ele><time>2026-04-22T09:55:36.999Z</time></trkpt><trkpt lat="43.261101943735575" lon="6.272368721584326"><ele>471.0</ele><time>2026-04-22T09:55:37.999Z</time></trkpt><trkpt lat="43.26104949661428" lon="6.272425095976427"><ele>467.33333333333337</ele><time>2026-04-22T09:55:38.999Z</time></trkpt><trkpt lat="43.26100044502657" lon="6.272486762228027"><ele>463.6666666666667</ele><time>2026-04-22T09:55:39.999Z</time></trkpt><trkpt lat="43.26093905158596" lon="6.272590322948883"><ele>460.0</ele><time>2026-04-22T09:55:41.999Z</time></trkpt><trkpt lat="43.26085641185813" lon="6.272575025858204"><ele>460.00000000000006</ele><time>2026-04-22T09:55:44.999Z</time></trkpt><trkpt lat="43.26086908144219" lon="6.272452780027061"><ele>460.0</ele><time>2026-04-22T09:55:47.999Z</time></trkpt><trkpt lat="43.26091857037375" lon="6.272395676510705"><ele>460.0</ele><time>2026-04-22T09:55:48.999Z</time></trkpt><trkpt lat="43.26098399783178" lon="6.272327287931093"><ele>460.0</ele><time>2026-04-22T09:55:49.999Z</time></trkpt><trkpt lat="43.26103574711318" lon="6.272250639862869"><ele>460.00000000000006</ele><time>2026-04-22T09:55:50.999Z</time></trkpt><trkpt lat="43.26108566052914" lon="6.272167353132434"><ele>460.0</ele><time>2026-04-22T09:55:51.999Z</time></trkpt><trkpt lat="43.261134656444035" lon="6.272089338998012"><ele>457.1666666666667</ele><time>2026-04-22T09:55:52.999Z</time></trkpt><trkpt lat="43.26117788427501" lon="6.272004498932663"><ele>454.33333333333337</ele><time>2026-04-22T09:55:53.999Z</time></trkpt><trkpt lat="43.26122379238748" lon="6.2719065842282875"><ele>451.5</ele><time>2026-04-22T09:55:54.999Z</time></trkpt><trkpt lat="43.261267228879916" lon="6.271806794852124"><ele>448.66666666666663</ele><time>2026-04-22T09:55:55.999Z</time></trkpt><trkpt lat="43.26130409788794" lon="6.2717121874517865"><ele>445.8333333333333</ele><time>2026-04-22T09:55:56.999Z</time></trkpt><trkpt lat="43.26134185156204" lon="6.271626383515546"><ele>443.0</ele><time>2026-04-22T09:55:57.999Z</time></trkpt><trkpt lat="43.26137383619976" lon="6.27155106546677"><ele>444.2</ele><time>2026-04-22T09:55:58.999Z</time></trkpt><trkpt lat="43.26140753872636" lon="6.271418333040225"><ele>445.4</ele><time>2026-04-22T09:56:00.999Z</time></trkpt><trkpt lat="43.261368880668265" lon="6.271300670268137"><ele>446.59999999999997</ele><time>2026-04-22T09:56:02.999Z</time></trkpt><trkpt lat="43.26131865719214" lon="6.271237059051729"><ele>447.79999999999995</ele><time>2026-04-22T09:56:03.999Z</time></trkpt><trkpt lat="43.261248872837626" lon="6.271168372137623"><ele>449.0</ele><time>2026-04-22T09:56:04.999Z</time></trkpt><trkpt lat="43.26115910649653" lon="6.271079833954432"><ele>449.0</ele><time>2026-04-22T09:56:05.999Z</time></trkpt><trkpt lat="43.26107211150011" lon="6.270976756302227"><ele>449.0</ele><time>2026-04-22T09:56:06.999Z</time></trkpt><trkpt lat="43.26099081799384" lon="6.270873753012547"><ele>449.0</ele><time>2026-04-22T09:56:07.999Z</time></trkpt><trkpt lat="43.26091529853292" lon="6.270788421404296"><ele>449.0</ele><time>2026-04-22T09:56:08.999Z</time></trkpt><trkpt lat="43.26084441156082" lon="6.270707820883422"><ele>449.0</ele><time>2026-04-22T09:56:09.999Z</time></trkpt><trkpt lat="43.260776963706206" lon="6.270627799386705"><ele>447.16666666666663</ele><time>2026-04-22T09:56:10.999Z</time></trkpt><trkpt lat="43.26071751326047" lon="6.27055128341114"><ele>445.3333333333333</ele><time>2026-04-22T09:56:11.999Z</time></trkpt><trkpt lat="43.26066629958284" lon="6.270467112490133"><ele>443.5</ele><time>2026-04-22T09:56:12.999Z</time></trkpt><trkpt lat="43.2606080675268" lon="6.270358745307234"><ele>441.66666666666663</ele><time>2026-04-22T09:56:14Z</time></trkpt><trkpt lat="43.26054993490378" lon="6.270248638910507"><ele>439.8333333333333</ele><time>2026-04-22T09:56:15Z</time></trkpt><trkpt lat="43.26048641889268" lon="6.270163691773427"><ele>438.0</ele><time>2026-04-22T09:56:16Z</time></trkpt><trkpt lat="43.2604082653373" lon="6.270088396101782"><ele>438.0</ele><time>2026-04-22T09:56:17Z</time></trkpt><trkpt lat="43.26032722672376" lon="6.2700310658881"><ele>437.99999999999994</ele><time>2026-04-22T09:56:18Z</time></trkpt><trkpt lat="43.26024243375893" lon="6.269974457431914"><ele>437.99999999999994</ele><time>2026-04-22T09:56:19Z</time></trkpt><trkpt lat="43.26015948458055" lon="6.269919779876128"><ele>438.0</ele><time>2026-04-22T09:56:20Z</time></trkpt><trkpt lat="43.26008536184715" lon="6.2698670422481335"><ele>438.0</ele><time>2026-04-22T09:56:21Z</time></trkpt><trkpt lat="43.25999754933523" lon="6.2698009190088655"><ele>436.79999999999995</ele><time>2026-04-22T09:56:22Z</time></trkpt><trkpt lat="43.25990324290538" lon="6.269729725215248"><ele>435.59999999999997</ele><time>2026-04-22T09:56:23Z</time></trkpt><trkpt lat="43.259809868935164" lon="6.2696673007066615"><ele>434.40000000000003</ele><time>2026-04-22T09:56:24Z</time></trkpt><trkpt lat="43.2597156019559" lon="6.269615677576987"><ele>433.20000000000005</ele><time>2026-04-22T09:56:25Z</time></trkpt><trkpt lat="43.25962380613607" lon="6.269573864954493"><ele>432.0</ele><time>2026-04-22T09:56:26Z</time></trkpt><trkpt lat="43.25953460769639" lon="6.269530276413321"><ele>432.0</ele><time>2026-04-22T09:56:27Z</time></trkpt><trkpt lat="43.25944738069088" lon="6.269488136524126"><ele>432.0</ele><time>2026-04-22T09:56:28Z</time></trkpt><trkpt lat="43.2593670178671" lon="6.269456697958808"><ele>432.0</ele><time>2026-04-22T09:56:29Z</time></trkpt><trkpt lat="43.259286174991665" lon="6.269432140405695"><ele>432.0</ele><time>2026-04-22T09:56:30Z</time></trkpt><trkpt lat="43.25920313857097" lon="6.269404946864405"><ele>432.0</ele><time>2026-04-22T09:56:31Z</time></trkpt><trkpt lat="43.25910670481381" lon="6.269374471306989"><ele>432.0</ele><time>2026-04-22T09:56:32Z</time></trkpt><trkpt lat="43.25901031787169" lon="6.269350148074775"><ele>431.5</ele><time>2026-04-22T09:56:33Z</time></trkpt><trkpt lat="43.25892137542147" lon="6.2693300614103995"><ele>431.0</ele><time>2026-04-22T09:56:34Z</time></trkpt><trkpt lat="43.25883751624505" lon="6.26930776222107"><ele>430.5</ele><time>2026-04-22T09:56:35Z</time></trkpt><trkpt lat="43.258759113786574" lon="6.269279025888025"><ele>430.0</ele><time>2026-04-22T09:56:36Z</time></trkpt><trkpt lat="43.25868356883057" lon="6.26924013542917"><ele>429.5</ele><time>2026-04-22T09:56:37Z</time></trkpt><trkpt lat="43.258610020353544" lon="6.269197492150425"><ele>429.0</ele><time>2026-04-22T09:56:38Z</time></trkpt><trkpt lat="43.25855033882274" lon="6.269151882488743"><ele>429.0</ele><time>2026-04-22T09:56:39Z</time></trkpt><trkpt lat="43.25848822363943" lon="6.269091189183849"><ele>429.0</ele><time>2026-04-22T09:56:40Z</time></trkpt><trkpt lat="43.258427672461494" lon="6.269014033110153"><ele>429.0</ele><time>2026-04-22T09:56:41Z</time></trkpt><trkpt lat="43.25837799877569" lon="6.268922436883973"><ele>429.0</ele><time>2026-04-22T09:56:42Z</time></trkpt><trkpt lat="43.25833231854078" lon="6.2688118912991975"><ele>429.0</ele><time>2026-04-22T09:56:43Z</time></trkpt><trkpt lat="43.258294969116236" lon="6.2687117608825"><ele>429.0</ele><time>2026-04-22T09:56:44Z</time></trkpt><trkpt lat="43.25826134504561" lon="6.268606008982406"><ele>428.5</ele><time>2026-04-22T09:56:45Z</time></trkpt><trkpt lat="43.25822381716622" lon="6.2684936513516964"><ele>428.0</ele><time>2026-04-22T09:56:46Z</time></trkpt><trkpt lat="43.25819177454999" lon="6.268388044490403"><ele>427.5</ele><time>2026-04-22T09:56:47Z</time></trkpt><trkpt lat="43.25815706581205" lon="6.268294832814384"><ele>427.0</ele><time>2026-04-22T09:56:48Z</time></trkpt><trkpt lat="43.25811642426178" lon="6.2682081191773795"><ele>426.5</ele><time>2026-04-22T09:56:49Z</time></trkpt><trkpt lat="43.258076902414025" lon="6.268133496789673"><ele>426.0</ele><time>2026-04-22T09:56:50Z</time></trkpt><trkpt lat="43.258030438769424" lon="6.268043235632417"><ele>425.99999999999994</ele><time>2026-04-22T09:56:51Z</time></trkpt><trkpt lat="43.25797521339112" lon="6.267963652748667"><ele>426.0</ele><time>2026-04-22T09:56:52Z</time></trkpt><trkpt lat="43.25792591657386" lon="6.2678895208341405"><ele>426.0</ele><time>2026-04-22T09:56:53Z</time></trkpt><trkpt lat="43.2578732718854" lon="6.26782894455842"><ele>426.0</ele><time>2026-04-22T09:56:54Z</time></trkpt><trkpt lat="43.25781069059438" lon="6.267781571872149"><ele>426.0</ele><time>2026-04-22T09:56:55Z</time></trkpt><trkpt lat="43.25775611481067" lon="6.267724902740421"><ele>425.99999999999994</ele><time>2026-04-22T09:56:56Z</time></trkpt><trkpt lat="43.257686238543414" lon="6.267670992370019"><ele>426.0</ele><time>2026-04-22T09:56:57Z</time></trkpt><trkpt lat="43.25759913283207" lon="6.267634376676735"><ele>426.0</ele><time>2026-04-22T09:56:58Z</time></trkpt><trkpt lat="43.25751468681353" lon="6.267597988691642"><ele>426.0</ele><time>2026-04-22T09:56:59Z</time></trkpt><trkpt lat="43.25742873886952" lon="6.267556259484647"><ele>426.0</ele><time>2026-04-22T09:57:01Z</time></trkpt><trkpt lat="43.25736754365345" lon="6.267464892264969"><ele>426.0</ele><time>2026-04-22T09:57:03Z</time></trkpt><trkpt lat="43.2573664884574" lon="6.2673091672185794"><ele>426.0</ele><time>2026-04-22T09:57:05Z</time></trkpt><trkpt lat="43.2573979349266" lon="6.267224515133566"><ele>423.8</ele><time>2026-04-22T09:57:06Z</time></trkpt><trkpt lat="43.257462508744965" lon="6.2670825756402"><ele>421.6</ele><time>2026-04-22T09:57:08Z</time></trkpt><trkpt lat="43.257483337736794" lon="6.26698767984601"><ele>419.4</ele><time>2026-04-22T09:57:09Z</time></trkpt><trkpt lat="43.257497063344594" lon="6.266901107113412"><ele>417.2</ele><time>2026-04-22T09:57:10Z</time></trkpt><trkpt lat="43.25752718059263" lon="6.26674118969593"><ele>415.0</ele><time>2026-04-22T09:57:11.999Z</time></trkpt><trkpt lat="43.257537317239326" lon="6.266586250574777"><ele>415.0</ele><time>2026-04-22T09:57:13.999Z</time></trkpt><trkpt lat="43.25751723437312" lon="6.266484993776061"><ele>415.0</ele><time>2026-04-22T09:57:14.999Z</time></trkpt><trkpt lat="43.25750293637439" lon="6.2663836221023965"><ele>415.0</ele><time>2026-04-22T09:57:15.999Z</time></trkpt><trkpt lat="43.25747921673253" lon="6.266289883929941"><ele>415.0</ele><time>2026-04-22T09:57:16.999Z</time></trkpt><trkpt lat="43.25745611210092" lon="6.266198692429817"><ele>415.0</ele><time>2026-04-22T09:57:17.999Z</time></trkpt><trkpt lat="43.25742600663976" lon="6.266120891222077"><ele>415.0</ele><time>2026-04-22T09:57:18.999Z</time></trkpt><trkpt lat="43.25737945771296" lon="6.266042113023498"><ele>415.0</ele><time>2026-04-22T09:57:19.999Z</time></trkpt><trkpt lat="43.25731521859089" lon="6.265922050860921"><ele>415.2</ele><time>2026-04-22T09:57:21.999Z</time></trkpt><trkpt lat="43.25724025625043" lon="6.265818869571173"><ele>415.4</ele><time>2026-04-22T09:57:23.999Z</time></trkpt><trkpt lat="43.25719148428383" lon="6.265748111259398"><ele>415.6</ele><time>2026-04-22T09:57:24.999Z</time></trkpt><trkpt lat="43.25713143437866" lon="6.265618074092691"><ele>415.8</ele><time>2026-04-22T09:57:26.999Z</time></trkpt><trkpt lat="43.257076057244525" lon="6.265508627423004"><ele>416.0</ele><time>2026-04-22T09:57:28.999Z</time></trkpt><trkpt lat="43.25708920114284" lon="6.265314698476152"><ele>416.0</ele><time>2026-04-22T09:57:30.999Z</time></trkpt><trkpt lat="43.257103690728286" lon="6.265200881889035"><ele>416.0</ele><time>2026-04-22T09:57:31.999Z</time></trkpt><trkpt lat="43.25710692819403" lon="6.265105273647902"><ele>416.0</ele><time>2026-04-22T09:57:32.999Z</time></trkpt><trkpt lat="43.25708884369789" lon="6.264959469287026"><ele>416.0</ele><time>2026-04-22T09:57:34.999Z</time></trkpt><trkpt lat="43.25705776954446" lon="6.2648628816617595"><ele>416.0</ele><time>2026-04-22T09:57:35.999Z</time></trkpt><trkpt lat="43.25699444989902" lon="6.264715712066606"><ele>412.3333333333333</ele><time>2026-04-22T09:57:37.999Z</time></trkpt><trkpt lat="43.25694391482954" lon="6.264648943545071"><ele>408.66666666666663</ele><time>2026-04-22T09:57:38.999Z</time></trkpt><trkpt lat="43.25689038918042" lon="6.264598836039799"><ele>405.0</ele><time>2026-04-22T09:57:39.999Z</time></trkpt><trkpt lat="43.25681911026237" lon="6.2645512259566605"><ele>401.33333333333337</ele><time>2026-04-22T09:57:40.999Z</time></trkpt><trkpt lat="43.25674324097027" lon="6.264480411510638"><ele>397.6666666666667</ele><time>2026-04-22T09:57:41.999Z</time></trkpt><trkpt lat="43.25664577493005" lon="6.264414581847913"><ele>394.0</ele><time>2026-04-22T09:57:42.999Z</time></trkpt><trkpt lat="43.25654186204598" lon="6.264345767653446"><ele>394.00000000000006</ele><time>2026-04-22T09:57:43.999Z</time></trkpt><trkpt lat="43.25649456349041" lon="6.264284091122049"><ele>394.0</ele><time>2026-04-22T09:57:44.999Z</time></trkpt><trkpt lat="43.256418775150074" lon="6.26424126497811"><ele>394.0</ele><time>2026-04-22T09:57:45.999Z</time></trkpt><trkpt lat="43.25635311930447" lon="6.264198737904692"><ele>394.0</ele><time>2026-04-22T09:57:46.999Z</time></trkpt><trkpt lat="43.2562375323798" lon="6.264160049949218"><ele>394.00000000000006</ele><time>2026-04-22T09:57:48.999Z</time></trkpt><trkpt lat="43.25612757684153" lon="6.264153844102472"><ele>394.0</ele><time>2026-04-22T09:57:50.999Z</time></trkpt><trkpt lat="43.25605055053199" lon="6.264103100863983"><ele>395.33333333333337</ele><time>2026-04-22T09:57:52.999Z</time></trkpt><trkpt lat="43.2560462245116" lon="6.263945000753371"><ele>396.6666666666667</ele><time>2026-04-22T09:57:54.999Z</time></trkpt><trkpt lat="43.256064063246676" lon="6.263847657220453"><ele>398.0</ele><time>2026-04-22T09:57:55.999Z</time></trkpt><trkpt lat="43.256075756800065" lon="6.263724182634988"><ele>399.33333333333337</ele><time>2026-04-22T09:57:56.999Z</time></trkpt><trkpt lat="43.25608095521515" lon="6.263619652623481"><ele>400.6666666666667</ele><time>2026-04-22T09:57:57.999Z</time></trkpt><trkpt lat="43.2560794707127" lon="6.263508035909541"><ele>402.0</ele><time>2026-04-22T09:57:58.999Z</time></trkpt><trkpt lat="43.256053982882555" lon="6.263393493251831"><ele>402.0</ele><time>2026-04-22T09:57:59.999Z</time></trkpt><trkpt lat="43.256028786870274" lon="6.263291094156711"><ele>402.0</ele><time>2026-04-22T09:58:00.999Z</time></trkpt><trkpt lat="43.25599364411074" lon="6.263205487803518"><ele>402.0</ele><time>2026-04-22T09:58:01.999Z</time></trkpt><trkpt lat="43.2559397628776" lon="6.2631221155704075"><ele>402.0</ele><time>2026-04-22T09:58:02.999Z</time></trkpt><trkpt lat="43.25588785546788" lon="6.26305890991208"><ele>402.0</ele><time>2026-04-22T09:58:03.999Z</time></trkpt><trkpt lat="43.25585402762596" lon="6.262965585845196"><ele>402.0</ele><time>2026-04-22T09:58:05.999Z</time></trkpt><trkpt lat="43.25590737465579" lon="6.2628738584099395"><ele>405.25</ele><time>2026-04-22T09:58:07.999Z</time></trkpt><trkpt lat="43.2560396663667" lon="6.262869360186667"><ele>408.5</ele><time>2026-04-22T09:58:09.999Z</time></trkpt><trkpt lat="43.25615384612831" lon="6.262911321875399"><ele>411.75</ele><time>2026-04-22T09:58:11.999Z</time></trkpt><trkpt lat="43.25626387721348" lon="6.262891334129972"><ele>415.0</ele><time>2026-04-22T09:58:12.999Z</time></trkpt><trkpt lat="43.25636211656942" lon="6.2628814052716395"><ele>415.00000000000006</ele><time>2026-04-22T09:58:13.999Z</time></trkpt><trkpt lat="43.25643926179043" lon="6.262874056152272"><ele>415.0</ele><time>2026-04-22T09:58:14.999Z</time></trkpt><trkpt lat="43.25652158258914" lon="6.262878737307481"><ele>415.0</ele><time>2026-04-22T09:58:15.999Z</time></trkpt><trkpt lat="43.25659962955363" lon="6.26289054388372"><ele>415.0</ele><time>2026-04-22T09:58:16.999Z</time></trkpt><trkpt lat="43.256680420928554" lon="6.262866340410765"><ele>415.00000000000006</ele><time>2026-04-22T09:58:17.999Z</time></trkpt><trkpt lat="43.25676503353075" lon="6.2628738513476385"><ele>415.0</ele><time>2026-04-22T09:58:18.999Z</time></trkpt><trkpt lat="43.256841703723225" lon="6.2628600751907975"><ele>412.00000000000006</ele><time>2026-04-22T09:58:20Z</time></trkpt><trkpt lat="43.25692462077301" lon="6.262840656681006"><ele>409.0</ele><time>2026-04-22T09:58:21Z</time></trkpt><trkpt lat="43.25698935559983" lon="6.262832196535997"><ele>406.0</ele><time>2026-04-22T09:58:22Z</time></trkpt><trkpt lat="43.25705246944681" lon="6.262809978439982"><ele>403.0</ele><time>2026-04-22T09:58:23Z</time></trkpt><trkpt lat="43.25715223716852" lon="6.262807718906437"><ele>400.00000000000006</ele><time>2026-04-22T09:58:25Z</time></trkpt><trkpt lat="43.25722818021555" lon="6.26273200373761"><ele>397.0</ele><time>2026-04-22T09:58:27Z</time></trkpt><trkpt lat="43.257273694679746" lon="6.262670259360884"><ele>393.33333333333337</ele><time>2026-04-22T09:58:28Z</time></trkpt><trkpt lat="43.25731718937858" lon="6.2625799838379566"><ele>389.6666666666667</ele><time>2026-04-22T09:58:29Z</time></trkpt><trkpt lat="43.25735241709351" lon="6.262470543304742"><ele>386.0</ele><time>2026-04-22T09:58:30Z</time></trkpt><trkpt lat="43.25736920591942" lon="6.262345955765515"><ele>382.33333333333337</ele><time>2026-04-22T09:58:31Z</time></trkpt><trkpt lat="43.25740311242784" lon="6.2622526026212535"><ele>378.6666666666667</ele><time>2026-04-22T09:58:32Z</time></trkpt><trkpt lat="43.25743361591647" lon="6.262160098094669"><ele>375.0</ele><time>2026-04-22T09:58:33Z</time></trkpt><trkpt lat="43.257450961485574" lon="6.262066625212277"><ele>375.0</ele><time>2026-04-22T09:58:34Z</time></trkpt><trkpt lat="43.25746718567328" lon="6.261895883730869"><ele>375.0</ele><time>2026-04-22T09:58:36Z</time></trkpt><trkpt lat="43.25747375610467" lon="6.261795164154453"><ele>375.0</ele><time>2026-04-22T09:58:37Z</time></trkpt><trkpt lat="43.25747147785881" lon="6.261673621525181"><ele>375.0</ele><time>2026-04-22T09:58:38Z</time></trkpt><trkpt lat="43.257463608280375" lon="6.261542813889634"><ele>375.0</ele><time>2026-04-22T09:58:39Z</time></trkpt><trkpt lat="43.25746083935998" lon="6.261421979188118"><ele>374.8</ele><time>2026-04-22T09:58:40Z</time></trkpt><trkpt lat="43.25747575043121" lon="6.261318913241725"><ele>374.6</ele><time>2026-04-22T09:58:41Z</time></trkpt><trkpt lat="43.257485461488585" lon="6.261192265058976"><ele>374.4</ele><time>2026-04-22T09:58:42Z</time></trkpt><trkpt lat="43.257487606486976" lon="6.261063091855983"><ele>374.2</ele><time>2026-04-22T09:58:43Z</time></trkpt><trkpt lat="43.25748164936424" lon="6.26092909340815"><ele>374.0</ele><time>2026-04-22T09:58:44Z</time></trkpt><trkpt lat="43.257517131375266" lon="6.260785292510294"><ele>374.0</ele><time>2026-04-22T09:58:45Z</time></trkpt><trkpt lat="43.25751976556887" lon="6.260665312878328"><ele>374.0</ele><time>2026-04-22T09:58:46Z</time></trkpt><trkpt lat="43.25752070103516" lon="6.2605573438837165"><ele>374.0</ele><time>2026-04-22T09:58:47Z</time></trkpt><trkpt lat="43.257522847260404" lon="6.260452636657507"><ele>374.0</ele><time>2026-04-22T09:58:48Z</time></trkpt><trkpt lat="43.257528693041245" lon="6.260349083466947"><ele>374.0</ele><time>2026-04-22T09:58:49Z</time></trkpt><trkpt lat="43.25751598130843" lon="6.260254574964799"><ele>374.0</ele><time>2026-04-22T09:58:50Z</time></trkpt><trkpt lat="43.257491200500446" lon="6.26015098348464"><ele>372.1666666666667</ele><time>2026-04-22T09:58:51Z</time></trkpt><trkpt lat="43.25746645770078" lon="6.260054626467264"><ele>370.33333333333337</ele><time>2026-04-22T09:58:52Z</time></trkpt><trkpt lat="43.257430332543045" lon="6.2599378848619756"><ele>368.5</ele><time>2026-04-22T09:58:53Z</time></trkpt><trkpt lat="43.257390854557634" lon="6.259816174402851"><ele>366.6666666666667</ele><time>2026-04-22T09:58:54Z</time></trkpt><trkpt lat="43.257353308398656" lon="6.259704859687584"><ele>364.8333333333333</ele><time>2026-04-22T09:58:55Z</time></trkpt><trkpt lat="43.257313323429244" lon="6.259603340508028"><ele>363.0</ele><time>2026-04-22T09:58:56Z</time></trkpt><trkpt lat="43.257275124974825" lon="6.259485409564054"><ele>364.0</ele><time>2026-04-22T09:58:57Z</time></trkpt><trkpt lat="43.25723691085249" lon="6.259369486066641"><ele>365.0</ele><time>2026-04-22T09:58:58Z</time></trkpt><trkpt lat="43.25719615760158" lon="6.259262749633983"><ele>366.0</ele><time>2026-04-22T09:58:59Z</time></trkpt><trkpt lat="43.257169599379786" lon="6.259135145332262"><ele>367.0</ele><time>2026-04-22T09:59:00Z</time></trkpt><trkpt lat="43.25713846641768" lon="6.259022343166471"><ele>368.0</ele><time>2026-04-22T09:59:01Z</time></trkpt><trkpt lat="43.257117448065124" lon="6.258911876846546"><ele>369.0</ele><time>2026-04-22T09:59:02Z</time></trkpt><trkpt lat="43.257094857797135" lon="6.258792722098063"><ele>369.0</ele><time>2026-04-22T09:59:03Z</time></trkpt><trkpt lat="43.2570780428159" lon="6.25867403327648"><ele>369.0</ele><time>2026-04-22T09:59:04Z</time></trkpt><trkpt lat="43.257064748854965" lon="6.258580108941131"><ele>369.0</ele><time>2026-04-22T09:59:05Z</time></trkpt><trkpt lat="43.257044910604826" lon="6.258485980092721"><ele>369.0</ele><time>2026-04-22T09:59:06Z</time></trkpt><trkpt lat="43.25702546871242" lon="6.258390997409657"><ele>369.0</ele><time>2026-04-22T09:59:07Z</time></trkpt><trkpt lat="43.256987090441896" lon="6.25830460293639"><ele>369.0</ele><time>2026-04-22T09:59:08Z</time></trkpt><trkpt lat="43.256955460491824" lon="6.258223522452819"><ele>369.0</ele><time>2026-04-22T09:59:09Z</time></trkpt><trkpt lat="43.25692275665405" lon="6.258144242910448"><ele>365.0</ele><time>2026-04-22T09:59:10Z</time></trkpt><trkpt lat="43.256857782306184" lon="6.2580695722754855"><ele>361.0</ele><time>2026-04-22T09:59:11Z</time></trkpt><trkpt lat="43.256792773327795" lon="6.257966865241282"><ele>357.0</ele><time>2026-04-22T09:59:12Z</time></trkpt><trkpt lat="43.25673329019877" lon="6.257875277653895"><ele>353.0</ele><time>2026-04-22T09:59:13Z</time></trkpt><trkpt lat="43.256694331236474" lon="6.257759072041247"><ele>349.0</ele><time>2026-04-22T09:59:14Z</time></trkpt><trkpt lat="43.256654847323176" lon="6.257643267311028"><ele>349.0</ele><time>2026-04-22T09:59:15Z</time></trkpt><trkpt lat="43.256611884602115" lon="6.257523172972343"><ele>349.0</ele><time>2026-04-22T09:59:15.999Z</time></trkpt><trkpt lat="43.25657116270324" lon="6.257399940523549"><ele>349.0</ele><time>2026-04-22T09:59:16.999Z</time></trkpt><trkpt lat="43.25654193620122" lon="6.257285218308382"><ele>349.0</ele><time>2026-04-22T09:59:17.999Z</time></trkpt><trkpt lat="43.25651103791804" lon="6.2571937391791765"><ele>349.0</ele><time>2026-04-22T09:59:18.999Z</time></trkpt><trkpt lat="43.25646946102787" lon="6.257089474340562"><ele>349.0</ele><time>2026-04-22T09:59:19.999Z</time></trkpt><trkpt lat="43.256438463306374" lon="6.25697205337744"><ele>346.6</ele><time>2026-04-22T09:59:20.999Z</time></trkpt><trkpt lat="43.25639387286552" lon="6.256892376879731"><ele>344.2</ele><time>2026-04-22T09:59:21.999Z</time></trkpt><trkpt lat="43.25631514057608" lon="6.256796547721909"><ele>341.8</ele><time>2026-04-22T09:59:23.999Z</time></trkpt><trkpt lat="43.256198977551584" lon="6.256764548682197"><ele>339.40000000000003</ele><time>2026-04-22T09:59:25.999Z</time></trkpt><trkpt lat="43.25611962268787" lon="6.2567769659551695"><ele>337.0</ele><time>2026-04-22T09:59:26.999Z</time></trkpt><trkpt lat="43.25603526400587" lon="6.256800741926867"><ele>337.0</ele><time>2026-04-22T09:59:27.999Z</time></trkpt><trkpt lat="43.25594557281231" lon="6.256841027067498"><ele>337.0</ele><time>2026-04-22T09:59:28.999Z</time></trkpt><trkpt lat="43.2558490405409" lon="6.256880193712381"><ele>337.0</ele><time>2026-04-22T09:59:29.999Z</time></trkpt><trkpt lat="43.25574318448185" lon="6.25692462975102"><ele>337.0</ele><time>2026-04-22T09:59:30.999Z</time></trkpt><trkpt lat="43.25564517062319" lon="6.256969546730915"><ele>337.0</ele><time>2026-04-22T09:59:31.999Z</time></trkpt><trkpt lat="43.255557722068566" lon="6.257016437705694"><ele>341.8</ele><time>2026-04-22T09:59:32.999Z</time></trkpt><trkpt lat="43.25548790351779" lon="6.257052137836798"><ele>346.6</ele><time>2026-04-22T09:59:33.999Z</time></trkpt><trkpt lat="43.25538184053842" lon="6.257091898634855"><ele>351.40000000000003</ele><time>2026-04-22T09:59:35.999Z</time></trkpt><trkpt lat="43.255293844989424" lon="6.2570865627889996"><ele>356.20000000000005</ele><time>2026-04-22T09:59:37.999Z</time></trkpt><trkpt lat="43.25525423332196" lon="6.256963258288904"><ele>361.0</ele><time>2026-04-22T09:59:39.999Z</time></trkpt><trkpt lat="43.25531279232225" lon="6.256786956261031"><ele>361.0</ele><time>2026-04-22T09:59:41.999Z</time></trkpt><trkpt lat="43.25535333273847" lon="6.25667023203459"><ele>361.0</ele><time>2026-04-22T09:59:42.999Z</time></trkpt><trkpt lat="43.25537501884899" lon="6.256550907998932"><ele>361.0</ele><time>2026-04-22T09:59:43.999Z</time></trkpt><trkpt lat="43.255390492077886" lon="6.256457470971619"><ele>361.0</ele><time>2026-04-22T09:59:44.999Z</time></trkpt><trkpt lat="43.25540034750186" lon="6.256354965410731"><ele>361.0</ele><time>2026-04-22T09:59:45.999Z</time></trkpt><trkpt lat="43.25540446915778" lon="6.256189647719024"><ele>361.0</ele><time>2026-04-22T09:59:47.999Z</time></trkpt><trkpt lat="43.25536400223295" lon="6.256032202003838"><ele>360.3333333333333</ele><time>2026-04-22T09:59:49.999Z</time></trkpt><trkpt lat="43.25531628696401" lon="6.255955372751174"><ele>359.66666666666663</ele><time>2026-04-22T09:59:50.999Z</time></trkpt><trkpt lat="43.25525861883128" lon="6.2558910080535615"><ele>359.0</ele><time>2026-04-22T09:59:52.999Z</time></trkpt><trkpt lat="43.25522353220257" lon="6.255785933485506"><ele>358.3333333333333</ele><time>2026-04-22T09:59:53.999Z</time></trkpt><trkpt lat="43.25527471026283" lon="6.255675652240607"><ele>357.6666666666667</ele><time>2026-04-22T09:59:55.999Z</time></trkpt><trkpt lat="43.25534326279133" lon="6.2556260861687685"><ele>357.0</ele><time>2026-04-22T09:59:56.999Z</time></trkpt><trkpt lat="43.25541584718892" lon="6.255590960522312"><ele>357.0</ele><time>2026-04-22T09:59:57.999Z</time></trkpt><trkpt lat="43.2554856929948" lon="6.255548011739209"><ele>357.0</ele><time>2026-04-22T09:59:58.999Z</time></trkpt><trkpt lat="43.25555858606847" lon="6.255469496652656"><ele>357.0</ele><time>2026-04-22T10:00:00.999Z</time></trkpt><trkpt lat="43.255591892395344" lon="6.25537971637352"><ele>357.0</ele><time>2026-04-22T10:00:01.999Z</time></trkpt><trkpt lat="43.25564223846382" lon="6.2552145189714565"><ele>357.0</ele><time>2026-04-22T10:00:03.999Z</time></trkpt><trkpt lat="43.25565939296608" lon="6.25511904574131"><ele>357.0</ele><time>2026-04-22T10:00:04.999Z</time></trkpt><trkpt lat="43.25567654416145" lon="6.255012316019483"><ele>351.5</ele><time>2026-04-22T10:00:05.999Z</time></trkpt><trkpt lat="43.25570145910302" lon="6.25491288280973"><ele>346.0</ele><time>2026-04-22T10:00:06.999Z</time></trkpt><trkpt lat="43.25573435312652" lon="6.254824686810851"><ele>340.5</ele><time>2026-04-22T10:00:07.999Z</time></trkpt><trkpt lat="43.25577414232211" lon="6.254743016238577"><ele>335.0</ele><time>2026-04-22T10:00:08.999Z</time></trkpt><trkpt lat="43.255840699790056" lon="6.254596719550601"><ele>329.5</ele><time>2026-04-22T10:00:10.999Z</time></trkpt><trkpt lat="43.25587294495645" lon="6.254510968763167"><ele>324.0</ele><time>2026-04-22T10:00:11.999Z</time></trkpt><trkpt lat="43.25593113861756" lon="6.254356977142792"><ele>324.0</ele><time>2026-04-22T10:00:13.999Z</time></trkpt><trkpt lat="43.2559580492456" lon="6.254272017575196"><ele>324.0</ele><time>2026-04-22T10:00:14.999Z</time></trkpt><trkpt lat="43.25597985184654" lon="6.25418252974351"><ele>324.0</ele><time>2026-04-22T10:00:15.999Z</time></trkpt><trkpt lat="43.25598940651307" lon="6.254081632961553"><ele>324.0</ele><time>2026-04-22T10:00:16.999Z</time></trkpt><trkpt lat="43.25599322547827" lon="6.2539949188923325"><ele>324.0</ele><time>2026-04-22T10:00:17.999Z</time></trkpt><trkpt lat="43.255966704488614" lon="6.253856762339535"><ele>324.0</ele><time>2026-04-22T10:00:19.999Z</time></trkpt><trkpt lat="43.25593760894296" lon="6.253777574880524"><ele>324.0</ele><time>2026-04-22T10:00:20.999Z</time></trkpt><trkpt lat="43.25589027556621" lon="6.253701309135753"><ele>325.3333333333333</ele><time>2026-04-22T10:00:21.999Z</time></trkpt><trkpt lat="43.25580004095597" lon="6.253629263477869"><ele>326.6666666666667</ele><time>2026-04-22T10:00:23.999Z</time></trkpt><trkpt lat="43.25574200425742" lon="6.253575458138278"><ele>328.0</ele><time>2026-04-22T10:00:24.999Z</time></trkpt><trkpt lat="43.25567887964664" lon="6.253545559434603"><ele>329.33333333333337</ele><time>2026-04-22T10:00:26Z</time></trkpt><trkpt lat="43.25560271523937" lon="6.253530890623554"><ele>330.6666666666667</ele><time>2026-04-22T10:00:27Z</time></trkpt><trkpt lat="43.2555289428642" lon="6.253511679773234"><ele>332.0</ele><time>2026-04-22T10:00:28Z</time></trkpt><trkpt lat="43.255382856142205" lon="6.253494452308569"><ele>332.0</ele><time>2026-04-22T10:00:30Z</time></trkpt><trkpt lat="43.255304994700694" lon="6.253474996436872"><ele>332.0</ele><time>2026-04-22T10:00:31Z</time></trkpt><trkpt lat="43.255203100981355" lon="6.253464495447948"><ele>332.0</ele><time>2026-04-22T10:00:33Z</time></trkpt><trkpt lat="43.25516330707623" lon="6.253363635103057"><ele>332.0</ele><time>2026-04-22T10:00:35Z</time></trkpt><trkpt lat="43.255198337477886" lon="6.253225932468079"><ele>332.0</ele><time>2026-04-22T10:00:37Z</time></trkpt><trkpt lat="43.25523589545716" lon="6.253135875076173"><ele>332.0</ele><time>2026-04-22T10:00:38Z</time></trkpt><trkpt lat="43.25529718097833" lon="6.253077373469617"><ele>329.0</ele><time>2026-04-22T10:00:39Z</time></trkpt><trkpt lat="43.25535613396511" lon="6.252954324987461"><ele>326.0</ele><time>2026-04-22T10:00:41Z</time></trkpt><trkpt lat="43.25537960439435" lon="6.252809895429836"><ele>323.0</ele><time>2026-04-22T10:00:43Z</time></trkpt><trkpt lat="43.25537283450651" lon="6.2526821808061515"><ele>320.0</ele><time>2026-04-22T10:00:45Z</time></trkpt><trkpt lat="43.25533974663627" lon="6.252581581112469"><ele>317.0</ele><time>2026-04-22T10:00:47Z</time></trkpt><trkpt lat="43.255297368233684" lon="6.252514713146979"><ele>317.0</ele><time>2026-04-22T10:00:48Z</time></trkpt><trkpt lat="43.25524919464207" lon="6.252445494939982"><ele>317.0</ele><time>2026-04-22T10:00:49Z</time></trkpt><trkpt lat="43.2551961738453" lon="6.252378368427967"><ele>317.0</ele><time>2026-04-22T10:00:50Z</time></trkpt><trkpt lat="43.255135587681714" lon="6.252331366126401"><ele>317.0</ele><time>2026-04-22T10:00:51Z</time></trkpt><trkpt lat="43.25507495684516" lon="6.252283174038294"><ele>317.0</ele><time>2026-04-22T10:00:52Z</time></trkpt><trkpt lat="43.25500467098552" lon="6.252247146128262"><ele>317.0</ele><time>2026-04-22T10:00:53Z</time></trkpt><trkpt lat="43.254932420185824" lon="6.252226842364459"><ele>317.0</ele><time>2026-04-22T10:00:54Z</time></trkpt><trkpt lat="43.25486492989376" lon="6.2522010577159675"><ele>313.83333333333337</ele><time>2026-04-22T10:00:55Z</time></trkpt><trkpt lat="43.25479731787433" lon="6.252141709347305"><ele>310.6666666666667</ele><time>2026-04-22T10:00:57Z</time></trkpt><trkpt lat="43.25475980094771" lon="6.252046049052285"><ele>307.5</ele><time>2026-04-22T10:00:59Z</time></trkpt><trkpt lat="43.25478754703858" lon="6.25188729836222"><ele>304.3333333333333</ele><time>2026-04-22T10:01:01Z</time></trkpt><trkpt lat="43.254810807688635" lon="6.251786611695351"><ele>301.16666666666663</ele><time>2026-04-22T10:01:02Z</time></trkpt><trkpt lat="43.254831497795486" lon="6.251690045517038"><ele>298.0</ele><time>2026-04-22T10:01:03Z</time></trkpt><trkpt lat="43.25484800889695" lon="6.251551044493376"><ele>295.8</ele><time>2026-04-22T10:01:05Z</time></trkpt><trkpt lat="43.25485146485373" lon="6.25144416186204"><ele>293.6</ele><time>2026-04-22T10:01:06Z</time></trkpt><trkpt lat="43.254836390800946" lon="6.251336378947283"><ele>291.4</ele><time>2026-04-22T10:01:07Z</time></trkpt><trkpt lat="43.2548107328615" lon="6.251204662941575"><ele>289.2</ele><time>2026-04-22T10:01:08Z</time></trkpt><trkpt lat="43.254788053336554" lon="6.251076445186868"><ele>287.0</ele><time>2026-04-22T10:01:09Z</time></trkpt><trkpt lat="43.25477321379933" lon="6.250942024542146"><ele>292.4</ele><time>2026-04-22T10:01:10Z</time></trkpt><trkpt lat="43.2547753909102" lon="6.250811858172433"><ele>297.79999999999995</ele><time>2026-04-22T10:01:11Z</time></trkpt><trkpt lat="43.25477487607663" lon="6.250679574842432"><ele>303.2</ele><time>2026-04-22T10:01:12Z</time></trkpt><trkpt lat="43.2547824859003" lon="6.250568083686946"><ele>308.59999999999997</ele><time>2026-04-22T10:01:13Z</time></trkpt><trkpt lat="43.254766610962825" lon="6.250439981093377"><ele>314.0</ele><time>2026-04-22T10:01:14Z</time></trkpt><trkpt lat="43.25475649169625" lon="6.250316411007804"><ele>314.0</ele><time>2026-04-22T10:01:15Z</time></trkpt><trkpt lat="43.25475173890626" lon="6.250199132064776"><ele>314.0</ele><time>2026-04-22T10:01:16Z</time></trkpt><trkpt lat="43.254738549440056" lon="6.2500562489779"><ele>314.0</ele><time>2026-04-22T10:01:17Z</time></trkpt><trkpt lat="43.25474439096687" lon="6.249936822379236"><ele>314.0</ele><time>2026-04-22T10:01:18Z</time></trkpt><trkpt lat="43.25474104013914" lon="6.249829377419868"><ele>314.0</ele><time>2026-04-22T10:01:19Z</time></trkpt><trkpt lat="43.254733182792144" lon="6.249724592049247"><ele>314.0</ele><time>2026-04-22T10:01:20Z</time></trkpt><trkpt lat="43.25471412695074" lon="6.249609333264459"><ele>310.0</ele><time>2026-04-22T10:01:21Z</time></trkpt><trkpt lat="43.25468141483991" lon="6.24951185386664"><ele>306.0</ele><time>2026-04-22T10:01:22Z</time></trkpt><trkpt lat="43.25464523624611" lon="6.249425846105414"><ele>302.0</ele><time>2026-04-22T10:01:23Z</time></trkpt><trkpt lat="43.25459545590472" lon="6.249355663475153"><ele>298.0</ele><time>2026-04-22T10:01:24Z</time></trkpt><trkpt lat="43.2545208514037" lon="6.249271159904262"><ele>294.0</ele><time>2026-04-22T10:01:25Z</time></trkpt><trkpt lat="43.25444079451047" lon="6.249212565172348"><ele>290.0</ele><time>2026-04-22T10:01:26Z</time></trkpt><trkpt lat="43.254365415661404" lon="6.249150319129157"><ele>290.0</ele><time>2026-04-22T10:01:27Z</time></trkpt><trkpt lat="43.25427427411896" lon="6.249100384517318"><ele>290.0</ele><time>2026-04-22T10:01:28Z</time></trkpt><trkpt lat="43.25419247645479" lon="6.249054905169844"><ele>290.0</ele><time>2026-04-22T10:01:29Z</time></trkpt><trkpt lat="43.25410847979602" lon="6.249023565149076"><ele>290.0</ele><time>2026-04-22T10:01:30Z</time></trkpt><trkpt lat="43.25401339333956" lon="6.2490082623620005"><ele>290.0</ele><time>2026-04-22T10:01:31Z</time></trkpt><trkpt lat="43.2539051188618" lon="6.248983794674243"><ele>290.33333333333337</ele><time>2026-04-22T10:01:31.999Z</time></trkpt><trkpt lat="43.2538011678178" lon="6.248958032510162"><ele>290.6666666666667</ele><time>2026-04-22T10:01:32.999Z</time></trkpt><trkpt lat="43.25370557528079" lon="6.24894277184547"><ele>291.0</ele><time>2026-04-22T10:01:33.999Z</time></trkpt><trkpt lat="43.25362932977713" lon="6.248931270140171"><ele>291.3333333333333</ele><time>2026-04-22T10:01:34.999Z</time></trkpt><trkpt lat="43.253551541155886" lon="6.248909128029666"><ele>291.66666666666663</ele><time>2026-04-22T10:01:35.999Z</time></trkpt><trkpt lat="43.25348332467457" lon="6.248889415532314"><ele>292.0</ele><time>2026-04-22T10:01:36.999Z</time></trkpt><trkpt lat="43.253364182478194" lon="6.248888237760463"><ele>292.0</ele><time>2026-04-22T10:01:38.999Z</time></trkpt><trkpt lat="43.25327745873369" lon="6.24887788828979"><ele>292.0</ele><time>2026-04-22T10:01:40.999Z</time></trkpt><trkpt lat="43.25322219315036" lon="6.2488276050447915"><ele>292.0</ele><time>2026-04-22T10:01:42.999Z</time></trkpt><trkpt lat="43.253246666235555" lon="6.248733876071663"><ele>292.0</ele><time>2026-04-22T10:01:44.999Z</time></trkpt><trkpt lat="43.253317343155594" lon="6.248651628131159"><ele>292.0</ele><time>2026-04-22T10:01:46.999Z</time></trkpt><trkpt lat="43.2533764923235" lon="6.248579209871506"><ele>292.0</ele><time>2026-04-22T10:01:47.999Z</time></trkpt><trkpt lat="43.253432972120514" lon="6.248503142911496"><ele>292.0</ele><time>2026-04-22T10:01:48.999Z</time></trkpt><trkpt lat="43.253493065195656" lon="6.248422629642582"><ele>292.0</ele><time>2026-04-22T10:01:49.999Z</time></trkpt><trkpt lat="43.25354668211497" lon="6.248365925552258"><ele>292.0</ele><time>2026-04-22T10:01:50.999Z</time></trkpt><trkpt lat="43.253607255977236" lon="6.248315795052293"><ele>292.0</ele><time>2026-04-22T10:01:51.999Z</time></trkpt><trkpt lat="43.253692371035626" lon="6.248275969619099"><ele>292.0</ele><time>2026-04-22T10:01:52.999Z</time></trkpt><trkpt lat="43.253772839277815" lon="6.248266240445908"><ele>292.0</ele><time>2026-04-22T10:01:54.999Z</time></trkpt><trkpt lat="43.25384656909971" lon="6.248227083292913"><ele>292.0</ele><time>2026-04-22T10:01:55.999Z</time></trkpt><trkpt lat="43.2539107191762" lon="6.24817349968508"><ele>292.0</ele><time>2026-04-22T10:01:56.999Z</time></trkpt><trkpt lat="43.25400094453963" lon="6.248110279425502"><ele>292.0</ele><time>2026-04-22T10:01:57.999Z</time></trkpt><trkpt lat="43.254056212638396" lon="6.248058322333767"><ele>292.0</ele><time>2026-04-22T10:01:58.999Z</time></trkpt><trkpt lat="43.254138557195056" lon="6.248014932630075"><ele>292.0</ele><time>2026-04-22T10:01:59.999Z</time></trkpt><trkpt lat="43.25421077454959" lon="6.247981400564509"><ele>292.0</ele><time>2026-04-22T10:02:00.999Z</time></trkpt><trkpt lat="43.254274143884714" lon="6.247975459538622"><ele>291.0</ele><time>2026-04-22T10:02:01.999Z</time></trkpt><trkpt lat="43.25436144122571" lon="6.247934058578722"><ele>290.0</ele><time>2026-04-22T10:02:02.999Z</time></trkpt><trkpt lat="43.254428002526026" lon="6.247922173200399"><ele>289.0</ele><time>2026-04-22T10:02:03.999Z</time></trkpt><trkpt lat="43.2545259353294" lon="6.247870378383884"><ele>288.0</ele><time>2026-04-22T10:02:05.999Z</time></trkpt><trkpt lat="43.25459031697695" lon="6.247820759034042"><ele>287.0</ele><time>2026-04-22T10:02:06.999Z</time></trkpt><trkpt lat="43.25464040633062" lon="6.247759267779777"><ele>286.0</ele><time>2026-04-22T10:02:07.999Z</time></trkpt><trkpt lat="43.25467681564173" lon="6.247642727325971"><ele>286.0</ele><time>2026-04-22T10:02:08.999Z</time></trkpt><trkpt lat="43.25470810546005" lon="6.247543995083913"><ele>286.0</ele><time>2026-04-22T10:02:09.999Z</time></trkpt><trkpt lat="43.254710104159884" lon="6.247423340419425"><ele>286.0</ele><time>2026-04-22T10:02:10.999Z</time></trkpt><trkpt lat="43.254704661341364" lon="6.24730719892506"><ele>286.0</ele><time>2026-04-22T10:02:11.999Z</time></trkpt><trkpt lat="43.25468389122388" lon="6.247178647916782"><ele>286.0</ele><time>2026-04-22T10:02:12.999Z</time></trkpt><trkpt lat="43.25466432719173" lon="6.247056643095168"><ele>286.0</ele><time>2026-04-22T10:02:13.999Z</time></trkpt><trkpt lat="43.254668192375775" lon="6.246879289985473"><ele>286.2</ele><time>2026-04-22T10:02:15.999Z</time></trkpt><trkpt lat="43.25468369177372" lon="6.246768351269169"><ele>286.40000000000003</ele><time>2026-04-22T10:02:16.999Z</time></trkpt><trkpt lat="43.254681607167726" lon="6.2466623328344"><ele>286.6</ele><time>2026-04-22T10:02:17.999Z</time></trkpt><trkpt lat="43.254681015481594" lon="6.24655155182007"><ele>286.8</ele><time>2026-04-22T10:02:18.999Z</time></trkpt><trkpt lat="43.25468676768058" lon="6.246350759443921"><ele>287.0</ele><time>2026-04-22T10:02:20.999Z</time></trkpt><trkpt lat="43.254656542920415" lon="6.246238173735774"><ele>287.0</ele><time>2026-04-22T10:02:21.999Z</time></trkpt><trkpt lat="43.254635316567786" lon="6.246138686838429"><ele>287.0</ele><time>2026-04-22T10:02:22.999Z</time></trkpt><trkpt lat="43.254626132588534" lon="6.246045658354426"><ele>287.0</ele><time>2026-04-22T10:02:23.999Z</time></trkpt><trkpt lat="43.254622458162686" lon="6.245934351008925"><ele>287.0</ele><time>2026-04-22T10:02:24.999Z</time></trkpt><trkpt lat="43.254611829669976" lon="6.245829986370926"><ele>287.0</ele><time>2026-04-22T10:02:25.999Z</time></trkpt><trkpt lat="43.25459095049454" lon="6.245718578593623"><ele>287.0</ele><time>2026-04-22T10:02:26.999Z</time></trkpt><trkpt lat="43.25454991932049" lon="6.245610281069094"><ele>284.6</ele><time>2026-04-22T10:02:27.999Z</time></trkpt><trkpt lat="43.2545065786807" lon="6.2454917259956995"><ele>282.2</ele><time>2026-04-22T10:02:28.999Z</time></trkpt><trkpt lat="43.254449162815476" lon="6.245353250552634"><ele>279.8</ele><time>2026-04-22T10:02:29.999Z</time></trkpt><trkpt lat="43.25440338744698" lon="6.245227894459554"><ele>277.4</ele><time>2026-04-22T10:02:30.999Z</time></trkpt><trkpt lat="43.254349107672894" lon="6.245084775638724"><ele>275.0</ele><time>2026-04-22T10:02:32Z</time></trkpt><trkpt lat="43.25429527931114" lon="6.244914027017487"><ele>272.2</ele><time>2026-04-22T10:02:33Z</time></trkpt><trkpt lat="43.254237296259404" lon="6.244774592972699"><ele>269.4</ele><time>2026-04-22T10:02:34Z</time></trkpt><trkpt lat="43.25419662201932" lon="6.244649690920384"><ele>266.6</ele><time>2026-04-22T10:02:35Z</time></trkpt><trkpt lat="43.2541617204851" lon="6.244543352786024"><ele>263.8</ele><time>2026-04-22T10:02:36Z</time></trkpt><trkpt lat="43.25413685966434" lon="6.244431703048426"><ele>261.0</ele><time>2026-04-22T10:02:37Z</time></trkpt><trkpt lat="43.25410558320765" lon="6.244322778365174"><ele>261.0</ele><time>2026-04-22T10:02:38Z</time></trkpt><trkpt lat="43.25407191940673" lon="6.244242746797771"><ele>261.0</ele><time>2026-04-22T10:02:39Z</time></trkpt><trkpt lat="43.254022763463624" lon="6.244169417550695"><ele>261.0</ele><time>2026-04-22T10:02:40Z</time></trkpt><trkpt lat="43.25396558785809" lon="6.244091513514849"><ele>261.0</ele><time>2026-04-22T10:02:41Z</time></trkpt><trkpt lat="43.253881123695415" lon="6.244040632898741"><ele>261.0</ele><time>2026-04-22T10:02:42Z</time></trkpt><trkpt lat="43.253805285729314" lon="6.243994811086522"><ele>261.0</ele><time>2026-04-22T10:02:43Z</time></trkpt><trkpt lat="43.25371095914551" lon="6.243950258392886"><ele>265.5</ele><time>2026-04-22T10:02:44Z</time></trkpt><trkpt lat="43.25361943771336" lon="6.243921333315748"><ele>270.0</ele><time>2026-04-22T10:02:45Z</time></trkpt><trkpt lat="43.253559989674244" lon="6.243872840989225"><ele>274.5</ele><time>2026-04-22T10:02:46Z</time></trkpt><trkpt lat="43.25349321751412" lon="6.243853219815612"><ele>279.0</ele><time>2026-04-22T10:02:47Z</time></trkpt><trkpt lat="43.25341869204357" lon="6.243789149278401"><ele>283.5</ele><time>2026-04-22T10:02:49Z</time></trkpt><trkpt lat="43.25340879668822" lon="6.243632307331791"><ele>288.0</ele><time>2026-04-22T10:02:51Z</time></trkpt><trkpt lat="43.25344491729199" lon="6.243558222854334"><ele>288.0</ele><time>2026-04-22T10:02:52Z</time></trkpt><trkpt lat="43.25352007633066" lon="6.243391835759224"><ele>288.0</ele><time>2026-04-22T10:02:54Z</time></trkpt><trkpt lat="43.25357402195712" lon="6.243296312607268"><ele>288.0</ele><time>2026-04-22T10:02:55Z</time></trkpt><trkpt lat="43.253630788507735" lon="6.243191392884793"><ele>288.0</ele><time>2026-04-22T10:02:56Z</time></trkpt><trkpt lat="43.253673488017185" lon="6.24307661047146"><ele>288.0</ele><time>2026-04-22T10:02:57Z</time></trkpt><trkpt lat="43.25368444579003" lon="6.242984964251297"><ele>289.4</ele><time>2026-04-22T10:02:58Z</time></trkpt><trkpt lat="43.25368647783588" lon="6.242876871774215"><ele>290.8</ele><time>2026-04-22T10:02:59Z</time></trkpt><trkpt lat="43.25369342226903" lon="6.242758360073508"><ele>292.2</ele><time>2026-04-22T10:03:00Z</time></trkpt><trkpt lat="43.25368120023704" lon="6.242606218832492"><ele>293.6</ele><time>2026-04-22T10:03:01Z</time></trkpt><trkpt lat="43.25366632635909" lon="6.2424607180891005"><ele>295.0</ele><time>2026-04-22T10:03:02Z</time></trkpt><trkpt lat="43.25364702514348" lon="6.242307787293224"><ele>294.6</ele><time>2026-04-22T10:03:03Z</time></trkpt><trkpt lat="43.253632332727896" lon="6.242154546979682"><ele>294.2</ele><time>2026-04-22T10:03:04Z</time></trkpt><trkpt lat="43.25363355049261" lon="6.2420105866007916"><ele>293.8</ele><time>2026-04-22T10:03:05Z</time></trkpt><trkpt lat="43.25362735069352" lon="6.241873868069214"><ele>293.4</ele><time>2026-04-22T10:03:06Z</time></trkpt><trkpt lat="43.253612315609075" lon="6.241711228013292"><ele>293.0</ele><time>2026-04-22T10:03:07Z</time></trkpt><trkpt lat="43.25359823945188" lon="6.241574894690984"><ele>291.5</ele><time>2026-04-22T10:03:08Z</time></trkpt><trkpt lat="43.2535812195664" lon="6.241460264383321"><ele>290.0</ele><time>2026-04-22T10:03:09Z</time></trkpt><trkpt lat="43.253546657488144" lon="6.241347948744903"><ele>288.5</ele><time>2026-04-22T10:03:10Z</time></trkpt><trkpt lat="43.25350502275648" lon="6.241249213521948"><ele>287.0</ele><time>2026-04-22T10:03:11Z</time></trkpt><trkpt lat="43.2534584072668" lon="6.241171713132244"><ele>285.5</ele><time>2026-04-22T10:03:12Z</time></trkpt><trkpt lat="43.25338760051543" lon="6.241103404784637"><ele>284.0</ele><time>2026-04-22T10:03:13Z</time></trkpt><trkpt lat="43.25330837343858" lon="6.241040470142933"><ele>284.0</ele><time>2026-04-22T10:03:14Z</time></trkpt><trkpt lat="43.25322046132036" lon="6.241002059765294"><ele>284.0</ele><time>2026-04-22T10:03:15Z</time></trkpt><trkpt lat="43.253154259522816" lon="6.240983496200758"><ele>284.0</ele><time>2026-04-22T10:03:16Z</time></trkpt><trkpt lat="43.2530461891206" lon="6.240945400705889"><ele>284.0</ele><time>2026-04-22T10:03:18Z</time></trkpt><trkpt lat="43.253010169362256" lon="6.240800981192581"><ele>284.0</ele><time>2026-04-22T10:03:20Z</time></trkpt><trkpt lat="43.25299858611601" lon="6.240674428143886"><ele>289.4</ele><time>2026-04-22T10:03:21Z</time></trkpt><trkpt lat="43.25299736673895" lon="6.240543922588373"><ele>294.79999999999995</ele><time>2026-04-22T10:03:22Z</time></trkpt><trkpt lat="43.25300512103871" lon="6.240406067621725"><ele>300.20000000000005</ele><time>2026-04-22T10:03:23Z</time></trkpt><trkpt lat="43.25301163319263" lon="6.240264994030887"><ele>305.6</ele><time>2026-04-22T10:03:24Z</time></trkpt><trkpt lat="43.253024954508405" lon="6.240129677708781"><ele>311.0</ele><time>2026-04-22T10:03:25Z</time></trkpt><trkpt lat="43.25302754809995" lon="6.2400216876943375"><ele>311.0</ele><time>2026-04-22T10:03:26Z</time></trkpt><trkpt lat="43.25301229406795" lon="6.239924167317218"><ele>311.0</ele><time>2026-04-22T10:03:27Z</time></trkpt><trkpt lat="43.25295998285072" lon="6.239847045851522"><ele>311.0</ele><time>2026-04-22T10:03:28Z</time></trkpt><trkpt lat="43.25293192460289" lon="6.239743732519245"><ele>311.0</ele><time>2026-04-22T10:03:29Z</time></trkpt><trkpt lat="43.25287672694237" lon="6.239691126611915"><ele>311.0</ele><time>2026-04-22T10:03:30Z</time></trkpt><trkpt lat="43.25281708592619" lon="6.23958740411605"><ele>311.0</ele><time>2026-04-22T10:03:32Z</time></trkpt><trkpt lat="43.252851184670995" lon="6.239471709976253"><ele>311.8</ele><time>2026-04-22T10:03:34Z</time></trkpt><trkpt lat="43.25294856839688" lon="6.239424079730464"><ele>312.6</ele><time>2026-04-22T10:03:36Z</time></trkpt><trkpt lat="43.253047211330596" lon="6.239387010842335"><ele>313.4</ele><time>2026-04-22T10:03:37Z</time></trkpt><trkpt lat="43.253137310212026" lon="6.239351152155608"><ele>314.2</ele><time>2026-04-22T10:03:38Z</time></trkpt><trkpt lat="43.25324112025501" lon="6.239315709212062"><ele>315.0</ele><time>2026-04-22T10:03:39Z</time></trkpt><trkpt lat="43.25333480446123" lon="6.239272942725873"><ele>311.1666666666667</ele><time>2026-04-22T10:03:40Z</time></trkpt><trkpt lat="43.25341310888676" lon="6.239228978835018"><ele>307.3333333333333</ele><time>2026-04-22T10:03:40.999Z</time></trkpt><trkpt lat="43.25347575351961" lon="6.239175792703493"><ele>303.5</ele><time>2026-04-22T10:03:41.999Z</time></trkpt><trkpt lat="43.25353988141878" lon="6.239100461333529"><ele>299.66666666666663</ele><time>2026-04-22T10:03:42.999Z</time></trkpt><trkpt lat="43.253584894400625" lon="6.239001222379162"><ele>295.8333333333333</ele><time>2026-04-22T10:03:43.999Z</time></trkpt><trkpt lat="43.253618605754504" lon="6.2388881715384095"><ele>292.0</ele><time>2026-04-22T10:03:44.999Z</time></trkpt><trkpt lat="43.25362817125818" lon="6.238756772540004"><ele>292.0</ele><time>2026-04-22T10:03:45.999Z</time></trkpt><trkpt lat="43.253630188130785" lon="6.238594009705132"><ele>292.0</ele><time>2026-04-22T10:03:46.999Z</time></trkpt><trkpt lat="43.25362637592685" lon="6.2384211846658335"><ele>292.0</ele><time>2026-04-22T10:03:47.999Z</time></trkpt><trkpt lat="43.253610043297805" lon="6.238280843184593"><ele>292.0</ele><time>2026-04-22T10:03:48.999Z</time></trkpt><trkpt lat="43.2535906378654" lon="6.238133641021096"><ele>291.5</ele><time>2026-04-22T10:03:49.999Z</time></trkpt><trkpt lat="43.25357023763512" lon="6.237972964111438"><ele>291.0</ele><time>2026-04-22T10:03:50.999Z</time></trkpt><trkpt lat="43.25354322407326" lon="6.237807770020571"><ele>290.5</ele><time>2026-04-22T10:03:51.999Z</time></trkpt><trkpt lat="43.25350801439371" lon="6.237648879766426"><ele>290.0</ele><time>2026-04-22T10:03:52.999Z</time></trkpt><trkpt lat="43.25348557006005" lon="6.237513468252948"><ele>290.0</ele><time>2026-04-22T10:03:53.999Z</time></trkpt><trkpt lat="43.253459942497116" lon="6.237384462151201"><ele>290.0</ele><time>2026-04-22T10:03:54.999Z</time></trkpt><trkpt lat="43.25343124761599" lon="6.237250379157349"><ele>290.0</ele><time>2026-04-22T10:03:55.999Z</time></trkpt><trkpt lat="43.25339174760582" lon="6.237125806030957"><ele>290.0</ele><time>2026-04-22T10:03:56.999Z</time></trkpt><trkpt lat="43.253337443481236" lon="6.2370038907687455"><ele>290.0</ele><time>2026-04-22T10:03:57.999Z</time></trkpt><trkpt lat="43.253281671761336" lon="6.236897270232275"><ele>292.2</ele><time>2026-04-22T10:03:58.999Z</time></trkpt><trkpt lat="43.25321141156751" lon="6.236793040116264"><ele>294.4</ele><time>2026-04-22T10:03:59.999Z</time></trkpt><trkpt lat="43.253134521977366" lon="6.236706067917412"><ele>296.6</ele><time>2026-04-22T10:04:00.999Z</time></trkpt><trkpt lat="43.25305541926472" lon="6.23661176803217"><ele>298.8</ele><time>2026-04-22T10:04:01.999Z</time></trkpt><trkpt lat="43.25297479120465" lon="6.236529041166378"><ele>301.0</ele><time>2026-04-22T10:04:02.999Z</time></trkpt><trkpt lat="43.252883078099636" lon="6.236475561366654"><ele>296.0</ele><time>2026-04-22T10:04:03.999Z</time></trkpt><trkpt lat="43.25277742486938" lon="6.236415424331461"><ele>291.0</ele><time>2026-04-22T10:04:04.999Z</time></trkpt><trkpt lat="43.25267834996531" lon="6.236347659206489"><ele>286.0</ele><time>2026-04-22T10:04:05.999Z</time></trkpt><trkpt lat="43.252578384364256" lon="6.236281405787707"><ele>281.0</ele><time>2026-04-22T10:04:06.999Z</time></trkpt><trkpt lat="43.25246392323007" lon="6.236235920054895"><ele>281.0</ele><time>2026-04-22T10:04:07.999Z</time></trkpt><trkpt lat="43.25234600477278" lon="6.2361839824146115"><ele>281.0</ele><time>2026-04-22T10:04:08.999Z</time></trkpt><trkpt lat="43.25223640196675" lon="6.236131390817655"><ele>281.0</ele><time>2026-04-22T10:04:09.999Z</time></trkpt><trkpt lat="43.2521486567232" lon="6.236111055965041"><ele>281.0</ele><time>2026-04-22T10:04:10.999Z</time></trkpt><trkpt lat="43.25207399302482" lon="6.236079630309193"><ele>281.0</ele><time>2026-04-22T10:04:11.999Z</time></trkpt><trkpt lat="43.251981686849604" lon="6.236000140446847"><ele>286.83333333333337</ele><time>2026-04-22T10:04:13.999Z</time></trkpt><trkpt lat="43.251942478537885" lon="6.23591693806169"><ele>292.6666666666667</ele><time>2026-04-22T10:04:15.999Z</time></trkpt><trkpt lat="43.25199481694772" lon="6.235757487242042"><ele>298.5</ele><time>2026-04-22T10:04:17.999Z</time></trkpt><trkpt lat="43.25205406787439" lon="6.235707428252402"><ele>304.3333333333333</ele><time>2026-04-22T10:04:18.999Z</time></trkpt><trkpt lat="43.25207445507452" lon="6.235582211918136"><ele>310.16666666666663</ele><time>2026-04-22T10:04:19.999Z</time></trkpt><trkpt lat="43.2521064134788" lon="6.235479200681199"><ele>316.0</ele><time>2026-04-22T10:04:20.999Z</time></trkpt><trkpt lat="43.25209924416912" lon="6.235373104953588"><ele>317.00000000000006</ele><time>2026-04-22T10:04:21.999Z</time></trkpt><trkpt lat="43.25211926387771" lon="6.235289053867698"><ele>318.0</ele><time>2026-04-22T10:04:22.999Z</time></trkpt><trkpt lat="43.25212706447292" lon="6.235190721946866"><ele>319.0</ele><time>2026-04-22T10:04:23.999Z</time></trkpt><trkpt lat="43.25210389772285" lon="6.235095252345717"><ele>320.0</ele><time>2026-04-22T10:04:24.999Z</time></trkpt><trkpt lat="43.25210623342101" lon="6.23500644061305"><ele>321.0</ele><time>2026-04-22T10:04:25.999Z</time></trkpt><trkpt lat="43.25213281504247" lon="6.234894439065411"><ele>322.00000000000006</ele><time>2026-04-22T10:04:26.999Z</time></trkpt><trkpt lat="43.25217681883287" lon="6.234801131705446"><ele>323.0</ele><time>2026-04-22T10:04:27.999Z</time></trkpt><trkpt lat="43.25223535332159" lon="6.234717647926997"><ele>317.2</ele><time>2026-04-22T10:04:28.999Z</time></trkpt><trkpt lat="43.25231023488462" lon="6.23465016572245"><ele>311.4</ele><time>2026-04-22T10:04:29.999Z</time></trkpt><trkpt lat="43.252388814737415" lon="6.234573969435654"><ele>305.59999999999997</ele><time>2026-04-22T10:04:30.999Z</time></trkpt><trkpt lat="43.25246532895375" lon="6.23448527596066"><ele>299.79999999999995</ele><time>2026-04-22T10:04:31.999Z</time></trkpt><trkpt lat="43.25251474257224" lon="6.2343949789275355"><ele>294.0</ele><time>2026-04-22T10:04:32.999Z</time></trkpt><trkpt lat="43.25257975527143" lon="6.23427821396686"><ele>294.0</ele><time>2026-04-22T10:04:33.999Z</time></trkpt><trkpt lat="43.25265553585026" lon="6.234166250998104"><ele>294.0</ele><time>2026-04-22T10:04:34.999Z</time></trkpt><trkpt lat="43.25270548005299" lon="6.234076732591812"><ele>294.0</ele><time>2026-04-22T10:04:35.999Z</time></trkpt><trkpt lat="43.252754770636535" lon="6.233995006312081"><ele>294.0</ele><time>2026-04-22T10:04:36.999Z</time></trkpt><trkpt lat="43.25278725105408" lon="6.233897891626981"><ele>294.0</ele><time>2026-04-22T10:04:38Z</time></trkpt><trkpt lat="43.25280314311478" lon="6.233776364914463"><ele>294.0</ele><time>2026-04-22T10:04:39Z</time></trkpt><trkpt lat="43.25280769116295" lon="6.233658948045913"><ele>294.8</ele><time>2026-04-22T10:04:40Z</time></trkpt><trkpt lat="43.25280708266333" lon="6.2335248262896314"><ele>295.59999999999997</ele><time>2026-04-22T10:04:41Z</time></trkpt><trkpt lat="43.25279995838629" lon="6.233398329134359"><ele>296.4</ele><time>2026-04-22T10:04:42Z</time></trkpt><trkpt lat="43.252768068690074" lon="6.2332731101770475"><ele>297.2</ele><time>2026-04-22T10:04:43Z</time></trkpt><trkpt lat="43.2527275430115" lon="6.233156775860783"><ele>298.0</ele><time>2026-04-22T10:04:44Z</time></trkpt><trkpt lat="43.2526707493829" lon="6.233030435569754"><ele>295.6</ele><time>2026-04-22T10:04:45Z</time></trkpt><trkpt lat="43.25260515064059" lon="6.232902393997555"><ele>293.20000000000005</ele><time>2026-04-22T10:04:46Z</time></trkpt><trkpt lat="43.25253350324335" lon="6.232788989587109"><ele>290.8</ele><time>2026-04-22T10:04:47Z</time></trkpt><trkpt lat="43.252456908394834" lon="6.232680010594801"><ele>288.40000000000003</ele><time>2026-04-22T10:04:48Z</time></trkpt><trkpt lat="43.2523830520659" lon="6.232562716708126"><ele>286.0</ele><time>2026-04-22T10:04:49Z</time></trkpt><trkpt lat="43.25230714393777" lon="6.232464567930445"><ele>288.66666666666663</ele><time>2026-04-22T10:04:50Z</time></trkpt><trkpt lat="43.25222100143019" lon="6.232386662185854"><ele>291.3333333333333</ele><time>2026-04-22T10:04:51Z</time></trkpt><trkpt lat="43.252145733746175" lon="6.232316224633912"><ele>294.0</ele><time>2026-04-22T10:04:52Z</time></trkpt><trkpt lat="43.252078301521586" lon="6.232246956523773"><ele>296.6666666666667</ele><time>2026-04-22T10:04:53Z</time></trkpt><trkpt lat="43.2520138800614" lon="6.232156606636001"><ele>299.33333333333337</ele><time>2026-04-22T10:04:54Z</time></trkpt><trkpt lat="43.25199075399503" lon="6.23205632733226"><ele>302.0</ele><time>2026-04-22T10:04:55Z</time></trkpt><trkpt lat="43.251948979743375" lon="6.231940583496879"><ele>302.0</ele><time>2026-04-22T10:04:56Z</time></trkpt><trkpt lat="43.251905996383385" lon="6.231813296152573"><ele>302.0</ele><time>2026-04-22T10:04:57Z</time></trkpt><trkpt lat="43.25184278018175" lon="6.231674310507545"><ele>302.0</ele><time>2026-04-22T10:04:58Z</time></trkpt><trkpt lat="43.25179213516761" lon="6.231536591965659"><ele>302.0</ele><time>2026-04-22T10:04:59Z</time></trkpt><trkpt lat="43.25173038957532" lon="6.231399971431685"><ele>299.83333333333337</ele><time>2026-04-22T10:05:00Z</time></trkpt><trkpt lat="43.25168163420726" lon="6.2312919636381805"><ele>297.6666666666667</ele><time>2026-04-22T10:05:01Z</time></trkpt><trkpt lat="43.25162779135801" lon="6.231188039665738"><ele>295.5</ele><time>2026-04-22T10:05:02Z</time></trkpt><trkpt lat="43.25157602962478" lon="6.23112711933859"><ele>293.3333333333333</ele><time>2026-04-22T10:05:03Z</time></trkpt><trkpt lat="43.25149447652945" lon="6.231096455839851"><ele>291.16666666666663</ele><time>2026-04-22T10:05:04Z</time></trkpt><trkpt lat="43.25141896182463" lon="6.2310449495514435"><ele>289.0</ele><time>2026-04-22T10:05:05Z</time></trkpt><trkpt lat="43.25133556123373" lon="6.2309324397977495"><ele>293.0</ele><time>2026-04-22T10:05:06Z</time></trkpt><trkpt lat="43.25127053956471" lon="6.230831375320172"><ele>297.0</ele><time>2026-04-22T10:05:07Z</time></trkpt><trkpt lat="43.25122014366837" lon="6.230712681326538"><ele>301.0</ele><time>2026-04-22T10:05:08Z</time></trkpt><trkpt lat="43.2511658697281" lon="6.230585253475971"><ele>305.0</ele><time>2026-04-22T10:05:09Z</time></trkpt><trkpt lat="43.2511193837278" lon="6.230482311736875"><ele>309.0</ele><time>2026-04-22T10:05:10Z</time></trkpt><trkpt lat="43.251066266368426" lon="6.230387038117301"><ele>309.0</ele><time>2026-04-22T10:05:11Z</time></trkpt><trkpt lat="43.25098453776366" lon="6.230296468258322"><ele>309.0</ele><time>2026-04-22T10:05:12Z</time></trkpt><trkpt lat="43.2509179410639" lon="6.230253392508392"><ele>309.0</ele><time>2026-04-22T10:05:13Z</time></trkpt><trkpt lat="43.250875287236994" lon="6.230146512466232"><ele>309.0</ele><time>2026-04-22T10:05:14Z</time></trkpt><trkpt lat="43.250842845494205" lon="6.230044136512649"><ele>309.0</ele><time>2026-04-22T10:05:15Z</time></trkpt><trkpt lat="43.25081429299123" lon="6.22990270352529"><ele>308.3333333333333</ele><time>2026-04-22T10:05:16Z</time></trkpt><trkpt lat="43.25080294431304" lon="6.229784363774133"><ele>307.6666666666667</ele><time>2026-04-22T10:05:17Z</time></trkpt><trkpt lat="43.250786975421484" lon="6.229676606271077"><ele>307.0</ele><time>2026-04-22T10:05:18Z</time></trkpt><trkpt lat="43.25076833331761" lon="6.229565839274446"><ele>306.33333333333337</ele><time>2026-04-22T10:05:19Z</time></trkpt><trkpt lat="43.250741993132905" lon="6.229434742351177"><ele>305.6666666666667</ele><time>2026-04-22T10:05:20Z</time></trkpt><trkpt lat="43.25071851771236" lon="6.229321627880532"><ele>305.0</ele><time>2026-04-22T10:05:21Z</time></trkpt><trkpt lat="43.250743367241306" lon="6.229219207864707"><ele>305.0</ele><time>2026-04-22T10:05:22Z</time></trkpt><trkpt lat="43.25073641944909" lon="6.229130745730348"><ele>305.0</ele><time>2026-04-22T10:05:23Z</time></trkpt><trkpt lat="43.2507203460867" lon="6.229044975030658"><ele>305.0</ele><time>2026-04-22T10:05:24Z</time></trkpt><trkpt lat="43.250698419917754" lon="6.228950533258913"><ele>305.0</ele><time>2026-04-22T10:05:25Z</time></trkpt><trkpt lat="43.250687451710064" lon="6.22884604651801"><ele>305.0</ele><time>2026-04-22T10:05:26Z</time></trkpt><trkpt lat="43.25068417222126" lon="6.228734250944074"><ele>305.0</ele><time>2026-04-22T10:05:27Z</time></trkpt><trkpt lat="43.250672121872796" lon="6.228603758936626"><ele>305.8</ele><time>2026-04-22T10:05:28Z</time></trkpt><trkpt lat="43.25065102512675" lon="6.228472206351964"><ele>306.6</ele><time>2026-04-22T10:05:29Z</time></trkpt><trkpt lat="43.250616147494526" lon="6.2283463473655765"><ele>307.4</ele><time>2026-04-22T10:05:30Z</time></trkpt><trkpt lat="43.25057586435609" lon="6.228203695726076"><ele>308.2</ele><time>2026-04-22T10:05:31Z</time></trkpt><trkpt lat="43.25053144234927" lon="6.228063776353605"><ele>309.0</ele><time>2026-04-22T10:05:32Z</time></trkpt><trkpt lat="43.25048944841273" lon="6.227943133960892"><ele>304.4</ele><time>2026-04-22T10:05:33Z</time></trkpt><trkpt lat="43.250445878060326" lon="6.227821061047799"><ele>299.79999999999995</ele><time>2026-04-22T10:05:34Z</time></trkpt><trkpt lat="43.25040586923362" lon="6.227694015178861"><ele>295.20000000000005</ele><time>2026-04-22T10:05:35Z</time></trkpt><trkpt lat="43.25037404277667" lon="6.227568759965117"><ele>290.6</ele><time>2026-04-22T10:05:36Z</time></trkpt><trkpt lat="43.250349502422544" lon="6.227440762961368"><ele>286.0</ele><time>2026-04-22T10:05:37Z</time></trkpt><trkpt lat="43.2503294094556" lon="6.2273119723803525"><ele>287.40000000000003</ele><time>2026-04-22T10:05:38Z</time></trkpt><trkpt lat="43.25031610975011" lon="6.227172057410444"><ele>288.8</ele><time>2026-04-22T10:05:39Z</time></trkpt><trkpt lat="43.25030749913487" lon="6.227020530856065"><ele>290.20000000000005</ele><time>2026-04-22T10:05:40Z</time></trkpt><trkpt lat="43.25029661733762" lon="6.226868880315928"><ele>291.6</ele><time>2026-04-22T10:05:41Z</time></trkpt><trkpt lat="43.250288059553576" lon="6.226739585545848"><ele>293.0</ele><time>2026-04-22T10:05:42Z</time></trkpt><trkpt lat="43.25028136065504" lon="6.226625487694175"><ele>293.0</ele><time>2026-04-22T10:05:43Z</time></trkpt><trkpt lat="43.25027075684759" lon="6.226540274608646"><ele>293.0</ele><time>2026-04-22T10:05:44Z</time></trkpt><trkpt lat="43.25021527850788" lon="6.226414902115991"><ele>293.0</ele><time>2026-04-22T10:05:46Z</time></trkpt><trkpt lat="43.25016552157651" lon="6.226352038171742"><ele>293.0</ele><time>2026-04-22T10:05:47Z</time></trkpt><trkpt lat="43.25006328073618" lon="6.2262389568371095"><ele>293.0</ele><time>2026-04-22T10:05:48.999Z</time></trkpt><trkpt lat="43.24997765780283" lon="6.226149073317335"><ele>291.0</ele><time>2026-04-22T10:05:49.999Z</time></trkpt><trkpt lat="43.249883989327216" lon="6.226042427041848"><ele>289.0</ele><time>2026-04-22T10:05:50.999Z</time></trkpt><trkpt lat="43.249794975607585" lon="6.2259345448123184"><ele>287.0</ele><time>2026-04-22T10:05:51.999Z</time></trkpt><trkpt lat="43.2497216169261" lon="6.22584725712164"><ele>285.0</ele><time>2026-04-22T10:05:52.999Z</time></trkpt><trkpt lat="43.24964482513413" lon="6.22575947508035"><ele>283.0</ele><time>2026-04-22T10:05:53.999Z</time></trkpt><trkpt lat="43.24956770108803" lon="6.225677672445405"><ele>284.8333333333333</ele><time>2026-04-22T10:05:54.999Z</time></trkpt><trkpt lat="43.24948971821852" lon="6.22560268777644"><ele>286.66666666666663</ele><time>2026-04-22T10:05:55.999Z</time></trkpt><trkpt lat="43.24942850440241" lon="6.225548736472576"><ele>288.5</ele><time>2026-04-22T10:05:56.999Z</time></trkpt><trkpt lat="43.24937322161774" lon="6.225490007527281"><ele>290.3333333333333</ele><time>2026-04-22T10:05:57.999Z</time></trkpt><trkpt lat="43.24931874988797" lon="6.225414820445804"><ele>292.1666666666667</ele><time>2026-04-22T10:05:58.999Z</time></trkpt><trkpt lat="43.24926397393836" lon="6.225322972399803"><ele>294.0</ele><time>2026-04-22T10:05:59.999Z</time></trkpt><trkpt lat="43.249219941225746" lon="6.225225178615236"><ele>294.0</ele><time>2026-04-22T10:06:00.999Z</time></trkpt><trkpt lat="43.2491842192461" lon="6.225112960430775"><ele>294.0</ele><time>2026-04-22T10:06:01.999Z</time></trkpt><trkpt lat="43.249148046869834" lon="6.224990468785156"><ele>294.0</ele><time>2026-04-22T10:06:02.999Z</time></trkpt><trkpt lat="43.24910684698757" lon="6.224848837428417"><ele>294.0</ele><time>2026-04-22T10:06:03.999Z</time></trkpt><trkpt lat="43.24906799677609" lon="6.224700616588416"><ele>294.0</ele><time>2026-04-22T10:06:04.999Z</time></trkpt><trkpt lat="43.24902905761605" lon="6.22453519298878"><ele>295.25</ele><time>2026-04-22T10:06:05.999Z</time></trkpt><trkpt lat="43.24897935286069" lon="6.224358596459239"><ele>296.5</ele><time>2026-04-22T10:06:06.999Z</time></trkpt><trkpt lat="43.248931357247116" lon="6.224188244292102"><ele>297.75</ele><time>2026-04-22T10:06:07.999Z</time></trkpt><trkpt lat="43.24888922646591" lon="6.224032403065302"><ele>299.0</ele><time>2026-04-22T10:06:08.999Z</time></trkpt><trkpt lat="43.248842625152946" lon="6.223879714115115"><ele>293.5</ele><time>2026-04-22T10:06:09.999Z</time></trkpt><trkpt lat="43.248801321663194" lon="6.223743251449377"><ele>288.0</ele><time>2026-04-22T10:06:10.999Z</time></trkpt><trkpt lat="43.24875891665751" lon="6.22359491008061"><ele>282.5</ele><time>2026-04-22T10:06:11.999Z</time></trkpt><trkpt lat="43.24871472919582" lon="6.223446189681062"><ele>277.0</ele><time>2026-04-22T10:06:12.999Z</time></trkpt><trkpt lat="43.248667759245095" lon="6.223292834448653"><ele>277.0</ele><time>2026-04-22T10:06:13.999Z</time></trkpt><trkpt lat="43.24862599051587" lon="6.223158783200315"><ele>277.0</ele><time>2026-04-22T10:06:14.999Z</time></trkpt><trkpt lat="43.248586649704244" lon="6.223041026669304"><ele>277.0</ele><time>2026-04-22T10:06:15.999Z</time></trkpt><trkpt lat="43.24854547743937" lon="6.222933897703653"><ele>277.0</ele><time>2026-04-22T10:06:16.999Z</time></trkpt><trkpt lat="43.24850036259083" lon="6.2228457937941055"><ele>277.0</ele><time>2026-04-22T10:06:17.999Z</time></trkpt><trkpt lat="43.248448442737505" lon="6.222783879512496"><ele>277.0</ele><time>2026-04-22T10:06:18.999Z</time></trkpt><trkpt lat="43.24836136259765" lon="6.222729005219478"><ele>278.4</ele><time>2026-04-22T10:06:19.999Z</time></trkpt><trkpt lat="43.248277039849846" lon="6.222678056576518"><ele>279.79999999999995</ele><time>2026-04-22T10:06:20.999Z</time></trkpt><trkpt lat="43.24817717518189" lon="6.222644030903943"><ele>281.2</ele><time>2026-04-22T10:06:21.999Z</time></trkpt><trkpt lat="43.248071774510215" lon="6.222614691868659"><ele>282.59999999999997</ele><time>2026-04-22T10:06:22.999Z</time></trkpt><trkpt lat="43.24796056766649" lon="6.222594163579975"><ele>284.0</ele><time>2026-04-22T10:06:23.999Z</time></trkpt><trkpt lat="43.247848668805425" lon="6.222587416269933"><ele>284.0</ele><time>2026-04-22T10:06:24.999Z</time></trkpt><trkpt lat="43.247735588521024" lon="6.2225901859617885"><ele>284.0</ele><time>2026-04-22T10:06:25.999Z</time></trkpt><trkpt lat="43.24763199176235" lon="6.22259346970036"><ele>284.0</ele><time>2026-04-22T10:06:26.999Z</time></trkpt><trkpt lat="43.247536546072816" lon="6.222592257920919"><ele>284.0</ele><time>2026-04-22T10:06:27.999Z</time></trkpt><trkpt lat="43.24743488502577" lon="6.222579485609203"><ele>284.0</ele><time>2026-04-22T10:06:28.999Z</time></trkpt><trkpt lat="43.247336615010994" lon="6.222560217898879"><ele>282.83333333333337</ele><time>2026-04-22T10:06:29.999Z</time></trkpt><trkpt lat="43.24723185936936" lon="6.222528352388908"><ele>281.6666666666667</ele><time>2026-04-22T10:06:30.999Z</time></trkpt><trkpt lat="43.247134957938655" lon="6.222502125011002"><ele>280.5</ele><time>2026-04-22T10:06:31.999Z</time></trkpt><trkpt lat="43.24704894786423" lon="6.222482591284411"><ele>279.3333333333333</ele><time>2026-04-22T10:06:32.999Z</time></trkpt><trkpt lat="43.246971065976545" lon="6.222480656210772"><ele>278.16666666666663</ele><time>2026-04-22T10:06:33.999Z</time></trkpt><trkpt lat="43.24689951196884" lon="6.222497597049992"><ele>277.0</ele><time>2026-04-22T10:06:34.999Z</time></trkpt><trkpt lat="43.24680898641086" lon="6.222525528565661"><ele>277.0</ele><time>2026-04-22T10:06:35.999Z</time></trkpt><trkpt lat="43.24671253396981" lon="6.222558996303372"><ele>277.0</ele><time>2026-04-22T10:06:36.999Z</time></trkpt><trkpt lat="43.24662144596678" lon="6.22258493039549"><ele>277.0</ele><time>2026-04-22T10:06:37.999Z</time></trkpt><trkpt lat="43.24654493978276" lon="6.2225977631398175"><ele>277.0</ele><time>2026-04-22T10:06:38.999Z</time></trkpt><trkpt lat="43.24644061267298" lon="6.222550732185116"><ele>277.0</ele><time>2026-04-22T10:06:40.999Z</time></trkpt><trkpt lat="43.246403565126954" lon="6.222450780527119"><ele>276.2</ele><time>2026-04-22T10:06:42.999Z</time></trkpt><trkpt lat="43.24642162222563" lon="6.222299638353124"><ele>275.4</ele><time>2026-04-22T10:06:45Z</time></trkpt><trkpt lat="43.246463620890665" lon="6.222204788181905"><ele>274.6</ele><time>2026-04-22T10:06:46Z</time></trkpt><trkpt lat="43.246519709988085" lon="6.22211887818898"><ele>273.8</ele><time>2026-04-22T10:06:47Z</time></trkpt><trkpt lat="43.246582081342986" lon="6.222018531532182"><ele>273.0</ele><time>2026-04-22T10:06:48Z</time></trkpt><trkpt lat="43.24663248986014" lon="6.221925298606255"><ele>273.0</ele><time>2026-04-22T10:06:49Z</time></trkpt><trkpt lat="43.24667735158728" lon="6.221824868082176"><ele>273.0</ele><time>2026-04-22T10:06:50Z</time></trkpt><trkpt lat="43.24672041723691" lon="6.221738429770248"><ele>273.0</ele><time>2026-04-22T10:06:51Z</time></trkpt><trkpt lat="43.24676800114309" lon="6.221630242685714"><ele>273.0</ele><time>2026-04-22T10:06:52Z</time></trkpt><trkpt lat="43.246813347807986" lon="6.2215272920193225"><ele>273.0</ele><time>2026-04-22T10:06:53Z</time></trkpt><trkpt lat="43.24685486280635" lon="6.221423321084445"><ele>273.0</ele><time>2026-04-22T10:06:54Z</time></trkpt><trkpt lat="43.246897008241206" lon="6.221319679948252"><ele>270.0</ele><time>2026-04-22T10:06:55Z</time></trkpt><trkpt lat="43.246936198212595" lon="6.2212224198838575"><ele>267.0</ele><time>2026-04-22T10:06:56Z</time></trkpt><trkpt lat="43.24698246468007" lon="6.221113946526431"><ele>264.0</ele><time>2026-04-22T10:06:57Z</time></trkpt><trkpt lat="43.247027987961616" lon="6.221021425628829"><ele>261.0</ele><time>2026-04-22T10:06:58Z</time></trkpt><trkpt lat="43.247072660316526" lon="6.220928532169411"><ele>258.0</ele><time>2026-04-22T10:06:59Z</time></trkpt><trkpt lat="43.24712581354224" lon="6.220838453978705"><ele>255.0</ele><time>2026-04-22T10:07:00Z</time></trkpt><trkpt lat="43.24718832067751" lon="6.220755494155112"><ele>255.0</ele><time>2026-04-22T10:07:01Z</time></trkpt><trkpt lat="43.24724893710792" lon="6.220698476936068"><ele>255.0</ele><time>2026-04-22T10:07:02Z</time></trkpt><trkpt lat="43.247304780261274" lon="6.220620067110484"><ele>255.0</ele><time>2026-04-22T10:07:03Z</time></trkpt><trkpt lat="43.247334413111815" lon="6.220515987430378"><ele>255.0</ele><time>2026-04-22T10:07:04Z</time></trkpt><trkpt lat="43.24734743063224" lon="6.220398434217935"><ele>255.0</ele><time>2026-04-22T10:07:05Z</time></trkpt><trkpt lat="43.2473599142718" lon="6.220283137083333"><ele>255.0</ele><time>2026-04-22T10:07:06Z</time></trkpt><trkpt lat="43.24737131958491" lon="6.220181927184636"><ele>253.33333333333334</ele><time>2026-04-22T10:07:07Z</time></trkpt><trkpt lat="43.24739251849149" lon="6.220067793312323"><ele>251.66666666666669</ele><time>2026-04-22T10:07:08Z</time></trkpt><trkpt lat="43.24740050321982" lon="6.219975933601031"><ele>250.0</ele><time>2026-04-22T10:07:09Z</time></trkpt><trkpt lat="43.247396275227736" lon="6.219887580426751"><ele>248.33333333333334</ele><time>2026-04-22T10:07:10Z</time></trkpt><trkpt lat="43.247368902039874" lon="6.219798101526286"><ele>246.66666666666669</ele><time>2026-04-22T10:07:11Z</time></trkpt><trkpt lat="43.24731094167085" lon="6.219709168948827"><ele>245.0</ele><time>2026-04-22T10:07:12Z</time></trkpt><trkpt lat="43.247240484730554" lon="6.219623482626061"><ele>245.0</ele><time>2026-04-22T10:07:13Z</time></trkpt><trkpt lat="43.247176936943596" lon="6.219534749995122"><ele>245.0</ele><time>2026-04-22T10:07:14Z</time></trkpt><trkpt lat="43.247129759951676" lon="6.219439961590992"><ele>245.0</ele><time>2026-04-22T10:07:15Z</time></trkpt><trkpt lat="43.24708944350411" lon="6.219332075229813"><ele>245.0</ele><time>2026-04-22T10:07:16Z</time></trkpt><trkpt lat="43.247055092442984" lon="6.219216074376149"><ele>245.0</ele><time>2026-04-22T10:07:17Z</time></trkpt><trkpt lat="43.24702153826942" lon="6.219092959644376"><ele>248.16666666666669</ele><time>2026-04-22T10:07:18Z</time></trkpt><trkpt lat="43.24698816184313" lon="6.218964428703709"><ele>251.33333333333334</ele><time>2026-04-22T10:07:19Z</time></trkpt><trkpt lat="43.24695322891339" lon="6.218830323734975"><ele>254.5</ele><time>2026-04-22T10:07:20Z</time></trkpt><trkpt lat="43.24692811000045" lon="6.21871431944768"><ele>257.6666666666667</ele><time>2026-04-22T10:07:21Z</time></trkpt><trkpt lat="43.24690711919047" lon="6.218617407495206"><ele>260.8333333333333</ele><time>2026-04-22T10:07:22Z</time></trkpt><trkpt lat="43.2468640145848" lon="6.218542461291124"><ele>264.0</ele><time>2026-04-22T10:07:23Z</time></trkpt><trkpt lat="43.24679711470471" lon="6.21847603171984"><ele>264.0</ele><time>2026-04-22T10:07:24Z</time></trkpt><trkpt lat="43.246720512571834" lon="6.218414569457795"><ele>264.0</ele><time>2026-04-22T10:07:25Z</time></trkpt><trkpt lat="43.24663969170849" lon="6.218357870016409"><ele>264.0</ele><time>2026-04-22T10:07:26Z</time></trkpt><trkpt lat="43.24657901867072" lon="6.218309908904192"><ele>264.0</ele><time>2026-04-22T10:07:27Z</time></trkpt><trkpt lat="43.246518444563904" lon="6.218258903749736"><ele>264.0</ele><time>2026-04-22T10:07:28Z</time></trkpt><trkpt lat="43.246457673054465" lon="6.218196511269506"><ele>264.0</ele><time>2026-04-22T10:07:29Z</time></trkpt><trkpt lat="43.246407284754994" lon="6.218121068092425"><ele>259.8333333333333</ele><time>2026-04-22T10:07:30Z</time></trkpt><trkpt lat="43.24636375964476" lon="6.218032882115834"><ele>255.66666666666669</ele><time>2026-04-22T10:07:31Z</time></trkpt><trkpt lat="43.24632199084009" lon="6.21793957657365"><ele>251.5</ele><time>2026-04-22T10:07:32Z</time></trkpt><trkpt lat="43.24629051019801" lon="6.217844098163774"><ele>247.33333333333334</ele><time>2026-04-22T10:07:33Z</time></trkpt><trkpt lat="43.2462583417942" lon="6.21772629773778"><ele>243.16666666666669</ele><time>2026-04-22T10:07:34Z</time></trkpt><trkpt lat="43.246233241274666" lon="6.217600515701219"><ele>239.0</ele><time>2026-04-22T10:07:35Z</time></trkpt><trkpt lat="43.246214756184415" lon="6.217471109095154"><ele>239.0</ele><time>2026-04-22T10:07:36Z</time></trkpt><trkpt lat="43.246206935020076" lon="6.217330310930667"><ele>238.99999999999997</ele><time>2026-04-22T10:07:37Z</time></trkpt><trkpt lat="43.24619935661138" lon="6.217184571697313"><ele>238.99999999999997</ele><time>2026-04-22T10:07:38Z</time></trkpt><trkpt lat="43.2461882554366" lon="6.217020596023152"><ele>239.0</ele><time>2026-04-22T10:07:39Z</time></trkpt><trkpt lat="43.24617636225456" lon="6.216861124868604"><ele>239.0</ele><time>2026-04-22T10:07:40Z</time></trkpt><trkpt lat="43.2461652960829" lon="6.216725859151139"><ele>239.28571428571433</ele><time>2026-04-22T10:07:41Z</time></trkpt><trkpt lat="43.24615165790594" lon="6.216621911233676"><ele>239.57142857142858</ele><time>2026-04-22T10:07:42Z</time></trkpt><trkpt lat="43.246139989059564" lon="6.216507273528513"><ele>239.8571428571429</ele><time>2026-04-22T10:07:43Z</time></trkpt><trkpt lat="43.246134606802194" lon="6.216410719285969"><ele>240.14285714285717</ele><time>2026-04-22T10:07:44Z</time></trkpt><trkpt lat="43.246141118629076" lon="6.216322352074498"><ele>240.42857142857144</ele><time>2026-04-22T10:07:45Z</time></trkpt><trkpt lat="43.24616129906974" lon="6.216228607881846"><ele>240.71428571428572</ele><time>2026-04-22T10:07:46Z</time></trkpt><trkpt lat="43.24619437344412" lon="6.216131471788407"><ele>241.0</ele><time>2026-04-22T10:07:47Z</time></trkpt><trkpt lat="43.246240960164904" lon="6.216048285377822"><ele>241.0</ele><time>2026-04-22T10:07:48Z</time></trkpt><trkpt lat="43.24631068500288" lon="6.215967199024643"><ele>241.00000000000003</ele><time>2026-04-22T10:07:49Z</time></trkpt><trkpt lat="43.24638814869916" lon="6.215890602303238"><ele>241.00000000000003</ele><time>2026-04-22T10:07:50Z</time></trkpt><trkpt lat="43.24648211620609" lon="6.215815234106175"><ele>241.0</ele><time>2026-04-22T10:07:51Z</time></trkpt><trkpt lat="43.246579313490926" lon="6.21573422588648"><ele>241.0</ele><time>2026-04-22T10:07:52Z</time></trkpt><trkpt lat="43.246670393562695" lon="6.215662920497546"><ele>240.60000000000002</ele><time>2026-04-22T10:07:53Z</time></trkpt><trkpt lat="43.24676216014531" lon="6.215587131253043"><ele>240.20000000000002</ele><time>2026-04-22T10:07:54Z</time></trkpt><trkpt lat="43.24684258043852" lon="6.21552931808072"><ele>239.79999999999998</ele><time>2026-04-22T10:07:55Z</time></trkpt><trkpt lat="43.246919372797706" lon="6.215463505177617"><ele>239.39999999999998</ele><time>2026-04-22T10:07:56Z</time></trkpt><trkpt lat="43.24699694002729" lon="6.215400929848425"><ele>239.0</ele><time>2026-04-22T10:07:57Z</time></trkpt><trkpt lat="43.24707436898071" lon="6.215339542046349"><ele>239.0</ele><time>2026-04-22T10:07:57.999Z</time></trkpt><trkpt lat="43.24714955016952" lon="6.215276663233535"><ele>238.99999999999997</ele><time>2026-04-22T10:07:58.999Z</time></trkpt><trkpt lat="43.24723187744455" lon="6.215194395250796"><ele>238.99999999999997</ele><time>2026-04-22T10:07:59.999Z</time></trkpt><trkpt lat="43.24731911602083" lon="6.21511292366086"><ele>239.0</ele><time>2026-04-22T10:08:00.999Z</time></trkpt><trkpt lat="43.247399588130875" lon="6.215027603919372"><ele>239.0</ele><time>2026-04-22T10:08:01.999Z</time></trkpt><trkpt lat="43.24746055706066" lon="6.214935000690768"><ele>242.83333333333334</ele><time>2026-04-22T10:08:02.999Z</time></trkpt><trkpt lat="43.247495526395916" lon="6.214836321735155"><ele>246.66666666666669</ele><time>2026-04-22T10:08:03.999Z</time></trkpt><trkpt lat="43.24751323018764" lon="6.214752515505886"><ele>250.5</ele><time>2026-04-22T10:08:04.999Z</time></trkpt><trkpt lat="43.247521199960055" lon="6.21465109308573"><ele>254.33333333333331</ele><time>2026-04-22T10:08:05.999Z</time></trkpt><trkpt lat="43.24750907389027" lon="6.214535194651154"><ele>258.16666666666663</ele><time>2026-04-22T10:08:06.999Z</time></trkpt><trkpt lat="43.24746592642581" lon="6.214436047392898"><ele>262.0</ele><time>2026-04-22T10:08:07.999Z</time></trkpt><trkpt lat="43.24741158541987" lon="6.214323655394763"><ele>262.0</ele><time>2026-04-22T10:08:08.999Z</time></trkpt><trkpt lat="43.24735268632521" lon="6.214222524883318"><ele>262.0</ele><time>2026-04-22T10:08:09.999Z</time></trkpt><trkpt lat="43.24728489793066" lon="6.214105418172845"><ele>262.0</ele><time>2026-04-22T10:08:10.999Z</time></trkpt><trkpt lat="43.24721080617825" lon="6.213976630569803"><ele>262.0</ele><time>2026-04-22T10:08:11.999Z</time></trkpt><trkpt lat="43.24714052229262" lon="6.213850696737834"><ele>262.0</ele><time>2026-04-22T10:08:12.999Z</time></trkpt><trkpt lat="43.2470768229872" lon="6.213733645874571"><ele>261.2</ele><time>2026-04-22T10:08:13.999Z</time></trkpt><trkpt lat="43.247017860444025" lon="6.213630597129301"><ele>260.4</ele><time>2026-04-22T10:08:14.999Z</time></trkpt><trkpt lat="43.24695537606964" lon="6.213519234896967"><ele>259.6</ele><time>2026-04-22T10:08:15.999Z</time></trkpt><trkpt lat="43.246892756319625" lon="6.213400153292118"><ele>258.8</ele><time>2026-04-22T10:08:16.999Z</time></trkpt><trkpt lat="43.2468313920656" lon="6.213268092962609"><ele>258.0</ele><time>2026-04-22T10:08:17.999Z</time></trkpt><trkpt lat="43.24677100682677" lon="6.21313404871897"><ele>258.0</ele><time>2026-04-22T10:08:18.999Z</time></trkpt><trkpt lat="43.246709071670104" lon="6.213012392244508"><ele>258.0</ele><time>2026-04-22T10:08:19.999Z</time></trkpt><trkpt lat="43.246652130834526" lon="6.212897269278903"><ele>258.0</ele><time>2026-04-22T10:08:20.999Z</time></trkpt><trkpt lat="43.246601360161335" lon="6.212772405517625"><ele>258.0</ele><time>2026-04-22T10:08:21.999Z</time></trkpt><trkpt lat="43.24654155072558" lon="6.212641050031816"><ele>258.0</ele><time>2026-04-22T10:08:22.999Z</time></trkpt><trkpt lat="43.24647447788479" lon="6.212512118400071"><ele>256.0</ele><time>2026-04-22T10:08:23.999Z</time></trkpt><trkpt lat="43.24640402404946" lon="6.2123875723326645"><ele>254.0</ele><time>2026-04-22T10:08:24.999Z</time></trkpt><trkpt lat="43.24633986629257" lon="6.212281439227076"><ele>252.0</ele><time>2026-04-22T10:08:25.999Z</time></trkpt><trkpt lat="43.24628040211868" lon="6.212186412459803"><ele>250.0</ele><time>2026-04-22T10:08:26.999Z</time></trkpt><trkpt lat="43.24621947040897" lon="6.212075666019554"><ele>248.0</ele><time>2026-04-22T10:08:27.999Z</time></trkpt><trkpt lat="43.24615638937068" lon="6.211968516757507"><ele>248.0</ele><time>2026-04-22T10:08:28.999Z</time></trkpt><trkpt lat="43.24608064502318" lon="6.211873780920761"><ele>248.0</ele><time>2026-04-22T10:08:29.999Z</time></trkpt><trkpt lat="43.245998794540725" lon="6.211799146107804"><ele>248.0</ele><time>2026-04-22T10:08:30.999Z</time></trkpt><trkpt lat="43.245910509233234" lon="6.211736605459342"><ele>248.0</ele><time>2026-04-22T10:08:31.999Z</time></trkpt><trkpt lat="43.24582176605971" lon="6.21169141890859"><ele>248.0</ele><time>2026-04-22T10:08:32.999Z</time></trkpt><trkpt lat="43.24571762124528" lon="6.211649945723885"><ele>246.33333333333334</ele><time>2026-04-22T10:08:33.999Z</time></trkpt><trkpt lat="43.24561202246082" lon="6.211612598913473"><ele>244.66666666666669</ele><time>2026-04-22T10:08:34.999Z</time></trkpt><trkpt lat="43.2455182644647" lon="6.211590002013704"><ele>243.0</ele><time>2026-04-22T10:08:35.999Z</time></trkpt><trkpt lat="43.245428058598186" lon="6.2115760049347415"><ele>241.33333333333331</ele><time>2026-04-22T10:08:36.999Z</time></trkpt><trkpt lat="43.24534924203065" lon="6.211554017703866"><ele>239.66666666666666</ele><time>2026-04-22T10:08:37.999Z</time></trkpt><trkpt lat="43.245287291392984" lon="6.2115122214321605"><ele>238.0</ele><time>2026-04-22T10:08:38.999Z</time></trkpt><trkpt lat="43.24523671655842" lon="6.211446724595409"><ele>236.8</ele><time>2026-04-22T10:08:39.999Z</time></trkpt><trkpt lat="43.245204023508975" lon="6.211371441427598"><ele>235.60000000000002</ele><time>2026-04-22T10:08:40.999Z</time></trkpt><trkpt lat="43.24518589319791" lon="6.211198767537691"><ele>234.39999999999998</ele><time>2026-04-22T10:08:42.999Z</time></trkpt><trkpt lat="43.24520066628419" lon="6.211088874925963"><ele>233.2</ele><time>2026-04-22T10:08:43.999Z</time></trkpt><trkpt lat="43.24523419761128" lon="6.210963388233758"><ele>232.0</ele><time>2026-04-22T10:08:44.999Z</time></trkpt><trkpt lat="43.24528314572371" lon="6.210827396244627"><ele>232.0</ele><time>2026-04-22T10:08:45.999Z</time></trkpt><trkpt lat="43.245329473607114" lon="6.2106818284132705"><ele>232.0</ele><time>2026-04-22T10:08:46.999Z</time></trkpt><trkpt lat="43.24536603519117" lon="6.210553158995221"><ele>232.0</ele><time>2026-04-22T10:08:47.999Z</time></trkpt><trkpt lat="43.245410043886885" lon="6.21042207147717"><ele>232.0</ele><time>2026-04-22T10:08:48.999Z</time></trkpt><trkpt lat="43.24544947631539" lon="6.210302093211831"><ele>232.0</ele><time>2026-04-22T10:08:50Z</time></trkpt><trkpt lat="43.24548429621441" lon="6.2102022405702995"><ele>231.66666666666666</ele><time>2026-04-22T10:08:51Z</time></trkpt><trkpt lat="43.24551995032595" lon="6.210118553198773"><ele>231.33333333333331</ele><time>2026-04-22T10:08:52Z</time></trkpt><trkpt lat="43.24556363560895" lon="6.210045878206685"><ele>231.0</ele><time>2026-04-22T10:08:53Z</time></trkpt><trkpt lat="43.245625450427106" lon="6.209977856028177"><ele>230.66666666666669</ele><time>2026-04-22T10:08:54Z</time></trkpt><trkpt lat="43.245698040741935" lon="6.20992208642344"><ele>230.33333333333334</ele><time>2026-04-22T10:08:55Z</time></trkpt><trkpt lat="43.24575745209195" lon="6.209880478558336"><ele>230.0</ele><time>2026-04-22T10:08:56Z</time></trkpt><trkpt lat="43.24582799908068" lon="6.2097534223264965"><ele>230.00000000000003</ele><time>2026-04-22T10:08:58Z</time></trkpt><trkpt lat="43.24582346194938" lon="6.209644619347864"><ele>230.0</ele><time>2026-04-22T10:08:59Z</time></trkpt><trkpt lat="43.24578873119851" lon="6.2095496431244275"><ele>230.0</ele><time>2026-04-22T10:09:00Z</time></trkpt><trkpt lat="43.24574646180635" lon="6.209461177552886"><ele>230.0</ele><time>2026-04-22T10:09:01Z</time></trkpt><trkpt lat="43.24572570161217" lon="6.20937529791043"><ele>230.00000000000003</ele><time>2026-04-22T10:09:02Z</time></trkpt><trkpt lat="43.24575365594577" lon="6.209197151936738"><ele>230.0</ele><time>2026-04-22T10:09:04Z</time></trkpt><trkpt lat="43.24578632151272" lon="6.209078473564864"><ele>228.6</ele><time>2026-04-22T10:09:05Z</time></trkpt><trkpt lat="43.24582084853337" lon="6.208943779059626"><ele>227.2</ele><time>2026-04-22T10:09:06Z</time></trkpt><trkpt lat="43.245854239958945" lon="6.208805611756014"><ele>225.8</ele><time>2026-04-22T10:09:07Z</time></trkpt><trkpt lat="43.245873176836675" lon="6.208690546659474"><ele>224.4</ele><time>2026-04-22T10:09:08Z</time></trkpt><trkpt lat="43.24587844974115" lon="6.208573790766836"><ele>223.0</ele><time>2026-04-22T10:09:09Z</time></trkpt><trkpt lat="43.2458728170291" lon="6.208461735909032"><ele>222.99999999999997</ele><time>2026-04-22T10:09:10Z</time></trkpt><trkpt lat="43.245862814229085" lon="6.208343301209651"><ele>223.0</ele><time>2026-04-22T10:09:11Z</time></trkpt><trkpt lat="43.24586102251327" lon="6.208225060029841"><ele>223.0</ele><time>2026-04-22T10:09:12Z</time></trkpt><trkpt lat="43.245871252581104" lon="6.208115623593836"><ele>223.0</ele><time>2026-04-22T10:09:13Z</time></trkpt><trkpt lat="43.24588844417704" lon="6.207991884655432"><ele>222.99999999999997</ele><time>2026-04-22T10:09:14Z</time></trkpt><trkpt lat="43.24590371516664" lon="6.2078670723203775"><ele>223.0</ele><time>2026-04-22T10:09:15Z</time></trkpt><trkpt lat="43.24591474576485" lon="6.207757697385551"><ele>221.99999999999997</ele><time>2026-04-22T10:09:16Z</time></trkpt><trkpt lat="43.24592324105839" lon="6.2076581724334305"><ele>221.0</ele><time>2026-04-22T10:09:17Z</time></trkpt><trkpt lat="43.24592820747105" lon="6.207569005301713"><ele>220.0</ele><time>2026-04-22T10:09:18Z</time></trkpt><trkpt lat="43.24593861794558" lon="6.2074638116549075"><ele>219.0</ele><time>2026-04-22T10:09:19Z</time></trkpt><trkpt lat="43.24595176504781" lon="6.207350853251778"><ele>217.99999999999997</ele><time>2026-04-22T10:09:20Z</time></trkpt><trkpt lat="43.245965726145634" lon="6.207225334716018"><ele>217.0</ele><time>2026-04-22T10:09:21Z</time></trkpt><trkpt lat="43.24598161017092" lon="6.207100251985577"><ele>216.2</ele><time>2026-04-22T10:09:22Z</time></trkpt><trkpt lat="43.24598955796891" lon="6.206982543379392"><ele>215.39999999999998</ele><time>2026-04-22T10:09:23Z</time></trkpt><trkpt lat="43.245987284178106" lon="6.206850484959327"><ele>214.60000000000002</ele><time>2026-04-22T10:09:24Z</time></trkpt><trkpt lat="43.245970021551315" lon="6.206714167684679"><ele>213.8</ele><time>2026-04-22T10:09:25Z</time></trkpt><trkpt lat="43.245957184001796" lon="6.206577226182121"><ele>213.0</ele><time>2026-04-22T10:09:26Z</time></trkpt><trkpt lat="43.24594245825856" lon="6.206444348569486"><ele>212.4</ele><time>2026-04-22T10:09:27Z</time></trkpt><trkpt lat="43.24592688600916" lon="6.206308764644054"><ele>211.8</ele><time>2026-04-22T10:09:28Z</time></trkpt><trkpt lat="43.24591492740487" lon="6.2061781633011215"><ele>211.2</ele><time>2026-04-22T10:09:29Z</time></trkpt><trkpt lat="43.245896841030465" lon="6.206037503672908"><ele>210.6</ele><time>2026-04-22T10:09:30Z</time></trkpt><trkpt lat="43.24587714190615" lon="6.205908335840299"><ele>210.0</ele><time>2026-04-22T10:09:31Z</time></trkpt><trkpt lat="43.24585313309342" lon="6.205775317363342"><ele>209.2</ele><time>2026-04-22T10:09:32Z</time></trkpt><trkpt lat="43.24583036153841" lon="6.205628416751683"><ele>208.4</ele><time>2026-04-22T10:09:33Z</time></trkpt><trkpt lat="43.24580217750186" lon="6.205472436715596"><ele>207.60000000000002</ele><time>2026-04-22T10:09:34Z</time></trkpt><trkpt lat="43.24577794728122" lon="6.205333326682234"><ele>206.8</ele><time>2026-04-22T10:09:35Z</time></trkpt><trkpt lat="43.24575387337113" lon="6.205208378282555"><ele>206.0</ele><time>2026-04-22T10:09:36Z</time></trkpt><trkpt lat="43.24572535472084" lon="6.205075388503349"><ele>206.0</ele><time>2026-04-22T10:09:37Z</time></trkpt><trkpt lat="43.24568982086715" lon="6.204928333635183"><ele>206.0</ele><time>2026-04-22T10:09:38Z</time></trkpt><trkpt lat="43.24565763443083" lon="6.204796139791577"><ele>206.0</ele><time>2026-04-22T10:09:39Z</time></trkpt><trkpt lat="43.24562030575665" lon="6.20467316724311"><ele>206.0</ele><time>2026-04-22T10:09:40Z</time></trkpt><trkpt lat="43.245587028025454" lon="6.204567462726553"><ele>206.0</ele><time>2026-04-22T10:09:41Z</time></trkpt><trkpt lat="43.245560188465774" lon="6.204472396294166"><ele>202.66666666666669</ele><time>2026-04-22T10:09:42Z</time></trkpt><trkpt lat="43.245539022805026" lon="6.204363527837103"><ele>199.33333333333334</ele><time>2026-04-22T10:09:43Z</time></trkpt><trkpt lat="43.245515015128774" lon="6.204245023706947"><ele>196.0</ele><time>2026-04-22T10:09:44Z</time></trkpt><trkpt lat="43.2454937345895" lon="6.204131933929623"><ele>192.66666666666669</ele><time>2026-04-22T10:09:45Z</time></trkpt><trkpt lat="43.24547385986872" lon="6.204019484693301"><ele>189.33333333333334</ele><time>2026-04-22T10:09:46Z</time></trkpt><trkpt lat="43.245460801034625" lon="6.20389850234014"><ele>186.0</ele><time>2026-04-22T10:09:47Z</time></trkpt><trkpt lat="43.245448073239544" lon="6.203767218369816"><ele>186.0</ele><time>2026-04-22T10:09:48Z</time></trkpt><trkpt lat="43.24542455599861" lon="6.203644538571427"><ele>186.0</ele><time>2026-04-22T10:09:49Z</time></trkpt><trkpt lat="43.24539446573162" lon="6.203508135628691"><ele>186.0</ele><time>2026-04-22T10:09:50Z</time></trkpt><trkpt lat="43.24535607133563" lon="6.203385129458743"><ele>186.0</ele><time>2026-04-22T10:09:51Z</time></trkpt><trkpt lat="43.245298872548254" lon="6.203268933360716"><ele>186.0</ele><time>2026-04-22T10:09:52Z</time></trkpt><trkpt lat="43.24522281368756" lon="6.2031673851523665"><ele>186.8</ele><time>2026-04-22T10:09:53Z</time></trkpt><trkpt lat="43.24513603631479" lon="6.20308149884877"><ele>187.60000000000002</ele><time>2026-04-22T10:09:54Z</time></trkpt><trkpt lat="43.24506717712098" lon="6.203013552729445"><ele>188.4</ele><time>2026-04-22T10:09:55Z</time></trkpt><trkpt lat="43.245004863990296" lon="6.202928842889269"><ele>189.2</ele><time>2026-04-22T10:09:56Z</time></trkpt><trkpt lat="43.244951734272604" lon="6.202824366454922"><ele>190.0</ele><time>2026-04-22T10:09:57Z</time></trkpt><trkpt lat="43.24490979458553" lon="6.202712232528825"><ele>190.0</ele><time>2026-04-22T10:09:58Z</time></trkpt><trkpt lat="43.24487647115094" lon="6.20260017976203"><ele>190.0</ele><time>2026-04-22T10:09:58.999Z</time></trkpt><trkpt lat="43.24484245210114" lon="6.202469873496846"><ele>190.0</ele><time>2026-04-22T10:09:59.999Z</time></trkpt><trkpt lat="43.24480768400443" lon="6.202332570079279"><ele>190.0</ele><time>2026-04-22T10:10:00.999Z</time></trkpt><trkpt lat="43.24477119185403" lon="6.202178935939476"><ele>190.0</ele><time>2026-04-22T10:10:01.999Z</time></trkpt><trkpt lat="43.24472940149149" lon="6.202024360215991"><ele>187.8</ele><time>2026-04-22T10:10:02.999Z</time></trkpt><trkpt lat="43.244684468802916" lon="6.201891533009672"><ele>185.6</ele><time>2026-04-22T10:10:03.999Z</time></trkpt><trkpt lat="43.24464021202477" lon="6.201787777052242"><ele>183.39999999999998</ele><time>2026-04-22T10:10:04.999Z</time></trkpt><trkpt lat="43.24460204994735" lon="6.201675439624999"><ele>181.2</ele><time>2026-04-22T10:10:05.999Z</time></trkpt><trkpt lat="43.24456826659898" lon="6.201554574152225"><ele>179.0</ele><time>2026-04-22T10:10:06.999Z</time></trkpt><trkpt lat="43.24454652176075" lon="6.201420695281391"><ele>179.0</ele><time>2026-04-22T10:10:07.999Z</time></trkpt><trkpt lat="43.24452796711657" lon="6.201281716965964"><ele>179.0</ele><time>2026-04-22T10:10:08.999Z</time></trkpt><trkpt lat="43.2445106470038" lon="6.2011365608421"><ele>179.0</ele><time>2026-04-22T10:10:09.999Z</time></trkpt><trkpt lat="43.244496769698024" lon="6.2009843864032606"><ele>179.0</ele><time>2026-04-22T10:10:10.999Z</time></trkpt><trkpt lat="43.24449116191857" lon="6.2008303792640245"><ele>179.0</ele><time>2026-04-22T10:10:11.999Z</time></trkpt><trkpt lat="43.2444843813766" lon="6.2006917477468075"><ele>181.0</ele><time>2026-04-22T10:10:12.999Z</time></trkpt><trkpt lat="43.24447366289692" lon="6.200579385384961"><ele>183.0</ele><time>2026-04-22T10:10:13.999Z</time></trkpt><trkpt lat="43.24444151441931" lon="6.20048111966138"><ele>185.0</ele><time>2026-04-22T10:10:14.999Z</time></trkpt><trkpt lat="43.244383307684025" lon="6.2004028483170694"><ele>187.0</ele><time>2026-04-22T10:10:15.999Z</time></trkpt><trkpt lat="43.24430433967414" lon="6.200341135630171"><ele>189.0</ele><time>2026-04-22T10:10:16.999Z</time></trkpt><trkpt lat="43.2442216319211" lon="6.200287338547899"><ele>191.0</ele><time>2026-04-22T10:10:17.999Z</time></trkpt><trkpt lat="43.24414847965548" lon="6.200211163693001"><ele>191.0</ele><time>2026-04-22T10:10:18.999Z</time></trkpt><trkpt lat="43.24407836121961" lon="6.200123972143173"><ele>191.0</ele><time>2026-04-22T10:10:19.999Z</time></trkpt><trkpt lat="43.244016176306225" lon="6.200031855788778"><ele>191.0</ele><time>2026-04-22T10:10:20.999Z</time></trkpt><trkpt lat="43.243950809258386" lon="6.199918287379031"><ele>191.0</ele><time>2026-04-22T10:10:21.999Z</time></trkpt><trkpt lat="43.24389430852081" lon="6.199810129430439"><ele>191.0</ele><time>2026-04-22T10:10:22.999Z</time></trkpt><trkpt lat="43.243835495259106" lon="6.199719008691067"><ele>190.60000000000002</ele><time>2026-04-22T10:10:23.999Z</time></trkpt><trkpt lat="43.24376900592408" lon="6.199658076098773"><ele>190.2</ele><time>2026-04-22T10:10:24.999Z</time></trkpt><trkpt lat="43.243699411135346" lon="6.1995836173908065"><ele>189.8</ele><time>2026-04-22T10:10:25.999Z</time></trkpt><trkpt lat="43.24362982885841" lon="6.199490279021821"><ele>189.39999999999998</ele><time>2026-04-22T10:10:26.999Z</time></trkpt><trkpt lat="43.24356343230867" lon="6.199375613741143"><ele>189.0</ele><time>2026-04-22T10:10:27.999Z</time></trkpt><trkpt lat="43.24350160517247" lon="6.199257166250875"><ele>189.0</ele><time>2026-04-22T10:10:28.999Z</time></trkpt><trkpt lat="43.243442189837175" lon="6.199141075299336"><ele>189.0</ele><time>2026-04-22T10:10:29.999Z</time></trkpt><trkpt lat="43.2433776525596" lon="6.199060611387891"><ele>189.0</ele><time>2026-04-22T10:10:30.999Z</time></trkpt><trkpt lat="43.24330677852069" lon="6.199002690958387"><ele>189.0</ele><time>2026-04-22T10:10:31.999Z</time></trkpt><trkpt lat="43.24321569080363" lon="6.198954377875337"><ele>189.0</ele><time>2026-04-22T10:10:32.999Z</time></trkpt><trkpt lat="43.24311925564077" lon="6.198902682625837"><ele>189.25</ele><time>2026-04-22T10:10:33.999Z</time></trkpt><trkpt lat="43.243012075535184" lon="6.198837185025496"><ele>189.5</ele><time>2026-04-22T10:10:34.999Z</time></trkpt><trkpt lat="43.24290838025303" lon="6.198763053270186"><ele>189.75</ele><time>2026-04-22T10:10:35.999Z</time></trkpt><trkpt lat="43.24280309634212" lon="6.198680872414893"><ele>190.0</ele><time>2026-04-22T10:10:36.999Z</time></trkpt><trkpt lat="43.24269949153676" lon="6.198596119566533"><ele>190.0</ele><time>2026-04-22T10:10:37.999Z</time></trkpt><trkpt lat="43.24260782062376" lon="6.1985119842556555"><ele>190.0</ele><time>2026-04-22T10:10:38.999Z</time></trkpt><trkpt lat="43.24253842332205" lon="6.198447841637106"><ele>190.0</ele><time>2026-04-22T10:10:39.999Z</time></trkpt><trkpt lat="43.242462642885656" lon="6.198384837109368"><ele>190.0</ele><time>2026-04-22T10:10:40.999Z</time></trkpt><trkpt lat="43.24238995563757" lon="6.198307262396443"><ele>190.0</ele><time>2026-04-22T10:10:41.999Z</time></trkpt><trkpt lat="43.24231444464551" lon="6.198207665693778"><ele>190.5</ele><time>2026-04-22T10:10:42.999Z</time></trkpt><trkpt lat="43.242238919045406" lon="6.198096509080829"><ele>191.0</ele><time>2026-04-22T10:10:43.999Z</time></trkpt><trkpt lat="43.24215461497071" lon="6.197971137027725"><ele>191.5</ele><time>2026-04-22T10:10:44.999Z</time></trkpt><trkpt lat="43.24206430317294" lon="6.19784670149316"><ele>192.0</ele><time>2026-04-22T10:10:45.999Z</time></trkpt><trkpt lat="43.241987846542635" lon="6.1977399509900115"><ele>192.0</ele><time>2026-04-22T10:10:46.999Z</time></trkpt><trkpt lat="43.24191633929397" lon="6.197638648285112"><ele>192.0</ele><time>2026-04-22T10:10:47.999Z</time></trkpt><trkpt lat="43.2418417615047" lon="6.197535632943642"><ele>192.0</ele><time>2026-04-22T10:10:48.999Z</time></trkpt><trkpt lat="43.241768131491085" lon="6.197431274686956"><ele>192.0</ele><time>2026-04-22T10:10:49.999Z</time></trkpt><trkpt lat="43.24169441427066" lon="6.1973299233585015"><ele>192.0</ele><time>2026-04-22T10:10:50.999Z</time></trkpt><trkpt lat="43.241627965356265" lon="6.197241018868282"><ele>192.5</ele><time>2026-04-22T10:10:51.999Z</time></trkpt><trkpt lat="43.24156668206835" lon="6.197173658419447"><ele>193.0</ele><time>2026-04-22T10:10:52.999Z</time></trkpt><trkpt lat="43.24151010281131" lon="6.197102958258565"><ele>193.5</ele><time>2026-04-22T10:10:53.999Z</time></trkpt><trkpt lat="43.24147863318157" lon="6.197000356029349"><ele>194.0</ele><time>2026-04-22T10:10:54.999Z</time></trkpt><trkpt lat="43.24144804895035" lon="6.196861725485074"><ele>194.5</ele><time>2026-04-22T10:10:56Z</time></trkpt><trkpt lat="43.24144457644756" lon="6.196738414060957"><ele>195.0</ele><time>2026-04-22T10:10:57Z</time></trkpt><trkpt lat="43.24145679965946" lon="6.196601905504978"><ele>194.8</ele><time>2026-04-22T10:10:58Z</time></trkpt><trkpt lat="43.24147115818977" lon="6.196456228437171"><ele>194.6</ele><time>2026-04-22T10:10:59Z</time></trkpt><trkpt lat="43.24146564629728" lon="6.196308186130687"><ele>194.39999999999998</ele><time>2026-04-22T10:11:00Z</time></trkpt><trkpt lat="43.24145450827041" lon="6.196151192098144"><ele>194.2</ele><time>2026-04-22T10:11:01Z</time></trkpt><trkpt lat="43.24145108345843" lon="6.195988126104978"><ele>194.0</ele><time>2026-04-22T10:11:02Z</time></trkpt><trkpt lat="43.24146161128617" lon="6.195848484132377"><ele>194.0</ele><time>2026-04-22T10:11:03Z</time></trkpt><trkpt lat="43.24147859105005" lon="6.1957107110102205"><ele>194.0</ele><time>2026-04-22T10:11:04Z</time></trkpt><trkpt lat="43.24149766678088" lon="6.195565843485369"><ele>194.0</ele><time>2026-04-22T10:11:05Z</time></trkpt><trkpt lat="43.24152101032395" lon="6.195426234926365"><ele>194.0</ele><time>2026-04-22T10:11:06Z</time></trkpt><trkpt lat="43.24154579982448" lon="6.195283116208251"><ele>194.0</ele><time>2026-04-22T10:11:07Z</time></trkpt><trkpt lat="43.2415738877868" lon="6.195142654779549"><ele>193.2</ele><time>2026-04-22T10:11:08Z</time></trkpt><trkpt lat="43.241608440111555" lon="6.195001352299203"><ele>192.39999999999998</ele><time>2026-04-22T10:11:09Z</time></trkpt><trkpt lat="43.24164019255924" lon="6.194859561674309"><ele>191.6</ele><time>2026-04-22T10:11:10Z</time></trkpt><trkpt lat="43.24167682868648" lon="6.194711403578454"><ele>190.8</ele><time>2026-04-22T10:11:11Z</time></trkpt><trkpt lat="43.24170531819158" lon="6.194565399721763"><ele>190.0</ele><time>2026-04-22T10:11:12Z</time></trkpt><trkpt lat="43.24173243947298" lon="6.194417816776771"><ele>188.6</ele><time>2026-04-22T10:11:13Z</time></trkpt><trkpt lat="43.241772801673754" lon="6.1942643435217954"><ele>187.2</ele><time>2026-04-22T10:11:14Z</time></trkpt><trkpt lat="43.24180733217065" lon="6.194116341711754"><ele>185.8</ele><time>2026-04-22T10:11:15Z</time></trkpt><trkpt lat="43.241835969206846" lon="6.193980205037384"><ele>184.4</ele><time>2026-04-22T10:11:16Z</time></trkpt><trkpt lat="43.241869639658034" lon="6.193853255780404"><ele>183.0</ele><time>2026-04-22T10:11:17Z</time></trkpt><trkpt lat="43.24190897164979" lon="6.193720423448208"><ele>180.4</ele><time>2026-04-22T10:11:18Z</time></trkpt><trkpt lat="43.24194864275456" lon="6.193578591960787"><ele>177.8</ele><time>2026-04-22T10:11:19Z</time></trkpt><trkpt lat="43.24198753250291" lon="6.193428298932523"><ele>175.2</ele><time>2026-04-22T10:11:20Z</time></trkpt><trkpt lat="43.242023745831666" lon="6.193289691655702"><ele>172.6</ele><time>2026-04-22T10:11:21Z</time></trkpt><trkpt lat="43.242063756254545" lon="6.193151911636962"><ele>170.0</ele><time>2026-04-22T10:11:22Z</time></trkpt><trkpt lat="43.24210222762876" lon="6.193005239654143"><ele>168.0</ele><time>2026-04-22T10:11:23Z</time></trkpt><trkpt lat="43.24214263087211" lon="6.1928606435825575"><ele>166.0</ele><time>2026-04-22T10:11:24Z</time></trkpt><trkpt lat="43.242168452015505" lon="6.192712462758773"><ele>164.0</ele><time>2026-04-22T10:11:25Z</time></trkpt><trkpt lat="43.2421839711579" lon="6.192556544360111"><ele>162.0</ele><time>2026-04-22T10:11:26Z</time></trkpt><trkpt lat="43.242189045099074" lon="6.1924032715815684"><ele>161.25</ele><time>2026-04-22T10:11:27Z</time></trkpt><trkpt lat="43.242177394048404" lon="6.1922381025124915"><ele>160.5</ele><time>2026-04-22T10:11:28Z</time></trkpt><trkpt lat="43.24215849476708" lon="6.192078889672311"><ele>159.75</ele><time>2026-04-22T10:11:29Z</time></trkpt><trkpt lat="43.2421334329881" lon="6.191920614402214"><ele>159.0</ele><time>2026-04-22T10:11:30Z</time></trkpt><trkpt lat="43.242109435402476" lon="6.1917682299031025"><ele>159.0</ele><time>2026-04-22T10:11:31Z</time></trkpt><trkpt lat="43.24208184652155" lon="6.191610908867486"><ele>159.0</ele><time>2026-04-22T10:11:32Z</time></trkpt><trkpt lat="43.24205653700066" lon="6.191451753657677"><ele>159.0</ele><time>2026-04-22T10:11:33Z</time></trkpt><trkpt lat="43.24203851116883" lon="6.191290882942783"><ele>159.0</ele><time>2026-04-22T10:11:34Z</time></trkpt><trkpt lat="43.24201605348884" lon="6.191130010336486"><ele>159.2</ele><time>2026-04-22T10:11:35Z</time></trkpt><trkpt lat="43.241983512233396" lon="6.190986421806969"><ele>159.4</ele><time>2026-04-22T10:11:36Z</time></trkpt><trkpt lat="43.241935677024685" lon="6.190840361953702"><ele>159.6</ele><time>2026-04-22T10:11:37Z</time></trkpt><trkpt lat="43.24188110085543" lon="6.190710744995427"><ele>159.8</ele><time>2026-04-22T10:11:38Z</time></trkpt><trkpt lat="43.24181571418878" lon="6.190588359148358"><ele>160.0</ele><time>2026-04-22T10:11:39Z</time></trkpt><trkpt lat="43.2417378832269" lon="6.190474480180545"><ele>161.75</ele><time>2026-04-22T10:11:40Z</time></trkpt><trkpt lat="43.241650874308775" lon="6.190363383244682"><ele>163.5</ele><time>2026-04-22T10:11:41Z</time></trkpt><trkpt lat="43.241562346676496" lon="6.190253291294863"><ele>165.25</ele><time>2026-04-22T10:11:42Z</time></trkpt><trkpt lat="43.24147506986372" lon="6.190140314445915"><ele>167.0</ele><time>2026-04-22T10:11:43Z</time></trkpt><trkpt lat="43.24138126277429" lon="6.190025158630788"><ele>165.6</ele><time>2026-04-22T10:11:44Z</time></trkpt><trkpt lat="43.24128884607067" lon="6.189917178613237"><ele>164.2</ele><time>2026-04-22T10:11:45Z</time></trkpt><trkpt lat="43.24120230598076" lon="6.189821938888148"><ele>162.8</ele><time>2026-04-22T10:11:46Z</time></trkpt><trkpt lat="43.24112667085207" lon="6.189736854401521"><ele>161.4</ele><time>2026-04-22T10:11:47Z</time></trkpt><trkpt lat="43.24105328715968" lon="6.189659453588426"><ele>160.0</ele><time>2026-04-22T10:11:48Z</time></trkpt><trkpt lat="43.24096642088703" lon="6.1895782172414755"><ele>160.0</ele><time>2026-04-22T10:11:49Z</time></trkpt><trkpt lat="43.240884898028426" lon="6.189495138792192"><ele>160.0</ele><time>2026-04-22T10:11:50Z</time></trkpt><trkpt lat="43.24082341965401" lon="6.189406885865195"><ele>160.0</ele><time>2026-04-22T10:11:51Z</time></trkpt><trkpt lat="43.240767304867234" lon="6.1893098982360435"><ele>160.0</ele><time>2026-04-22T10:11:52Z</time></trkpt><trkpt lat="43.2407082051248" lon="6.1891997577372715"><ele>160.0</ele><time>2026-04-22T10:11:53Z</time></trkpt><trkpt lat="43.24065510492147" lon="6.189081748029284"><ele>156.2</ele><time>2026-04-22T10:11:54Z</time></trkpt><trkpt lat="43.24059809539072" lon="6.188952436041775"><ele>152.4</ele><time>2026-04-22T10:11:55Z</time></trkpt><trkpt lat="43.24054855750696" lon="6.1888238774339905"><ele>148.6</ele><time>2026-04-22T10:11:56Z</time></trkpt><trkpt lat="43.24049548300978" lon="6.188681326059077"><ele>144.8</ele><time>2026-04-22T10:11:57Z</time></trkpt><trkpt lat="43.24044975920479" lon="6.188538515050293"><ele>141.0</ele><time>2026-04-22T10:11:57.999Z</time></trkpt><trkpt lat="43.24040603825871" lon="6.188399872256875"><ele>141.0</ele><time>2026-04-22T10:11:58.999Z</time></trkpt><trkpt lat="43.240352996244994" lon="6.1882525917361715"><ele>141.0</ele><time>2026-04-22T10:11:59.999Z</time></trkpt><trkpt lat="43.24029565786979" lon="6.188109292412857"><ele>141.0</ele><time>2026-04-22T10:12:00.999Z</time></trkpt><trkpt lat="43.24024615562982" lon="6.187985384303536"><ele>141.0</ele><time>2026-04-22T10:12:01.999Z</time></trkpt><trkpt lat="43.24020000165707" lon="6.187877078219081"><ele>141.0</ele><time>2026-04-22T10:12:02.999Z</time></trkpt><trkpt lat="43.2401461689123" lon="6.187791032834485"><ele>142.4</ele><time>2026-04-22T10:12:03.999Z</time></trkpt><trkpt lat="43.240079912381276" lon="6.1876914273719095"><ele>143.8</ele><time>2026-04-22T10:12:04.999Z</time></trkpt><trkpt lat="43.2400017338166" lon="6.187562533205853"><ele>145.20000000000002</ele><time>2026-04-22T10:12:05.999Z</time></trkpt><trkpt lat="43.23992709144449" lon="6.187436003514792"><ele>146.6</ele><time>2026-04-22T10:12:06.999Z</time></trkpt><trkpt lat="43.23986063337038" lon="6.187319614710324"><ele>148.0</ele><time>2026-04-22T10:12:07.999Z</time></trkpt><trkpt lat="43.23979909954041" lon="6.187208373595025"><ele>145.0</ele><time>2026-04-22T10:12:08.999Z</time></trkpt><trkpt lat="43.239734085165" lon="6.187086483958983"><ele>142.0</ele><time>2026-04-22T10:12:09.999Z</time></trkpt><trkpt lat="43.23966576410959" lon="6.186966753448719"><ele>139.0</ele><time>2026-04-22T10:12:10.999Z</time></trkpt><trkpt lat="43.23959177441967" lon="6.1868691948730365"><ele>136.0</ele><time>2026-04-22T10:12:11.999Z</time></trkpt><trkpt lat="43.23950515257928" lon="6.186786150621985"><ele>133.0</ele><time>2026-04-22T10:12:12.999Z</time></trkpt><trkpt lat="43.239424156100775" lon="6.1866983686988535"><ele>133.0</ele><time>2026-04-22T10:12:13.999Z</time></trkpt><trkpt lat="43.23936014594242" lon="6.186616421768936"><ele>133.0</ele><time>2026-04-22T10:12:14.999Z</time></trkpt><trkpt lat="43.239298659716134" lon="6.186537047994501"><ele>133.0</ele><time>2026-04-22T10:12:15.999Z</time></trkpt><trkpt lat="43.239248833550384" lon="6.186451002400963"><ele>133.0</ele><time>2026-04-22T10:12:16.999Z</time></trkpt><trkpt lat="43.23922388121921" lon="6.186357984731414"><ele>133.0</ele><time>2026-04-22T10:12:17.999Z</time></trkpt><trkpt lat="43.2391944248867" lon="6.186269170133074"><ele>133.0</ele><time>2026-04-22T10:12:18.999Z</time></trkpt><trkpt lat="43.23914740961822" lon="6.186192610517226"><ele>133.4</ele><time>2026-04-22T10:12:19.999Z</time></trkpt><trkpt lat="43.23909439569754" lon="6.186092828061082"><ele>133.8</ele><time>2026-04-22T10:12:20.999Z</time></trkpt><trkpt lat="43.23906351241763" lon="6.185980149451445"><ele>134.2</ele><time>2026-04-22T10:12:21.999Z</time></trkpt><trkpt lat="43.23904570974966" lon="6.185845490130905"><ele>134.6</ele><time>2026-04-22T10:12:22.999Z</time></trkpt><trkpt lat="43.239037860582606" lon="6.185710458095529"><ele>135.0</ele><time>2026-04-22T10:12:23.999Z</time></trkpt><trkpt lat="43.23903157773576" lon="6.185572163747351"><ele>134.2</ele><time>2026-04-22T10:12:24.999Z</time></trkpt><trkpt lat="43.23903210799955" lon="6.185433021780666"><ele>133.4</ele><time>2026-04-22T10:12:25.999Z</time></trkpt><trkpt lat="43.2390423696141" lon="6.1852869230781895"><ele>132.6</ele><time>2026-04-22T10:12:26.999Z</time></trkpt><trkpt lat="43.23904038078312" lon="6.1851459978472265"><ele>131.8</ele><time>2026-04-22T10:12:27.999Z</time></trkpt><trkpt lat="43.23902275341499" lon="6.185022662991219"><ele>131.0</ele><time>2026-04-22T10:12:28.999Z</time></trkpt><trkpt lat="43.239000210049774" lon="6.184917050250179"><ele>131.0</ele><time>2026-04-22T10:12:29.999Z</time></trkpt><trkpt lat="43.23896988669266" lon="6.184809309872275"><ele>131.0</ele><time>2026-04-22T10:12:30.999Z</time></trkpt><trkpt lat="43.23893466696142" lon="6.184702057098443"><ele>131.0</ele><time>2026-04-22T10:12:31.999Z</time></trkpt><trkpt lat="43.238900167576745" lon="6.184595796947419"><ele>131.0</ele><time>2026-04-22T10:12:32.999Z</time></trkpt><trkpt lat="43.238844789685" lon="6.184459852199163"><ele>131.0</ele><time>2026-04-22T10:12:33.999Z</time></trkpt><trkpt lat="43.238813732346344" lon="6.184349053381252"><ele>127.6</ele><time>2026-04-22T10:12:34.999Z</time></trkpt><trkpt lat="43.23878358947211" lon="6.184240138186989"><ele>124.19999999999999</ele><time>2026-04-22T10:12:35.999Z</time></trkpt><trkpt lat="43.23875139535581" lon="6.184122646218466"><ele>120.80000000000001</ele><time>2026-04-22T10:12:36.999Z</time></trkpt><trkpt lat="43.2387223967114" lon="6.183998221068054"><ele>117.4</ele><time>2026-04-22T10:12:37.999Z</time></trkpt><trkpt lat="43.23870989390774" lon="6.183866470168262"><ele>114.0</ele><time>2026-04-22T10:12:38.999Z</time></trkpt><trkpt lat="43.23869934523522" lon="6.183711165683229"><ele>113.6</ele><time>2026-04-22T10:12:39.999Z</time></trkpt><trkpt lat="43.23868984298902" lon="6.1835683350672666"><ele>113.2</ele><time>2026-04-22T10:12:40.999Z</time></trkpt><trkpt lat="43.238685145707365" lon="6.183439153514648"><ele>112.79999999999998</ele><time>2026-04-22T10:12:41.999Z</time></trkpt><trkpt lat="43.2386816361537" lon="6.183322363889726"><ele>112.39999999999999</ele><time>2026-04-22T10:12:42.999Z</time></trkpt><trkpt lat="43.23868136155762" lon="6.18316723714804"><ele>112.0</ele><time>2026-04-22T10:12:43.999Z</time></trkpt><trkpt lat="43.23868638378434" lon="6.183012982090832"><ele>110.8</ele><time>2026-04-22T10:12:44.999Z</time></trkpt><trkpt lat="43.23869620070894" lon="6.182869424343996"><ele>109.6</ele><time>2026-04-22T10:12:45.999Z</time></trkpt><trkpt lat="43.23870126837231" lon="6.1827195358913025"><ele>108.39999999999999</ele><time>2026-04-22T10:12:46.999Z</time></trkpt><trkpt lat="43.2387030300293" lon="6.182566539628111"><ele>107.19999999999999</ele><time>2026-04-22T10:12:47.999Z</time></trkpt><trkpt lat="43.23870603369561" lon="6.182416889103985"><ele>106.0</ele><time>2026-04-22T10:12:48.999Z</time></trkpt><trkpt lat="43.23871253221912" lon="6.182266926569551"><ele>105.4</ele><time>2026-04-22T10:12:49.999Z</time></trkpt><trkpt lat="43.238718615899785" lon="6.182129261309903"><ele>104.8</ele><time>2026-04-22T10:12:50.999Z</time></trkpt><trkpt lat="43.23872376017647" lon="6.181984894292373"><ele>104.2</ele><time>2026-04-22T10:12:51.999Z</time></trkpt><trkpt lat="43.23873374177497" lon="6.181841220020566"><ele>103.60000000000001</ele><time>2026-04-22T10:12:52.999Z</time></trkpt><trkpt lat="43.23874699455589" lon="6.181719325704503"><ele>103.0</ele><time>2026-04-22T10:12:53.999Z</time></trkpt><trkpt lat="43.238767397220975" lon="6.181607039679125"><ele>103.66666666666667</ele><time>2026-04-22T10:12:54.999Z</time></trkpt><trkpt lat="43.23879738744843" lon="6.181504429120978"><ele>104.33333333333334</ele><time>2026-04-22T10:12:55.999Z</time></trkpt><trkpt lat="43.238836145626884" lon="6.181402629051716"><ele>105.0</ele><time>2026-04-22T10:12:56.999Z</time></trkpt><trkpt lat="43.23889144715137" lon="6.181300062776875"><ele>105.66666666666666</ele><time>2026-04-22T10:12:57.999Z</time></trkpt><trkpt lat="43.23894921425701" lon="6.181215987438316"><ele>106.33333333333333</ele><time>2026-04-22T10:12:58.999Z</time></trkpt><trkpt lat="43.23901777777751" lon="6.1811338378283756"><ele>107.0</ele><time>2026-04-22T10:12:59.999Z</time></trkpt><trkpt lat="43.23907998629934" lon="6.181052644903954"><ele>106.99999999999999</ele><time>2026-04-22T10:13:00.999Z</time></trkpt><trkpt lat="43.239133886483046" lon="6.180970848296437"><ele>107.0</ele><time>2026-04-22T10:13:02Z</time></trkpt><trkpt lat="43.239164045573936" lon="6.180874248012496"><ele>107.0</ele><time>2026-04-22T10:13:03Z</time></trkpt><trkpt lat="43.23918152616824" lon="6.180760517502608"><ele>107.0</ele><time>2026-04-22T10:13:04Z</time></trkpt><trkpt lat="43.23918551350959" lon="6.180638394817367"><ele>106.99999999999999</ele><time>2026-04-22T10:13:05Z</time></trkpt><trkpt lat="43.23917002659229" lon="6.1805212436587595"><ele>107.0</ele><time>2026-04-22T10:13:06Z</time></trkpt><trkpt lat="43.239138954746146" lon="6.180406858699669"><ele>106.49999999999999</ele><time>2026-04-22T10:13:07Z</time></trkpt><trkpt lat="43.239110193458" lon="6.180305444070893"><ele>106.0</ele><time>2026-04-22T10:13:08Z</time></trkpt><trkpt lat="43.23908737054145" lon="6.180219791115111"><ele>105.5</ele><time>2026-04-22T10:13:09Z</time></trkpt><trkpt lat="43.2390652881905" lon="6.180131471289304"><ele>105.0</ele><time>2026-04-22T10:13:10Z</time></trkpt><trkpt lat="43.23904318720663" lon="6.180013632689672"><ele>104.49999999999999</ele><time>2026-04-22T10:13:11Z</time></trkpt><trkpt lat="43.23902134994278" lon="6.179920389991522"><ele>104.0</ele><time>2026-04-22T10:13:12Z</time></trkpt><trkpt lat="43.23895543091054" lon="6.179782796702346"><ele>101.99999999999999</ele><time>2026-04-22T10:13:14Z</time></trkpt><trkpt lat="43.23890182653207" lon="6.179702475996631"><ele>100.0</ele><time>2026-04-22T10:13:15Z</time></trkpt><trkpt lat="43.23884712203122" lon="6.179618563337685"><ele>98.0</ele><time>2026-04-22T10:13:16Z</time></trkpt><trkpt lat="43.238807686730695" lon="6.179545984481163"><ele>96.0</ele><time>2026-04-22T10:13:17Z</time></trkpt><trkpt lat="43.23876737606016" lon="6.179477551121943"><ele>94.0</ele><time>2026-04-22T10:13:18Z</time></trkpt><trkpt lat="43.23867624871811" lon="6.179353953466041"><ele>92.0</ele><time>2026-04-22T10:13:20Z</time></trkpt><trkpt lat="43.23861426573979" lon="6.179274621537386"><ele>92.0</ele><time>2026-04-22T10:13:21Z</time></trkpt><trkpt lat="43.238575305308345" lon="6.179202163168994"><ele>92.0</ele><time>2026-04-22T10:13:22Z</time></trkpt><trkpt lat="43.23857603694235" lon="6.179048461737271"><ele>92.0</ele><time>2026-04-22T10:13:24Z</time></trkpt><trkpt lat="43.238630056858014" lon="6.178933689546822"><ele>92.0</ele><time>2026-04-22T10:13:26Z</time></trkpt><trkpt lat="43.23872253898569" lon="6.178876736616744"><ele>92.0</ele><time>2026-04-22T10:13:28Z</time></trkpt><trkpt lat="43.23882100996349" lon="6.178823663330438"><ele>90.6</ele><time>2026-04-22T10:13:30Z</time></trkpt><trkpt lat="43.23887837804268" lon="6.178787907837268"><ele>89.19999999999999</ele><time>2026-04-22T10:13:31Z</time></trkpt><trkpt lat="43.238991675783275" lon="6.178736754173755"><ele>87.8</ele><time>2026-04-22T10:13:33Z</time></trkpt><trkpt lat="43.23904188160998" lon="6.1786778833500335"><ele>86.4</ele><time>2026-04-22T10:13:34Z</time></trkpt><trkpt lat="43.23913513280958" lon="6.178574544018191"><ele>85.0</ele><time>2026-04-22T10:13:36Z</time></trkpt><trkpt lat="43.23920961054614" lon="6.178454015774796"><ele>84.6</ele><time>2026-04-22T10:13:38Z</time></trkpt><trkpt lat="43.23925558322985" lon="6.178381792973066"><ele>84.2</ele><time>2026-04-22T10:13:40Z</time></trkpt><trkpt lat="43.239351729951935" lon="6.178298269760886"><ele>83.80000000000001</ele><time>2026-04-22T10:13:42Z</time></trkpt><trkpt lat="43.239432845199794" lon="6.17824651423017"><ele>83.4</ele><time>2026-04-22T10:13:43Z</time></trkpt><trkpt lat="43.23951465812712" lon="6.178193939778174"><ele>83.0</ele><time>2026-04-22T10:13:44Z</time></trkpt><trkpt lat="43.239591229819254" lon="6.178115598235789"><ele>83.2</ele><time>2026-04-22T10:13:45Z</time></trkpt><trkpt lat="43.23967765997319" lon="6.178025293257764"><ele>83.4</ele><time>2026-04-22T10:13:46Z</time></trkpt><trkpt lat="43.23976863794941" lon="6.177942976933639"><ele>83.60000000000001</ele><time>2026-04-22T10:13:47Z</time></trkpt><trkpt lat="43.23984722141118" lon="6.177874222141427"><ele>83.80000000000001</ele><time>2026-04-22T10:13:48Z</time></trkpt><trkpt lat="43.23992476262261" lon="6.17782050932605"><ele>84.0</ele><time>2026-04-22T10:13:49Z</time></trkpt><trkpt lat="43.24001008282749" lon="6.177776408473233"><ele>84.0</ele><time>2026-04-22T10:13:50Z</time></trkpt><trkpt lat="43.24009186354169" lon="6.177745431484522"><ele>84.0</ele><time>2026-04-22T10:13:51Z</time></trkpt><trkpt lat="43.240163168173744" lon="6.177726469011369"><ele>84.0</ele><time>2026-04-22T10:13:52Z</time></trkpt><trkpt lat="43.24027433063929" lon="6.177704775686229"><ele>84.0</ele><time>2026-04-22T10:13:54Z</time></trkpt><trkpt lat="43.24035286306438" lon="6.177667590543758"><ele>84.0</ele><time>2026-04-22T10:13:57Z</time></trkpt><trkpt lat="43.240363616478945" lon="6.177574527237805"><ele>84.0</ele><time>2026-04-22T10:13:59Z</time></trkpt><trkpt lat="43.24028840939447" lon="6.177425878729662"><ele>84.6</ele><time>2026-04-22T10:14:01Z</time></trkpt><trkpt lat="43.240237897102055" lon="6.177346291803665"><ele>85.2</ele><time>2026-04-22T10:14:02Z</time></trkpt><trkpt lat="43.240188409592" lon="6.1772439803605455"><ele>85.8</ele><time>2026-04-22T10:14:02.999Z</time></trkpt><trkpt lat="43.24014618172518" lon="6.177134415977208"><ele>86.39999999999999</ele><time>2026-04-22T10:14:03.999Z</time></trkpt><trkpt lat="43.240104284958825" lon="6.177004871163855"><ele>87.0</ele><time>2026-04-22T10:14:04.999Z</time></trkpt><trkpt lat="43.24006595607217" lon="6.176858005159481"><ele>87.0</ele><time>2026-04-22T10:14:05.999Z</time></trkpt><trkpt lat="43.240035399907406" lon="6.176700047232472"><ele>87.0</ele><time>2026-04-22T10:14:06.999Z</time></trkpt><trkpt lat="43.24001620199644" lon="6.176538329414336"><ele>87.0</ele><time>2026-04-22T10:14:07.999Z</time></trkpt><trkpt lat="43.240013424028845" lon="6.176377676796173"><ele>87.0</ele><time>2026-04-22T10:14:08.999Z</time></trkpt><trkpt lat="43.24002977884437" lon="6.1762069076938735"><ele>87.0</ele><time>2026-04-22T10:14:09.999Z</time></trkpt><trkpt lat="43.24006405646922" lon="6.176033862375609"><ele>87.0</ele><time>2026-04-22T10:14:10.999Z</time></trkpt><trkpt lat="43.240107910966806" lon="6.175859020134845"><ele>87.0</ele><time>2026-04-22T10:14:11.999Z</time></trkpt><trkpt lat="43.24015054683581" lon="6.1756866811306805"><ele>87.0</ele><time>2026-04-22T10:14:12.999Z</time></trkpt><trkpt lat="43.24019324296137" lon="6.175507744731022"><ele>87.0</ele><time>2026-04-22T10:14:13.999Z</time></trkpt><trkpt lat="43.2402393786002" lon="6.1753317910709615"><ele>87.0</ele><time>2026-04-22T10:14:14.999Z</time></trkpt><trkpt lat="43.24028363954014" lon="6.1751572809999145"><ele>87.0</ele><time>2026-04-22T10:14:15.999Z</time></trkpt><trkpt lat="43.24032177566393" lon="6.174998952744663"><ele>87.0</ele><time>2026-04-22T10:14:16.999Z</time></trkpt><trkpt lat="43.24035667885752" lon="6.174853973295674"><ele>87.0</ele><time>2026-04-22T10:14:17.999Z</time></trkpt><trkpt lat="43.240393769099484" lon="6.174722771177872"><ele>87.0</ele><time>2026-04-22T10:14:18.999Z</time></trkpt><trkpt lat="43.24042426873105" lon="6.174595197204833"><ele>87.0</ele><time>2026-04-22T10:14:19.999Z</time></trkpt><trkpt lat="43.24044534507168" lon="6.174470989078367"><ele>87.0</ele><time>2026-04-22T10:14:20.999Z</time></trkpt><trkpt lat="43.2404421969234" lon="6.174330663021373"><ele>87.0</ele><time>2026-04-22T10:14:21.999Z</time></trkpt><trkpt lat="43.24041653283681" lon="6.17417882608305"><ele>86.75</ele><time>2026-04-22T10:14:22.999Z</time></trkpt><trkpt lat="43.24038587871809" lon="6.174016217306206"><ele>86.5</ele><time>2026-04-22T10:14:23.999Z</time></trkpt><trkpt lat="43.24035777394252" lon="6.173848621998616"><ele>86.25</ele><time>2026-04-22T10:14:24.999Z</time></trkpt><trkpt lat="43.24032083631881" lon="6.173680513920078"><ele>86.0</ele><time>2026-04-22T10:14:25.999Z</time></trkpt><trkpt lat="43.24028002045764" lon="6.173506605198447"><ele>86.0</ele><time>2026-04-22T10:14:26.999Z</time></trkpt><trkpt lat="43.24023575864841" lon="6.173329483221784"><ele>86.0</ele><time>2026-04-22T10:14:27.999Z</time></trkpt><trkpt lat="43.2401954600892" lon="6.173148836244321"><ele>86.0</ele><time>2026-04-22T10:14:28.999Z</time></trkpt><trkpt lat="43.240159914196816" lon="6.172963077867238"><ele>86.0</ele><time>2026-04-22T10:14:29.999Z</time></trkpt><trkpt lat="43.24012307207537" lon="6.17277519014669"><ele>85.5</ele><time>2026-04-22T10:14:30.999Z</time></trkpt><trkpt lat="43.24008957858758" lon="6.172589090197665"><ele>85.0</ele><time>2026-04-22T10:14:31.999Z</time></trkpt><trkpt lat="43.24005939782972" lon="6.172417788849488"><ele>84.5</ele><time>2026-04-22T10:14:32.999Z</time></trkpt><trkpt lat="43.240032051947296" lon="6.172242154994796"><ele>84.0</ele><time>2026-04-22T10:14:33.999Z</time></trkpt><trkpt lat="43.24000407375274" lon="6.172062880709437"><ele>84.0</ele><time>2026-04-22T10:14:34.999Z</time></trkpt><trkpt lat="43.239979603776355" lon="6.171881334224989"><ele>84.0</ele><time>2026-04-22T10:14:35.999Z</time></trkpt><trkpt lat="43.239954217087195" lon="6.171700373863644"><ele>84.0</ele><time>2026-04-22T10:14:36.999Z</time></trkpt><trkpt lat="43.23994234546346" lon="6.171526012099514"><ele>84.0</ele><time>2026-04-22T10:14:37.999Z</time></trkpt><trkpt lat="43.23994744455026" lon="6.171361704293533"><ele>83.25</ele><time>2026-04-22T10:14:38.999Z</time></trkpt><trkpt lat="43.23996362550906" lon="6.171189750744649"><ele>82.5</ele><time>2026-04-22T10:14:39.999Z</time></trkpt><trkpt lat="43.23998303566147" lon="6.1710135466364475"><ele>81.75</ele><time>2026-04-22T10:14:40.999Z</time></trkpt><trkpt lat="43.23998974838062" lon="6.170849974269992"><ele>81.0</ele><time>2026-04-22T10:14:41.999Z</time></trkpt><trkpt lat="43.23998223581648" lon="6.170687386214426"><ele>80.0</ele><time>2026-04-22T10:14:42.999Z</time></trkpt><trkpt lat="43.23997300921904" lon="6.170527788695766"><ele>79.0</ele><time>2026-04-22T10:14:43.999Z</time></trkpt><trkpt lat="43.23997200712925" lon="6.170377686070091"><ele>78.0</ele><time>2026-04-22T10:14:44.999Z</time></trkpt><trkpt lat="43.23998355288557" lon="6.170248872818738"><ele>77.0</ele><time>2026-04-22T10:14:45.999Z</time></trkpt><trkpt lat="43.23998975395111" lon="6.170100469121954"><ele>76.0</ele><time>2026-04-22T10:14:46.999Z</time></trkpt><trkpt lat="43.240006955370205" lon="6.169965399024401"><ele>75.0</ele><time>2026-04-22T10:14:47.999Z</time></trkpt><trkpt lat="43.2400172970762" lon="6.169855151419516"><ele>74.0</ele><time>2026-04-22T10:14:48.999Z</time></trkpt><trkpt lat="43.24002732417986" lon="6.169713541951448"><ele>73.0</ele><time>2026-04-22T10:14:50.999Z</time></trkpt><trkpt lat="43.24003186289128" lon="6.169613217590066"><ele>72.0</ele><time>2026-04-22T10:14:52.999Z</time></trkpt><trkpt lat="43.24011860412456" lon="6.169572649932063"><ele>71.0</ele><time>2026-04-22T10:14:55.999Z</time></trkpt><trkpt lat="43.24024695066277" lon="6.169605149394934"><ele>71.0</ele><time>2026-04-22T10:14:57.999Z</time></trkpt><trkpt lat="43.24031494162932" lon="6.169626064127013"><ele>71.0</ele><time>2026-04-22T10:14:58.999Z</time></trkpt><trkpt lat="43.240389856213476" lon="6.169629753031237"><ele>71.0</ele><time>2026-04-22T10:14:59.999Z</time></trkpt><trkpt lat="43.24048399984788" lon="6.169626283331226"><ele>71.0</ele><time>2026-04-22T10:15:00.999Z</time></trkpt><trkpt lat="43.240577232633576" lon="6.169620979016368"><ele>71.0</ele><time>2026-04-22T10:15:01.999Z</time></trkpt><trkpt lat="43.240670869690625" lon="6.16961269281928"><ele>71.0</ele><time>2026-04-22T10:15:02.999Z</time></trkpt><trkpt lat="43.24075379787478" lon="6.169617730088776"><ele>71.16666666666667</ele><time>2026-04-22T10:15:03.999Z</time></trkpt><trkpt lat="43.2408326034047" lon="6.169639516059244"><ele>71.33333333333334</ele><time>2026-04-22T10:15:04.999Z</time></trkpt><trkpt lat="43.240897557118345" lon="6.169682641837115"><ele>71.5</ele><time>2026-04-22T10:15:05.999Z</time></trkpt><trkpt lat="43.240954540915546" lon="6.169757554601932"><ele>71.66666666666667</ele><time>2026-04-22T10:15:06.999Z</time></trkpt><trkpt lat="43.241003702885614" lon="6.169858217781491"><ele>71.83333333333333</ele><time>2026-04-22T10:15:08Z</time></trkpt><trkpt lat="43.241054444761815" lon="6.16996812986184"><ele>72.0</ele><time>2026-04-22T10:15:09Z</time></trkpt><trkpt lat="43.24110351813655" lon="6.170032306771288"><ele>72.0</ele><time>2026-04-22T10:15:10Z</time></trkpt><trkpt lat="43.24118442540987" lon="6.17003726480384"><ele>72.0</ele><time>2026-04-22T10:15:11Z</time></trkpt><trkpt lat="43.241286823968714" lon="6.170049483034619"><ele>72.0</ele><time>2026-04-22T10:15:12Z</time></trkpt><trkpt lat="43.24138476519828" lon="6.170052590223486"><ele>72.0</ele><time>2026-04-22T10:15:13Z</time></trkpt><trkpt lat="43.241485545567386" lon="6.170067250069357"><ele>72.0</ele><time>2026-04-22T10:15:14Z</time></trkpt><trkpt lat="43.241589052210955" lon="6.170083031458932"><ele>72.25</ele><time>2026-04-22T10:15:15Z</time></trkpt><trkpt lat="43.24169068853703" lon="6.170103948304735"><ele>72.5</ele><time>2026-04-22T10:15:16Z</time></trkpt><trkpt lat="43.24180375786865" lon="6.170129009186753"><ele>72.75</ele><time>2026-04-22T10:15:17Z</time></trkpt><trkpt lat="43.24191839167066" lon="6.1701380740112555"><ele>73.0</ele><time>2026-04-22T10:15:18Z</time></trkpt><trkpt lat="43.242038769578336" lon="6.1701362529952535"><ele>73.0</ele><time>2026-04-22T10:15:19Z</time></trkpt><trkpt lat="43.24216652591517" lon="6.170120713442288"><ele>73.0</ele><time>2026-04-22T10:15:20Z</time></trkpt><trkpt lat="43.2422895441695" lon="6.170114263018966"><ele>73.0</ele><time>2026-04-22T10:15:21Z</time></trkpt><trkpt lat="43.24240564852906" lon="6.170135156399566"><ele>73.0</ele><time>2026-04-22T10:15:22Z</time></trkpt><trkpt lat="43.242522089868935" lon="6.1701792507829945"><ele>73.75</ele><time>2026-04-22T10:15:23Z</time></trkpt><trkpt lat="43.24264173105434" lon="6.170219020001414"><ele>74.5</ele><time>2026-04-22T10:15:24Z</time></trkpt><trkpt lat="43.24276239338009" lon="6.170251449359924"><ele>75.25</ele><time>2026-04-22T10:15:25Z</time></trkpt><trkpt lat="43.24287742137983" lon="6.170284098846081"><ele>76.0</ele><time>2026-04-22T10:15:26Z</time></trkpt><trkpt lat="43.24299215666014" lon="6.170318179699249"><ele>76.0</ele><time>2026-04-22T10:15:27Z</time></trkpt><trkpt lat="43.243116856231964" lon="6.170339956818466"><ele>76.0</ele><time>2026-04-22T10:15:28Z</time></trkpt><trkpt lat="43.24325302803674" lon="6.170347340957897"><ele>76.0</ele><time>2026-04-22T10:15:29Z</time></trkpt><trkpt lat="43.2433871656702" lon="6.170356185749317"><ele>76.0</ele><time>2026-04-22T10:15:30Z</time></trkpt><trkpt lat="43.24352398877669" lon="6.1703762202453065"><ele>76.0</ele><time>2026-04-22T10:15:31Z</time></trkpt><trkpt lat="43.24367085980711" lon="6.170384760661283"><ele>76.0</ele><time>2026-04-22T10:15:32Z</time></trkpt><trkpt lat="43.243812268484746" lon="6.1704069800860655"><ele>76.0</ele><time>2026-04-22T10:15:33Z</time></trkpt><trkpt lat="43.243956032314465" lon="6.1704396371984815"><ele>76.0</ele><time>2026-04-22T10:15:34Z</time></trkpt><trkpt lat="43.244099536780446" lon="6.170482418542992"><ele>76.25</ele><time>2026-04-22T10:15:35Z</time></trkpt><trkpt lat="43.24423950713245" lon="6.170529592069434"><ele>76.5</ele><time>2026-04-22T10:15:36Z</time></trkpt><trkpt lat="43.24436912061885" lon="6.170592506091171"><ele>76.75</ele><time>2026-04-22T10:15:37Z</time></trkpt><trkpt lat="43.2444951690983" lon="6.170664859810226"><ele>77.0</ele><time>2026-04-22T10:15:38Z</time></trkpt><trkpt lat="43.24463336777955" lon="6.170718032433526"><ele>77.0</ele><time>2026-04-22T10:15:39Z</time></trkpt><trkpt lat="43.244779307245985" lon="6.170760661466293"><ele>77.0</ele><time>2026-04-22T10:15:40Z</time></trkpt><trkpt lat="43.24491338702632" lon="6.170812241582532"><ele>77.0</ele><time>2026-04-22T10:15:41Z</time></trkpt><trkpt lat="43.24505230409376" lon="6.1708630052635"><ele>77.0</ele><time>2026-04-22T10:15:42Z</time></trkpt><trkpt lat="43.24519668330672" lon="6.170908240170972"><ele>76.66666666666667</ele><time>2026-04-22T10:15:43Z</time></trkpt><trkpt lat="43.24534280885839" lon="6.170954673508378"><ele>76.33333333333333</ele><time>2026-04-22T10:15:44Z</time></trkpt><trkpt lat="43.245498451527425" lon="6.171001937472506"><ele>76.0</ele><time>2026-04-22T10:15:45Z</time></trkpt><trkpt lat="43.24565305768647" lon="6.17105066474219"><ele>76.0</ele><time>2026-04-22T10:15:46Z</time></trkpt><trkpt lat="43.24579816286207" lon="6.17109711571671"><ele>76.0</ele><time>2026-04-22T10:15:47Z</time></trkpt><trkpt lat="43.24594825756645" lon="6.171142776998891"><ele>76.0</ele><time>2026-04-22T10:15:48Z</time></trkpt><trkpt lat="43.246098489241064" lon="6.171187252119474"><ele>76.0</ele><time>2026-04-22T10:15:49Z</time></trkpt><trkpt lat="43.246243786100905" lon="6.171230961788761"><ele>76.0</ele><time>2026-04-22T10:15:50Z</time></trkpt><trkpt lat="43.246394776373265" lon="6.171274779057857"><ele>76.0</ele><time>2026-04-22T10:15:51Z</time></trkpt><trkpt lat="43.24653214419008" lon="6.171312321128492"><ele>76.0</ele><time>2026-04-22T10:15:52Z</time></trkpt><trkpt lat="43.24664926290423" lon="6.1713437353365"><ele>76.0</ele><time>2026-04-22T10:15:53Z</time></trkpt><trkpt lat="43.24676558714638" lon="6.171381143018114"><ele>76.0</ele><time>2026-04-22T10:15:54Z</time></trkpt><trkpt lat="43.2468713229416" lon="6.171429606206811"><ele>76.0</ele><time>2026-04-22T10:15:55Z</time></trkpt><trkpt lat="43.24696757054396" lon="6.171480075801513"><ele>76.0</ele><time>2026-04-22T10:15:56Z</time></trkpt><trkpt lat="43.247055838677895" lon="6.171509855445684"><ele>76.0</ele><time>2026-04-22T10:15:57Z</time></trkpt><trkpt lat="43.24713684461468" lon="6.171525483421512"><ele>76.0</ele><time>2026-04-22T10:15:58Z</time></trkpt><trkpt lat="43.247203214533265" lon="6.171536049812925"><ele>76.0</ele><time>2026-04-22T10:15:59Z</time></trkpt><trkpt lat="43.247306712295476" lon="6.171544851299016"><ele>76.0</ele><time>2026-04-22T10:16:01Z</time></trkpt><trkpt lat="43.24738984088227" lon="6.171438586369775"><ele>76.0</ele><time>2026-04-22T10:16:03Z</time></trkpt><trkpt lat="43.24740527405644" lon="6.171337222668708"><ele>76.0</ele><time>2026-04-22T10:16:04Z</time></trkpt><trkpt lat="43.24740703211483" lon="6.17122803602924"><ele>76.0</ele><time>2026-04-22T10:16:04.999Z</time></trkpt><trkpt lat="43.247413930784525" lon="6.171112107708761"><ele>75.83333333333333</ele><time>2026-04-22T10:16:05.999Z</time></trkpt><trkpt lat="43.24742086136551" lon="6.171002003804246"><ele>75.66666666666666</ele><time>2026-04-22T10:16:06.999Z</time></trkpt><trkpt lat="43.24741602363698" lon="6.170904944576099"><ele>75.5</ele><time>2026-04-22T10:16:07.999Z</time></trkpt><trkpt lat="43.247391792216675" lon="6.170817400950552"><ele>75.33333333333333</ele><time>2026-04-22T10:16:08.999Z</time></trkpt><trkpt lat="43.24734572238808" lon="6.170757484993064"><ele>75.16666666666667</ele><time>2026-04-22T10:16:09.999Z</time></trkpt><trkpt lat="43.24726906392707" lon="6.170699158815886"><ele>75.0</ele><time>2026-04-22T10:16:10.999Z</time></trkpt><trkpt lat="43.24718380423686" lon="6.170644156408766"><ele>74.6</ele><time>2026-04-22T10:16:11.999Z</time></trkpt><trkpt lat="43.24710207438651" lon="6.1705727937595505"><ele>74.2</ele><time>2026-04-22T10:16:12.999Z</time></trkpt><trkpt lat="43.24703339568589" lon="6.170473795470874"><ele>73.8</ele><time>2026-04-22T10:16:13.999Z</time></trkpt><trkpt lat="43.24697609190856" lon="6.170353121841705"><ele>73.4</ele><time>2026-04-22T10:16:14.999Z</time></trkpt><trkpt lat="43.246908555795045" lon="6.17024826082676"><ele>73.0</ele><time>2026-04-22T10:16:15.999Z</time></trkpt><trkpt lat="43.24683157210998" lon="6.170161025138989"><ele>73.0</ele><time>2026-04-22T10:16:16.999Z</time></trkpt><trkpt lat="43.24675408335108" lon="6.170083582344147"><ele>73.0</ele><time>2026-04-22T10:16:17.999Z</time></trkpt><trkpt lat="43.246671361242214" lon="6.170015838656724"><ele>73.0</ele><time>2026-04-22T10:16:18.999Z</time></trkpt><trkpt lat="43.246594907669895" lon="6.169962464305325"><ele>73.0</ele><time>2026-04-22T10:16:19.999Z</time></trkpt><trkpt lat="43.24652800722186" lon="6.1699232686150065"><ele>73.0</ele><time>2026-04-22T10:16:20.999Z</time></trkpt><trkpt lat="43.246470625135295" lon="6.169885454896593"><ele>73.0</ele><time>2026-04-22T10:16:21.999Z</time></trkpt><trkpt lat="43.246423794067745" lon="6.169768019469496"><ele>73.0</ele><time>2026-04-22T10:16:23.999Z</time></trkpt><trkpt lat="43.24644985212423" lon="6.1696376371763275"><ele>73.0</ele><time>2026-04-22T10:16:25.999Z</time></trkpt><trkpt lat="43.24648999282314" lon="6.1695672397687185"><ele>73.0</ele><time>2026-04-22T10:16:26.999Z</time></trkpt><trkpt lat="43.246554732188436" lon="6.169508442068288"><ele>73.0</ele><time>2026-04-22T10:16:27.999Z</time></trkpt><trkpt lat="43.24661572030738" lon="6.169442828591111"><ele>73.0</ele><time>2026-04-22T10:16:28.999Z</time></trkpt><trkpt lat="43.24666572253033" lon="6.169371824365974"><ele>73.0</ele><time>2026-04-22T10:16:29.999Z</time></trkpt><trkpt lat="43.24674412285067" lon="6.169259064533481"><ele>73.0</ele><time>2026-04-22T10:16:31.999Z</time></trkpt><trkpt lat="43.246839349727885" lon="6.169121492245335"><ele>73.0</ele><time>2026-04-22T10:16:33.999Z</time></trkpt><trkpt lat="43.24690300098059" lon="6.169012074076576"><ele>73.0</ele><time>2026-04-22T10:16:34.999Z</time></trkpt><trkpt lat="43.24697782900647" lon="6.168900154777012"><ele>73.0</ele><time>2026-04-22T10:16:35.999Z</time></trkpt><trkpt lat="43.247066292141845" lon="6.168776467501329"><ele>73.0</ele><time>2026-04-22T10:16:36.999Z</time></trkpt><trkpt lat="43.24715488905135" lon="6.16864742550543"><ele>73.0</ele><time>2026-04-22T10:16:37.999Z</time></trkpt><trkpt lat="43.24725242501714" lon="6.168496350541744"><ele>73.0</ele><time>2026-04-22T10:16:38.999Z</time></trkpt><trkpt lat="43.24734767018657" lon="6.168351695028623"><ele>73.0</ele><time>2026-04-22T10:16:39.999Z</time></trkpt><trkpt lat="43.24743125561441" lon="6.168227147138121"><ele>74.2</ele><time>2026-04-22T10:16:40.999Z</time></trkpt><trkpt lat="43.24751217119695" lon="6.168098368429254"><ele>75.4</ele><time>2026-04-22T10:16:41.999Z</time></trkpt><trkpt lat="43.247591579095975" lon="6.167971816741938"><ele>76.60000000000001</ele><time>2026-04-22T10:16:42.999Z</time></trkpt><trkpt lat="43.247662808951986" lon="6.167867789866303"><ele>77.8</ele><time>2026-04-22T10:16:43.999Z</time></trkpt><trkpt lat="43.247719959753574" lon="6.167790168314306"><ele>79.0</ele><time>2026-04-22T10:16:44.999Z</time></trkpt><trkpt lat="43.24776371956698" lon="6.167728029023192"><ele>79.0</ele><time>2026-04-22T10:16:45.999Z</time></trkpt><trkpt lat="43.24779855605203" lon="6.167629740205545"><ele>79.0</ele><time>2026-04-22T10:16:47.999Z</time></trkpt><trkpt lat="43.24779187447108" lon="6.167539902767204"><ele>79.0</ele><time>2026-04-22T10:16:55.999Z</time></trkpt><trkpt lat="43.24776116709875" lon="6.1674613527653905"><ele>79.0</ele><time>2026-04-22T10:16:56.999Z</time></trkpt><trkpt lat="43.24770773606108" lon="6.167398055363021"><ele>79.0</ele><time>2026-04-22T10:16:57.999Z</time></trkpt><trkpt lat="43.247648725224835" lon="6.167313112235104"><ele>79.0</ele><time>2026-04-22T10:16:58.999Z</time></trkpt><trkpt lat="43.2475790803775" lon="6.167204339384787"><ele>79.75</ele><time>2026-04-22T10:16:59.999Z</time></trkpt><trkpt lat="43.247502982514554" lon="6.167088840822615"><ele>80.5</ele><time>2026-04-22T10:17:00.999Z</time></trkpt><trkpt lat="43.24741954072699" lon="6.16696007741888"><ele>81.25</ele><time>2026-04-22T10:17:01.999Z</time></trkpt><trkpt lat="43.2473326127909" lon="6.166829667737206"><ele>82.0</ele><time>2026-04-22T10:17:02.999Z</time></trkpt><trkpt lat="43.24723375791746" lon="6.166689503982721"><ele>82.25</ele><time>2026-04-22T10:17:03.999Z</time></trkpt><trkpt lat="43.24712682769342" lon="6.166527231627293"><ele>82.5</ele><time>2026-04-22T10:17:04.999Z</time></trkpt><trkpt lat="43.24704565575905" lon="6.16637971411359"><ele>82.75</ele><time>2026-04-22T10:17:05.999Z</time></trkpt><trkpt lat="43.24698492927031" lon="6.1662393812183005"><ele>83.0</ele><time>2026-04-22T10:17:06.999Z</time></trkpt><trkpt lat="43.24692012312473" lon="6.166100693594819"><ele>83.0</ele><time>2026-04-22T10:17:07.999Z</time></trkpt><trkpt lat="43.246841280408546" lon="6.16597137933614"><ele>83.0</ele><time>2026-04-22T10:17:08.999Z</time></trkpt><trkpt lat="43.24674417369811" lon="6.165855341951246"><ele>83.0</ele><time>2026-04-22T10:17:09.999Z</time></trkpt><trkpt lat="43.246628517055505" lon="6.165765998989471"><ele>83.0</ele><time>2026-04-22T10:17:10.999Z</time></trkpt><trkpt lat="43.246528134383794" lon="6.1656672941645025"><ele>83.0</ele><time>2026-04-22T10:17:11.999Z</time></trkpt><trkpt lat="43.24644603005498" lon="6.165561343650582"><ele>83.0</ele><time>2026-04-22T10:17:12.999Z</time></trkpt><trkpt lat="43.246371986256456" lon="6.165430277946765"><ele>83.0</ele><time>2026-04-22T10:17:14Z</time></trkpt><trkpt lat="43.24629546568046" lon="6.165288818811351"><ele>83.0</ele><time>2026-04-22T10:17:15Z</time></trkpt><trkpt lat="43.24622084405884" lon="6.165138281532292"><ele>83.0</ele><time>2026-04-22T10:17:16Z</time></trkpt><trkpt lat="43.24615344148096" lon="6.1649888276012526"><ele>83.0</ele><time>2026-04-22T10:17:17Z</time></trkpt><trkpt lat="43.246082895442626" lon="6.164850198514081"><ele>83.0</ele><time>2026-04-22T10:17:18Z</time></trkpt><trkpt lat="43.24600807057994" lon="6.164698310480833"><ele>83.0</ele><time>2026-04-22T10:17:19Z</time></trkpt><trkpt lat="43.24593936583582" lon="6.1645152022276095"><ele>83.0</ele><time>2026-04-22T10:17:20Z</time></trkpt><trkpt lat="43.24589089941185" lon="6.164320009101343"><ele>83.0</ele><time>2026-04-22T10:17:21Z</time></trkpt><trkpt lat="43.245850672002256" lon="6.164120694586245"><ele>83.0</ele><time>2026-04-22T10:17:22Z</time></trkpt><trkpt lat="43.245804241661645" lon="6.163917125024496"><ele>82.75</ele><time>2026-04-22T10:17:23Z</time></trkpt><trkpt lat="43.24576554296391" lon="6.1637344794487525"><ele>82.5</ele><time>2026-04-22T10:17:24Z</time></trkpt><trkpt lat="43.24572372579558" lon="6.163550861653758"><ele>82.25</ele><time>2026-04-22T10:17:25Z</time></trkpt><trkpt lat="43.24567548370523" lon="6.163359986614285"><ele>82.0</ele><time>2026-04-22T10:17:26Z</time></trkpt><trkpt lat="43.245627057271214" lon="6.163171294515885"><ele>80.66666666666666</ele><time>2026-04-22T10:17:27Z</time></trkpt><trkpt lat="43.24558062233218" lon="6.1629751871865475"><ele>79.33333333333333</ele><time>2026-04-22T10:17:28Z</time></trkpt><trkpt lat="43.2455416908451" lon="6.162771444624479"><ele>78.0</ele><time>2026-04-22T10:17:29Z</time></trkpt><trkpt lat="43.24550484861107" lon="6.162567291370378"><ele>78.0</ele><time>2026-04-22T10:17:30Z</time></trkpt><trkpt lat="43.24546731421679" lon="6.162367735826815"><ele>78.0</ele><time>2026-04-22T10:17:31Z</time></trkpt><trkpt lat="43.24542715523075" lon="6.16216507593128"><ele>78.0</ele><time>2026-04-22T10:17:32Z</time></trkpt><trkpt lat="43.245382531887884" lon="6.161964280820225"><ele>78.0</ele><time>2026-04-22T10:17:33Z</time></trkpt><trkpt lat="43.24532910507895" lon="6.161770557667833"><ele>78.0</ele><time>2026-04-22T10:17:34Z</time></trkpt><trkpt lat="43.24526394967419" lon="6.161584714180037"><ele>78.0</ele><time>2026-04-22T10:17:35Z</time></trkpt><trkpt lat="43.24518557873322" lon="6.1614044165657695"><ele>78.0</ele><time>2026-04-22T10:17:36Z</time></trkpt><trkpt lat="43.24512911198964" lon="6.161220114555071"><ele>78.0</ele><time>2026-04-22T10:17:37Z</time></trkpt><trkpt lat="43.24509310186689" lon="6.1610577537903835"><ele>78.0</ele><time>2026-04-22T10:17:38Z</time></trkpt><trkpt lat="43.245074501171494" lon="6.160910987262413"><ele>78.0</ele><time>2026-04-22T10:17:39Z</time></trkpt><trkpt lat="43.2450467539233" lon="6.160783615762956"><ele>78.2</ele><time>2026-04-22T10:17:40Z</time></trkpt><trkpt lat="43.24500005492507" lon="6.160683072112256"><ele>78.4</ele><time>2026-04-22T10:17:41Z</time></trkpt><trkpt lat="43.24492658109652" lon="6.160582815391271"><ele>78.60000000000001</ele><time>2026-04-22T10:17:42Z</time></trkpt><trkpt lat="43.24483277018665" lon="6.160469586828444"><ele>78.8</ele><time>2026-04-22T10:17:43Z</time></trkpt><trkpt lat="43.24474915076553" lon="6.160337133495845"><ele>79.0</ele><time>2026-04-22T10:17:44Z</time></trkpt><trkpt lat="43.24466906612954" lon="6.160186842053549"><ele>79.0</ele><time>2026-04-22T10:17:45Z</time></trkpt><trkpt lat="43.244586915050945" lon="6.160031356428701"><ele>79.0</ele><time>2026-04-22T10:17:46Z</time></trkpt><trkpt lat="43.244490751475986" lon="6.159867364894688"><ele>79.0</ele><time>2026-04-22T10:17:47Z</time></trkpt><trkpt lat="43.24438352634154" lon="6.159685731500656"><ele>79.66666666666666</ele><time>2026-04-22T10:17:48Z</time></trkpt><trkpt lat="43.24427920434163" lon="6.1595031767793715"><ele>80.33333333333333</ele><time>2026-04-22T10:17:49Z</time></trkpt><trkpt lat="43.244167972100406" lon="6.1593145554629505"><ele>81.0</ele><time>2026-04-22T10:17:50Z</time></trkpt><trkpt lat="43.24405302537708" lon="6.159121652324499"><ele>80.33333333333333</ele><time>2026-04-22T10:17:51Z</time></trkpt><trkpt lat="43.243942716593025" lon="6.158932719962467"><ele>79.66666666666666</ele><time>2026-04-22T10:17:52Z</time></trkpt><trkpt lat="43.243841286035284" lon="6.158742807322691"><ele>79.0</ele><time>2026-04-22T10:17:53Z</time></trkpt><trkpt lat="43.24374553162179" lon="6.1585574475591365"><ele>79.0</ele><time>2026-04-22T10:17:54Z</time></trkpt><trkpt lat="43.243643130701194" lon="6.158361366723985"><ele>79.0</ele><time>2026-04-22T10:17:55Z</time></trkpt><trkpt lat="43.24353927430244" lon="6.158167927441899"><ele>79.0</ele><time>2026-04-22T10:17:56Z</time></trkpt><trkpt lat="43.24342876468016" lon="6.1579726535314325"><ele>79.0</ele><time>2026-04-22T10:17:57Z</time></trkpt><trkpt lat="43.243312031544036" lon="6.157788744068543"><ele>79.0</ele><time>2026-04-22T10:17:58Z</time></trkpt><trkpt lat="43.24319704252605" lon="6.1576196497582405"><ele>79.0</ele><time>2026-04-22T10:17:59Z</time></trkpt><trkpt lat="43.24307936384421" lon="6.157447744794202"><ele>78.0</ele><time>2026-04-22T10:18:00Z</time></trkpt><trkpt lat="43.24296801476148" lon="6.157282781890783"><ele>77.0</ele><time>2026-04-22T10:18:01Z</time></trkpt><trkpt lat="43.24285589235848" lon="6.157114680859119"><ele>76.0</ele><time>2026-04-22T10:18:02Z</time></trkpt><trkpt lat="43.242752302880355" lon="6.156958501773624"><ele>76.0</ele><time>2026-04-22T10:18:03Z</time></trkpt><trkpt lat="43.24266449163518" lon="6.156820373484977"><ele>76.0</ele><time>2026-04-22T10:18:04Z</time></trkpt><trkpt lat="43.242586703363486" lon="6.156699283488601"><ele>76.0</ele><time>2026-04-22T10:18:05Z</time></trkpt><trkpt lat="43.242509793292946" lon="6.156583898717249"><ele>76.0</ele><time>2026-04-22T10:18:06Z</time></trkpt><trkpt lat="43.242439640410694" lon="6.156476342042662"><ele>75.83333333333333</ele><time>2026-04-22T10:18:07Z</time></trkpt><trkpt lat="43.24237180174374" lon="6.156370236879685"><ele>75.66666666666666</ele><time>2026-04-22T10:18:08Z</time></trkpt><trkpt lat="43.242309841383374" lon="6.156274355841591"><ele>75.5</ele><time>2026-04-22T10:18:09Z</time></trkpt><trkpt lat="43.24224771677621" lon="6.156190988648331"><ele>75.33333333333333</ele><time>2026-04-22T10:18:09.999Z</time></trkpt><trkpt lat="43.24218484753005" lon="6.156122511280192"><ele>75.16666666666667</ele><time>2026-04-22T10:18:10.999Z</time></trkpt><trkpt lat="43.24212273670229" lon="6.156068715859229"><ele>75.0</ele><time>2026-04-22T10:18:11.999Z</time></trkpt><trkpt lat="43.24201514659327" lon="6.1560276181850195"><ele>74.2</ele><time>2026-04-22T10:18:13.999Z</time></trkpt><trkpt lat="43.24194118248235" lon="6.1560643397385935"><ele>73.4</ele><time>2026-04-22T10:18:22.999Z</time></trkpt><trkpt lat="43.241873199668944" lon="6.156059093602087"><ele>72.6</ele><time>2026-04-22T10:18:23.999Z</time></trkpt><trkpt lat="43.241776892219534" lon="6.156016155408753"><ele>71.8</ele><time>2026-04-22T10:18:24.999Z</time></trkpt><trkpt lat="43.24166982820605" lon="6.155981244216338"><ele>71.0</ele><time>2026-04-22T10:18:25.999Z</time></trkpt><trkpt lat="43.24153540595271" lon="6.155950356913605"><ele>69.5</ele><time>2026-04-22T10:18:26.999Z</time></trkpt><trkpt lat="43.24138323278656" lon="6.155923632197653"><ele>68.0</ele><time>2026-04-22T10:18:27.999Z</time></trkpt><trkpt lat="43.24124733800712" lon="6.155896150291662"><ele>66.5</ele><time>2026-04-22T10:18:28.999Z</time></trkpt><trkpt lat="43.2411424954459" lon="6.1558805078604735"><ele>65.0</ele><time>2026-04-22T10:18:29.999Z</time></trkpt><trkpt lat="43.24106149615194" lon="6.155869743203359"><ele>65.0</ele><time>2026-04-22T10:18:30.999Z</time></trkpt><trkpt lat="43.24099263715813" lon="6.155841112885869"><ele>65.0</ele><time>2026-04-22T10:18:31.999Z</time></trkpt><trkpt lat="43.2409263428718" lon="6.15578055414867"><ele>65.0</ele><time>2026-04-22T10:18:32.999Z</time></trkpt><trkpt lat="43.24087160348852" lon="6.1556776691087824"><ele>65.0</ele><time>2026-04-22T10:18:33.999Z</time></trkpt><trkpt lat="43.2408283087377" lon="6.155545759113769"><ele>65.0</ele><time>2026-04-22T10:18:34.999Z</time></trkpt><trkpt lat="43.24079768582228" lon="6.155423832509594"><ele>65.0</ele><time>2026-04-22T10:18:35.999Z</time></trkpt><trkpt lat="43.24076605502758" lon="6.155320328319838"><ele>65.2</ele><time>2026-04-22T10:18:36.999Z</time></trkpt><trkpt lat="43.240722284099746" lon="6.155219897491721"><ele>65.4</ele><time>2026-04-22T10:18:37.999Z</time></trkpt><trkpt lat="43.24067327401547" lon="6.1551142559190275"><ele>65.6</ele><time>2026-04-22T10:18:38.999Z</time></trkpt><trkpt lat="43.24062507720656" lon="6.155015724010708"><ele>65.8</ele><time>2026-04-22T10:18:39.999Z</time></trkpt><trkpt lat="43.240583110844064" lon="6.154931026331394"><ele>66.0</ele><time>2026-04-22T10:18:40.999Z</time></trkpt><trkpt lat="43.24049322588497" lon="6.154798119803095"><ele>65.5</ele><time>2026-04-22T10:18:42.999Z</time></trkpt><trkpt lat="43.2404361090797" lon="6.154735171991961"><ele>65.0</ele><time>2026-04-22T10:18:43.999Z</time></trkpt><trkpt lat="43.24037176389765" lon="6.154700523217002"><ele>64.5</ele><time>2026-04-22T10:18:44.999Z</time></trkpt><trkpt lat="43.24031628366538" lon="6.154633498617846"><ele>64.0</ele><time>2026-04-22T10:18:45.999Z</time></trkpt><trkpt lat="43.24026458101911" lon="6.154577915253061"><ele>63.5</ele><time>2026-04-22T10:18:46.999Z</time></trkpt><trkpt lat="43.24018564011557" lon="6.154491857971312"><ele>63.0</ele><time>2026-04-22T10:18:48.999Z</time></trkpt><trkpt lat="43.24012197493013" lon="6.154399224213363"><ele>63.0</ele><time>2026-04-22T10:18:50.999Z</time></trkpt><trkpt lat="43.24005678889597" lon="6.154266647662932"><ele>63.0</ele><time>2026-04-22T10:18:52.999Z</time></trkpt><trkpt lat="43.240017609642805" lon="6.154175032342027"><ele>63.0</ele><time>2026-04-22T10:18:53.999Z</time></trkpt><trkpt lat="43.23996374817702" lon="6.1540616538555595"><ele>63.0</ele><time>2026-04-22T10:18:54.999Z</time></trkpt><trkpt lat="43.23989409386311" lon="6.153936347605501"><ele>63.0</ele><time>2026-04-22T10:18:55.999Z</time></trkpt><trkpt lat="43.23982122795988" lon="6.15379996798246"><ele>62.75</ele><time>2026-04-22T10:18:56.999Z</time></trkpt><trkpt lat="43.23973893960505" lon="6.15364554211715"><ele>62.5</ele><time>2026-04-22T10:18:57.999Z</time></trkpt><trkpt lat="43.23964772556821" lon="6.153480376122921"><ele>62.25</ele><time>2026-04-22T10:18:58.999Z</time></trkpt><trkpt lat="43.23955473147345" lon="6.153310437682885"><ele>62.0</ele><time>2026-04-22T10:18:59.999Z</time></trkpt><trkpt lat="43.2394600063119" lon="6.15313978585521"><ele>62.0</ele><time>2026-04-22T10:19:00.999Z</time></trkpt><trkpt lat="43.23937328375694" lon="6.15298199037467"><ele>62.0</ele><time>2026-04-22T10:19:01.999Z</time></trkpt><trkpt lat="43.239287247989424" lon="6.152820716906777"><ele>62.0</ele><time>2026-04-22T10:19:02.999Z</time></trkpt><trkpt lat="43.23919828358477" lon="6.152647650723881"><ele>62.0</ele><time>2026-04-22T10:19:03.999Z</time></trkpt><trkpt lat="43.23912454523124" lon="6.152480541727972"><ele>62.0</ele><time>2026-04-22T10:19:04.999Z</time></trkpt><trkpt lat="43.239062872574735" lon="6.152314115459332"><ele>62.0</ele><time>2026-04-22T10:19:05.999Z</time></trkpt><trkpt lat="43.2390004524608" lon="6.152137315227213"><ele>62.0</ele><time>2026-04-22T10:19:06.999Z</time></trkpt><trkpt lat="43.23894690481595" lon="6.151958598440625"><ele>62.0</ele><time>2026-04-22T10:19:07.999Z</time></trkpt><trkpt lat="43.23890383667465" lon="6.151756737802849"><ele>62.0</ele><time>2026-04-22T10:19:08.999Z</time></trkpt><trkpt lat="43.23886149014377" lon="6.15154897381665"><ele>62.0</ele><time>2026-04-22T10:19:09.999Z</time></trkpt><trkpt lat="43.23882332715057" lon="6.151340676691506"><ele>62.0</ele><time>2026-04-22T10:19:10.999Z</time></trkpt><trkpt lat="43.23879342432803" lon="6.1511492236938645"><ele>62.0</ele><time>2026-04-22T10:19:11.999Z</time></trkpt><trkpt lat="43.23877099371726" lon="6.150982948712898"><ele>62.0</ele><time>2026-04-22T10:19:12.999Z</time></trkpt><trkpt lat="43.238748217270555" lon="6.15082958944139"><ele>62.0</ele><time>2026-04-22T10:19:13.999Z</time></trkpt><trkpt lat="43.23873274376182" lon="6.150702681793512"><ele>62.0</ele><time>2026-04-22T10:19:14.999Z</time></trkpt><trkpt lat="43.23874090107947" lon="6.150604578365682"><ele>62.0</ele><time>2026-04-22T10:19:15.999Z</time></trkpt><trkpt lat="43.23876502063539" lon="6.150497298452213"><ele>61.6</ele><time>2026-04-22T10:19:17.999Z</time></trkpt><trkpt lat="43.238747559217515" lon="6.1503757178985685"><ele>61.2</ele><time>2026-04-22T10:19:22Z</time></trkpt><trkpt lat="43.238623941715346" lon="6.150322933049099"><ele>60.8</ele><time>2026-04-22T10:19:24Z</time></trkpt><trkpt lat="43.238535867608846" lon="6.150299273858389"><ele>60.4</ele><time>2026-04-22T10:19:25Z</time></trkpt><trkpt lat="43.238442681330916" lon="6.150270221265714"><ele>60.0</ele><time>2026-04-22T10:19:26Z</time></trkpt><trkpt lat="43.23833908531569" lon="6.15022521415945"><ele>60.0</ele><time>2026-04-22T10:19:27Z</time></trkpt><trkpt lat="43.238229916174234" lon="6.150173380867197"><ele>60.0</ele><time>2026-04-22T10:19:28Z</time></trkpt><trkpt lat="43.2381066661456" lon="6.1501123148164"><ele>60.0</ele><time>2026-04-22T10:19:29Z</time></trkpt><trkpt lat="43.23799263984463" lon="6.1500528624344994"><ele>60.0</ele><time>2026-04-22T10:19:30Z</time></trkpt><trkpt lat="43.23789791481548" lon="6.150003808340879"><ele>60.0</ele><time>2026-04-22T10:19:31Z</time></trkpt><trkpt lat="43.2378132144625" lon="6.149955469594216"><ele>60.0</ele><time>2026-04-22T10:19:32Z</time></trkpt><trkpt lat="43.2377226467775" lon="6.149911417105629"><ele>60.0</ele><time>2026-04-22T10:19:33Z</time></trkpt><trkpt lat="43.237639445658395" lon="6.149858606200897"><ele>60.0</ele><time>2026-04-22T10:19:34Z</time></trkpt><trkpt lat="43.23758035000724" lon="6.14979211515222"><ele>60.0</ele><time>2026-04-22T10:19:35Z</time></trkpt><trkpt lat="43.237535121323035" lon="6.149686678648661"><ele>60.0</ele><time>2026-04-22T10:19:36Z</time></trkpt><trkpt lat="43.23751477012659" lon="6.149547238648993"><ele>59.75</ele><time>2026-04-22T10:19:37Z</time></trkpt><trkpt lat="43.23748724961166" lon="6.149379575210957"><ele>59.5</ele><time>2026-04-22T10:19:38Z</time></trkpt><trkpt lat="43.23743964201581" lon="6.149200367777737"><ele>59.25</ele><time>2026-04-22T10:19:39Z</time></trkpt><trkpt lat="43.23739688351545" lon="6.149025159361407"><ele>59.0</ele><time>2026-04-22T10:19:40Z</time></trkpt><trkpt lat="43.237357262751516" lon="6.148856966770945"><ele>59.0</ele><time>2026-04-22T10:19:41Z</time></trkpt><trkpt lat="43.237328179719405" lon="6.148696557838943"><ele>59.0</ele><time>2026-04-22T10:19:42Z</time></trkpt><trkpt lat="43.23732781772078" lon="6.148512629393731"><ele>59.0</ele><time>2026-04-22T10:19:43Z</time></trkpt><trkpt lat="43.237339601921974" lon="6.148311236437758"><ele>59.0</ele><time>2026-04-22T10:19:44Z</time></trkpt><trkpt lat="43.23735108394898" lon="6.148097992762923"><ele>59.25</ele><time>2026-04-22T10:19:45Z</time></trkpt><trkpt lat="43.237369064944474" lon="6.14787125298762"><ele>59.5</ele><time>2026-04-22T10:19:46Z</time></trkpt><trkpt lat="43.23738817038603" lon="6.147681850777692"><ele>59.75</ele><time>2026-04-22T10:19:47Z</time></trkpt><trkpt lat="43.23740484088761" lon="6.147502549060768"><ele>60.0</ele><time>2026-04-22T10:19:48Z</time></trkpt><trkpt lat="43.23742988712034" lon="6.147337503300535"><ele>60.0</ele><time>2026-04-22T10:19:49Z</time></trkpt><trkpt lat="43.23745364808659" lon="6.147154176708091"><ele>60.0</ele><time>2026-04-22T10:19:50Z</time></trkpt><trkpt lat="43.23748858498514" lon="6.146950757127433"><ele>60.0</ele><time>2026-04-22T10:19:51Z</time></trkpt><trkpt lat="43.237520942517655" lon="6.14673019281865"><ele>60.33333333333333</ele><time>2026-04-22T10:19:52Z</time></trkpt><trkpt lat="43.23754923085344" lon="6.146521286089551"><ele>60.666666666666664</ele><time>2026-04-22T10:19:53Z</time></trkpt><trkpt lat="43.23757040542049" lon="6.146297236700727"><ele>61.0</ele><time>2026-04-22T10:19:54Z</time></trkpt><trkpt lat="43.237583865716914" lon="6.1460576026932054"><ele>61.0</ele><time>2026-04-22T10:19:55Z</time></trkpt><trkpt lat="43.23758219161947" lon="6.145821432740456"><ele>61.0</ele><time>2026-04-22T10:19:56Z</time></trkpt><trkpt lat="43.23757428454199" lon="6.14558686925908"><ele>61.0</ele><time>2026-04-22T10:19:57Z</time></trkpt><trkpt lat="43.23756624569619" lon="6.1453629612394645"><ele>61.0</ele><time>2026-04-22T10:19:58Z</time></trkpt><trkpt lat="43.237557785961336" lon="6.1451338679087595"><ele>61.0</ele><time>2026-04-22T10:19:59Z</time></trkpt><trkpt lat="43.23754578518413" lon="6.144909004819733"><ele>61.0</ele><time>2026-04-22T10:20:00Z</time></trkpt><trkpt lat="43.23752971002873" lon="6.14468124077456"><ele>61.25</ele><time>2026-04-22T10:20:01Z</time></trkpt><trkpt lat="43.23751736249035" lon="6.144467563412636"><ele>61.5</ele><time>2026-04-22T10:20:02Z</time></trkpt><trkpt lat="43.23750806705453" lon="6.144274884271094"><ele>61.75</ele><time>2026-04-22T10:20:03Z</time></trkpt><trkpt lat="43.237500889154305" lon="6.144075969088624"><ele>62.0</ele><time>2026-04-22T10:20:04Z</time></trkpt><trkpt lat="43.2374925974573" lon="6.143880546390956"><ele>61.5</ele><time>2026-04-22T10:20:05Z</time></trkpt><trkpt lat="43.23748492628825" lon="6.143685008192737"><ele>61.0</ele><time>2026-04-22T10:20:06Z</time></trkpt><trkpt lat="43.23747680697981" lon="6.143490480313929"><ele>60.5</ele><time>2026-04-22T10:20:07Z</time></trkpt><trkpt lat="43.23746317937831" lon="6.143291402099931"><ele>60.0</ele><time>2026-04-22T10:20:08Z</time></trkpt><trkpt lat="43.23745845247012" lon="6.143108776603015"><ele>60.0</ele><time>2026-04-22T10:20:09Z</time></trkpt><trkpt lat="43.23745350748306" lon="6.142926665445274"><ele>60.0</ele><time>2026-04-22T10:20:10Z</time></trkpt><trkpt lat="43.237448555948795" lon="6.142732487960547"><ele>60.0</ele><time>2026-04-22T10:20:11Z</time></trkpt><trkpt lat="43.237426165994684" lon="6.1425310996349936"><ele>60.0</ele><time>2026-04-22T10:20:12Z</time></trkpt><trkpt lat="43.23740613220739" lon="6.142333278033126"><ele>59.66666666666667</ele><time>2026-04-22T10:20:13Z</time></trkpt><trkpt lat="43.23738412262277" lon="6.142125041545814"><ele>59.333333333333336</ele><time>2026-04-22T10:20:13.999Z</time></trkpt><trkpt lat="43.23735518509638" lon="6.141919589390157"><ele>59.0</ele><time>2026-04-22T10:20:14.999Z</time></trkpt><trkpt lat="43.23732395713164" lon="6.141721851209183"><ele>58.75</ele><time>2026-04-22T10:20:15.999Z</time></trkpt><trkpt lat="43.2373001688705" lon="6.141530840929459"><ele>58.5</ele><time>2026-04-22T10:20:16.999Z</time></trkpt><trkpt lat="43.23727145514599" lon="6.141332812623243"><ele>58.25</ele><time>2026-04-22T10:20:17.999Z</time></trkpt><trkpt lat="43.23724714351203" lon="6.141142310402249"><ele>58.0</ele><time>2026-04-22T10:20:18.999Z</time></trkpt><trkpt lat="43.2372264490925" lon="6.140944528810914"><ele>58.0</ele><time>2026-04-22T10:20:19.999Z</time></trkpt><trkpt lat="43.237210730354995" lon="6.140746937214936"><ele>58.0</ele><time>2026-04-22T10:20:20.999Z</time></trkpt><trkpt lat="43.23717836163293" lon="6.140542967823548"><ele>58.0</ele><time>2026-04-22T10:20:21.999Z</time></trkpt><trkpt lat="43.23714830386119" lon="6.140331240060697"><ele>57.33333333333333</ele><time>2026-04-22T10:20:22.999Z</time></trkpt><trkpt lat="43.237125688029295" lon="6.140112490726304"><ele>56.66666666666667</ele><time>2026-04-22T10:20:23.999Z</time></trkpt><trkpt lat="43.23710091209639" lon="6.139907102298435"><ele>56.0</ele><time>2026-04-22T10:20:24.999Z</time></trkpt><trkpt lat="43.23707412294745" lon="6.139694231923769"><ele>56.0</ele><time>2026-04-22T10:20:25.999Z</time></trkpt><trkpt lat="43.23704680794498" lon="6.13949407644031"><ele>56.0</ele><time>2026-04-22T10:20:26.999Z</time></trkpt><trkpt lat="43.23701331574339" lon="6.139292071250745"><ele>56.0</ele><time>2026-04-22T10:20:27.999Z</time></trkpt><trkpt lat="43.23697605486119" lon="6.13909101656727"><ele>56.5</ele><time>2026-04-22T10:20:28.999Z</time></trkpt><trkpt lat="43.23694683688813" lon="6.138892266497427"><ele>57.0</ele><time>2026-04-22T10:20:29.999Z</time></trkpt><trkpt lat="43.236902933237594" lon="6.138693964077639"><ele>57.5</ele><time>2026-04-22T10:20:30.999Z</time></trkpt><trkpt lat="43.23685148881074" lon="6.138531920328762"><ele>58.0</ele><time>2026-04-22T10:20:31.999Z</time></trkpt><trkpt lat="43.23680929880697" lon="6.13836444019328"><ele>58.25</ele><time>2026-04-22T10:20:32.999Z</time></trkpt><trkpt lat="43.23679365667735" lon="6.138182539005707"><ele>58.5</ele><time>2026-04-22T10:20:33.999Z</time></trkpt><trkpt lat="43.23680150553047" lon="6.137986707323546"><ele>58.75</ele><time>2026-04-22T10:20:34.999Z</time></trkpt><trkpt lat="43.236807012983085" lon="6.137773347052896"><ele>59.0</ele><time>2026-04-22T10:20:35.999Z</time></trkpt><trkpt lat="43.236819194309305" lon="6.137550906527906"><ele>58.333333333333336</ele><time>2026-04-22T10:20:36.999Z</time></trkpt><trkpt lat="43.2368393511278" lon="6.137312059805799"><ele>57.66666666666667</ele><time>2026-04-22T10:20:37.999Z</time></trkpt><trkpt lat="43.236853993967074" lon="6.137092794455272"><ele>57.0</ele><time>2026-04-22T10:20:38.999Z</time></trkpt><trkpt lat="43.23685969204652" lon="6.136879762983206"><ele>57.0</ele><time>2026-04-22T10:20:39.999Z</time></trkpt><trkpt lat="43.23685396114119" lon="6.136660965705213"><ele>57.0</ele><time>2026-04-22T10:20:40.999Z</time></trkpt><trkpt lat="43.23683953701564" lon="6.136435575143588"><ele>57.0</ele><time>2026-04-22T10:20:41.999Z</time></trkpt><trkpt lat="43.236818164019176" lon="6.136211505132437"><ele>57.0</ele><time>2026-04-22T10:20:42.999Z</time></trkpt><trkpt lat="43.23678368545613" lon="6.135982966722566"><ele>57.0</ele><time>2026-04-22T10:20:43.999Z</time></trkpt><trkpt lat="43.23673615269044" lon="6.135754973188413"><ele>57.0</ele><time>2026-04-22T10:20:44.999Z</time></trkpt><trkpt lat="43.236681649970784" lon="6.135518024987674"><ele>57.33333333333333</ele><time>2026-04-22T10:20:45.999Z</time></trkpt><trkpt lat="43.23663242028058" lon="6.135279966110062"><ele>57.666666666666664</ele><time>2026-04-22T10:20:46.999Z</time></trkpt><trkpt lat="43.23658735703194" lon="6.135038994016872"><ele>58.0</ele><time>2026-04-22T10:20:47.999Z</time></trkpt><trkpt lat="43.236538294674396" lon="6.134801526002873"><ele>58.33333333333333</ele><time>2026-04-22T10:20:48.999Z</time></trkpt><trkpt lat="43.23648816439869" lon="6.13456007256561"><ele>58.66666666666667</ele><time>2026-04-22T10:20:49.999Z</time></trkpt><trkpt lat="43.23645154269323" lon="6.13431653985148"><ele>59.0</ele><time>2026-04-22T10:20:50.999Z</time></trkpt><trkpt lat="43.23642081153697" lon="6.134086517036724"><ele>58.75</ele><time>2026-04-22T10:20:51.999Z</time></trkpt><trkpt lat="43.236392872890484" lon="6.133875504848804"><ele>58.5</ele><time>2026-04-22T10:20:52.999Z</time></trkpt><trkpt lat="43.236365842732006" lon="6.133682741016603"><ele>58.25</ele><time>2026-04-22T10:20:53.999Z</time></trkpt><trkpt lat="43.23634241609443" lon="6.133517763131995"><ele>58.0</ele><time>2026-04-22T10:20:54.999Z</time></trkpt><trkpt lat="43.23632073336007" lon="6.1333770940807675"><ele>57.99999999999999</ele><time>2026-04-22T10:20:55.999Z</time></trkpt><trkpt lat="43.23630043929267" lon="6.133249232666608"><ele>58.0</ele><time>2026-04-22T10:20:56.999Z</time></trkpt><trkpt lat="43.236292396344" lon="6.133133083262042"><ele>58.0</ele><time>2026-04-22T10:20:57.999Z</time></trkpt><trkpt lat="43.23630792115202" lon="6.133029103049823"><ele>58.0</ele><time>2026-04-22T10:20:58.999Z</time></trkpt><trkpt lat="43.23635784375007" lon="6.132926353901349"><ele>57.99999999999999</ele><time>2026-04-22T10:20:59.999Z</time></trkpt><trkpt lat="43.23642768908446" lon="6.132827690742868"><ele>58.0</ele><time>2026-04-22T10:21:00.999Z</time></trkpt><trkpt lat="43.23651272814228" lon="6.132737094135346"><ele>58.49999999999999</ele><time>2026-04-22T10:21:01.999Z</time></trkpt><trkpt lat="43.236602266295" lon="6.1326536436603165"><ele>59.0</ele><time>2026-04-22T10:21:02.999Z</time></trkpt><trkpt lat="43.236691158838354" lon="6.1325995181920785"><ele>59.5</ele><time>2026-04-22T10:21:03.999Z</time></trkpt><trkpt lat="43.23676906979435" lon="6.132563202157858"><ele>60.0</ele><time>2026-04-22T10:21:04.999Z</time></trkpt><trkpt lat="43.23683473447502" lon="6.132509218393393"><ele>60.49999999999999</ele><time>2026-04-22T10:21:05.999Z</time></trkpt><trkpt lat="43.23687663358413" lon="6.132434883475163"><ele>61.0</ele><time>2026-04-22T10:21:06.999Z</time></trkpt><trkpt lat="43.23690604620562" lon="6.132324275546901"><ele>61.199999999999996</ele><time>2026-04-22T10:21:07.999Z</time></trkpt><trkpt lat="43.23692467486736" lon="6.132188331769841"><ele>61.39999999999999</ele><time>2026-04-22T10:21:08.999Z</time></trkpt><trkpt lat="43.2369435396999" lon="6.132051046711848"><ele>61.6</ele><time>2026-04-22T10:21:09.999Z</time></trkpt><trkpt lat="43.23698108709617" lon="6.131904601557179"><ele>61.8</ele><time>2026-04-22T10:21:10.999Z</time></trkpt><trkpt lat="43.2370383747494" lon="6.131764384539975"><ele>62.0</ele><time>2026-04-22T10:21:11.999Z</time></trkpt><trkpt lat="43.23709871561592" lon="6.131612749936918"><ele>62.2</ele><time>2026-04-22T10:21:12.999Z</time></trkpt><trkpt lat="43.23715890337514" lon="6.131457190700861"><ele>62.400000000000006</ele><time>2026-04-22T10:21:13.999Z</time></trkpt><trkpt lat="43.237217169101285" lon="6.131327108137866"><ele>62.599999999999994</ele><time>2026-04-22T10:21:14.999Z</time></trkpt><trkpt lat="43.23726926953849" lon="6.131206499283772"><ele>62.8</ele><time>2026-04-22T10:21:15.999Z</time></trkpt><trkpt lat="43.2373139660913" lon="6.131094700612845"><ele>63.0</ele><time>2026-04-22T10:21:16.999Z</time></trkpt><trkpt lat="43.237333837704384" lon="6.130990431256615"><ele>63.2</ele><time>2026-04-22T10:21:17.999Z</time></trkpt><trkpt lat="43.237328797404594" lon="6.130885824508792"><ele>63.4</ele><time>2026-04-22T10:21:18.999Z</time></trkpt><trkpt lat="43.23730799348301" lon="6.13079018282519"><ele>63.60000000000001</ele><time>2026-04-22T10:21:19.999Z</time></trkpt><trkpt lat="43.237267464043136" lon="6.130681665440786"><ele>63.800000000000004</ele><time>2026-04-22T10:21:20.999Z</time></trkpt><trkpt lat="43.23721268390996" lon="6.130553679711797"><ele>64.0</ele><time>2026-04-22T10:21:21.999Z</time></trkpt><trkpt lat="43.23716997159993" lon="6.130413728878151"><ele>64.25</ele><time>2026-04-22T10:21:22.999Z</time></trkpt><trkpt lat="43.23715545193608" lon="6.130258603296974"><ele>64.5</ele><time>2026-04-22T10:21:23.999Z</time></trkpt><trkpt lat="43.23716196908568" lon="6.130086943428202"><ele>64.75</ele><time>2026-04-22T10:21:24.999Z</time></trkpt><trkpt lat="43.23718031035657" lon="6.129898302830068"><ele>65.0</ele><time>2026-04-22T10:21:26Z</time></trkpt><trkpt lat="43.23719959704587" lon="6.129690161702107"><ele>65.0</ele><time>2026-04-22T10:21:27Z</time></trkpt><trkpt lat="43.23721956130539" lon="6.129469024532282"><ele>65.0</ele><time>2026-04-22T10:21:28Z</time></trkpt><trkpt lat="43.23724088547886" lon="6.1292403991731215"><ele>65.0</ele><time>2026-04-22T10:21:29Z</time></trkpt><trkpt lat="43.23726648694355" lon="6.1290012812345545"><ele>65.0</ele><time>2026-04-22T10:21:30Z</time></trkpt><trkpt lat="43.237294071598605" lon="6.1287446181836325"><ele>65.0</ele><time>2026-04-22T10:21:31Z</time></trkpt><trkpt lat="43.237319460478474" lon="6.128470047502156"><ele>65.0</ele><time>2026-04-22T10:21:32Z</time></trkpt><trkpt lat="43.237347715979986" lon="6.1281973239884735"><ele>65.66666666666667</ele><time>2026-04-22T10:21:33Z</time></trkpt><trkpt lat="43.23737750056212" lon="6.127949957442402"><ele>66.33333333333333</ele><time>2026-04-22T10:21:34Z</time></trkpt><trkpt lat="43.23740394711079" lon="6.12773299494207"><ele>67.0</ele><time>2026-04-22T10:21:35Z</time></trkpt><trkpt lat="43.23742566528165" lon="6.127530341585468"><ele>67.25</ele><time>2026-04-22T10:21:36Z</time></trkpt><trkpt lat="43.23744798805311" lon="6.1273136705704765"><ele>67.5</ele><time>2026-04-22T10:21:37Z</time></trkpt><trkpt lat="43.23746443323732" lon="6.1271108453366825"><ele>67.75</ele><time>2026-04-22T10:21:38Z</time></trkpt><trkpt lat="43.23746778913271" lon="6.126934772186356"><ele>68.0</ele><time>2026-04-22T10:21:39Z</time></trkpt><trkpt lat="43.23745330759101" lon="6.1267549613636225"><ele>68.0</ele><time>2026-04-22T10:21:40Z</time></trkpt><trkpt lat="43.237442269460914" lon="6.1265939226386115"><ele>68.0</ele><time>2026-04-22T10:21:41Z</time></trkpt><trkpt lat="43.23745258691555" lon="6.126438164343919"><ele>68.0</ele><time>2026-04-22T10:21:42Z</time></trkpt><trkpt lat="43.23748278105779" lon="6.126275506835475"><ele>68.0</ele><time>2026-04-22T10:21:43Z</time></trkpt><trkpt lat="43.23753498053536" lon="6.1261202200172615"><ele>68.33333333333334</ele><time>2026-04-22T10:21:44Z</time></trkpt><trkpt lat="43.23760834729203" lon="6.125950612604086"><ele>68.66666666666667</ele><time>2026-04-22T10:21:45Z</time></trkpt><trkpt lat="43.237687121069875" lon="6.1257569832624945"><ele>69.0</ele><time>2026-04-22T10:21:46Z</time></trkpt><trkpt lat="43.23776803337207" lon="6.1255538575196775"><ele>69.0</ele><time>2026-04-22T10:21:47Z</time></trkpt><trkpt lat="43.237849469423054" lon="6.1253427989767175"><ele>69.0</ele><time>2026-04-22T10:21:48Z</time></trkpt><trkpt lat="43.2379304846628" lon="6.125127703947676"><ele>69.0</ele><time>2026-04-22T10:21:49Z</time></trkpt><trkpt lat="43.23801494703383" lon="6.124895562100048"><ele>69.0</ele><time>2026-04-22T10:21:50Z</time></trkpt><trkpt lat="43.23809798547316" lon="6.124664436141802"><ele>69.0</ele><time>2026-04-22T10:21:51Z</time></trkpt><trkpt lat="43.238177974788904" lon="6.1244297259926155"><ele>69.0</ele><time>2026-04-22T10:21:52Z</time></trkpt><trkpt lat="43.23826156698679" lon="6.1241965027004195"><ele>69.66666666666667</ele><time>2026-04-22T10:21:53Z</time></trkpt><trkpt lat="43.23834891982969" lon="6.12396014087577"><ele>70.33333333333334</ele><time>2026-04-22T10:21:54Z</time></trkpt><trkpt lat="43.23842989874878" lon="6.123745012536184"><ele>71.0</ele><time>2026-04-22T10:21:55Z</time></trkpt><trkpt lat="43.23850331342011" lon="6.123549519214615"><ele>71.0</ele><time>2026-04-22T10:21:56Z</time></trkpt><trkpt lat="43.238566633516605" lon="6.1233747155428535"><ele>71.0</ele><time>2026-04-22T10:21:57Z</time></trkpt><trkpt lat="43.23862671251021" lon="6.123205646502798"><ele>71.0</ele><time>2026-04-22T10:21:58Z</time></trkpt><trkpt lat="43.23868269975388" lon="6.123058003464507"><ele>71.0</ele><time>2026-04-22T10:21:59Z</time></trkpt><trkpt lat="43.23873446427786" lon="6.122918257655617"><ele>71.0</ele><time>2026-04-22T10:22:00Z</time></trkpt><trkpt lat="43.238776999191266" lon="6.122785739800868"><ele>71.0</ele><time>2026-04-22T10:22:01Z</time></trkpt><trkpt lat="43.23879628848574" lon="6.12265445453748"><ele>71.0</ele><time>2026-04-22T10:22:02Z</time></trkpt><trkpt lat="43.238809751865624" lon="6.122514242376365"><ele>71.0</ele><time>2026-04-22T10:22:03Z</time></trkpt><trkpt lat="43.238776032687134" lon="6.122352030327795"><ele>71.0</ele><time>2026-04-22T10:22:04Z</time></trkpt><trkpt lat="43.23874288108853" lon="6.12218425328266"><ele>71.0</ele><time>2026-04-22T10:22:05Z</time></trkpt><trkpt lat="43.23871089398665" lon="6.122029875141671"><ele>71.0</ele><time>2026-04-22T10:22:06Z</time></trkpt><trkpt lat="43.238662395566315" lon="6.121880402822542"><ele>71.0</ele><time>2026-04-22T10:22:07Z</time></trkpt><trkpt lat="43.23863257119972" lon="6.121697561581184"><ele>71.0</ele><time>2026-04-22T10:22:08Z</time></trkpt><trkpt lat="43.23858894214692" lon="6.121523684479989"><ele>71.5</ele><time>2026-04-22T10:22:09Z</time></trkpt><trkpt lat="43.238556105757304" lon="6.121348282455869"><ele>72.0</ele><time>2026-04-22T10:22:10Z</time></trkpt><trkpt lat="43.238516842966085" lon="6.1211581587037776"><ele>72.5</ele><time>2026-04-22T10:22:11Z</time></trkpt><trkpt lat="43.238483590403355" lon="6.120959352996813"><ele>73.0</ele><time>2026-04-22T10:22:12Z</time></trkpt><trkpt lat="43.23844986150934" lon="6.120764269325268"><ele>73.0</ele><time>2026-04-22T10:22:12.999Z</time></trkpt><trkpt lat="43.23844541332051" lon="6.120597276714826"><ele>73.0</ele><time>2026-04-22T10:22:13.999Z</time></trkpt><trkpt lat="43.23844045186066" lon="6.120436968278465"><ele>73.0</ele><time>2026-04-22T10:22:14.999Z</time></trkpt><trkpt lat="43.23843274157008" lon="6.120264170046222"><ele>73.0</ele><time>2026-04-22T10:22:15.999Z</time></trkpt><trkpt lat="43.23847517015971" lon="6.120091323358497"><ele>73.0</ele><time>2026-04-22T10:22:16.999Z</time></trkpt><trkpt lat="43.23850827752842" lon="6.11991079165238"><ele>73.0</ele><time>2026-04-22T10:22:17.999Z</time></trkpt><trkpt lat="43.23854164941225" lon="6.11971775688787"><ele>73.0</ele><time>2026-04-22T10:22:18.999Z</time></trkpt><trkpt lat="43.23857576009013" lon="6.119520448689797"><ele>73.0</ele><time>2026-04-22T10:22:19.999Z</time></trkpt><trkpt lat="43.23860810484278" lon="6.119332025289809"><ele>73.5</ele><time>2026-04-22T10:22:20.999Z</time></trkpt><trkpt lat="43.23862039635408" lon="6.11916545745887"><ele>74.0</ele><time>2026-04-22T10:22:21.999Z</time></trkpt><trkpt lat="43.2386599267055" lon="6.118997973569804"><ele>74.5</ele><time>2026-04-22T10:22:22.999Z</time></trkpt><trkpt lat="43.23868581940307" lon="6.118809856172337"><ele>75.0</ele><time>2026-04-22T10:22:23.999Z</time></trkpt><trkpt lat="43.23872291054652" lon="6.118607049419158"><ele>75.0</ele><time>2026-04-22T10:22:24.999Z</time></trkpt><trkpt lat="43.23876024036916" lon="6.118397588453958"><ele>75.0</ele><time>2026-04-22T10:22:25.999Z</time></trkpt><trkpt lat="43.23879655731957" lon="6.118176694882315"><ele>75.0</ele><time>2026-04-22T10:22:26.999Z</time></trkpt><trkpt lat="43.238828328066475" lon="6.117975596632054"><ele>75.75</ele><time>2026-04-22T10:22:27.999Z</time></trkpt><trkpt lat="43.23886540327257" lon="6.117770678763544"><ele>76.5</ele><time>2026-04-22T10:22:28.999Z</time></trkpt><trkpt lat="43.238913112919846" lon="6.11758660951568"><ele>77.25</ele><time>2026-04-22T10:22:29.999Z</time></trkpt><trkpt lat="43.23895876150143" lon="6.117428113738676"><ele>78.0</ele><time>2026-04-22T10:22:30.999Z</time></trkpt><trkpt lat="43.239004272967726" lon="6.1172864093739525"><ele>78.0</ele><time>2026-04-22T10:22:31.999Z</time></trkpt><trkpt lat="43.2390521075382" lon="6.1171256267840075"><ele>78.0</ele><time>2026-04-22T10:22:32.999Z</time></trkpt><trkpt lat="43.23910148566304" lon="6.116958703359398"><ele>78.0</ele><time>2026-04-22T10:22:33.999Z</time></trkpt><trkpt lat="43.239144747434906" lon="6.1168140838571965"><ele>78.0</ele><time>2026-04-22T10:22:34.999Z</time></trkpt><trkpt lat="43.23918276203506" lon="6.116687348616514"><ele>78.4</ele><time>2026-04-22T10:22:35.999Z</time></trkpt><trkpt lat="43.23920868203547" lon="6.116568778297208"><ele>78.8</ele><time>2026-04-22T10:22:36.999Z</time></trkpt><trkpt lat="43.23921326332836" lon="6.116442054722709"><ele>79.2</ele><time>2026-04-22T10:22:37.999Z</time></trkpt><trkpt lat="43.239195234516345" lon="6.116297277479507"><ele>79.6</ele><time>2026-04-22T10:22:38.999Z</time></trkpt><trkpt lat="43.23915199352489" lon="6.116147740272853"><ele>80.0</ele><time>2026-04-22T10:22:39.999Z</time></trkpt><trkpt lat="43.23911181154108" lon="6.1159848297447486"><ele>80.0</ele><time>2026-04-22T10:22:40.999Z</time></trkpt><trkpt lat="43.23907256162315" lon="6.115801743417851"><ele>80.0</ele><time>2026-04-22T10:22:41.999Z</time></trkpt><trkpt lat="43.239028191034194" lon="6.115585915418928"><ele>80.0</ele><time>2026-04-22T10:22:42.999Z</time></trkpt><trkpt lat="43.238980892760466" lon="6.115372480125697"><ele>80.0</ele><time>2026-04-22T10:22:43.999Z</time></trkpt><trkpt lat="43.23892252525758" lon="6.115164384436505"><ele>80.0</ele><time>2026-04-22T10:22:44.999Z</time></trkpt><trkpt lat="43.2388867689819" lon="6.114952737905601"><ele>80.0</ele><time>2026-04-22T10:22:45.999Z</time></trkpt><trkpt lat="43.23883630031909" lon="6.114768726650809"><ele>80.0</ele><time>2026-04-22T10:22:46.999Z</time></trkpt><trkpt lat="43.23876218355758" lon="6.114608256789234"><ele>80.0</ele><time>2026-04-22T10:22:47.999Z</time></trkpt><trkpt lat="43.23870257629383" lon="6.114454468114205"><ele>80.0</ele><time>2026-04-22T10:22:48.999Z</time></trkpt><trkpt lat="43.23864224273824" lon="6.1143079391951805"><ele>80.0</ele><time>2026-04-22T10:22:49.999Z</time></trkpt><trkpt lat="43.23858816342554" lon="6.114176983164585"><ele>80.33333333333334</ele><time>2026-04-22T10:22:50.999Z</time></trkpt><trkpt lat="43.2385434837016" lon="6.114064897721584"><ele>80.66666666666667</ele><time>2026-04-22T10:22:51.999Z</time></trkpt><trkpt lat="43.238512024708285" lon="6.113968768591498"><ele>81.0</ele><time>2026-04-22T10:22:52.999Z</time></trkpt><trkpt lat="43.23848687038044" lon="6.113841298133878"><ele>81.33333333333333</ele><time>2026-04-22T10:22:54.999Z</time></trkpt><trkpt lat="43.238486979305215" lon="6.1137447300527015"><ele>81.66666666666666</ele><time>2026-04-22T10:22:57.999Z</time></trkpt><trkpt lat="43.238517880724395" lon="6.113624824719586"><ele>82.0</ele><time>2026-04-22T10:22:59.999Z</time></trkpt><trkpt lat="43.23851314879332" lon="6.113458429629138"><ele>82.0</ele><time>2026-04-22T10:23:01.999Z</time></trkpt><trkpt lat="43.23848120741298" lon="6.113352166067266"><ele>82.0</ele><time>2026-04-22T10:23:02.999Z</time></trkpt><trkpt lat="43.2384426827558" lon="6.113227785588506"><ele>82.0</ele><time>2026-04-22T10:23:03.999Z</time></trkpt><trkpt lat="43.238414995997665" lon="6.113082818614435"><ele>82.0</ele><time>2026-04-22T10:23:04.999Z</time></trkpt><trkpt lat="43.23840318713763" lon="6.112905278116311"><ele>82.0</ele><time>2026-04-22T10:23:05.999Z</time></trkpt><trkpt lat="43.23840639214059" lon="6.112702915112976"><ele>82.0</ele><time>2026-04-22T10:23:06.999Z</time></trkpt><trkpt lat="43.23841572415002" lon="6.112485105266077"><ele>82.0</ele><time>2026-04-22T10:23:07.999Z</time></trkpt><trkpt lat="43.238430458784954" lon="6.112245830143343"><ele>82.0</ele><time>2026-04-22T10:23:08.999Z</time></trkpt><trkpt lat="43.23844150897784" lon="6.111990180984929"><ele>82.66666666666666</ele><time>2026-04-22T10:23:09.999Z</time></trkpt><trkpt lat="43.23844218712447" lon="6.111758925351773"><ele>83.33333333333333</ele><time>2026-04-22T10:23:10.999Z</time></trkpt><trkpt lat="43.238434560105155" lon="6.111533714203928"><ele>84.0</ele><time>2026-04-22T10:23:11.999Z</time></trkpt><trkpt lat="43.23840850693298" lon="6.111314884703948"><ele>84.0</ele><time>2026-04-22T10:23:12.999Z</time></trkpt><trkpt lat="43.23836402770336" lon="6.111086123535625"><ele>84.0</ele><time>2026-04-22T10:23:13.999Z</time></trkpt><trkpt lat="43.23831497844321" lon="6.11085503121867"><ele>84.0</ele><time>2026-04-22T10:23:14.999Z</time></trkpt><trkpt lat="43.23826043135087" lon="6.110620854824796"><ele>84.66666666666667</ele><time>2026-04-22T10:23:15.999Z</time></trkpt><trkpt lat="43.2382064543998" lon="6.110387917056955"><ele>85.33333333333334</ele><time>2026-04-22T10:23:16.999Z</time></trkpt><trkpt lat="43.23816248036484" lon="6.11016683620151"><ele>86.0</ele><time>2026-04-22T10:23:17.999Z</time></trkpt><trkpt lat="43.238131644045716" lon="6.109929890081655"><ele>86.66666666666667</ele><time>2026-04-22T10:23:18.999Z</time></trkpt><trkpt lat="43.2381135859762" lon="6.109683782982771"><ele>87.33333333333333</ele><time>2026-04-22T10:23:19.999Z</time></trkpt><trkpt lat="43.2380921827354" lon="6.109426451049448"><ele>88.0</ele><time>2026-04-22T10:23:20.999Z</time></trkpt><trkpt lat="43.23807263557446" lon="6.109163855644441"><ele>88.33333333333333</ele><time>2026-04-22T10:23:21.999Z</time></trkpt><trkpt lat="43.23805155232412" lon="6.108893041992192"><ele>88.66666666666667</ele><time>2026-04-22T10:23:22.999Z</time></trkpt><trkpt lat="43.23803336986339" lon="6.1086140413975425"><ele>89.0</ele><time>2026-04-22T10:23:23.999Z</time></trkpt><trkpt lat="43.238012110841574" lon="6.108328849405016"><ele>89.0</ele><time>2026-04-22T10:23:24.998Z</time></trkpt><trkpt lat="43.23799731577368" lon="6.108030793817847"><ele>89.0</ele><time>2026-04-22T10:23:25.998Z</time></trkpt><trkpt lat="43.237981696408475" lon="6.107724656194862"><ele>89.0</ele><time>2026-04-22T10:23:26.998Z</time></trkpt><trkpt lat="43.23796469513037" lon="6.107438167771176"><ele>89.33333333333334</ele><time>2026-04-22T10:23:27.998Z</time></trkpt><trkpt lat="43.237950773378664" lon="6.107188369256101"><ele>89.66666666666667</ele><time>2026-04-22T10:23:28.998Z</time></trkpt><trkpt lat="43.23793689452379" lon="6.106953442370365"><ele>90.0</ele><time>2026-04-22T10:23:29.998Z</time></trkpt><trkpt lat="43.23791854230421" lon="6.10673526484105"><ele>90.66666666666667</ele><time>2026-04-22T10:23:30.998Z</time></trkpt><trkpt lat="43.23789374943738" lon="6.106520014615795"><ele>91.33333333333334</ele><time>2026-04-22T10:23:31.999Z</time></trkpt><trkpt lat="43.23785790594936" lon="6.106292664960116"><ele>92.0</ele><time>2026-04-22T10:23:32.999Z</time></trkpt><trkpt lat="43.2378124092332" lon="6.106076005412112"><ele>92.0</ele><time>2026-04-22T10:23:33.999Z</time></trkpt><trkpt lat="43.23775604576013" lon="6.105864412918665"><ele>92.0</ele><time>2026-04-22T10:23:34.999Z</time></trkpt><trkpt lat="43.23769091409072" lon="6.105676430619401"><ele>92.0</ele><time>2026-04-22T10:23:35.999Z</time></trkpt><trkpt lat="43.2376091421136" lon="6.1054971592432175"><ele>92.0</ele><time>2026-04-22T10:23:36.999Z</time></trkpt><trkpt lat="43.23750684032868" lon="6.1053243881500645"><ele>92.0</ele><time>2026-04-22T10:23:37.999Z</time></trkpt><trkpt lat="43.237382254653255" lon="6.105146890934084"><ele>92.0</ele><time>2026-04-22T10:23:38.999Z</time></trkpt><trkpt lat="43.23725675700194" lon="6.104979096971231"><ele>93.0</ele><time>2026-04-22T10:23:39.999Z</time></trkpt><trkpt lat="43.23712620731588" lon="6.10479492674628"><ele>94.0</ele><time>2026-04-22T10:23:40.999Z</time></trkpt><trkpt lat="43.23699511864692" lon="6.104602042918472"><ele>95.0</ele><time>2026-04-22T10:23:41.999Z</time></trkpt><trkpt lat="43.236866034536675" lon="6.1044233084486565"><ele>95.0</ele><time>2026-04-22T10:23:42.999Z</time></trkpt><trkpt lat="43.236746547589874" lon="6.104261617627457"><ele>95.0</ele><time>2026-04-22T10:23:44Z</time></trkpt><trkpt lat="43.23663952975638" lon="6.10411334182719"><ele>95.0</ele><time>2026-04-22T10:23:45Z</time></trkpt><trkpt lat="43.236535809406625" lon="6.103970942446429"><ele>95.0</ele><time>2026-04-22T10:23:46Z</time></trkpt><trkpt lat="43.23644634210135" lon="6.103841745019779"><ele>95.0</ele><time>2026-04-22T10:23:47Z</time></trkpt><trkpt lat="43.236366895709615" lon="6.103725232659602"><ele>95.0</ele><time>2026-04-22T10:23:48Z</time></trkpt><trkpt lat="43.23629642814366" lon="6.103621113847705"><ele>95.0</ele><time>2026-04-22T10:23:49Z</time></trkpt><trkpt lat="43.23624275044293" lon="6.103533808327194"><ele>95.0</ele><time>2026-04-22T10:23:50Z</time></trkpt><trkpt lat="43.23618925498586" lon="6.103413709942472"><ele>95.0</ele><time>2026-04-22T10:23:52Z</time></trkpt><trkpt lat="43.23616733751131" lon="6.103242147740002"><ele>95.0</ele><time>2026-04-22T10:23:54Z</time></trkpt><trkpt lat="43.23614576820131" lon="6.103153366938753"><ele>95.0</ele><time>2026-04-22T10:23:55Z</time></trkpt><trkpt lat="43.236099438150205" lon="6.103094541995197"><ele>95.0</ele><time>2026-04-22T10:23:56Z</time></trkpt><trkpt lat="43.2360365146659" lon="6.103063933131098"><ele>95.0</ele><time>2026-04-22T10:23:57Z</time></trkpt><trkpt lat="43.23595720887383" lon="6.103043803419444"><ele>95.0</ele><time>2026-04-22T10:23:58Z</time></trkpt><trkpt lat="43.23586979026209" lon="6.102988814995837"><ele>95.0</ele><time>2026-04-22T10:23:59Z</time></trkpt><trkpt lat="43.23578925392093" lon="6.102910360399206"><ele>95.0</ele><time>2026-04-22T10:24:00Z</time></trkpt><trkpt lat="43.23569442991782" lon="6.102834329222394"><ele>95.0</ele><time>2026-04-22T10:24:01Z</time></trkpt><trkpt lat="43.23560974067482" lon="6.102704959671571"><ele>95.0</ele><time>2026-04-22T10:24:02Z</time></trkpt><trkpt lat="43.23550508600637" lon="6.102576158448512"><ele>95.0</ele><time>2026-04-22T10:24:03Z</time></trkpt><trkpt lat="43.23538935807021" lon="6.102429395120516"><ele>95.0</ele><time>2026-04-22T10:24:04Z</time></trkpt><trkpt lat="43.23526936979436" lon="6.102274071969312"><ele>95.0</ele><time>2026-04-22T10:24:04.999Z</time></trkpt><trkpt lat="43.23513645802939" lon="6.102102403604228"><ele>95.33333333333334</ele><time>2026-04-22T10:24:05.999Z</time></trkpt><trkpt lat="43.23500159342043" lon="6.101921626804272"><ele>95.66666666666667</ele><time>2026-04-22T10:24:06.999Z</time></trkpt><trkpt lat="43.23485541930639" lon="6.101728617762749"><ele>96.0</ele><time>2026-04-22T10:24:07.999Z</time></trkpt><trkpt lat="43.234729918583106" lon="6.101564504629569"><ele>96.25</ele><time>2026-04-22T10:24:08.999Z</time></trkpt><trkpt lat="43.234613162780015" lon="6.101416672533017"><ele>96.5</ele><time>2026-04-22T10:24:09.999Z</time></trkpt><trkpt lat="43.23450785658923" lon="6.101273987062588"><ele>96.75</ele><time>2026-04-22T10:24:10.999Z</time></trkpt><trkpt lat="43.23442253744046" lon="6.101121253522515"><ele>97.0</ele><time>2026-04-22T10:24:11.999Z</time></trkpt><trkpt lat="43.23436243640807" lon="6.100938337751023"><ele>98.0</ele><time>2026-04-22T10:24:12.999Z</time></trkpt><trkpt lat="43.23432566032039" lon="6.10073103654227"><ele>99.0</ele><time>2026-04-22T10:24:13.999Z</time></trkpt><trkpt lat="43.23430393030142" lon="6.100509349881151"><ele>100.0</ele><time>2026-04-22T10:24:14.999Z</time></trkpt><trkpt lat="43.23428374116976" lon="6.1002665417672155"><ele>100.0</ele><time>2026-04-22T10:24:15.999Z</time></trkpt><trkpt lat="43.234262051917085" lon="6.10002303136074"><ele>100.0</ele><time>2026-04-22T10:24:16.999Z</time></trkpt><trkpt lat="43.234242410967745" lon="6.0997711270462665"><ele>100.0</ele><time>2026-04-22T10:24:17.999Z</time></trkpt><trkpt lat="43.23422309064568" lon="6.099498698227176"><ele>100.33333333333334</ele><time>2026-04-22T10:24:18.999Z</time></trkpt><trkpt lat="43.23420884843588" lon="6.099226416843148"><ele>100.66666666666666</ele><time>2026-04-22T10:24:19.999Z</time></trkpt><trkpt lat="43.23419582609707" lon="6.098947222778997"><ele>101.0</ele><time>2026-04-22T10:24:20.999Z</time></trkpt><trkpt lat="43.234185057654884" lon="6.098660004060582"><ele>101.0</ele><time>2026-04-22T10:24:21.999Z</time></trkpt><trkpt lat="43.234175342418645" lon="6.098368389496101"><ele>101.0</ele><time>2026-04-22T10:24:22.999Z</time></trkpt><trkpt lat="43.23417054297867" lon="6.098071118545583"><ele>101.0</ele><time>2026-04-22T10:24:23.999Z</time></trkpt><trkpt lat="43.234166132655275" lon="6.097767109650684"><ele>101.66666666666666</ele><time>2026-04-22T10:24:24.999Z</time></trkpt><trkpt lat="43.23416542029146" lon="6.097459635243199"><ele>102.33333333333334</ele><time>2026-04-22T10:24:25.999Z</time></trkpt><trkpt lat="43.23416075193223" lon="6.097151901495054"><ele>103.0</ele><time>2026-04-22T10:24:26.999Z</time></trkpt><trkpt lat="43.23415925560844" lon="6.096841983233228"><ele>104.0</ele><time>2026-04-22T10:24:27.999Z</time></trkpt><trkpt lat="43.23416112675851" lon="6.096537471714749"><ele>105.0</ele><time>2026-04-22T10:24:28.999Z</time></trkpt><trkpt lat="43.234168817100965" lon="6.096234961859567"><ele>106.0</ele><time>2026-04-22T10:24:29.999Z</time></trkpt><trkpt lat="43.234174627356964" lon="6.095931442497362"><ele>106.0</ele><time>2026-04-22T10:24:30.999Z</time></trkpt><trkpt lat="43.234176929889685" lon="6.095628107022569"><ele>106.0</ele><time>2026-04-22T10:24:31.999Z</time></trkpt><trkpt lat="43.23418104886189" lon="6.095331598598971"><ele>106.0</ele><time>2026-04-22T10:24:32.999Z</time></trkpt><trkpt lat="43.23419170905825" lon="6.095039235279564"><ele>106.0</ele><time>2026-04-22T10:24:33.999Z</time></trkpt><trkpt lat="43.234232190033296" lon="6.094751160859923"><ele>106.0</ele><time>2026-04-22T10:24:34.999Z</time></trkpt><trkpt lat="43.23427191125349" lon="6.094463891393063"><ele>106.0</ele><time>2026-04-22T10:24:35.999Z</time></trkpt><trkpt lat="43.23431519273521" lon="6.094173189428678"><ele>107.0</ele><time>2026-04-22T10:24:36.999Z</time></trkpt><trkpt lat="43.23435019966033" lon="6.093885450455826"><ele>108.0</ele><time>2026-04-22T10:24:37.999Z</time></trkpt><trkpt lat="43.234394822248674" lon="6.09359753198208"><ele>109.0</ele><time>2026-04-22T10:24:38.999Z</time></trkpt><trkpt lat="43.23444225182438" lon="6.0933137680753795"><ele>110.0</ele><time>2026-04-22T10:24:39.999Z</time></trkpt><trkpt lat="43.23448765356696" lon="6.0930294112173415"><ele>111.0</ele><time>2026-04-22T10:24:40.999Z</time></trkpt><trkpt lat="43.234534302043635" lon="6.092737547578483"><ele>112.0</ele><time>2026-04-22T10:24:41.999Z</time></trkpt><trkpt lat="43.23458867131621" lon="6.092452982758122"><ele>112.66666666666667</ele><time>2026-04-22T10:24:42.999Z</time></trkpt><trkpt lat="43.23466219713614" lon="6.09217669053082"><ele>113.33333333333334</ele><time>2026-04-22T10:24:43.999Z</time></trkpt><trkpt lat="43.23472245588659" lon="6.091896957812636"><ele>114.0</ele><time>2026-04-22T10:24:44.999Z</time></trkpt><trkpt lat="43.234791866899954" lon="6.091614053995145"><ele>113.33333333333334</ele><time>2026-04-22T10:24:45.999Z</time></trkpt><trkpt lat="43.234863249112074" lon="6.091327771266451"><ele>112.66666666666667</ele><time>2026-04-22T10:24:46.999Z</time></trkpt><trkpt lat="43.23493205879735" lon="6.091047612396299"><ele>112.0</ele><time>2026-04-22T10:24:47.999Z</time></trkpt><trkpt lat="43.23500044218193" lon="6.090761340083643"><ele>112.0</ele><time>2026-04-22T10:24:48.999Z</time></trkpt><trkpt lat="43.23506903637033" lon="6.09047562232217"><ele>112.0</ele><time>2026-04-22T10:24:49.999Z</time></trkpt><trkpt lat="43.235139261743285" lon="6.090192066754641"><ele>112.0</ele><time>2026-04-22T10:24:50.999Z</time></trkpt><trkpt lat="43.23521560265334" lon="6.089911021742606"><ele>112.33333333333334</ele><time>2026-04-22T10:24:51.999Z</time></trkpt><trkpt lat="43.23529234949596" lon="6.089632997237837"><ele>112.66666666666666</ele><time>2026-04-22T10:24:52.999Z</time></trkpt><trkpt lat="43.2353700625624" lon="6.089351472475146"><ele>113.0</ele><time>2026-04-22T10:24:53.999Z</time></trkpt><trkpt lat="43.23544594467748" lon="6.089071784404122"><ele>113.66666666666666</ele><time>2026-04-22T10:24:54.999Z</time></trkpt><trkpt lat="43.23551521240644" lon="6.08879439641483"><ele>114.33333333333334</ele><time>2026-04-22T10:24:55.999Z</time></trkpt><trkpt lat="43.235577262353026" lon="6.088542791050241"><ele>115.0</ele><time>2026-04-22T10:24:56.999Z</time></trkpt><trkpt lat="43.23563279566347" lon="6.088326097470663"><ele>115.5</ele><time>2026-04-22T10:24:57.999Z</time></trkpt><trkpt lat="43.2356807408132" lon="6.088135810464701"><ele>116.0</ele><time>2026-04-22T10:24:58.999Z</time></trkpt><trkpt lat="43.23572134182587" lon="6.087957683352706"><ele>116.5</ele><time>2026-04-22T10:24:59.999Z</time></trkpt><trkpt lat="43.235756129924454" lon="6.087779793360876"><ele>117.0</ele><time>2026-04-22T10:25:00.999Z</time></trkpt><trkpt lat="43.23576475354416" lon="6.087588428530138"><ele>117.5</ele><time>2026-04-22T10:25:01.999Z</time></trkpt><trkpt lat="43.23573562003741" lon="6.087397623487962"><ele>118.0</ele><time>2026-04-22T10:25:02.999Z</time></trkpt><trkpt lat="43.235710433032516" lon="6.087199524284764"><ele>118.5</ele><time>2026-04-22T10:25:03.999Z</time></trkpt><trkpt lat="43.235717151743835" lon="6.0869933382309505"><ele>119.0</ele><time>2026-04-22T10:25:04.999Z</time></trkpt><trkpt lat="43.2357206197951" lon="6.086781826887896"><ele>119.5</ele><time>2026-04-22T10:25:05.999Z</time></trkpt><trkpt lat="43.23572682102579" lon="6.086566322775386"><ele>120.0</ele><time>2026-04-22T10:25:06.999Z</time></trkpt><trkpt lat="43.2357332834508" lon="6.086373438238953"><ele>120.5</ele><time>2026-04-22T10:25:07.999Z</time></trkpt><trkpt lat="43.235740972068655" lon="6.086205625784751"><ele>121.0</ele><time>2026-04-22T10:25:08.999Z</time></trkpt><trkpt lat="43.235739720604634" lon="6.08604659034961"><ele>121.0</ele><time>2026-04-22T10:25:09.999Z</time></trkpt><trkpt lat="43.23574512933709" lon="6.0859052309871915"><ele>121.0</ele><time>2026-04-22T10:25:10.999Z</time></trkpt><trkpt lat="43.23575988825215" lon="6.0857927594792045"><ele>121.0</ele><time>2026-04-22T10:25:11.999Z</time></trkpt><trkpt lat="43.23576404641685" lon="6.085702002940344"><ele>121.0</ele><time>2026-04-22T10:25:12.999Z</time></trkpt><trkpt lat="43.23576800282251" lon="6.085615649924103"><ele>121.0</ele><time>2026-04-22T10:25:13.999Z</time></trkpt><trkpt lat="43.235589583282774" lon="6.085537149661167"><ele>121.0</ele><time>2026-04-22T10:25:14.999Z</time></trkpt><trkpt lat="43.23549776155647" lon="6.085475597043648"><ele>121.0</ele><time>2026-04-22T10:25:15.999Z</time></trkpt><trkpt lat="43.23538038021047" lon="6.085420659089937"><ele>121.0</ele><time>2026-04-22T10:25:16.999Z</time></trkpt><trkpt lat="43.2352469393205" lon="6.085359971860357"><ele>121.0</ele><time>2026-04-22T10:25:17.999Z</time></trkpt><trkpt lat="43.23510380395844" lon="6.085304289097709"><ele>121.0</ele><time>2026-04-22T10:25:18.999Z</time></trkpt><trkpt lat="43.23495088805581" lon="6.085247781561979"><ele>121.0</ele><time>2026-04-22T10:25:19.999Z</time></trkpt><trkpt lat="43.234796773884355" lon="6.0851905062166995"><ele>121.0</ele><time>2026-04-22T10:25:20.999Z</time></trkpt><trkpt lat="43.23466684550673" lon="6.085145021124178"><ele>120.75</ele><time>2026-04-22T10:25:21.999Z</time></trkpt><trkpt lat="43.23453871677182" lon="6.085114004745291"><ele>120.5</ele><time>2026-04-22T10:25:22.999Z</time></trkpt><trkpt lat="43.23440050855951" lon="6.0850852851633634"><ele>120.25</ele><time>2026-04-22T10:25:23.999Z</time></trkpt><trkpt lat="43.23426827304379" lon="6.085035973720448"><ele>120.0</ele><time>2026-04-22T10:25:24.999Z</time></trkpt><trkpt lat="43.23413300546996" lon="6.084971552685584"><ele>120.0</ele><time>2026-04-22T10:25:25.999Z</time></trkpt><trkpt lat="43.233993928470596" lon="6.084903676457107"><ele>120.0</ele><time>2026-04-22T10:25:26.999Z</time></trkpt><trkpt lat="43.23385008706684" lon="6.084839349405492"><ele>120.0</ele><time>2026-04-22T10:25:27.999Z</time></trkpt><trkpt lat="43.23370160085313" lon="6.084770564685777"><ele>121.0</ele><time>2026-04-22T10:25:28.999Z</time></trkpt><trkpt lat="43.23354495183908" lon="6.0846994190063945"><ele>122.0</ele><time>2026-04-22T10:25:29.999Z</time></trkpt><trkpt lat="43.23339205306804" lon="6.084624135476733"><ele>123.0</ele><time>2026-04-22T10:25:30.999Z</time></trkpt><trkpt lat="43.233252997118555" lon="6.084558362747874"><ele>122.75</ele><time>2026-04-22T10:25:31.999Z</time></trkpt><trkpt lat="43.23312183968308" lon="6.0844962072961"><ele>122.5</ele><time>2026-04-22T10:25:32.998Z</time></trkpt><trkpt lat="43.23299368906235" lon="6.084428186679865"><ele>122.25</ele><time>2026-04-22T10:25:33.998Z</time></trkpt><trkpt lat="43.23286474316893" lon="6.084374164456928"><ele>122.0</ele><time>2026-04-22T10:25:34.998Z</time></trkpt><trkpt lat="43.23277302873057" lon="6.084343374304587"><ele>121.99999999999999</ele><time>2026-04-22T10:25:35.998Z</time></trkpt><trkpt lat="43.23267969845098" lon="6.084320187556801"><ele>122.0</ele><time>2026-04-22T10:25:36.998Z</time></trkpt><trkpt lat="43.23259480523737" lon="6.084318571802954"><ele>122.0</ele><time>2026-04-22T10:25:38Z</time></trkpt><trkpt lat="43.23252063552631" lon="6.0843190723708735"><ele>122.0</ele><time>2026-04-22T10:25:39Z</time></trkpt><trkpt lat="43.23242651768782" lon="6.0843320564006085"><ele>121.99999999999999</ele><time>2026-04-22T10:25:41Z</time></trkpt><trkpt lat="43.23236491048797" lon="6.084277201665732"><ele>122.0</ele><time>2026-04-22T10:25:43Z</time></trkpt><trkpt lat="43.23225167694213" lon="6.084228910983966"><ele>122.0</ele><time>2026-04-22T10:25:45Z</time></trkpt><trkpt lat="43.23217944648012" lon="6.084206175796965"><ele>121.99999999999999</ele><time>2026-04-22T10:25:46Z</time></trkpt><trkpt lat="43.23209715971269" lon="6.084178846323545"><ele>121.99999999999999</ele><time>2026-04-22T10:25:47Z</time></trkpt><trkpt lat="43.23199973062205" lon="6.0841374189206405"><ele>122.0</ele><time>2026-04-22T10:25:48Z</time></trkpt><trkpt lat="43.231910586132216" lon="6.084076322623924"><ele>122.0</ele><time>2026-04-22T10:25:49Z</time></trkpt><trkpt lat="43.231774295264294" lon="6.084008548040751"><ele>122.0</ele><time>2026-04-22T10:25:50Z</time></trkpt><trkpt lat="43.231626556017225" lon="6.083939301544176"><ele>122.0</ele><time>2026-04-22T10:25:51Z</time></trkpt><trkpt lat="43.231474711892226" lon="6.083854984454378"><ele>122.0</ele><time>2026-04-22T10:25:52Z</time></trkpt><trkpt lat="43.23128944713821" lon="6.083771238965433"><ele>122.0</ele><time>2026-04-22T10:25:53Z</time></trkpt><trkpt lat="43.23110004106632" lon="6.083676282822975"><ele>122.0</ele><time>2026-04-22T10:25:54Z</time></trkpt><trkpt lat="43.23093354682834" lon="6.083586923964934"><ele>122.0</ele><time>2026-04-22T10:25:55Z</time></trkpt><trkpt lat="43.23078398544591" lon="6.0835044580788535"><ele>121.0</ele><time>2026-04-22T10:25:56Z</time></trkpt><trkpt lat="43.23063713819127" lon="6.0834224170925015"><ele>120.0</ele><time>2026-04-22T10:25:57Z</time></trkpt><trkpt lat="43.23047912932344" lon="6.083344714669652"><ele>119.0</ele><time>2026-04-22T10:25:58Z</time></trkpt><trkpt lat="43.23032289703173" lon="6.083256336919178"><ele>119.0</ele><time>2026-04-22T10:25:59Z</time></trkpt><trkpt lat="43.230162070526106" lon="6.083164460554338"><ele>119.0</ele><time>2026-04-22T10:26:00Z</time></trkpt><trkpt lat="43.230007088591385" lon="6.083067172489199"><ele>119.0</ele><time>2026-04-22T10:26:01Z</time></trkpt><trkpt lat="43.2298438771028" lon="6.082969335714862"><ele>118.66666666666666</ele><time>2026-04-22T10:26:02Z</time></trkpt><trkpt lat="43.22968699087507" lon="6.082868562556609"><ele>118.33333333333334</ele><time>2026-04-22T10:26:03Z</time></trkpt><trkpt lat="43.229528668587754" lon="6.082766568200387"><ele>118.0</ele><time>2026-04-22T10:26:04Z</time></trkpt><trkpt lat="43.22936621188078" lon="6.082655547903872"><ele>118.0</ele><time>2026-04-22T10:26:05Z</time></trkpt><trkpt lat="43.229207067935135" lon="6.082545919788495"><ele>118.0</ele><time>2026-04-22T10:26:06Z</time></trkpt><trkpt lat="43.22904777583447" lon="6.082435783778559"><ele>118.0</ele><time>2026-04-22T10:26:07Z</time></trkpt><trkpt lat="43.22889513783046" lon="6.082330706626946"><ele>118.0</ele><time>2026-04-22T10:26:08Z</time></trkpt><trkpt lat="43.22874467771116" lon="6.082215494782753"><ele>118.0</ele><time>2026-04-22T10:26:09Z</time></trkpt><trkpt lat="43.228591616387725" lon="6.082097479073324"><ele>118.0</ele><time>2026-04-22T10:26:10Z</time></trkpt><trkpt lat="43.22844225440879" lon="6.0819796586088986"><ele>118.0</ele><time>2026-04-22T10:26:11Z</time></trkpt><trkpt lat="43.22828649551708" lon="6.081868440296627"><ele>118.0</ele><time>2026-04-22T10:26:12Z</time></trkpt><trkpt lat="43.228133030615595" lon="6.081746620189709"><ele>118.0</ele><time>2026-04-22T10:26:13Z</time></trkpt><trkpt lat="43.22797980362166" lon="6.081630963751811"><ele>118.0</ele><time>2026-04-22T10:26:14Z</time></trkpt><trkpt lat="43.22782981940584" lon="6.081508343449635"><ele>118.0</ele><time>2026-04-22T10:26:15Z</time></trkpt><trkpt lat="43.2276805707528" lon="6.0813786705868615"><ele>118.0</ele><time>2026-04-22T10:26:16Z</time></trkpt><trkpt lat="43.22753940801485" lon="6.081253206100212"><ele>118.0</ele><time>2026-04-22T10:26:17Z</time></trkpt><trkpt lat="43.2273969102624" lon="6.081115826233639"><ele>118.0</ele><time>2026-04-22T10:26:18Z</time></trkpt><trkpt lat="43.227252322383166" lon="6.080980342942811"><ele>118.0</ele><time>2026-04-22T10:26:19Z</time></trkpt><trkpt lat="43.22710853954529" lon="6.080844615609149"><ele>117.33333333333334</ele><time>2026-04-22T10:26:20Z</time></trkpt><trkpt lat="43.22696115508739" lon="6.080704199368147"><ele>116.66666666666666</ele><time>2026-04-22T10:26:21Z</time></trkpt><trkpt lat="43.22681194199223" lon="6.080560216653566"><ele>116.0</ele><time>2026-04-22T10:26:22Z</time></trkpt><trkpt lat="43.226665356108754" lon="6.080420662701272"><ele>116.0</ele><time>2026-04-22T10:26:23Z</time></trkpt><trkpt lat="43.22651326184202" lon="6.080269062190348"><ele>116.0</ele><time>2026-04-22T10:26:24Z</time></trkpt><trkpt lat="43.22636534579215" lon="6.08011415445949"><ele>116.0</ele><time>2026-04-22T10:26:25Z</time></trkpt><trkpt lat="43.226215988856055" lon="6.07996052669789"><ele>116.0</ele><time>2026-04-22T10:26:26Z</time></trkpt><trkpt lat="43.226062861009474" lon="6.079808626801664"><ele>116.0</ele><time>2026-04-22T10:26:26.999Z</time></trkpt><trkpt lat="43.22590627037848" lon="6.07964930671861"><ele>116.0</ele><time>2026-04-22T10:26:27.999Z</time></trkpt><trkpt lat="43.225753526999455" lon="6.079496260345516"><ele>115.33333333333333</ele><time>2026-04-22T10:26:28.999Z</time></trkpt><trkpt lat="43.225605581472955" lon="6.079342272571561"><ele>114.66666666666666</ele><time>2026-04-22T10:26:29.999Z</time></trkpt><trkpt lat="43.22545173882947" lon="6.07918716612873"><ele>114.0</ele><time>2026-04-22T10:26:30.999Z</time></trkpt><trkpt lat="43.22530270748399" lon="6.079038443855897"><ele>113.66666666666666</ele><time>2026-04-22T10:26:31.999Z</time></trkpt><trkpt lat="43.225152554363916" lon="6.078881575933423"><ele>113.33333333333333</ele><time>2026-04-22T10:26:32.999Z</time></trkpt><trkpt lat="43.225005910331014" lon="6.078719926381942"><ele>113.0</ele><time>2026-04-22T10:26:33.999Z</time></trkpt><trkpt lat="43.22485550385216" lon="6.078568207619405"><ele>112.66666666666666</ele><time>2026-04-22T10:26:34.999Z</time></trkpt><trkpt lat="43.22470261092996" lon="6.078406608215626"><ele>112.33333333333334</ele><time>2026-04-22T10:26:35.999Z</time></trkpt><trkpt lat="43.22455262432703" lon="6.078245683769503"><ele>112.0</ele><time>2026-04-22T10:26:36.999Z</time></trkpt><trkpt lat="43.22440787882935" lon="6.078088187305943"><ele>112.0</ele><time>2026-04-22T10:26:37.999Z</time></trkpt><trkpt lat="43.224258952131244" lon="6.077914672274012"><ele>112.0</ele><time>2026-04-22T10:26:38.999Z</time></trkpt><trkpt lat="43.224113515208714" lon="6.07773213961613"><ele>112.0</ele><time>2026-04-22T10:26:39.999Z</time></trkpt><trkpt lat="43.22396129184164" lon="6.077541021548383"><ele>111.66666666666667</ele><time>2026-04-22T10:26:40.999Z</time></trkpt><trkpt lat="43.22381136327794" lon="6.077353169621863"><ele>111.33333333333334</ele><time>2026-04-22T10:26:41.999Z</time></trkpt><trkpt lat="43.22366418909172" lon="6.07716151674696"><ele>111.0</ele><time>2026-04-22T10:26:42.999Z</time></trkpt><trkpt lat="43.22350815152938" lon="6.076967292713853"><ele>111.0</ele><time>2026-04-22T10:26:43.999Z</time></trkpt><trkpt lat="43.223352467668185" lon="6.076766501753292"><ele>111.0</ele><time>2026-04-22T10:26:44.999Z</time></trkpt><trkpt lat="43.22318901598148" lon="6.0765600213894215"><ele>111.0</ele><time>2026-04-22T10:26:45.999Z</time></trkpt><trkpt lat="43.22301240882473" lon="6.07633914225234"><ele>110.5</ele><time>2026-04-22T10:26:46.999Z</time></trkpt><trkpt lat="43.2228378812294" lon="6.076120378559709"><ele>110.0</ele><time>2026-04-22T10:26:47.999Z</time></trkpt><trkpt lat="43.22266725477339" lon="6.075902869957887"><ele>110.0</ele><time>2026-04-22T10:26:48.999Z</time></trkpt><trkpt lat="43.222493995326445" lon="6.075686716629086"><ele>110.0</ele><time>2026-04-22T10:26:49.999Z</time></trkpt><trkpt lat="43.2223157391687" lon="6.075464650979915"><ele>109.5</ele><time>2026-04-22T10:26:50.999Z</time></trkpt><trkpt lat="43.22213325259793" lon="6.075241972420126"><ele>109.0</ele><time>2026-04-22T10:26:51.999Z</time></trkpt><trkpt lat="43.22195817049673" lon="6.075011126063352"><ele>109.5</ele><time>2026-04-22T10:26:52.999Z</time></trkpt><trkpt lat="43.22177949967373" lon="6.074788445044799"><ele>110.0</ele><time>2026-04-22T10:26:53.999Z</time></trkpt><trkpt lat="43.22160505455534" lon="6.074565698596816"><ele>109.0</ele><time>2026-04-22T10:26:54.999Z</time></trkpt><trkpt lat="43.221430724813565" lon="6.074343627222041"><ele>108.0</ele><time>2026-04-22T10:26:55.999Z</time></trkpt><trkpt lat="43.221257082822774" lon="6.074119907253906"><ele>107.5</ele><time>2026-04-22T10:26:56.999Z</time></trkpt><trkpt lat="43.22108040657913" lon="6.0738955056640505"><ele>107.0</ele><time>2026-04-22T10:26:57.999Z</time></trkpt><trkpt lat="43.220903601825185" lon="6.0736750797925"><ele>107.0</ele><time>2026-04-22T10:26:58.999Z</time></trkpt><trkpt lat="43.22072826737107" lon="6.073455275646624"><ele>107.0</ele><time>2026-04-22T10:26:59.999Z</time></trkpt><trkpt lat="43.22055142853963" lon="6.073234411202574"><ele>106.0</ele><time>2026-04-22T10:27:00.999Z</time></trkpt><trkpt lat="43.22037388766605" lon="6.0730114273359055"><ele>105.0</ele><time>2026-04-22T10:27:01.999Z</time></trkpt><trkpt lat="43.22019666294103" lon="6.072791183842019"><ele>105.0</ele><time>2026-04-22T10:27:02.999Z</time></trkpt><trkpt lat="43.22001817521919" lon="6.0725690518763304"><ele>105.0</ele><time>2026-04-22T10:27:03.999Z</time></trkpt><trkpt lat="43.21983960129734" lon="6.072346728100595"><ele>105.33333333333334</ele><time>2026-04-22T10:27:04.999Z</time></trkpt><trkpt lat="43.21968352743543" lon="6.072155660388707"><ele>105.66666666666667</ele><time>2026-04-22T10:27:05.999Z</time></trkpt><trkpt lat="43.2195395679699" lon="6.071978860555747"><ele>106.0</ele><time>2026-04-22T10:27:06.999Z</time></trkpt><trkpt lat="43.219405646130696" lon="6.0718207886187"><ele>106.0</ele><time>2026-04-22T10:27:07.999Z</time></trkpt><trkpt lat="43.219287044310626" lon="6.071679097389188"><ele>106.0</ele><time>2026-04-22T10:27:08.999Z</time></trkpt><trkpt lat="43.21917433974824" lon="6.071550714683213"><ele>106.0</ele><time>2026-04-22T10:27:09.999Z</time></trkpt><trkpt lat="43.21906908804119" lon="6.071442595323712"><ele>106.0</ele><time>2026-04-22T10:27:10.999Z</time></trkpt><trkpt lat="43.218947758471245" lon="6.071338174297282"><ele>105.75</ele><time>2026-04-22T10:27:11.999Z</time></trkpt><trkpt lat="43.218822701200615" lon="6.07124929519442"><ele>105.5</ele><time>2026-04-22T10:27:12.999Z</time></trkpt><trkpt lat="43.218698666038215" lon="6.071168996375575"><ele>105.25</ele><time>2026-04-22T10:27:13.999Z</time></trkpt><trkpt lat="43.21858167871095" lon="6.071091908615791"><ele>105.0</ele><time>2026-04-22T10:27:14.999Z</time></trkpt><trkpt lat="43.2184696417906" lon="6.071015654894364"><ele>105.0</ele><time>2026-04-22T10:27:15.999Z</time></trkpt><trkpt lat="43.21836734552552" lon="6.070945016621956"><ele>105.0</ele><time>2026-04-22T10:27:16.999Z</time></trkpt><trkpt lat="43.21827979255767" lon="6.070875518659113"><ele>105.0</ele><time>2026-04-22T10:27:17.999Z</time></trkpt><trkpt lat="43.21820607828011" lon="6.070809433836405"><ele>105.0</ele><time>2026-04-22T10:27:18.999Z</time></trkpt><trkpt lat="43.218125925927346" lon="6.070752941167225"><ele>105.0</ele><time>2026-04-22T10:27:19.999Z</time></trkpt><trkpt lat="43.21803003836677" lon="6.070724625967174"><ele>104.5</ele><time>2026-04-22T10:27:20.999Z</time></trkpt><trkpt lat="43.21791201785331" lon="6.0707105733927085"><ele>104.0</ele><time>2026-04-22T10:27:21.999Z</time></trkpt><trkpt lat="43.217798007764074" lon="6.070684910817169"><ele>103.5</ele><time>2026-04-22T10:27:22.999Z</time></trkpt><trkpt lat="43.21769694978249" lon="6.070652511402102"><ele>103.0</ele><time>2026-04-22T10:27:23.999Z</time></trkpt><trkpt lat="43.21759319024304" lon="6.0705867853505575"><ele>103.0</ele><time>2026-04-22T10:27:24.999Z</time></trkpt><trkpt lat="43.21747481732249" lon="6.07052279059428"><ele>103.0</ele><time>2026-04-22T10:27:25.999Z</time></trkpt><trkpt lat="43.2173469331408" lon="6.070445403057127"><ele>103.0</ele><time>2026-04-22T10:27:26.999Z</time></trkpt><trkpt lat="43.21720878279074" lon="6.070363723133369"><ele>103.0</ele><time>2026-04-22T10:27:27.999Z</time></trkpt><trkpt lat="43.21706082093421" lon="6.070273083707086"><ele>102.33333333333334</ele><time>2026-04-22T10:27:28.999Z</time></trkpt><trkpt lat="43.216917435405236" lon="6.070183457044717"><ele>101.66666666666666</ele><time>2026-04-22T10:27:29.999Z</time></trkpt><trkpt lat="43.216762526706525" lon="6.070113429158043"><ele>101.0</ele><time>2026-04-22T10:27:30.999Z</time></trkpt><trkpt lat="43.2166025590149" lon="6.070041820022483"><ele>100.75</ele><time>2026-04-22T10:27:31.999Z</time></trkpt><trkpt lat="43.21645599162389" lon="6.069966725989502"><ele>100.5</ele><time>2026-04-22T10:27:32.999Z</time></trkpt><trkpt lat="43.216322404371915" lon="6.069901719874618"><ele>100.25</ele><time>2026-04-22T10:27:33.999Z</time></trkpt><trkpt lat="43.2161863771526" lon="6.069841740448858"><ele>100.0</ele><time>2026-04-22T10:27:34.999Z</time></trkpt><trkpt lat="43.216045469193375" lon="6.06978512253774"><ele>100.0</ele><time>2026-04-22T10:27:35.999Z</time></trkpt><trkpt lat="43.215895887002446" lon="6.069727753676457"><ele>100.0</ele><time>2026-04-22T10:27:36.999Z</time></trkpt><trkpt lat="43.2157448915801" lon="6.06968159375904"><ele>100.0</ele><time>2026-04-22T10:27:37.999Z</time></trkpt><trkpt lat="43.215589278958696" lon="6.069642445817147"><ele>99.33333333333334</ele><time>2026-04-22T10:27:38.999Z</time></trkpt><trkpt lat="43.215426256487724" lon="6.0695949238385705"><ele>98.66666666666666</ele><time>2026-04-22T10:27:39.999Z</time></trkpt><trkpt lat="43.215277334263966" lon="6.0695049193256665"><ele>98.0</ele><time>2026-04-22T10:27:40.999Z</time></trkpt><trkpt lat="43.21513444175795" lon="6.069458814271076"><ele>98.0</ele><time>2026-04-22T10:27:41.999Z</time></trkpt><trkpt lat="43.21501014517845" lon="6.069398159394272"><ele>98.0</ele><time>2026-04-22T10:27:42.999Z</time></trkpt><trkpt lat="43.21487349000454" lon="6.069349830015921"><ele>98.0</ele><time>2026-04-22T10:27:44Z</time></trkpt><trkpt lat="43.21473054918805" lon="6.069313383833315"><ele>98.0</ele><time>2026-04-22T10:27:45Z</time></trkpt><trkpt lat="43.214600958144736" lon="6.0692920520971345"><ele>97.5</ele><time>2026-04-22T10:27:46Z</time></trkpt><trkpt lat="43.21448231509594" lon="6.069281418694575"><ele>97.0</ele><time>2026-04-22T10:27:47Z</time></trkpt><trkpt lat="43.214365126438565" lon="6.069274600767387"><ele>96.5</ele><time>2026-04-22T10:27:48Z</time></trkpt><trkpt lat="43.214256163657296" lon="6.069264908410004"><ele>96.0</ele><time>2026-04-22T10:27:49Z</time></trkpt><trkpt lat="43.214147120292616" lon="6.0692275707155465"><ele>96.0</ele><time>2026-04-22T10:27:50Z</time></trkpt><trkpt lat="43.214029156574334" lon="6.0691487754671485"><ele>96.0</ele><time>2026-04-22T10:27:51Z</time></trkpt><trkpt lat="43.21391504973254" lon="6.069039163553092"><ele>96.0</ele><time>2026-04-22T10:27:52Z</time></trkpt><trkpt lat="43.21381137634174" lon="6.0688986388221995"><ele>96.0</ele><time>2026-04-22T10:27:53Z</time></trkpt><trkpt lat="43.21370406652425" lon="6.068804124225828"><ele>95.25</ele><time>2026-04-22T10:27:54Z</time></trkpt><trkpt lat="43.21360493216299" lon="6.068689222365774"><ele>94.5</ele><time>2026-04-22T10:27:55Z</time></trkpt><trkpt lat="43.213498125205064" lon="6.068592095754053"><ele>93.75</ele><time>2026-04-22T10:27:56Z</time></trkpt><trkpt lat="43.21337552775487" lon="6.068515206312823"><ele>93.0</ele><time>2026-04-22T10:27:57Z</time></trkpt><trkpt lat="43.213236995772654" lon="6.068445566858664"><ele>93.0</ele><time>2026-04-22T10:27:58Z</time></trkpt><trkpt lat="43.21310188905712" lon="6.068370797634236"><ele>93.0</ele><time>2026-04-22T10:27:59Z</time></trkpt><trkpt lat="43.2129695374233" lon="6.06831487376913"><ele>93.0</ele><time>2026-04-22T10:28:00Z</time></trkpt><trkpt lat="43.21282338178231" lon="6.06826824783648"><ele>93.0</ele><time>2026-04-22T10:28:01Z</time></trkpt><trkpt lat="43.21266035224439" lon="6.068240433096459"><ele>92.33333333333333</ele><time>2026-04-22T10:28:02Z</time></trkpt><trkpt lat="43.21248860164748" lon="6.068216411241498"><ele>91.66666666666666</ele><time>2026-04-22T10:28:03Z</time></trkpt><trkpt lat="43.21231168611399" lon="6.0681878267363345"><ele>91.0</ele><time>2026-04-22T10:28:04Z</time></trkpt><trkpt lat="43.21214329977541" lon="6.068160063421963"><ele>90.66666666666666</ele><time>2026-04-22T10:28:05Z</time></trkpt><trkpt lat="43.21198046588259" lon="6.0681356281898235"><ele>90.33333333333333</ele><time>2026-04-22T10:28:06Z</time></trkpt><trkpt lat="43.21182228504755" lon="6.06811176531078"><ele>90.0</ele><time>2026-04-22T10:28:07Z</time></trkpt><trkpt lat="43.21166475463369" lon="6.068076006378672"><ele>90.0</ele><time>2026-04-22T10:28:08Z</time></trkpt><trkpt lat="43.2115037631542" lon="6.06805585886856"><ele>90.0</ele><time>2026-04-22T10:28:09Z</time></trkpt><trkpt lat="43.211348848305924" lon="6.068040846043694"><ele>90.0</ele><time>2026-04-22T10:28:10Z</time></trkpt><trkpt lat="43.211201072122876" lon="6.068040950382306"><ele>90.0</ele><time>2026-04-22T10:28:11Z</time></trkpt><trkpt lat="43.21108951198612" lon="6.067981322557927"><ele>90.0</ele><time>2026-04-22T10:28:12Z</time></trkpt><trkpt lat="43.21097539669657" lon="6.067916611765212"><ele>90.0</ele><time>2026-04-22T10:28:13Z</time></trkpt><trkpt lat="43.210860446281956" lon="6.067828536395761"><ele>90.0</ele><time>2026-04-22T10:28:14Z</time></trkpt><trkpt lat="43.21074283458355" lon="6.067723555199447"><ele>89.66666666666667</ele><time>2026-04-22T10:28:15Z</time></trkpt><trkpt lat="43.21060846142235" lon="6.067583196691802"><ele>89.33333333333334</ele><time>2026-04-22T10:28:16Z</time></trkpt><trkpt lat="43.210463360701645" lon="6.067460806042024"><ele>89.0</ele><time>2026-04-22T10:28:17Z</time></trkpt><trkpt lat="43.210320100126246" lon="6.067338010707529"><ele>89.0</ele><time>2026-04-22T10:28:18Z</time></trkpt><trkpt lat="43.21019295925864" lon="6.067220858348196"><ele>89.0</ele><time>2026-04-22T10:28:19Z</time></trkpt><trkpt lat="43.210075311594885" lon="6.067106088578603"><ele>89.0</ele><time>2026-04-22T10:28:20Z</time></trkpt><trkpt lat="43.20994479115134" lon="6.066970626195443"><ele>88.5</ele><time>2026-04-22T10:28:21Z</time></trkpt><trkpt lat="43.209819630927136" lon="6.066835145986572"><ele>88.0</ele><time>2026-04-22T10:28:22Z</time></trkpt><trkpt lat="43.20970076555515" lon="6.066700883562362"><ele>87.5</ele><time>2026-04-22T10:28:23Z</time></trkpt><trkpt lat="43.209594252989994" lon="6.066585650145912"><ele>87.0</ele><time>2026-04-22T10:28:24Z</time></trkpt><trkpt lat="43.20950017693754" lon="6.066489247955708"><ele>87.0</ele><time>2026-04-22T10:28:25Z</time></trkpt><trkpt lat="43.209414604430314" lon="6.066415519209885"><ele>87.0</ele><time>2026-04-22T10:28:26Z</time></trkpt><trkpt lat="43.209316037539224" lon="6.066368570158173"><ele>87.0</ele><time>2026-04-22T10:28:27Z</time></trkpt><trkpt lat="43.209192785597466" lon="6.066334667458833"><ele>87.0</ele><time>2026-04-22T10:28:28Z</time></trkpt><trkpt lat="43.20904673771038" lon="6.066293102338678"><ele>86.66666666666667</ele><time>2026-04-22T10:28:29Z</time></trkpt><trkpt lat="43.20889093460438" lon="6.066248962403834"><ele>86.33333333333334</ele><time>2026-04-22T10:28:30Z</time></trkpt><trkpt lat="43.20872976602465" lon="6.066201957055424"><ele>86.0</ele><time>2026-04-22T10:28:31Z</time></trkpt><trkpt lat="43.20858853031474" lon="6.066161179655498"><ele>86.0</ele><time>2026-04-22T10:28:32Z</time></trkpt><trkpt lat="43.20845929135719" lon="6.066127869689143"><ele>86.0</ele><time>2026-04-22T10:28:33Z</time></trkpt><trkpt lat="43.20834195309655" lon="6.066103660464471"><ele>86.0</ele><time>2026-04-22T10:28:34Z</time></trkpt><trkpt lat="43.20823455877865" lon="6.066122720221886"><ele>86.0</ele><time>2026-04-22T10:28:35Z</time></trkpt><trkpt lat="43.20811915271214" lon="6.066152498356197"><ele>86.0</ele><time>2026-04-22T10:28:36Z</time></trkpt><trkpt lat="43.207985831904324" lon="6.066194561457532"><ele>86.0</ele><time>2026-04-22T10:28:37Z</time></trkpt><trkpt lat="43.20783928022271" lon="6.0662061638963864"><ele>86.0</ele><time>2026-04-22T10:28:38Z</time></trkpt><trkpt lat="43.207690352134" lon="6.066227344331991"><ele>86.0</ele><time>2026-04-22T10:28:39Z</time></trkpt><trkpt lat="43.20755437066693" lon="6.066245119777108"><ele>86.0</ele><time>2026-04-22T10:28:40Z</time></trkpt><trkpt lat="43.207423147078785" lon="6.066252178433026"><ele>86.0</ele><time>2026-04-22T10:28:41Z</time></trkpt><trkpt lat="43.20727951749862" lon="6.066236837913769"><ele>86.0</ele><time>2026-04-22T10:28:42Z</time></trkpt><trkpt lat="43.207121857468046" lon="6.066221549838462"><ele>86.0</ele><time>2026-04-22T10:28:43Z</time></trkpt><trkpt lat="43.20696992729752" lon="6.066203675747366"><ele>85.75</ele><time>2026-04-22T10:28:44Z</time></trkpt><trkpt lat="43.2068195739116" lon="6.066170023621164"><ele>85.5</ele><time>2026-04-22T10:28:45Z</time></trkpt><trkpt lat="43.206678429663924" lon="6.066119020653891"><ele>85.25</ele><time>2026-04-22T10:28:46Z</time></trkpt><trkpt lat="43.20654433061236" lon="6.066058501586795"><ele>85.0</ele><time>2026-04-22T10:28:47Z</time></trkpt><trkpt lat="43.20641664894946" lon="6.065977954391787"><ele>85.0</ele><time>2026-04-22T10:28:48Z</time></trkpt><trkpt lat="43.20629299550855" lon="6.065890616500158"><ele>85.0</ele><time>2026-04-22T10:28:48.999Z</time></trkpt><trkpt lat="43.20616642942232" lon="6.065789617964755"><ele>85.0</ele><time>2026-04-22T10:28:49.999Z</time></trkpt><trkpt lat="43.20604883610626" lon="6.065691757128274"><ele>85.0</ele><time>2026-04-22T10:28:50.999Z</time></trkpt><trkpt lat="43.205924188626106" lon="6.065637975270701"><ele>84.66666666666666</ele><time>2026-04-22T10:28:51.999Z</time></trkpt><trkpt lat="43.20578573641835" lon="6.065582687104114"><ele>84.33333333333333</ele><time>2026-04-22T10:28:52.999Z</time></trkpt><trkpt lat="43.20563669883731" lon="6.065535400145655"><ele>84.0</ele><time>2026-04-22T10:28:53.999Z</time></trkpt><trkpt lat="43.20549320984995" lon="6.065464767475577"><ele>83.75</ele><time>2026-04-22T10:28:54.999Z</time></trkpt><trkpt lat="43.20535830368993" lon="6.0654181105705485"><ele>83.5</ele><time>2026-04-22T10:28:55.999Z</time></trkpt><trkpt lat="43.205239519416224" lon="6.065369329868989"><ele>83.25</ele><time>2026-04-22T10:28:56.999Z</time></trkpt><trkpt lat="43.20514669786067" lon="6.065316855276174"><ele>83.0</ele><time>2026-04-22T10:28:57.999Z</time></trkpt><trkpt lat="43.20506281197661" lon="6.065248944374036"><ele>83.0</ele><time>2026-04-22T10:28:58.999Z</time></trkpt><trkpt lat="43.2050069418131" lon="6.065189965540362"><ele>83.0</ele><time>2026-04-22T10:28:59.999Z</time></trkpt><trkpt lat="43.20497921022782" lon="6.065102650770109"><ele>83.0</ele><time>2026-04-22T10:29:01.999Z</time></trkpt><trkpt lat="43.20500431734111" lon="6.064927368706324"><ele>83.0</ele><time>2026-04-22T10:29:03.999Z</time></trkpt><trkpt lat="43.204967862005475" lon="6.0648032442646"><ele>83.0</ele><time>2026-04-22T10:29:04.999Z</time></trkpt><trkpt lat="43.20490834496326" lon="6.064667257832331"><ele>82.75</ele><time>2026-04-22T10:29:05.999Z</time></trkpt><trkpt lat="43.204843705142" lon="6.064524513859896"><ele>82.5</ele><time>2026-04-22T10:29:06.999Z</time></trkpt><trkpt lat="43.20477111467173" lon="6.064368285619749"><ele>82.25</ele><time>2026-04-22T10:29:07.999Z</time></trkpt><trkpt lat="43.204690553588705" lon="6.064200860327057"><ele>82.0</ele><time>2026-04-22T10:29:08.999Z</time></trkpt><trkpt lat="43.204617116121625" lon="6.064045365667825"><ele>81.75</ele><time>2026-04-22T10:29:09.999Z</time></trkpt><trkpt lat="43.20454264386948" lon="6.063893563248277"><ele>81.5</ele><time>2026-04-22T10:29:10.999Z</time></trkpt><trkpt lat="43.20446783859532" lon="6.063742295095798"><ele>81.25</ele><time>2026-04-22T10:29:11.999Z</time></trkpt><trkpt lat="43.20439159461852" lon="6.0635941602138"><ele>81.0</ele><time>2026-04-22T10:29:12.999Z</time></trkpt><trkpt lat="43.20431657270129" lon="6.06344040657831"><ele>81.0</ele><time>2026-04-22T10:29:13.999Z</time></trkpt><trkpt lat="43.20424141847548" lon="6.063297457203621"><ele>81.0</ele><time>2026-04-22T10:29:14.999Z</time></trkpt><trkpt lat="43.20416626222734" lon="6.063144845321908"><ele>81.0</ele><time>2026-04-22T10:29:15.999Z</time></trkpt><trkpt lat="43.20406647674474" lon="6.063019447927243"><ele>81.0</ele><time>2026-04-22T10:29:16.999Z</time></trkpt><trkpt lat="43.20396487706613" lon="6.062896369744393"><ele>81.0</ele><time>2026-04-22T10:29:17.999Z</time></trkpt><trkpt lat="43.20386378469855" lon="6.062775138732815"><ele>81.0</ele><time>2026-04-22T10:29:18.999Z</time></trkpt><trkpt lat="43.20376483959611" lon="6.062684604333072"><ele>81.0</ele><time>2026-04-22T10:29:19.999Z</time></trkpt><trkpt lat="43.20368388093725" lon="6.062577446774573"><ele>81.0</ele><time>2026-04-22T10:29:20.999Z</time></trkpt><trkpt lat="43.20361888580056" lon="6.062451832010882"><ele>81.5</ele><time>2026-04-22T10:29:21.999Z</time></trkpt><trkpt lat="43.203560581702625" lon="6.062312188229016"><ele>82.0</ele><time>2026-04-22T10:29:22.999Z</time></trkpt><trkpt lat="43.20349634555812" lon="6.062171888877464"><ele>82.5</ele><time>2026-04-22T10:29:23.999Z</time></trkpt><trkpt lat="43.203428026033194" lon="6.062023843133602"><ele>83.0</ele><time>2026-04-22T10:29:24.999Z</time></trkpt><trkpt lat="43.20335478436245" lon="6.061873295790298"><ele>83.0</ele><time>2026-04-22T10:29:25.999Z</time></trkpt><trkpt lat="43.20328131362656" lon="6.061715690959206"><ele>83.0</ele><time>2026-04-22T10:29:26.999Z</time></trkpt><trkpt lat="43.20320878301041" lon="6.061556057688367"><ele>83.0</ele><time>2026-04-22T10:29:27.999Z</time></trkpt><trkpt lat="43.20314044022784" lon="6.061400086867489"><ele>83.0</ele><time>2026-04-22T10:29:28.999Z</time></trkpt><trkpt lat="43.20307158613523" lon="6.06123516977395"><ele>83.0</ele><time>2026-04-22T10:29:29.999Z</time></trkpt><trkpt lat="43.20299554486243" lon="6.061058656904082"><ele>83.0</ele><time>2026-04-22T10:29:30.999Z</time></trkpt><trkpt lat="43.20290850363279" lon="6.060866573593479"><ele>83.0</ele><time>2026-04-22T10:29:31.999Z</time></trkpt><trkpt lat="43.202833303702995" lon="6.060682996226086"><ele>83.0</ele><time>2026-04-22T10:29:32.999Z</time></trkpt><trkpt lat="43.20276958553821" lon="6.060507725905093"><ele>83.0</ele><time>2026-04-22T10:29:33.999Z</time></trkpt><trkpt lat="43.20270840621518" lon="6.060326658436563"><ele>83.0</ele><time>2026-04-22T10:29:34.999Z</time></trkpt><trkpt lat="43.202648006399556" lon="6.060133840611083"><ele>83.0</ele><time>2026-04-22T10:29:35.999Z</time></trkpt><trkpt lat="43.20260408215363" lon="6.05992415767262"><ele>83.66666666666667</ele><time>2026-04-22T10:29:36.999Z</time></trkpt><trkpt lat="43.202531494314464" lon="6.0597271831954505"><ele>84.33333333333333</ele><time>2026-04-22T10:29:37.999Z</time></trkpt><trkpt lat="43.20247792649383" lon="6.059524293399376"><ele>85.0</ele><time>2026-04-22T10:29:38.999Z</time></trkpt><trkpt lat="43.20242316520548" lon="6.059323185021471"><ele>85.0</ele><time>2026-04-22T10:29:39.999Z</time></trkpt><trkpt lat="43.20236367257595" lon="6.059121185217212"><ele>85.0</ele><time>2026-04-22T10:29:40.999Z</time></trkpt><trkpt lat="43.20229910018185" lon="6.058921086121824"><ele>85.0</ele><time>2026-04-22T10:29:41.999Z</time></trkpt><trkpt lat="43.20223053490033" lon="6.058731346831155"><ele>84.66666666666666</ele><time>2026-04-22T10:29:42.999Z</time></trkpt><trkpt lat="43.20216190301118" lon="6.058535007867191"><ele>84.33333333333333</ele><time>2026-04-22T10:29:43.999Z</time></trkpt><trkpt lat="43.20207750589062" lon="6.058354984354987"><ele>84.0</ele><time>2026-04-22T10:29:44.999Z</time></trkpt><trkpt lat="43.20198908750144" lon="6.058181010104716"><ele>84.5</ele><time>2026-04-22T10:29:45.999Z</time></trkpt><trkpt lat="43.201897393717545" lon="6.058008715285273"><ele>85.0</ele><time>2026-04-22T10:29:46.999Z</time></trkpt><trkpt lat="43.20180714710466" lon="6.057839878579174"><ele>85.5</ele><time>2026-04-22T10:29:47.999Z</time></trkpt><trkpt lat="43.20172407115655" lon="6.0576835859681815"><ele>86.0</ele><time>2026-04-22T10:29:48.999Z</time></trkpt><trkpt lat="43.201638786569696" lon="6.0575356208812465"><ele>86.0</ele><time>2026-04-22T10:29:50Z</time></trkpt><trkpt lat="43.20157307280184" lon="6.057369345240874"><ele>86.0</ele><time>2026-04-22T10:29:51Z</time></trkpt><trkpt lat="43.20149159960386" lon="6.057221816557225"><ele>86.0</ele><time>2026-04-22T10:29:52Z</time></trkpt><trkpt lat="43.20145442703939" lon="6.057052417501399"><ele>86.0</ele><time>2026-04-22T10:29:53Z</time></trkpt><trkpt lat="43.20141083487951" lon="6.056888020640778"><ele>85.75</ele><time>2026-04-22T10:29:54Z</time></trkpt><trkpt lat="43.20133700029721" lon="6.056733822931831"><ele>85.5</ele><time>2026-04-22T10:29:55Z</time></trkpt><trkpt lat="43.2012600878401" lon="6.056570866957727"><ele>85.25</ele><time>2026-04-22T10:29:56Z</time></trkpt><trkpt lat="43.201174005851485" lon="6.056394468001229"><ele>85.0</ele><time>2026-04-22T10:29:57Z</time></trkpt><trkpt lat="43.20107947619654" lon="6.05623049101574"><ele>85.0</ele><time>2026-04-22T10:29:58Z</time></trkpt><trkpt lat="43.201000155538395" lon="6.056084728792446"><ele>85.0</ele><time>2026-04-22T10:29:59Z</time></trkpt><trkpt lat="43.200932381992" lon="6.055952172860652"><ele>85.0</ele><time>2026-04-22T10:30:00Z</time></trkpt><trkpt lat="43.20085109507091" lon="6.055822308750974"><ele>85.0</ele><time>2026-04-22T10:30:01Z</time></trkpt><trkpt lat="43.200763840025026" lon="6.055682653270744"><ele>84.8</ele><time>2026-04-22T10:30:02Z</time></trkpt><trkpt lat="43.200693195318934" lon="6.055551274698248"><ele>84.6</ele><time>2026-04-22T10:30:03Z</time></trkpt><trkpt lat="43.20063450430073" lon="6.0554156403607085"><ele>84.4</ele><time>2026-04-22T10:30:04Z</time></trkpt><trkpt lat="43.20060752706956" lon="6.055269982616904"><ele>84.2</ele><time>2026-04-22T10:30:05Z</time></trkpt><trkpt lat="43.200573702527336" lon="6.055140338738172"><ele>84.0</ele><time>2026-04-22T10:30:06Z</time></trkpt><trkpt lat="43.20051459068384" lon="6.055017687285363"><ele>83.5</ele><time>2026-04-22T10:30:07Z</time></trkpt><trkpt lat="43.200438882849845" lon="6.054891872744347"><ele>83.0</ele><time>2026-04-22T10:30:08Z</time></trkpt><trkpt lat="43.200350105838524" lon="6.054775029990374"><ele>82.5</ele><time>2026-04-22T10:30:09Z</time></trkpt><trkpt lat="43.200270930887" lon="6.054626409828516"><ele>82.0</ele><time>2026-04-22T10:30:10Z</time></trkpt><trkpt lat="43.200188185386715" lon="6.054484060837561"><ele>82.0</ele><time>2026-04-22T10:30:11Z</time></trkpt><trkpt lat="43.200099211599095" lon="6.054352304385028"><ele>82.0</ele><time>2026-04-22T10:30:12Z</time></trkpt><trkpt lat="43.20002626219785" lon="6.054214813237692"><ele>82.0</ele><time>2026-04-22T10:30:13Z</time></trkpt><trkpt lat="43.19994679768848" lon="6.054076191591419"><ele>82.0</ele><time>2026-04-22T10:30:14Z</time></trkpt><trkpt lat="43.199862871447976" lon="6.0539401896304"><ele>81.0</ele><time>2026-04-22T10:30:15Z</time></trkpt><trkpt lat="43.19976687764116" lon="6.053812205879396"><ele>80.0</ele><time>2026-04-22T10:30:16Z</time></trkpt><trkpt lat="43.199661563983256" lon="6.053697275066897"><ele>79.0</ele><time>2026-04-22T10:30:17Z</time></trkpt><trkpt lat="43.1995609778552" lon="6.053570005625808"><ele>78.0</ele><time>2026-04-22T10:30:18Z</time></trkpt><trkpt lat="43.199466343994004" lon="6.053448251293711"><ele>78.0</ele><time>2026-04-22T10:30:19Z</time></trkpt><trkpt lat="43.19937138166451" lon="6.053312216129488"><ele>78.0</ele><time>2026-04-22T10:30:20Z</time></trkpt><trkpt lat="43.199286459319325" lon="6.0531656976157295"><ele>78.0</ele><time>2026-04-22T10:30:21Z</time></trkpt><trkpt lat="43.199206748375474" lon="6.053014133749371"><ele>78.0</ele><time>2026-04-22T10:30:22Z</time></trkpt><trkpt lat="43.199123206984154" lon="6.052864459413865"><ele>77.75</ele><time>2026-04-22T10:30:23Z</time></trkpt><trkpt lat="43.199028797080146" lon="6.052731192768901"><ele>77.5</ele><time>2026-04-22T10:30:24Z</time></trkpt><trkpt lat="43.19891986759582" lon="6.0526201245300655"><ele>77.25</ele><time>2026-04-22T10:30:25Z</time></trkpt><trkpt lat="43.19879459172976" lon="6.052524201243795"><ele>77.0</ele><time>2026-04-22T10:30:26Z</time></trkpt><trkpt lat="43.19866678347732" lon="6.052431355655759"><ele>77.0</ele><time>2026-04-22T10:30:27Z</time></trkpt><trkpt lat="43.19853996353948" lon="6.05234514416286"><ele>77.0</ele><time>2026-04-22T10:30:28Z</time></trkpt><trkpt lat="43.19840724938237" lon="6.0522567342007685"><ele>77.0</ele><time>2026-04-22T10:30:29Z</time></trkpt><trkpt lat="43.19827584849863" lon="6.052164943035845"><ele>77.0</ele><time>2026-04-22T10:30:30Z</time></trkpt><trkpt lat="43.1981466638419" lon="6.052080695909525"><ele>77.0</ele><time>2026-04-22T10:30:31Z</time></trkpt><trkpt lat="43.19801405687324" lon="6.0519934253812515"><ele>77.0</ele><time>2026-04-22T10:30:32Z</time></trkpt><trkpt lat="43.19787446294778" lon="6.051907790105135"><ele>77.0</ele><time>2026-04-22T10:30:33Z</time></trkpt><trkpt lat="43.19774208846653" lon="6.051819454697088"><ele>77.0</ele><time>2026-04-22T10:30:34Z</time></trkpt><trkpt lat="43.19762250406674" lon="6.051734754154222"><ele>77.0</ele><time>2026-04-22T10:30:35Z</time></trkpt><trkpt lat="43.19751494762779" lon="6.051633696901459"><ele>77.0</ele><time>2026-04-22T10:30:36Z</time></trkpt><trkpt lat="43.197399549810186" lon="6.051555220889713"><ele>77.0</ele><time>2026-04-22T10:30:37Z</time></trkpt><trkpt lat="43.19728100743641" lon="6.051506682613152"><ele>77.0</ele><time>2026-04-22T10:30:38Z</time></trkpt><trkpt lat="43.19718855249656" lon="6.051449723413242"><ele>77.16666666666667</ele><time>2026-04-22T10:30:39Z</time></trkpt><trkpt lat="43.19711505633648" lon="6.051411455245331"><ele>77.33333333333334</ele><time>2026-04-22T10:30:40Z</time></trkpt><trkpt lat="43.19701527402506" lon="6.051341891498947"><ele>77.5</ele><time>2026-04-22T10:30:42Z</time></trkpt><trkpt lat="43.19697308275241" lon="6.051231577176818"><ele>77.66666666666667</ele><time>2026-04-22T10:30:44Z</time></trkpt><trkpt lat="43.196995647910754" lon="6.051130340297731"><ele>77.83333333333333</ele><time>2026-04-22T10:30:45Z</time></trkpt><trkpt lat="43.19703005814702" lon="6.051030328789749"><ele>78.0</ele><time>2026-04-22T10:30:46Z</time></trkpt><trkpt lat="43.197062190219306" lon="6.050929708676303"><ele>78.0</ele><time>2026-04-22T10:30:47Z</time></trkpt><trkpt lat="43.197101001327155" lon="6.050828071210763"><ele>78.0</ele><time>2026-04-22T10:30:48Z</time></trkpt><trkpt lat="43.1971318218654" lon="6.050737798111136"><ele>78.0</ele><time>2026-04-22T10:30:49Z</time></trkpt><trkpt lat="43.19717928104011" lon="6.050598149679596"><ele>78.0</ele><time>2026-04-22T10:30:51Z</time></trkpt><trkpt lat="43.197196703717125" lon="6.0504928723381886"><ele>78.0</ele><time>2026-04-22T10:30:53.999Z</time></trkpt><trkpt lat="43.19713059417009" lon="6.050400743285056"><ele>78.0</ele><time>2026-04-22T10:30:56.999Z</time></trkpt><trkpt lat="43.197052226401446" lon="6.050402000278728"><ele>77.8</ele><time>2026-04-22T10:30:57.999Z</time></trkpt><trkpt lat="43.19697589476103" lon="6.050400975750174"><ele>77.6</ele><time>2026-04-22T10:30:58.999Z</time></trkpt><trkpt lat="43.19688813034891" lon="6.050385023391488"><ele>77.4</ele><time>2026-04-22T10:30:59.999Z</time></trkpt><trkpt lat="43.19679110183388" lon="6.050367791939098"><ele>77.2</ele><time>2026-04-22T10:31:00.999Z</time></trkpt><trkpt lat="43.196677506575156" lon="6.050343732994072"><ele>77.0</ele><time>2026-04-22T10:31:01.999Z</time></trkpt><trkpt lat="43.196544622787755" lon="6.050322835769051"><ele>76.5</ele><time>2026-04-22T10:31:02.999Z</time></trkpt><trkpt lat="43.19641819294649" lon="6.05028105941251"><ele>76.0</ele><time>2026-04-22T10:31:03.999Z</time></trkpt><trkpt lat="43.19631143853823" lon="6.050264511444643"><ele>75.5</ele><time>2026-04-22T10:31:04.999Z</time></trkpt><trkpt lat="43.1962024579096" lon="6.050274976499448"><ele>75.0</ele><time>2026-04-22T10:31:05.999Z</time></trkpt><trkpt lat="43.19609261713367" lon="6.050267716193501"><ele>75.0</ele><time>2026-04-22T10:31:06.999Z</time></trkpt><trkpt lat="43.195981054146806" lon="6.050264310114734"><ele>75.0</ele><time>2026-04-22T10:31:07.999Z</time></trkpt><trkpt lat="43.19587214476133" lon="6.050253005564588"><ele>75.0</ele><time>2026-04-22T10:31:08.999Z</time></trkpt><trkpt lat="43.195768678415575" lon="6.050194600097583"><ele>75.0</ele><time>2026-04-22T10:31:09.999Z</time></trkpt><trkpt lat="43.195662328454524" lon="6.050138955883057"><ele>75.0</ele><time>2026-04-22T10:31:10.999Z</time></trkpt><trkpt lat="43.19555472570852" lon="6.0500838605965415"><ele>75.0</ele><time>2026-04-22T10:31:11.999Z</time></trkpt><trkpt lat="43.195438672470495" lon="6.050038551435971"><ele>75.0</ele><time>2026-04-22T10:31:12.999Z</time></trkpt><trkpt lat="43.19532474295063" lon="6.0499757210978204"><ele>75.0</ele><time>2026-04-22T10:31:13.999Z</time></trkpt><trkpt lat="43.19520815154124" lon="6.049918124465785"><ele>75.0</ele><time>2026-04-22T10:31:14.999Z</time></trkpt><trkpt lat="43.19509802767087" lon="6.049861771710535"><ele>75.4</ele><time>2026-04-22T10:31:15.999Z</time></trkpt><trkpt lat="43.195022031123834" lon="6.049782215801865"><ele>75.8</ele><time>2026-04-22T10:31:16.999Z</time></trkpt><trkpt lat="43.19495628565162" lon="6.049693117131894"><ele>76.2</ele><time>2026-04-22T10:31:17.999Z</time></trkpt><trkpt lat="43.19487517414897" lon="6.049595050133366"><ele>76.6</ele><time>2026-04-22T10:31:18.999Z</time></trkpt><trkpt lat="43.19477816495689" lon="6.049506469946322"><ele>77.0</ele><time>2026-04-22T10:31:19.999Z</time></trkpt><trkpt lat="43.19468041220496" lon="6.049412054069995"><ele>77.0</ele><time>2026-04-22T10:31:20.999Z</time></trkpt><trkpt lat="43.194582711780164" lon="6.049319010209559"><ele>77.0</ele><time>2026-04-22T10:31:21.999Z</time></trkpt><trkpt lat="43.19447909005678" lon="6.049222411151094"><ele>77.0</ele><time>2026-04-22T10:31:22.999Z</time></trkpt><trkpt lat="43.19436228956436" lon="6.049110493326265"><ele>77.0</ele><time>2026-04-22T10:31:23.999Z</time></trkpt><trkpt lat="43.194232871214844" lon="6.048995122414956"><ele>77.0</ele><time>2026-04-22T10:31:24.999Z</time></trkpt><trkpt lat="43.19412116931493" lon="6.048904886977832"><ele>77.0</ele><time>2026-04-22T10:31:25.999Z</time></trkpt><trkpt lat="43.19402285130032" lon="6.048819116231389"><ele>77.0</ele><time>2026-04-22T10:31:26.999Z</time></trkpt><trkpt lat="43.19392791681264" lon="6.048737515700426"><ele>77.0</ele><time>2026-04-22T10:31:27.999Z</time></trkpt><trkpt lat="43.19383427595251" lon="6.048664439763358"><ele>77.0</ele><time>2026-04-22T10:31:28.999Z</time></trkpt><trkpt lat="43.19375846241553" lon="6.048603487206722"><ele>77.0</ele><time>2026-04-22T10:31:29.999Z</time></trkpt><trkpt lat="43.19369710826769" lon="6.048548644055413"><ele>77.0</ele><time>2026-04-22T10:31:30.999Z</time></trkpt><trkpt lat="43.19362431245213" lon="6.048440342915902"><ele>77.0</ele><time>2026-04-22T10:31:32.999Z</time></trkpt><trkpt lat="43.19362540613761" lon="6.048259472622487"><ele>77.0</ele><time>2026-04-22T10:31:34.999Z</time></trkpt><trkpt lat="43.193624225990796" lon="6.048156342488262"><ele>77.0</ele><time>2026-04-22T10:31:35.999Z</time></trkpt><trkpt lat="43.193701060551824" lon="6.048058271394291"><ele>77.0</ele><time>2026-04-22T10:31:36.999Z</time></trkpt><trkpt lat="43.19376338295406" lon="6.047948487010439"><ele>77.0</ele><time>2026-04-22T10:31:37.999Z</time></trkpt><trkpt lat="43.193822057210724" lon="6.047828717377547"><ele>77.0</ele><time>2026-04-22T10:31:38.999Z</time></trkpt><trkpt lat="43.1938821902383" lon="6.047689738638081"><ele>77.0</ele><time>2026-04-22T10:31:39.999Z</time></trkpt><trkpt lat="43.19394964353748" lon="6.047531277296875"><ele>77.0</ele><time>2026-04-22T10:31:40.999Z</time></trkpt><trkpt lat="43.19400668697673" lon="6.047391510217087"><ele>77.0</ele><time>2026-04-22T10:31:41.999Z</time></trkpt><trkpt lat="43.19406061279729" lon="6.047248063886111"><ele>77.0</ele><time>2026-04-22T10:31:42.999Z</time></trkpt><trkpt lat="43.19410997010436" lon="6.047089949237635"><ele>77.0</ele><time>2026-04-22T10:31:43.999Z</time></trkpt><trkpt lat="43.1941281811269" lon="6.046925689650991"><ele>77.0</ele><time>2026-04-22T10:31:44.999Z</time></trkpt><trkpt lat="43.194119860381896" lon="6.046785776268156"><ele>77.0</ele><time>2026-04-22T10:31:45.999Z</time></trkpt><trkpt lat="43.194129540742914" lon="6.046650468830603"><ele>77.0</ele><time>2026-04-22T10:31:46.999Z</time></trkpt><trkpt lat="43.1941515872056" lon="6.046533256515915"><ele>77.0</ele><time>2026-04-22T10:31:47.999Z</time></trkpt><trkpt lat="43.19418204506867" lon="6.046390479798644"><ele>77.0</ele><time>2026-04-22T10:31:49.999Z</time></trkpt><trkpt lat="43.194202223153766" lon="6.046301326273793"><ele>77.0</ele><time>2026-04-22T10:31:50.999Z</time></trkpt><trkpt lat="43.19420516562355" lon="6.046209604494976"><ele>77.0</ele><time>2026-04-22T10:31:51.999Z</time></trkpt><trkpt lat="43.19418179822804" lon="6.046116048827426"><ele>77.0</ele><time>2026-04-22T10:31:52.999Z</time></trkpt><trkpt lat="43.19414809623585" lon="6.046031453060246"><ele>77.0</ele><time>2026-04-22T10:31:53.999Z</time></trkpt><trkpt lat="43.19412049172426" lon="6.045935676898986"><ele>77.0</ele><time>2026-04-22T10:31:54.999Z</time></trkpt><trkpt lat="43.194111346488135" lon="6.0458292000208935"><ele>77.0</ele><time>2026-04-22T10:31:56Z</time></trkpt><trkpt lat="43.19409944485417" lon="6.045731312041817"><ele>77.0</ele><time>2026-04-22T10:31:57Z</time></trkpt><trkpt lat="43.19417137384353" lon="6.045616870923649"><ele>77.33333333333334</ele><time>2026-04-22T10:31:58Z</time></trkpt><trkpt lat="43.194235035644446" lon="6.045526755440375"><ele>77.66666666666667</ele><time>2026-04-22T10:31:59Z</time></trkpt><trkpt lat="43.194293026157894" lon="6.045445109749292"><ele>78.0</ele><time>2026-04-22T10:32:00Z</time></trkpt><trkpt lat="43.194334431576195" lon="6.045379831733551"><ele>78.33333333333333</ele><time>2026-04-22T10:32:01Z</time></trkpt><trkpt lat="43.19438921160745" lon="6.045260415861335"><ele>78.66666666666666</ele><time>2026-04-22T10:32:03Z</time></trkpt><trkpt lat="43.19448409674774" lon="6.045231598894428"><ele>79.0</ele><time>2026-04-22T10:32:05Z</time></trkpt><trkpt lat="43.19458112531463" lon="6.045331306406539"><ele>79.0</ele><time>2026-04-22T10:32:07Z</time></trkpt><trkpt lat="43.194634064574316" lon="6.045401712170841"><ele>79.0</ele><time>2026-04-22T10:32:09Z</time></trkpt><trkpt lat="43.194637353028604" lon="6.045630993643077"><ele>79.0</ele><time>2026-04-22T10:32:12Z</time></trkpt><trkpt lat="43.19458773507058" lon="6.045758333687197"><ele>79.0</ele><time>2026-04-22T10:32:14Z</time></trkpt><trkpt lat="43.194550972262284" lon="6.045852682302372"><ele>79.0</ele><time>2026-04-22T10:32:16Z</time></trkpt><trkpt lat="43.194614330523656" lon="6.045977235502554"><ele>78.83333333333333</ele><time>2026-04-22T10:32:19Z</time></trkpt><trkpt lat="43.194733133144624" lon="6.046057083190794"><ele>78.66666666666666</ele><time>2026-04-22T10:32:21Z</time></trkpt><trkpt lat="43.19478568317013" lon="6.046115162210585"><ele>78.5</ele><time>2026-04-22T10:32:22Z</time></trkpt><trkpt lat="43.194848052406584" lon="6.04615914929479"><ele>78.33333333333333</ele><time>2026-04-22T10:32:23Z</time></trkpt><trkpt lat="43.19491646692113" lon="6.046197203569015"><ele>78.16666666666667</ele><time>2026-04-22T10:32:24Z</time></trkpt><trkpt lat="43.19498906626956" lon="6.046207878202912"><ele>78.0</ele><time>2026-04-22T10:32:25Z</time></trkpt><trkpt lat="43.19509720681951" lon="6.046271674259496"><ele>78.0</ele><time>2026-04-22T10:32:27Z</time></trkpt><trkpt lat="43.19515076797859" lon="6.046317354722631"><ele>78.0</ele><time>2026-04-22T10:32:28Z</time></trkpt><trkpt lat="43.19521028343274" lon="6.046350468807219"><ele>78.0</ele><time>2026-04-22T10:32:29Z</time></trkpt><trkpt lat="43.195300777532736" lon="6.046336359807442"><ele>78.0</ele><time>2026-04-22T10:32:31Z</time></trkpt><trkpt lat="43.19538050964273" lon="6.046310582098384"><ele>78.0</ele><time>2026-04-22T10:32:33Z</time></trkpt><trkpt lat="43.1953213864234" lon="6.046344164756067"><ele>78.0</ele><time>2026-04-22T10:33:59.999Z</time></trkpt></trkseg></trk></gpx>